<?xml version="1.0" encoding="UTF-8" standalone="no" ?>
<gpx xmlns="http://www.topografix.com/GPX/1/1" xmlns:xsi="http://www.w3.org/2001/XMLSchema-instance" xsi:schemaLocation="http://www.topografix.com/GPX/1/1 http://www.topografix.com/GPX/1/1/gpx.xsd" version="1.1" creator="VisuGPX - https://www.visugpx.com">
  <metadata>
    <name>La Garde Viaur - Laval</name>
    <desc><![CDATA[Boucle autour de La Garde Viaur]]></desc>
  </metadata>
  <wpt lat="44.18788" lon="2.06685">
    <ele>272</ele>
    <name><![CDATA[Lat:44.187876, Lon:2.066854, Ele:272.000000]]></name>
  </wpt>
  <trk>
    <name><![CDATA[Track2017/12/06_13:01]]></name>
    <trkseg>
      <trkpt lat="44.18788" lon="2.06685">
        <ele>272</ele>
        <time>2017-12-06T13:01:55Z</time>
      </trkpt>
      <trkpt lat="44.18789" lon="2.06682">
        <ele>272</ele>
        <time>2017-12-06T13:01:59Z</time>
      </trkpt>
      <trkpt lat="44.1879" lon="2.06679">
        <ele>272</ele>
        <time>2017-12-06T13:02:01Z</time>
      </trkpt>
      <trkpt lat="44.18792" lon="2.06676">
        <ele>272</ele>
        <time>2017-12-06T13:02:03Z</time>
      </trkpt>
      <trkpt lat="44.18792" lon="2.06672">
        <ele>272</ele>
        <time>2017-12-06T13:02:05Z</time>
      </trkpt>
      <trkpt lat="44.18794" lon="2.06669">
        <ele>271</ele>
        <time>2017-12-06T13:02:07Z</time>
      </trkpt>
      <trkpt lat="44.18795" lon="2.06666">
        <ele>271</ele>
        <time>2017-12-06T13:02:09Z</time>
      </trkpt>
      <trkpt lat="44.18795" lon="2.06662">
        <ele>271</ele>
        <time>2017-12-06T13:02:11Z</time>
      </trkpt>
      <trkpt lat="44.18796" lon="2.06659">
        <ele>271</ele>
        <time>2017-12-06T13:02:13Z</time>
      </trkpt>
      <trkpt lat="44.18796" lon="2.06655">
        <ele>271</ele>
        <time>2017-12-06T13:02:15Z</time>
      </trkpt>
      <trkpt lat="44.18796" lon="2.06652">
        <ele>271</ele>
        <time>2017-12-06T13:02:17Z</time>
      </trkpt>
      <trkpt lat="44.18796" lon="2.06649">
        <ele>271</ele>
        <time>2017-12-06T13:02:19Z</time>
      </trkpt>
      <trkpt lat="44.18797" lon="2.06645">
        <ele>271</ele>
        <time>2017-12-06T13:02:21Z</time>
      </trkpt>
      <trkpt lat="44.18797" lon="2.06645">
        <ele>271</ele>
        <time>2017-12-06T13:02:23Z</time>
      </trkpt>
      <trkpt lat="44.18797" lon="2.06645">
        <ele>271</ele>
        <time>2017-12-06T13:02:25Z</time>
      </trkpt>
      <trkpt lat="44.18797" lon="2.06645">
        <ele>272</ele>
        <time>2017-12-06T13:02:27Z</time>
      </trkpt>
      <trkpt lat="44.18797" lon="2.06645">
        <ele>272</ele>
        <time>2017-12-06T13:02:29Z</time>
      </trkpt>
      <trkpt lat="44.18797" lon="2.06645">
        <ele>272</ele>
        <time>2017-12-06T13:02:31Z</time>
      </trkpt>
      <trkpt lat="44.18797" lon="2.06645">
        <ele>272</ele>
        <time>2017-12-06T13:02:33Z</time>
      </trkpt>
      <trkpt lat="44.18797" lon="2.06645">
        <ele>272</ele>
        <time>2017-12-06T13:02:35Z</time>
      </trkpt>
      <trkpt lat="44.18797" lon="2.06641">
        <ele>272</ele>
        <time>2017-12-06T13:02:37Z</time>
      </trkpt>
      <trkpt lat="44.18799" lon="2.06638">
        <ele>272</ele>
        <time>2017-12-06T13:02:39Z</time>
      </trkpt>
      <trkpt lat="44.18799" lon="2.06634">
        <ele>272</ele>
        <time>2017-12-06T13:02:41Z</time>
      </trkpt>
      <trkpt lat="44.18799" lon="2.06632">
        <ele>272</ele>
        <time>2017-12-06T13:02:43Z</time>
      </trkpt>
      <trkpt lat="44.188" lon="2.06628">
        <ele>272</ele>
        <time>2017-12-06T13:02:45Z</time>
      </trkpt>
      <trkpt lat="44.188" lon="2.06625">
        <ele>271</ele>
        <time>2017-12-06T13:02:47Z</time>
      </trkpt>
      <trkpt lat="44.188" lon="2.06621">
        <ele>271</ele>
        <time>2017-12-06T13:02:49Z</time>
      </trkpt>
      <trkpt lat="44.188" lon="2.06618">
        <ele>271</ele>
        <time>2017-12-06T13:02:51Z</time>
      </trkpt>
      <trkpt lat="44.188" lon="2.06615">
        <ele>271</ele>
        <time>2017-12-06T13:02:53Z</time>
      </trkpt>
      <trkpt lat="44.188" lon="2.06612">
        <ele>272</ele>
        <time>2017-12-06T13:02:55Z</time>
      </trkpt>
      <trkpt lat="44.18801" lon="2.06609">
        <ele>271</ele>
        <time>2017-12-06T13:02:57Z</time>
      </trkpt>
      <trkpt lat="44.18801" lon="2.06606">
        <ele>271</ele>
        <time>2017-12-06T13:02:59Z</time>
      </trkpt>
      <trkpt lat="44.18801" lon="2.06603">
        <ele>271</ele>
        <time>2017-12-06T13:03:01Z</time>
      </trkpt>
      <trkpt lat="44.188" lon="2.06599">
        <ele>271</ele>
        <time>2017-12-06T13:03:03Z</time>
      </trkpt>
      <trkpt lat="44.188" lon="2.06596">
        <ele>270</ele>
        <time>2017-12-06T13:03:05Z</time>
      </trkpt>
      <trkpt lat="44.18799" lon="2.06592">
        <ele>270</ele>
        <time>2017-12-06T13:03:07Z</time>
      </trkpt>
      <trkpt lat="44.18799" lon="2.06589">
        <ele>270</ele>
        <time>2017-12-06T13:03:09Z</time>
      </trkpt>
      <trkpt lat="44.18798" lon="2.06586">
        <ele>270</ele>
        <time>2017-12-06T13:03:11Z</time>
      </trkpt>
      <trkpt lat="44.18798" lon="2.06583">
        <ele>270</ele>
        <time>2017-12-06T13:03:13Z</time>
      </trkpt>
      <trkpt lat="44.18797" lon="2.06579">
        <ele>270</ele>
        <time>2017-12-06T13:03:15Z</time>
      </trkpt>
      <trkpt lat="44.18797" lon="2.06576">
        <ele>270</ele>
        <time>2017-12-06T13:03:17Z</time>
      </trkpt>
      <trkpt lat="44.18797" lon="2.06572">
        <ele>270</ele>
        <time>2017-12-06T13:03:19Z</time>
      </trkpt>
      <trkpt lat="44.18796" lon="2.06569">
        <ele>271</ele>
        <time>2017-12-06T13:03:21Z</time>
      </trkpt>
      <trkpt lat="44.18796" lon="2.06566">
        <ele>271</ele>
        <time>2017-12-06T13:03:23Z</time>
      </trkpt>
      <trkpt lat="44.18795" lon="2.06562">
        <ele>271</ele>
        <time>2017-12-06T13:03:25Z</time>
      </trkpt>
      <trkpt lat="44.18794" lon="2.0656">
        <ele>271</ele>
        <time>2017-12-06T13:03:27Z</time>
      </trkpt>
      <trkpt lat="44.18794" lon="2.06557">
        <ele>271</ele>
        <time>2017-12-06T13:03:29Z</time>
      </trkpt>
      <trkpt lat="44.18794" lon="2.06555">
        <ele>271</ele>
        <time>2017-12-06T13:03:31Z</time>
      </trkpt>
      <trkpt lat="44.18794" lon="2.06552">
        <ele>270</ele>
        <time>2017-12-06T13:03:33Z</time>
      </trkpt>
      <trkpt lat="44.18793" lon="2.06549">
        <ele>270</ele>
        <time>2017-12-06T13:03:35Z</time>
      </trkpt>
      <trkpt lat="44.18793" lon="2.06546">
        <ele>269</ele>
        <time>2017-12-06T13:03:37Z</time>
      </trkpt>
      <trkpt lat="44.18793" lon="2.06542">
        <ele>269</ele>
        <time>2017-12-06T13:03:39Z</time>
      </trkpt>
      <trkpt lat="44.18792" lon="2.06538">
        <ele>268</ele>
        <time>2017-12-06T13:03:41Z</time>
      </trkpt>
      <trkpt lat="44.18791" lon="2.06534">
        <ele>268</ele>
        <time>2017-12-06T13:03:43Z</time>
      </trkpt>
      <trkpt lat="44.1879" lon="2.06531">
        <ele>268</ele>
        <time>2017-12-06T13:03:45Z</time>
      </trkpt>
      <trkpt lat="44.18789" lon="2.06529">
        <ele>268</ele>
        <time>2017-12-06T13:03:47Z</time>
      </trkpt>
      <trkpt lat="44.18789" lon="2.06526">
        <ele>268</ele>
        <time>2017-12-06T13:03:49Z</time>
      </trkpt>
      <trkpt lat="44.18788" lon="2.06523">
        <ele>268</ele>
        <time>2017-12-06T13:03:51Z</time>
      </trkpt>
      <trkpt lat="44.18787" lon="2.06521">
        <ele>268</ele>
        <time>2017-12-06T13:03:53Z</time>
      </trkpt>
      <trkpt lat="44.18785" lon="2.06518">
        <ele>268</ele>
        <time>2017-12-06T13:03:55Z</time>
      </trkpt>
      <trkpt lat="44.18784" lon="2.06516">
        <ele>267</ele>
        <time>2017-12-06T13:03:57Z</time>
      </trkpt>
      <trkpt lat="44.18783" lon="2.06514">
        <ele>266</ele>
        <time>2017-12-06T13:03:59Z</time>
      </trkpt>
      <trkpt lat="44.18782" lon="2.06512">
        <ele>266</ele>
        <time>2017-12-06T13:04:01Z</time>
      </trkpt>
      <trkpt lat="44.18782" lon="2.06509">
        <ele>265</ele>
        <time>2017-12-06T13:04:03Z</time>
      </trkpt>
      <trkpt lat="44.18782" lon="2.06509">
        <ele>264</ele>
        <time>2017-12-06T13:04:05Z</time>
      </trkpt>
      <trkpt lat="44.18781" lon="2.06505">
        <ele>263</ele>
        <time>2017-12-06T13:04:07Z</time>
      </trkpt>
      <trkpt lat="44.18782" lon="2.06503">
        <ele>262</ele>
        <time>2017-12-06T13:04:09Z</time>
      </trkpt>
      <trkpt lat="44.18781" lon="2.06498">
        <ele>261</ele>
        <time>2017-12-06T13:04:11Z</time>
      </trkpt>
      <trkpt lat="44.18782" lon="2.06494">
        <ele>260</ele>
        <time>2017-12-06T13:04:13Z</time>
      </trkpt>
      <trkpt lat="44.18782" lon="2.06491">
        <ele>259</ele>
        <time>2017-12-06T13:04:15Z</time>
      </trkpt>
      <trkpt lat="44.18782" lon="2.06488">
        <ele>259</ele>
        <time>2017-12-06T13:04:17Z</time>
      </trkpt>
      <trkpt lat="44.18783" lon="2.06484">
        <ele>258</ele>
        <time>2017-12-06T13:04:19Z</time>
      </trkpt>
      <trkpt lat="44.18782" lon="2.0648">
        <ele>258</ele>
        <time>2017-12-06T13:04:21Z</time>
      </trkpt>
      <trkpt lat="44.18781" lon="2.06477">
        <ele>258</ele>
        <time>2017-12-06T13:04:23Z</time>
      </trkpt>
      <trkpt lat="44.18781" lon="2.06473">
        <ele>258</ele>
        <time>2017-12-06T13:04:25Z</time>
      </trkpt>
      <trkpt lat="44.18781" lon="2.06468">
        <ele>258</ele>
        <time>2017-12-06T13:04:27Z</time>
      </trkpt>
      <trkpt lat="44.18781" lon="2.06468">
        <ele>257</ele>
        <time>2017-12-06T13:04:29Z</time>
      </trkpt>
      <trkpt lat="44.1878" lon="2.06463">
        <ele>257</ele>
        <time>2017-12-06T13:04:31Z</time>
      </trkpt>
      <trkpt lat="44.18778" lon="2.0646">
        <ele>257</ele>
        <time>2017-12-06T13:04:33Z</time>
      </trkpt>
      <trkpt lat="44.18776" lon="2.06456">
        <ele>256</ele>
        <time>2017-12-06T13:04:35Z</time>
      </trkpt>
      <trkpt lat="44.18774" lon="2.06451">
        <ele>255</ele>
        <time>2017-12-06T13:04:37Z</time>
      </trkpt>
      <trkpt lat="44.18773" lon="2.06448">
        <ele>255</ele>
        <time>2017-12-06T13:04:39Z</time>
      </trkpt>
      <trkpt lat="44.1877" lon="2.06446">
        <ele>254</ele>
        <time>2017-12-06T13:04:41Z</time>
      </trkpt>
      <trkpt lat="44.18769" lon="2.06445">
        <ele>253</ele>
        <time>2017-12-06T13:04:43Z</time>
      </trkpt>
      <trkpt lat="44.18767" lon="2.06442">
        <ele>252</ele>
        <time>2017-12-06T13:04:45Z</time>
      </trkpt>
      <trkpt lat="44.18767" lon="2.06438">
        <ele>252</ele>
        <time>2017-12-06T13:04:47Z</time>
      </trkpt>
      <trkpt lat="44.18765" lon="2.06432">
        <ele>251</ele>
        <time>2017-12-06T13:04:49Z</time>
      </trkpt>
      <trkpt lat="44.18763" lon="2.06429">
        <ele>251</ele>
        <time>2017-12-06T13:04:51Z</time>
      </trkpt>
      <trkpt lat="44.18762" lon="2.06425">
        <ele>250</ele>
        <time>2017-12-06T13:04:53Z</time>
      </trkpt>
      <trkpt lat="44.18762" lon="2.06422">
        <ele>250</ele>
        <time>2017-12-06T13:04:55Z</time>
      </trkpt>
      <trkpt lat="44.1876" lon="2.06417">
        <ele>250</ele>
        <time>2017-12-06T13:04:57Z</time>
      </trkpt>
      <trkpt lat="44.18759" lon="2.06413">
        <ele>250</ele>
        <time>2017-12-06T13:04:59Z</time>
      </trkpt>
      <trkpt lat="44.18758" lon="2.0641">
        <ele>250</ele>
        <time>2017-12-06T13:05:01Z</time>
      </trkpt>
      <trkpt lat="44.18756" lon="2.06407">
        <ele>251</ele>
        <time>2017-12-06T13:05:03Z</time>
      </trkpt>
      <trkpt lat="44.18755" lon="2.06403">
        <ele>251</ele>
        <time>2017-12-06T13:05:05Z</time>
      </trkpt>
      <trkpt lat="44.18754" lon="2.06399">
        <ele>251</ele>
        <time>2017-12-06T13:05:07Z</time>
      </trkpt>
      <trkpt lat="44.18752" lon="2.06394">
        <ele>252</ele>
        <time>2017-12-06T13:05:09Z</time>
      </trkpt>
      <trkpt lat="44.18751" lon="2.0639">
        <ele>252</ele>
        <time>2017-12-06T13:05:11Z</time>
      </trkpt>
      <trkpt lat="44.18749" lon="2.06386">
        <ele>252</ele>
        <time>2017-12-06T13:05:13Z</time>
      </trkpt>
      <trkpt lat="44.18747" lon="2.06381">
        <ele>252</ele>
        <time>2017-12-06T13:05:15Z</time>
      </trkpt>
      <trkpt lat="44.18746" lon="2.06377">
        <ele>253</ele>
        <time>2017-12-06T13:05:17Z</time>
      </trkpt>
      <trkpt lat="44.18745" lon="2.06372">
        <ele>253</ele>
        <time>2017-12-06T13:05:19Z</time>
      </trkpt>
      <trkpt lat="44.18744" lon="2.06368">
        <ele>253</ele>
        <time>2017-12-06T13:05:21Z</time>
      </trkpt>
      <trkpt lat="44.18743" lon="2.06364">
        <ele>253</ele>
        <time>2017-12-06T13:05:23Z</time>
      </trkpt>
      <trkpt lat="44.18743" lon="2.0636">
        <ele>253</ele>
        <time>2017-12-06T13:05:25Z</time>
      </trkpt>
      <trkpt lat="44.18742" lon="2.06357">
        <ele>253</ele>
        <time>2017-12-06T13:05:27Z</time>
      </trkpt>
      <trkpt lat="44.18742" lon="2.06352">
        <ele>253</ele>
        <time>2017-12-06T13:05:29Z</time>
      </trkpt>
      <trkpt lat="44.18742" lon="2.06348">
        <ele>253</ele>
        <time>2017-12-06T13:05:31Z</time>
      </trkpt>
      <trkpt lat="44.18741" lon="2.06344">
        <ele>253</ele>
        <time>2017-12-06T13:05:33Z</time>
      </trkpt>
      <trkpt lat="44.18741" lon="2.06339">
        <ele>253</ele>
        <time>2017-12-06T13:05:35Z</time>
      </trkpt>
      <trkpt lat="44.18741" lon="2.06334">
        <ele>253</ele>
        <time>2017-12-06T13:05:37Z</time>
      </trkpt>
      <trkpt lat="44.18741" lon="2.06329">
        <ele>254</ele>
        <time>2017-12-06T13:05:39Z</time>
      </trkpt>
      <trkpt lat="44.18741" lon="2.06324">
        <ele>254</ele>
        <time>2017-12-06T13:05:41Z</time>
      </trkpt>
      <trkpt lat="44.1874" lon="2.0632">
        <ele>255</ele>
        <time>2017-12-06T13:05:43Z</time>
      </trkpt>
      <trkpt lat="44.1874" lon="2.06316">
        <ele>255</ele>
        <time>2017-12-06T13:05:45Z</time>
      </trkpt>
      <trkpt lat="44.18739" lon="2.06314">
        <ele>256</ele>
        <time>2017-12-06T13:05:47Z</time>
      </trkpt>
      <trkpt lat="44.18739" lon="2.0631">
        <ele>256</ele>
        <time>2017-12-06T13:05:49Z</time>
      </trkpt>
      <trkpt lat="44.18738" lon="2.06305">
        <ele>256</ele>
        <time>2017-12-06T13:05:51Z</time>
      </trkpt>
      <trkpt lat="44.18736" lon="2.06301">
        <ele>256</ele>
        <time>2017-12-06T13:05:53Z</time>
      </trkpt>
      <trkpt lat="44.18734" lon="2.06297">
        <ele>256</ele>
        <time>2017-12-06T13:05:55Z</time>
      </trkpt>
      <trkpt lat="44.18733" lon="2.06294">
        <ele>255</ele>
        <time>2017-12-06T13:05:57Z</time>
      </trkpt>
      <trkpt lat="44.18731" lon="2.06291">
        <ele>255</ele>
        <time>2017-12-06T13:05:59Z</time>
      </trkpt>
      <trkpt lat="44.18729" lon="2.06285">
        <ele>254</ele>
        <time>2017-12-06T13:06:01Z</time>
      </trkpt>
      <trkpt lat="44.18728" lon="2.0628">
        <ele>254</ele>
        <time>2017-12-06T13:06:03Z</time>
      </trkpt>
      <trkpt lat="44.18727" lon="2.06277">
        <ele>254</ele>
        <time>2017-12-06T13:06:05Z</time>
      </trkpt>
      <trkpt lat="44.18725" lon="2.06273">
        <ele>254</ele>
        <time>2017-12-06T13:06:07Z</time>
      </trkpt>
      <trkpt lat="44.18723" lon="2.06269">
        <ele>254</ele>
        <time>2017-12-06T13:06:09Z</time>
      </trkpt>
      <trkpt lat="44.18721" lon="2.06266">
        <ele>253</ele>
        <time>2017-12-06T13:06:11Z</time>
      </trkpt>
      <trkpt lat="44.18719" lon="2.06263">
        <ele>253</ele>
        <time>2017-12-06T13:06:13Z</time>
      </trkpt>
      <trkpt lat="44.18717" lon="2.06259">
        <ele>254</ele>
        <time>2017-12-06T13:06:15Z</time>
      </trkpt>
      <trkpt lat="44.18715" lon="2.06256">
        <ele>254</ele>
        <time>2017-12-06T13:06:17Z</time>
      </trkpt>
      <trkpt lat="44.18713" lon="2.06253">
        <ele>254</ele>
        <time>2017-12-06T13:06:19Z</time>
      </trkpt>
      <trkpt lat="44.1871" lon="2.06248">
        <ele>254</ele>
        <time>2017-12-06T13:06:21Z</time>
      </trkpt>
      <trkpt lat="44.18707" lon="2.06244">
        <ele>254</ele>
        <time>2017-12-06T13:06:23Z</time>
      </trkpt>
      <trkpt lat="44.18706" lon="2.06242">
        <ele>255</ele>
        <time>2017-12-06T13:06:25Z</time>
      </trkpt>
      <trkpt lat="44.18703" lon="2.06239">
        <ele>255</ele>
        <time>2017-12-06T13:06:27Z</time>
      </trkpt>
      <trkpt lat="44.18701" lon="2.06237">
        <ele>256</ele>
        <time>2017-12-06T13:06:29Z</time>
      </trkpt>
      <trkpt lat="44.187" lon="2.06235">
        <ele>256</ele>
        <time>2017-12-06T13:06:31Z</time>
      </trkpt>
      <trkpt lat="44.18698" lon="2.06232">
        <ele>256</ele>
        <time>2017-12-06T13:06:33Z</time>
      </trkpt>
      <trkpt lat="44.18698" lon="2.0623">
        <ele>256</ele>
        <time>2017-12-06T13:06:35Z</time>
      </trkpt>
      <trkpt lat="44.18697" lon="2.06226">
        <ele>255</ele>
        <time>2017-12-06T13:06:37Z</time>
      </trkpt>
      <trkpt lat="44.18696" lon="2.06222">
        <ele>255</ele>
        <time>2017-12-06T13:06:39Z</time>
      </trkpt>
      <trkpt lat="44.18696" lon="2.06219">
        <ele>255</ele>
        <time>2017-12-06T13:06:41Z</time>
      </trkpt>
      <trkpt lat="44.18696" lon="2.06215">
        <ele>255</ele>
        <time>2017-12-06T13:06:43Z</time>
      </trkpt>
      <trkpt lat="44.18696" lon="2.06212">
        <ele>255</ele>
        <time>2017-12-06T13:06:45Z</time>
      </trkpt>
      <trkpt lat="44.18696" lon="2.06208">
        <ele>255</ele>
        <time>2017-12-06T13:06:47Z</time>
      </trkpt>
      <trkpt lat="44.18696" lon="2.06205">
        <ele>255</ele>
        <time>2017-12-06T13:06:49Z</time>
      </trkpt>
      <trkpt lat="44.18696" lon="2.06199">
        <ele>255</ele>
        <time>2017-12-06T13:06:51Z</time>
      </trkpt>
      <trkpt lat="44.18697" lon="2.06196">
        <ele>255</ele>
        <time>2017-12-06T13:06:53Z</time>
      </trkpt>
      <trkpt lat="44.18699" lon="2.06192">
        <ele>255</ele>
        <time>2017-12-06T13:06:55Z</time>
      </trkpt>
      <trkpt lat="44.18701" lon="2.0619">
        <ele>255</ele>
        <time>2017-12-06T13:06:57Z</time>
      </trkpt>
      <trkpt lat="44.18702" lon="2.06186">
        <ele>255</ele>
        <time>2017-12-06T13:06:59Z</time>
      </trkpt>
      <trkpt lat="44.18704" lon="2.06184">
        <ele>254</ele>
        <time>2017-12-06T13:07:01Z</time>
      </trkpt>
      <trkpt lat="44.18706" lon="2.06181">
        <ele>254</ele>
        <time>2017-12-06T13:07:03Z</time>
      </trkpt>
      <trkpt lat="44.18707" lon="2.06179">
        <ele>253</ele>
        <time>2017-12-06T13:07:05Z</time>
      </trkpt>
      <trkpt lat="44.18708" lon="2.06177">
        <ele>253</ele>
        <time>2017-12-06T13:07:07Z</time>
      </trkpt>
      <trkpt lat="44.18709" lon="2.06174">
        <ele>252</ele>
        <time>2017-12-06T13:07:09Z</time>
      </trkpt>
      <trkpt lat="44.18711" lon="2.06172">
        <ele>251</ele>
        <time>2017-12-06T13:07:11Z</time>
      </trkpt>
      <trkpt lat="44.18713" lon="2.0617">
        <ele>250</ele>
        <time>2017-12-06T13:07:13Z</time>
      </trkpt>
      <trkpt lat="44.18715" lon="2.06167">
        <ele>249</ele>
        <time>2017-12-06T13:07:15Z</time>
      </trkpt>
      <trkpt lat="44.18716" lon="2.06164">
        <ele>249</ele>
        <time>2017-12-06T13:07:17Z</time>
      </trkpt>
      <trkpt lat="44.18718" lon="2.0616">
        <ele>248</ele>
        <time>2017-12-06T13:07:19Z</time>
      </trkpt>
      <trkpt lat="44.18719" lon="2.06157">
        <ele>248</ele>
        <time>2017-12-06T13:07:21Z</time>
      </trkpt>
      <trkpt lat="44.1872" lon="2.06155">
        <ele>248</ele>
        <time>2017-12-06T13:07:23Z</time>
      </trkpt>
      <trkpt lat="44.18721" lon="2.06151">
        <ele>248</ele>
        <time>2017-12-06T13:07:25Z</time>
      </trkpt>
      <trkpt lat="44.18723" lon="2.06148">
        <ele>248</ele>
        <time>2017-12-06T13:07:27Z</time>
      </trkpt>
      <trkpt lat="44.18724" lon="2.06145">
        <ele>249</ele>
        <time>2017-12-06T13:07:29Z</time>
      </trkpt>
      <trkpt lat="44.18725" lon="2.06142">
        <ele>249</ele>
        <time>2017-12-06T13:07:31Z</time>
      </trkpt>
      <trkpt lat="44.18727" lon="2.06139">
        <ele>249</ele>
        <time>2017-12-06T13:07:33Z</time>
      </trkpt>
      <trkpt lat="44.18728" lon="2.06136">
        <ele>249</ele>
        <time>2017-12-06T13:07:35Z</time>
      </trkpt>
      <trkpt lat="44.18729" lon="2.06132">
        <ele>250</ele>
        <time>2017-12-06T13:07:37Z</time>
      </trkpt>
      <trkpt lat="44.1873" lon="2.06129">
        <ele>250</ele>
        <time>2017-12-06T13:07:39Z</time>
      </trkpt>
      <trkpt lat="44.18731" lon="2.06126">
        <ele>250</ele>
        <time>2017-12-06T13:07:41Z</time>
      </trkpt>
      <trkpt lat="44.18733" lon="2.06122">
        <ele>250</ele>
        <time>2017-12-06T13:07:43Z</time>
      </trkpt>
      <trkpt lat="44.18734" lon="2.06117">
        <ele>250</ele>
        <time>2017-12-06T13:07:45Z</time>
      </trkpt>
      <trkpt lat="44.18736" lon="2.06113">
        <ele>250</ele>
        <time>2017-12-06T13:07:47Z</time>
      </trkpt>
      <trkpt lat="44.18738" lon="2.06108">
        <ele>250</ele>
        <time>2017-12-06T13:07:49Z</time>
      </trkpt>
      <trkpt lat="44.18739" lon="2.06105">
        <ele>250</ele>
        <time>2017-12-06T13:07:51Z</time>
      </trkpt>
      <trkpt lat="44.18741" lon="2.06102">
        <ele>250</ele>
        <time>2017-12-06T13:07:53Z</time>
      </trkpt>
      <trkpt lat="44.18743" lon="2.06098">
        <ele>250</ele>
        <time>2017-12-06T13:07:55Z</time>
      </trkpt>
      <trkpt lat="44.18744" lon="2.06094">
        <ele>250</ele>
        <time>2017-12-06T13:07:57Z</time>
      </trkpt>
      <trkpt lat="44.18745" lon="2.0609">
        <ele>251</ele>
        <time>2017-12-06T13:07:59Z</time>
      </trkpt>
      <trkpt lat="44.18745" lon="2.06085">
        <ele>251</ele>
        <time>2017-12-06T13:08:01Z</time>
      </trkpt>
      <trkpt lat="44.18746" lon="2.06082">
        <ele>251</ele>
        <time>2017-12-06T13:08:03Z</time>
      </trkpt>
      <trkpt lat="44.18747" lon="2.06077">
        <ele>251</ele>
        <time>2017-12-06T13:08:05Z</time>
      </trkpt>
      <trkpt lat="44.18747" lon="2.06073">
        <ele>251</ele>
        <time>2017-12-06T13:08:07Z</time>
      </trkpt>
      <trkpt lat="44.18748" lon="2.06069">
        <ele>251</ele>
        <time>2017-12-06T13:08:09Z</time>
      </trkpt>
      <trkpt lat="44.18748" lon="2.06064">
        <ele>251</ele>
        <time>2017-12-06T13:08:11Z</time>
      </trkpt>
      <trkpt lat="44.18748" lon="2.06058">
        <ele>251</ele>
        <time>2017-12-06T13:08:13Z</time>
      </trkpt>
      <trkpt lat="44.18748" lon="2.06055">
        <ele>251</ele>
        <time>2017-12-06T13:08:15Z</time>
      </trkpt>
      <trkpt lat="44.18748" lon="2.0605">
        <ele>252</ele>
        <time>2017-12-06T13:08:17Z</time>
      </trkpt>
      <trkpt lat="44.18748" lon="2.06045">
        <ele>252</ele>
        <time>2017-12-06T13:08:19Z</time>
      </trkpt>
      <trkpt lat="44.18749" lon="2.06042">
        <ele>252</ele>
        <time>2017-12-06T13:08:21Z</time>
      </trkpt>
      <trkpt lat="44.18749" lon="2.06037">
        <ele>253</ele>
        <time>2017-12-06T13:08:23Z</time>
      </trkpt>
      <trkpt lat="44.1875" lon="2.06033">
        <ele>253</ele>
        <time>2017-12-06T13:08:25Z</time>
      </trkpt>
      <trkpt lat="44.1875" lon="2.06028">
        <ele>253</ele>
        <time>2017-12-06T13:08:27Z</time>
      </trkpt>
      <trkpt lat="44.1875" lon="2.06023">
        <ele>254</ele>
        <time>2017-12-06T13:08:29Z</time>
      </trkpt>
      <trkpt lat="44.1875" lon="2.06018">
        <ele>254</ele>
        <time>2017-12-06T13:08:31Z</time>
      </trkpt>
      <trkpt lat="44.1875" lon="2.06013">
        <ele>254</ele>
        <time>2017-12-06T13:08:33Z</time>
      </trkpt>
      <trkpt lat="44.18751" lon="2.06008">
        <ele>254</ele>
        <time>2017-12-06T13:08:35Z</time>
      </trkpt>
      <trkpt lat="44.18751" lon="2.06004">
        <ele>255</ele>
        <time>2017-12-06T13:08:37Z</time>
      </trkpt>
      <trkpt lat="44.18751" lon="2.06">
        <ele>255</ele>
        <time>2017-12-06T13:08:39Z</time>
      </trkpt>
      <trkpt lat="44.18752" lon="2.05996">
        <ele>255</ele>
        <time>2017-12-06T13:08:41Z</time>
      </trkpt>
      <trkpt lat="44.18752" lon="2.05991">
        <ele>256</ele>
        <time>2017-12-06T13:08:43Z</time>
      </trkpt>
      <trkpt lat="44.18752" lon="2.05986">
        <ele>256</ele>
        <time>2017-12-06T13:08:45Z</time>
      </trkpt>
      <trkpt lat="44.18752" lon="2.05982">
        <ele>257</ele>
        <time>2017-12-06T13:08:47Z</time>
      </trkpt>
      <trkpt lat="44.18754" lon="2.05979">
        <ele>257</ele>
        <time>2017-12-06T13:08:49Z</time>
      </trkpt>
      <trkpt lat="44.18755" lon="2.05976">
        <ele>257</ele>
        <time>2017-12-06T13:08:51Z</time>
      </trkpt>
      <trkpt lat="44.18755" lon="2.05972">
        <ele>257</ele>
        <time>2017-12-06T13:08:53Z</time>
      </trkpt>
      <trkpt lat="44.18755" lon="2.05968">
        <ele>258</ele>
        <time>2017-12-06T13:08:55Z</time>
      </trkpt>
      <trkpt lat="44.18755" lon="2.05964">
        <ele>258</ele>
        <time>2017-12-06T13:08:57Z</time>
      </trkpt>
      <trkpt lat="44.18755" lon="2.0596">
        <ele>258</ele>
        <time>2017-12-06T13:08:59Z</time>
      </trkpt>
      <trkpt lat="44.18755" lon="2.05957">
        <ele>258</ele>
        <time>2017-12-06T13:09:01Z</time>
      </trkpt>
      <trkpt lat="44.18756" lon="2.05954">
        <ele>258</ele>
        <time>2017-12-06T13:09:03Z</time>
      </trkpt>
      <trkpt lat="44.18756" lon="2.0595">
        <ele>258</ele>
        <time>2017-12-06T13:09:05Z</time>
      </trkpt>
      <trkpt lat="44.18757" lon="2.05946">
        <ele>258</ele>
        <time>2017-12-06T13:09:07Z</time>
      </trkpt>
      <trkpt lat="44.18757" lon="2.05942">
        <ele>258</ele>
        <time>2017-12-06T13:09:09Z</time>
      </trkpt>
      <trkpt lat="44.18756" lon="2.05937">
        <ele>258</ele>
        <time>2017-12-06T13:09:11Z</time>
      </trkpt>
      <trkpt lat="44.18756" lon="2.05934">
        <ele>258</ele>
        <time>2017-12-06T13:09:13Z</time>
      </trkpt>
      <trkpt lat="44.18755" lon="2.0593">
        <ele>259</ele>
        <time>2017-12-06T13:09:15Z</time>
      </trkpt>
      <trkpt lat="44.18754" lon="2.05926">
        <ele>259</ele>
        <time>2017-12-06T13:09:17Z</time>
      </trkpt>
      <trkpt lat="44.18753" lon="2.05922">
        <ele>259</ele>
        <time>2017-12-06T13:09:19Z</time>
      </trkpt>
      <trkpt lat="44.18753" lon="2.05919">
        <ele>260</ele>
        <time>2017-12-06T13:09:21Z</time>
      </trkpt>
      <trkpt lat="44.18754" lon="2.05915">
        <ele>260</ele>
        <time>2017-12-06T13:09:23Z</time>
      </trkpt>
      <trkpt lat="44.18753" lon="2.05913">
        <ele>260</ele>
        <time>2017-12-06T13:09:25Z</time>
      </trkpt>
      <trkpt lat="44.18755" lon="2.05909">
        <ele>260</ele>
        <time>2017-12-06T13:09:27Z</time>
      </trkpt>
      <trkpt lat="44.18755" lon="2.05904">
        <ele>260</ele>
        <time>2017-12-06T13:09:29Z</time>
      </trkpt>
      <trkpt lat="44.18756" lon="2.05899">
        <ele>260</ele>
        <time>2017-12-06T13:09:31Z</time>
      </trkpt>
      <trkpt lat="44.18757" lon="2.05895">
        <ele>261</ele>
        <time>2017-12-06T13:09:33Z</time>
      </trkpt>
      <trkpt lat="44.18758" lon="2.05891">
        <ele>261</ele>
        <time>2017-12-06T13:09:35Z</time>
      </trkpt>
      <trkpt lat="44.18758" lon="2.05886">
        <ele>261</ele>
        <time>2017-12-06T13:09:37Z</time>
      </trkpt>
      <trkpt lat="44.18759" lon="2.05881">
        <ele>262</ele>
        <time>2017-12-06T13:09:39Z</time>
      </trkpt>
      <trkpt lat="44.18759" lon="2.05878">
        <ele>262</ele>
        <time>2017-12-06T13:09:41Z</time>
      </trkpt>
      <trkpt lat="44.18759" lon="2.05874">
        <ele>263</ele>
        <time>2017-12-06T13:09:43Z</time>
      </trkpt>
      <trkpt lat="44.18759" lon="2.05869">
        <ele>263</ele>
        <time>2017-12-06T13:09:45Z</time>
      </trkpt>
      <trkpt lat="44.18759" lon="2.05866">
        <ele>263</ele>
        <time>2017-12-06T13:09:47Z</time>
      </trkpt>
      <trkpt lat="44.18759" lon="2.05862">
        <ele>264</ele>
        <time>2017-12-06T13:09:49Z</time>
      </trkpt>
      <trkpt lat="44.18759" lon="2.05858">
        <ele>264</ele>
        <time>2017-12-06T13:09:51Z</time>
      </trkpt>
      <trkpt lat="44.1876" lon="2.05854">
        <ele>264</ele>
        <time>2017-12-06T13:09:53Z</time>
      </trkpt>
      <trkpt lat="44.18759" lon="2.05849">
        <ele>265</ele>
        <time>2017-12-06T13:09:55Z</time>
      </trkpt>
      <trkpt lat="44.1876" lon="2.05846">
        <ele>265</ele>
        <time>2017-12-06T13:09:57Z</time>
      </trkpt>
      <trkpt lat="44.1876" lon="2.05842">
        <ele>265</ele>
        <time>2017-12-06T13:09:59Z</time>
      </trkpt>
      <trkpt lat="44.1876" lon="2.05839">
        <ele>265</ele>
        <time>2017-12-06T13:10:01Z</time>
      </trkpt>
      <trkpt lat="44.1876" lon="2.05835">
        <ele>265</ele>
        <time>2017-12-06T13:10:03Z</time>
      </trkpt>
      <trkpt lat="44.1876" lon="2.05832">
        <ele>265</ele>
        <time>2017-12-06T13:10:05Z</time>
      </trkpt>
      <trkpt lat="44.18759" lon="2.05827">
        <ele>265</ele>
        <time>2017-12-06T13:10:07Z</time>
      </trkpt>
      <trkpt lat="44.18758" lon="2.05823">
        <ele>265</ele>
        <time>2017-12-06T13:10:09Z</time>
      </trkpt>
      <trkpt lat="44.18757" lon="2.05819">
        <ele>265</ele>
        <time>2017-12-06T13:10:11Z</time>
      </trkpt>
      <trkpt lat="44.18757" lon="2.05815">
        <ele>266</ele>
        <time>2017-12-06T13:10:13Z</time>
      </trkpt>
      <trkpt lat="44.18757" lon="2.05813">
        <ele>266</ele>
        <time>2017-12-06T13:10:15Z</time>
      </trkpt>
      <trkpt lat="44.18757" lon="2.05809">
        <ele>266</ele>
        <time>2017-12-06T13:10:17Z</time>
      </trkpt>
      <trkpt lat="44.18756" lon="2.05806">
        <ele>266</ele>
        <time>2017-12-06T13:10:19Z</time>
      </trkpt>
      <trkpt lat="44.18756" lon="2.05802">
        <ele>266</ele>
        <time>2017-12-06T13:10:21Z</time>
      </trkpt>
      <trkpt lat="44.18756" lon="2.05799">
        <ele>266</ele>
        <time>2017-12-06T13:10:23Z</time>
      </trkpt>
      <trkpt lat="44.18755" lon="2.05796">
        <ele>266</ele>
        <time>2017-12-06T13:10:25Z</time>
      </trkpt>
      <trkpt lat="44.18754" lon="2.05791">
        <ele>265</ele>
        <time>2017-12-06T13:10:27Z</time>
      </trkpt>
      <trkpt lat="44.18754" lon="2.05786">
        <ele>265</ele>
        <time>2017-12-06T13:10:29Z</time>
      </trkpt>
      <trkpt lat="44.18753" lon="2.05782">
        <ele>265</ele>
        <time>2017-12-06T13:10:31Z</time>
      </trkpt>
      <trkpt lat="44.18753" lon="2.05778">
        <ele>265</ele>
        <time>2017-12-06T13:10:33Z</time>
      </trkpt>
      <trkpt lat="44.18752" lon="2.05774">
        <ele>264</ele>
        <time>2017-12-06T13:10:35Z</time>
      </trkpt>
      <trkpt lat="44.18751" lon="2.0577">
        <ele>264</ele>
        <time>2017-12-06T13:10:37Z</time>
      </trkpt>
      <trkpt lat="44.18751" lon="2.05766">
        <ele>264</ele>
        <time>2017-12-06T13:10:39Z</time>
      </trkpt>
      <trkpt lat="44.1875" lon="2.05763">
        <ele>264</ele>
        <time>2017-12-06T13:10:41Z</time>
      </trkpt>
      <trkpt lat="44.1875" lon="2.05759">
        <ele>264</ele>
        <time>2017-12-06T13:10:43Z</time>
      </trkpt>
      <trkpt lat="44.18749" lon="2.05755">
        <ele>264</ele>
        <time>2017-12-06T13:10:45Z</time>
      </trkpt>
      <trkpt lat="44.18747" lon="2.0575">
        <ele>264</ele>
        <time>2017-12-06T13:10:47Z</time>
      </trkpt>
      <trkpt lat="44.18746" lon="2.05745">
        <ele>264</ele>
        <time>2017-12-06T13:10:49Z</time>
      </trkpt>
      <trkpt lat="44.18745" lon="2.0574">
        <ele>264</ele>
        <time>2017-12-06T13:10:51Z</time>
      </trkpt>
      <trkpt lat="44.18743" lon="2.05735">
        <ele>264</ele>
        <time>2017-12-06T13:10:53Z</time>
      </trkpt>
      <trkpt lat="44.18742" lon="2.05731">
        <ele>265</ele>
        <time>2017-12-06T13:10:55Z</time>
      </trkpt>
      <trkpt lat="44.18741" lon="2.05727">
        <ele>265</ele>
        <time>2017-12-06T13:10:57Z</time>
      </trkpt>
      <trkpt lat="44.1874" lon="2.05723">
        <ele>265</ele>
        <time>2017-12-06T13:10:59Z</time>
      </trkpt>
      <trkpt lat="44.18739" lon="2.05718">
        <ele>265</ele>
        <time>2017-12-06T13:11:01Z</time>
      </trkpt>
      <trkpt lat="44.18737" lon="2.05714">
        <ele>266</ele>
        <time>2017-12-06T13:11:03Z</time>
      </trkpt>
      <trkpt lat="44.18736" lon="2.05709">
        <ele>266</ele>
        <time>2017-12-06T13:11:05Z</time>
      </trkpt>
      <trkpt lat="44.18734" lon="2.05705">
        <ele>266</ele>
        <time>2017-12-06T13:11:07Z</time>
      </trkpt>
      <trkpt lat="44.18732" lon="2.05701">
        <ele>266</ele>
        <time>2017-12-06T13:11:09Z</time>
      </trkpt>
      <trkpt lat="44.1873" lon="2.05699">
        <ele>266</ele>
        <time>2017-12-06T13:11:11Z</time>
      </trkpt>
      <trkpt lat="44.18728" lon="2.05696">
        <ele>266</ele>
        <time>2017-12-06T13:11:13Z</time>
      </trkpt>
      <trkpt lat="44.18725" lon="2.05694">
        <ele>267</ele>
        <time>2017-12-06T13:11:15Z</time>
      </trkpt>
      <trkpt lat="44.18723" lon="2.05692">
        <ele>267</ele>
        <time>2017-12-06T13:11:17Z</time>
      </trkpt>
      <trkpt lat="44.1872" lon="2.05689">
        <ele>267</ele>
        <time>2017-12-06T13:11:19Z</time>
      </trkpt>
      <trkpt lat="44.18716" lon="2.05687">
        <ele>267</ele>
        <time>2017-12-06T13:11:21Z</time>
      </trkpt>
      <trkpt lat="44.18712" lon="2.05685">
        <ele>267</ele>
        <time>2017-12-06T13:11:23Z</time>
      </trkpt>
      <trkpt lat="44.18709" lon="2.05683">
        <ele>268</ele>
        <time>2017-12-06T13:11:25Z</time>
      </trkpt>
      <trkpt lat="44.18705" lon="2.05683">
        <ele>268</ele>
        <time>2017-12-06T13:11:27Z</time>
      </trkpt>
      <trkpt lat="44.18702" lon="2.05683">
        <ele>269</ele>
        <time>2017-12-06T13:11:29Z</time>
      </trkpt>
      <trkpt lat="44.18699" lon="2.05683">
        <ele>269</ele>
        <time>2017-12-06T13:11:31Z</time>
      </trkpt>
      <trkpt lat="44.18696" lon="2.05682">
        <ele>270</ele>
        <time>2017-12-06T13:11:33Z</time>
      </trkpt>
      <trkpt lat="44.18693" lon="2.05682">
        <ele>270</ele>
        <time>2017-12-06T13:11:35Z</time>
      </trkpt>
      <trkpt lat="44.1869" lon="2.05682">
        <ele>271</ele>
        <time>2017-12-06T13:11:37Z</time>
      </trkpt>
      <trkpt lat="44.18688" lon="2.05682">
        <ele>271</ele>
        <time>2017-12-06T13:11:39Z</time>
      </trkpt>
      <trkpt lat="44.18686" lon="2.05683">
        <ele>271</ele>
        <time>2017-12-06T13:11:41Z</time>
      </trkpt>
      <trkpt lat="44.18683" lon="2.05683">
        <ele>270</ele>
        <time>2017-12-06T13:11:43Z</time>
      </trkpt>
      <trkpt lat="44.1868" lon="2.05684">
        <ele>270</ele>
        <time>2017-12-06T13:11:45Z</time>
      </trkpt>
      <trkpt lat="44.18677" lon="2.05686">
        <ele>270</ele>
        <time>2017-12-06T13:11:47Z</time>
      </trkpt>
      <trkpt lat="44.18674" lon="2.05688">
        <ele>269</ele>
        <time>2017-12-06T13:11:49Z</time>
      </trkpt>
      <trkpt lat="44.18671" lon="2.05688">
        <ele>268</ele>
        <time>2017-12-06T13:11:51Z</time>
      </trkpt>
      <trkpt lat="44.18669" lon="2.05689">
        <ele>267</ele>
        <time>2017-12-06T13:11:53Z</time>
      </trkpt>
      <trkpt lat="44.18667" lon="2.0569">
        <ele>266</ele>
        <time>2017-12-06T13:11:55Z</time>
      </trkpt>
      <trkpt lat="44.18665" lon="2.05692">
        <ele>265</ele>
        <time>2017-12-06T13:11:57Z</time>
      </trkpt>
      <trkpt lat="44.18663" lon="2.05693">
        <ele>265</ele>
        <time>2017-12-06T13:11:59Z</time>
      </trkpt>
      <trkpt lat="44.1866" lon="2.05694">
        <ele>264</ele>
        <time>2017-12-06T13:12:01Z</time>
      </trkpt>
      <trkpt lat="44.18657" lon="2.05695">
        <ele>263</ele>
        <time>2017-12-06T13:12:03Z</time>
      </trkpt>
      <trkpt lat="44.18655" lon="2.05695">
        <ele>262</ele>
        <time>2017-12-06T13:12:05Z</time>
      </trkpt>
      <trkpt lat="44.18652" lon="2.05696">
        <ele>261</ele>
        <time>2017-12-06T13:12:07Z</time>
      </trkpt>
      <trkpt lat="44.1865" lon="2.05697">
        <ele>260</ele>
        <time>2017-12-06T13:12:09Z</time>
      </trkpt>
      <trkpt lat="44.18647" lon="2.05697">
        <ele>260</ele>
        <time>2017-12-06T13:12:11Z</time>
      </trkpt>
      <trkpt lat="44.18645" lon="2.05696">
        <ele>260</ele>
        <time>2017-12-06T13:12:14Z</time>
      </trkpt>
      <trkpt lat="44.18641" lon="2.05696">
        <ele>259</ele>
        <time>2017-12-06T13:12:16Z</time>
      </trkpt>
      <trkpt lat="44.18638" lon="2.05696">
        <ele>259</ele>
        <time>2017-12-06T13:12:18Z</time>
      </trkpt>
      <trkpt lat="44.18634" lon="2.05695">
        <ele>259</ele>
        <time>2017-12-06T13:12:20Z</time>
      </trkpt>
      <trkpt lat="44.18631" lon="2.05692">
        <ele>259</ele>
        <time>2017-12-06T13:12:22Z</time>
      </trkpt>
      <trkpt lat="44.18628" lon="2.05691">
        <ele>260</ele>
        <time>2017-12-06T13:12:24Z</time>
      </trkpt>
      <trkpt lat="44.18627" lon="2.05689">
        <ele>260</ele>
        <time>2017-12-06T13:12:26Z</time>
      </trkpt>
      <trkpt lat="44.18625" lon="2.05687">
        <ele>261</ele>
        <time>2017-12-06T13:12:28Z</time>
      </trkpt>
      <trkpt lat="44.18623" lon="2.05684">
        <ele>261</ele>
        <time>2017-12-06T13:12:30Z</time>
      </trkpt>
      <trkpt lat="44.18622" lon="2.0568">
        <ele>261</ele>
        <time>2017-12-06T13:12:32Z</time>
      </trkpt>
      <trkpt lat="44.18622" lon="2.0568">
        <ele>261</ele>
        <time>2017-12-06T13:12:34Z</time>
      </trkpt>
      <trkpt lat="44.18622" lon="2.05676">
        <ele>261</ele>
        <time>2017-12-06T13:12:36Z</time>
      </trkpt>
      <trkpt lat="44.1862" lon="2.05671">
        <ele>261</ele>
        <time>2017-12-06T13:12:38Z</time>
      </trkpt>
      <trkpt lat="44.18619" lon="2.05668">
        <ele>261</ele>
        <time>2017-12-06T13:12:40Z</time>
      </trkpt>
      <trkpt lat="44.18618" lon="2.05664">
        <ele>261</ele>
        <time>2017-12-06T13:12:42Z</time>
      </trkpt>
      <trkpt lat="44.18616" lon="2.05659">
        <ele>260</ele>
        <time>2017-12-06T13:12:44Z</time>
      </trkpt>
      <trkpt lat="44.18614" lon="2.05655">
        <ele>260</ele>
        <time>2017-12-06T13:12:46Z</time>
      </trkpt>
      <trkpt lat="44.18612" lon="2.05651">
        <ele>260</ele>
        <time>2017-12-06T13:12:48Z</time>
      </trkpt>
      <trkpt lat="44.18611" lon="2.05647">
        <ele>260</ele>
        <time>2017-12-06T13:12:50Z</time>
      </trkpt>
      <trkpt lat="44.1861" lon="2.05641">
        <ele>260</ele>
        <time>2017-12-06T13:12:52Z</time>
      </trkpt>
      <trkpt lat="44.18609" lon="2.05637">
        <ele>260</ele>
        <time>2017-12-06T13:12:54Z</time>
      </trkpt>
      <trkpt lat="44.18608" lon="2.05633">
        <ele>260</ele>
        <time>2017-12-06T13:12:56Z</time>
      </trkpt>
      <trkpt lat="44.18606" lon="2.0563">
        <ele>260</ele>
        <time>2017-12-06T13:12:58Z</time>
      </trkpt>
      <trkpt lat="44.18605" lon="2.05626">
        <ele>260</ele>
        <time>2017-12-06T13:13:00Z</time>
      </trkpt>
      <trkpt lat="44.18604" lon="2.05623">
        <ele>259</ele>
        <time>2017-12-06T13:13:02Z</time>
      </trkpt>
      <trkpt lat="44.18603" lon="2.05619">
        <ele>259</ele>
        <time>2017-12-06T13:13:04Z</time>
      </trkpt>
      <trkpt lat="44.186" lon="2.05616">
        <ele>259</ele>
        <time>2017-12-06T13:13:06Z</time>
      </trkpt>
      <trkpt lat="44.18598" lon="2.05613">
        <ele>259</ele>
        <time>2017-12-06T13:13:08Z</time>
      </trkpt>
      <trkpt lat="44.18595" lon="2.0561">
        <ele>260</ele>
        <time>2017-12-06T13:13:10Z</time>
      </trkpt>
      <trkpt lat="44.18593" lon="2.05608">
        <ele>260</ele>
        <time>2017-12-06T13:13:12Z</time>
      </trkpt>
      <trkpt lat="44.18591" lon="2.05607">
        <ele>260</ele>
        <time>2017-12-06T13:13:14Z</time>
      </trkpt>
      <trkpt lat="44.18587" lon="2.05605">
        <ele>260</ele>
        <time>2017-12-06T13:13:16Z</time>
      </trkpt>
      <trkpt lat="44.18584" lon="2.05604">
        <ele>260</ele>
        <time>2017-12-06T13:13:18Z</time>
      </trkpt>
      <trkpt lat="44.18581" lon="2.05603">
        <ele>261</ele>
        <time>2017-12-06T13:13:20Z</time>
      </trkpt>
      <trkpt lat="44.18578" lon="2.05604">
        <ele>261</ele>
        <time>2017-12-06T13:13:22Z</time>
      </trkpt>
      <trkpt lat="44.18573" lon="2.05603">
        <ele>262</ele>
        <time>2017-12-06T13:13:24Z</time>
      </trkpt>
      <trkpt lat="44.18569" lon="2.05602">
        <ele>262</ele>
        <time>2017-12-06T13:13:26Z</time>
      </trkpt>
      <trkpt lat="44.18566" lon="2.05603">
        <ele>263</ele>
        <time>2017-12-06T13:13:28Z</time>
      </trkpt>
      <trkpt lat="44.18564" lon="2.05604">
        <ele>264</ele>
        <time>2017-12-06T13:13:30Z</time>
      </trkpt>
      <trkpt lat="44.1856" lon="2.05604">
        <ele>264</ele>
        <time>2017-12-06T13:13:32Z</time>
      </trkpt>
      <trkpt lat="44.18557" lon="2.05605">
        <ele>265</ele>
        <time>2017-12-06T13:13:34Z</time>
      </trkpt>
      <trkpt lat="44.18554" lon="2.05606">
        <ele>265</ele>
        <time>2017-12-06T13:13:36Z</time>
      </trkpt>
      <trkpt lat="44.18551" lon="2.05607">
        <ele>265</ele>
        <time>2017-12-06T13:13:38Z</time>
      </trkpt>
      <trkpt lat="44.18548" lon="2.05608">
        <ele>266</ele>
        <time>2017-12-06T13:13:40Z</time>
      </trkpt>
      <trkpt lat="44.18546" lon="2.0561">
        <ele>266</ele>
        <time>2017-12-06T13:13:42Z</time>
      </trkpt>
      <trkpt lat="44.18542" lon="2.05612">
        <ele>266</ele>
        <time>2017-12-06T13:13:44Z</time>
      </trkpt>
      <trkpt lat="44.1854" lon="2.05613">
        <ele>266</ele>
        <time>2017-12-06T13:13:46Z</time>
      </trkpt>
      <trkpt lat="44.18536" lon="2.05615">
        <ele>267</ele>
        <time>2017-12-06T13:13:48Z</time>
      </trkpt>
      <trkpt lat="44.18534" lon="2.05616">
        <ele>267</ele>
        <time>2017-12-06T13:13:50Z</time>
      </trkpt>
      <trkpt lat="44.18531" lon="2.05618">
        <ele>267</ele>
        <time>2017-12-06T13:13:52Z</time>
      </trkpt>
      <trkpt lat="44.18529" lon="2.05619">
        <ele>267</ele>
        <time>2017-12-06T13:13:54Z</time>
      </trkpt>
      <trkpt lat="44.18527" lon="2.05621">
        <ele>267</ele>
        <time>2017-12-06T13:13:56Z</time>
      </trkpt>
      <trkpt lat="44.18525" lon="2.05622">
        <ele>267</ele>
        <time>2017-12-06T13:13:58Z</time>
      </trkpt>
      <trkpt lat="44.18523" lon="2.05624">
        <ele>266</ele>
        <time>2017-12-06T13:14:00Z</time>
      </trkpt>
      <trkpt lat="44.18521" lon="2.05625">
        <ele>266</ele>
        <time>2017-12-06T13:14:02Z</time>
      </trkpt>
      <trkpt lat="44.18518" lon="2.05626">
        <ele>266</ele>
        <time>2017-12-06T13:14:04Z</time>
      </trkpt>
      <trkpt lat="44.18515" lon="2.05628">
        <ele>265</ele>
        <time>2017-12-06T13:14:06Z</time>
      </trkpt>
      <trkpt lat="44.18513" lon="2.0563">
        <ele>265</ele>
        <time>2017-12-06T13:14:08Z</time>
      </trkpt>
      <trkpt lat="44.1851" lon="2.05631">
        <ele>265</ele>
        <time>2017-12-06T13:14:10Z</time>
      </trkpt>
      <trkpt lat="44.18508" lon="2.05633">
        <ele>264</ele>
        <time>2017-12-06T13:14:12Z</time>
      </trkpt>
      <trkpt lat="44.18505" lon="2.05635">
        <ele>264</ele>
        <time>2017-12-06T13:14:14Z</time>
      </trkpt>
      <trkpt lat="44.18503" lon="2.05637">
        <ele>263</ele>
        <time>2017-12-06T13:14:16Z</time>
      </trkpt>
      <trkpt lat="44.18502" lon="2.05639">
        <ele>263</ele>
        <time>2017-12-06T13:14:18Z</time>
      </trkpt>
      <trkpt lat="44.18499" lon="2.05642">
        <ele>262</ele>
        <time>2017-12-06T13:14:20Z</time>
      </trkpt>
      <trkpt lat="44.18497" lon="2.05645">
        <ele>261</ele>
        <time>2017-12-06T13:14:22Z</time>
      </trkpt>
      <trkpt lat="44.18495" lon="2.05646">
        <ele>260</ele>
        <time>2017-12-06T13:14:24Z</time>
      </trkpt>
      <trkpt lat="44.18492" lon="2.05648">
        <ele>260</ele>
        <time>2017-12-06T13:14:26Z</time>
      </trkpt>
      <trkpt lat="44.18489" lon="2.0565">
        <ele>260</ele>
        <time>2017-12-06T13:14:28Z</time>
      </trkpt>
      <trkpt lat="44.18486" lon="2.05652">
        <ele>259</ele>
        <time>2017-12-06T13:14:30Z</time>
      </trkpt>
      <trkpt lat="44.18483" lon="2.05654">
        <ele>259</ele>
        <time>2017-12-06T13:14:32Z</time>
      </trkpt>
      <trkpt lat="44.1848" lon="2.05656">
        <ele>259</ele>
        <time>2017-12-06T13:14:34Z</time>
      </trkpt>
      <trkpt lat="44.18477" lon="2.05659">
        <ele>260</ele>
        <time>2017-12-06T13:14:36Z</time>
      </trkpt>
      <trkpt lat="44.18475" lon="2.0566">
        <ele>260</ele>
        <time>2017-12-06T13:14:38Z</time>
      </trkpt>
      <trkpt lat="44.18472" lon="2.05663">
        <ele>260</ele>
        <time>2017-12-06T13:14:40Z</time>
      </trkpt>
      <trkpt lat="44.18469" lon="2.05665">
        <ele>260</ele>
        <time>2017-12-06T13:14:42Z</time>
      </trkpt>
      <trkpt lat="44.18466" lon="2.05667">
        <ele>260</ele>
        <time>2017-12-06T13:14:44Z</time>
      </trkpt>
      <trkpt lat="44.18463" lon="2.05669">
        <ele>261</ele>
        <time>2017-12-06T13:14:46Z</time>
      </trkpt>
      <trkpt lat="44.1846" lon="2.05672">
        <ele>261</ele>
        <time>2017-12-06T13:14:48Z</time>
      </trkpt>
      <trkpt lat="44.18457" lon="2.05676">
        <ele>261</ele>
        <time>2017-12-06T13:14:50Z</time>
      </trkpt>
      <trkpt lat="44.18456" lon="2.05678">
        <ele>261</ele>
        <time>2017-12-06T13:14:52Z</time>
      </trkpt>
      <trkpt lat="44.18453" lon="2.0568">
        <ele>261</ele>
        <time>2017-12-06T13:14:54Z</time>
      </trkpt>
      <trkpt lat="44.18451" lon="2.05683">
        <ele>261</ele>
        <time>2017-12-06T13:14:56Z</time>
      </trkpt>
      <trkpt lat="44.18449" lon="2.05685">
        <ele>262</ele>
        <time>2017-12-06T13:14:58Z</time>
      </trkpt>
      <trkpt lat="44.18446" lon="2.05687">
        <ele>262</ele>
        <time>2017-12-06T13:15:00Z</time>
      </trkpt>
      <trkpt lat="44.18444" lon="2.0569">
        <ele>262</ele>
        <time>2017-12-06T13:15:02Z</time>
      </trkpt>
      <trkpt lat="44.18441" lon="2.05692">
        <ele>262</ele>
        <time>2017-12-06T13:15:04Z</time>
      </trkpt>
      <trkpt lat="44.18438" lon="2.05695">
        <ele>262</ele>
        <time>2017-12-06T13:15:06Z</time>
      </trkpt>
      <trkpt lat="44.18436" lon="2.05698">
        <ele>262</ele>
        <time>2017-12-06T13:15:08Z</time>
      </trkpt>
      <trkpt lat="44.18434" lon="2.05702">
        <ele>262</ele>
        <time>2017-12-06T13:15:10Z</time>
      </trkpt>
      <trkpt lat="44.18432" lon="2.05704">
        <ele>262</ele>
        <time>2017-12-06T13:15:12Z</time>
      </trkpt>
      <trkpt lat="44.1843" lon="2.05707">
        <ele>262</ele>
        <time>2017-12-06T13:15:14Z</time>
      </trkpt>
      <trkpt lat="44.18428" lon="2.05709">
        <ele>262</ele>
        <time>2017-12-06T13:15:16Z</time>
      </trkpt>
      <trkpt lat="44.18426" lon="2.05711">
        <ele>262</ele>
        <time>2017-12-06T13:15:18Z</time>
      </trkpt>
      <trkpt lat="44.18424" lon="2.05714">
        <ele>262</ele>
        <time>2017-12-06T13:15:20Z</time>
      </trkpt>
      <trkpt lat="44.18421" lon="2.05716">
        <ele>262</ele>
        <time>2017-12-06T13:15:22Z</time>
      </trkpt>
      <trkpt lat="44.1842" lon="2.05719">
        <ele>262</ele>
        <time>2017-12-06T13:15:24Z</time>
      </trkpt>
      <trkpt lat="44.18417" lon="2.05722">
        <ele>262</ele>
        <time>2017-12-06T13:15:26Z</time>
      </trkpt>
      <trkpt lat="44.18415" lon="2.05725">
        <ele>262</ele>
        <time>2017-12-06T13:15:28Z</time>
      </trkpt>
      <trkpt lat="44.18412" lon="2.05726">
        <ele>262</ele>
        <time>2017-12-06T13:15:30Z</time>
      </trkpt>
      <trkpt lat="44.18409" lon="2.05728">
        <ele>263</ele>
        <time>2017-12-06T13:15:32Z</time>
      </trkpt>
      <trkpt lat="44.18406" lon="2.05731">
        <ele>264</ele>
        <time>2017-12-06T13:15:34Z</time>
      </trkpt>
      <trkpt lat="44.18404" lon="2.05734">
        <ele>264</ele>
        <time>2017-12-06T13:15:36Z</time>
      </trkpt>
      <trkpt lat="44.18401" lon="2.05736">
        <ele>265</ele>
        <time>2017-12-06T13:15:38Z</time>
      </trkpt>
      <trkpt lat="44.18399" lon="2.05737">
        <ele>265</ele>
        <time>2017-12-06T13:15:40Z</time>
      </trkpt>
      <trkpt lat="44.18397" lon="2.0574">
        <ele>266</ele>
        <time>2017-12-06T13:15:42Z</time>
      </trkpt>
      <trkpt lat="44.18394" lon="2.05742">
        <ele>266</ele>
        <time>2017-12-06T13:15:44Z</time>
      </trkpt>
      <trkpt lat="44.18391" lon="2.05744">
        <ele>266</ele>
        <time>2017-12-06T13:15:46Z</time>
      </trkpt>
      <trkpt lat="44.18389" lon="2.05745">
        <ele>265</ele>
        <time>2017-12-06T13:15:48Z</time>
      </trkpt>
      <trkpt lat="44.18385" lon="2.05746">
        <ele>265</ele>
        <time>2017-12-06T13:15:50Z</time>
      </trkpt>
      <trkpt lat="44.18382" lon="2.05747">
        <ele>264</ele>
        <time>2017-12-06T13:15:52Z</time>
      </trkpt>
      <trkpt lat="44.18379" lon="2.05748">
        <ele>264</ele>
        <time>2017-12-06T13:15:54Z</time>
      </trkpt>
      <trkpt lat="44.18376" lon="2.05749">
        <ele>264</ele>
        <time>2017-12-06T13:15:56Z</time>
      </trkpt>
      <trkpt lat="44.18373" lon="2.0575">
        <ele>263</ele>
        <time>2017-12-06T13:15:58Z</time>
      </trkpt>
      <trkpt lat="44.18371" lon="2.0575">
        <ele>263</ele>
        <time>2017-12-06T13:16:00Z</time>
      </trkpt>
      <trkpt lat="44.18368" lon="2.05751">
        <ele>262</ele>
        <time>2017-12-06T13:16:02Z</time>
      </trkpt>
      <trkpt lat="44.18366" lon="2.05751">
        <ele>262</ele>
        <time>2017-12-06T13:16:04Z</time>
      </trkpt>
      <trkpt lat="44.18364" lon="2.05751">
        <ele>261</ele>
        <time>2017-12-06T13:16:06Z</time>
      </trkpt>
      <trkpt lat="44.18362" lon="2.05752">
        <ele>260</ele>
        <time>2017-12-06T13:16:08Z</time>
      </trkpt>
      <trkpt lat="44.18357" lon="2.05751">
        <ele>260</ele>
        <time>2017-12-06T13:16:10Z</time>
      </trkpt>
      <trkpt lat="44.18355" lon="2.05751">
        <ele>260</ele>
        <time>2017-12-06T13:16:12Z</time>
      </trkpt>
      <trkpt lat="44.18351" lon="2.05752">
        <ele>260</ele>
        <time>2017-12-06T13:16:14Z</time>
      </trkpt>
      <trkpt lat="44.18348" lon="2.05752">
        <ele>260</ele>
        <time>2017-12-06T13:16:16Z</time>
      </trkpt>
      <trkpt lat="44.18343" lon="2.05751">
        <ele>260</ele>
        <time>2017-12-06T13:16:18Z</time>
      </trkpt>
      <trkpt lat="44.1834" lon="2.0575">
        <ele>260</ele>
        <time>2017-12-06T13:16:20Z</time>
      </trkpt>
      <trkpt lat="44.18336" lon="2.05748">
        <ele>261</ele>
        <time>2017-12-06T13:16:22Z</time>
      </trkpt>
      <trkpt lat="44.18332" lon="2.05748">
        <ele>262</ele>
        <time>2017-12-06T13:16:24Z</time>
      </trkpt>
      <trkpt lat="44.1833" lon="2.05748">
        <ele>262</ele>
        <time>2017-12-06T13:16:26Z</time>
      </trkpt>
      <trkpt lat="44.18327" lon="2.05748">
        <ele>262</ele>
        <time>2017-12-06T13:16:28Z</time>
      </trkpt>
      <trkpt lat="44.18325" lon="2.05748">
        <ele>261</ele>
        <time>2017-12-06T13:16:30Z</time>
      </trkpt>
      <trkpt lat="44.18322" lon="2.05748">
        <ele>261</ele>
        <time>2017-12-06T13:16:32Z</time>
      </trkpt>
      <trkpt lat="44.18319" lon="2.05749">
        <ele>260</ele>
        <time>2017-12-06T13:16:34Z</time>
      </trkpt>
      <trkpt lat="44.18317" lon="2.0575">
        <ele>259</ele>
        <time>2017-12-06T13:16:36Z</time>
      </trkpt>
      <trkpt lat="44.18314" lon="2.05751">
        <ele>259</ele>
        <time>2017-12-06T13:16:38Z</time>
      </trkpt>
      <trkpt lat="44.18311" lon="2.05751">
        <ele>258</ele>
        <time>2017-12-06T13:16:40Z</time>
      </trkpt>
      <trkpt lat="44.18307" lon="2.05751">
        <ele>258</ele>
        <time>2017-12-06T13:16:42Z</time>
      </trkpt>
      <trkpt lat="44.18303" lon="2.05752">
        <ele>258</ele>
        <time>2017-12-06T13:16:44Z</time>
      </trkpt>
      <trkpt lat="44.183" lon="2.05753">
        <ele>258</ele>
        <time>2017-12-06T13:16:46Z</time>
      </trkpt>
      <trkpt lat="44.18297" lon="2.05755">
        <ele>258</ele>
        <time>2017-12-06T13:16:48Z</time>
      </trkpt>
      <trkpt lat="44.18294" lon="2.05756">
        <ele>259</ele>
        <time>2017-12-06T13:16:50Z</time>
      </trkpt>
      <trkpt lat="44.1829" lon="2.05757">
        <ele>259</ele>
        <time>2017-12-06T13:16:52Z</time>
      </trkpt>
      <trkpt lat="44.18287" lon="2.05759">
        <ele>259</ele>
        <time>2017-12-06T13:16:54Z</time>
      </trkpt>
      <trkpt lat="44.18283" lon="2.0576">
        <ele>260</ele>
        <time>2017-12-06T13:16:56Z</time>
      </trkpt>
      <trkpt lat="44.1828" lon="2.05762">
        <ele>260</ele>
        <time>2017-12-06T13:16:58Z</time>
      </trkpt>
      <trkpt lat="44.18277" lon="2.05762">
        <ele>260</ele>
        <time>2017-12-06T13:17:00Z</time>
      </trkpt>
      <trkpt lat="44.18274" lon="2.05763">
        <ele>260</ele>
        <time>2017-12-06T13:17:02Z</time>
      </trkpt>
      <trkpt lat="44.18271" lon="2.05764">
        <ele>260</ele>
        <time>2017-12-06T13:17:04Z</time>
      </trkpt>
      <trkpt lat="44.18267" lon="2.05765">
        <ele>260</ele>
        <time>2017-12-06T13:17:06Z</time>
      </trkpt>
      <trkpt lat="44.18263" lon="2.05766">
        <ele>261</ele>
        <time>2017-12-06T13:17:08Z</time>
      </trkpt>
      <trkpt lat="44.1826" lon="2.05766">
        <ele>261</ele>
        <time>2017-12-06T13:17:10Z</time>
      </trkpt>
      <trkpt lat="44.18258" lon="2.05765">
        <ele>261</ele>
        <time>2017-12-06T13:17:12Z</time>
      </trkpt>
      <trkpt lat="44.18255" lon="2.05766">
        <ele>261</ele>
        <time>2017-12-06T13:17:14Z</time>
      </trkpt>
      <trkpt lat="44.18252" lon="2.05766">
        <ele>261</ele>
        <time>2017-12-06T13:17:16Z</time>
      </trkpt>
      <trkpt lat="44.18249" lon="2.05766">
        <ele>261</ele>
        <time>2017-12-06T13:17:18Z</time>
      </trkpt>
      <trkpt lat="44.18245" lon="2.05765">
        <ele>261</ele>
        <time>2017-12-06T13:17:20Z</time>
      </trkpt>
      <trkpt lat="44.18242" lon="2.05766">
        <ele>261</ele>
        <time>2017-12-06T13:17:22Z</time>
      </trkpt>
      <trkpt lat="44.18239" lon="2.05766">
        <ele>260</ele>
        <time>2017-12-06T13:17:24Z</time>
      </trkpt>
      <trkpt lat="44.18236" lon="2.05766">
        <ele>260</ele>
        <time>2017-12-06T13:17:26Z</time>
      </trkpt>
      <trkpt lat="44.18233" lon="2.05767">
        <ele>260</ele>
        <time>2017-12-06T13:17:28Z</time>
      </trkpt>
      <trkpt lat="44.1823" lon="2.05767">
        <ele>260</ele>
        <time>2017-12-06T13:17:30Z</time>
      </trkpt>
      <trkpt lat="44.18227" lon="2.05767">
        <ele>259</ele>
        <time>2017-12-06T13:17:32Z</time>
      </trkpt>
      <trkpt lat="44.18224" lon="2.05767">
        <ele>259</ele>
        <time>2017-12-06T13:17:34Z</time>
      </trkpt>
      <trkpt lat="44.18221" lon="2.05767">
        <ele>258</ele>
        <time>2017-12-06T13:17:36Z</time>
      </trkpt>
      <trkpt lat="44.18218" lon="2.05767">
        <ele>258</ele>
        <time>2017-12-06T13:17:38Z</time>
      </trkpt>
      <trkpt lat="44.18216" lon="2.05768">
        <ele>257</ele>
        <time>2017-12-06T13:17:40Z</time>
      </trkpt>
      <trkpt lat="44.18213" lon="2.05769">
        <ele>257</ele>
        <time>2017-12-06T13:17:42Z</time>
      </trkpt>
      <trkpt lat="44.1821" lon="2.0577">
        <ele>256</ele>
        <time>2017-12-06T13:17:44Z</time>
      </trkpt>
      <trkpt lat="44.18208" lon="2.05771">
        <ele>255</ele>
        <time>2017-12-06T13:17:46Z</time>
      </trkpt>
      <trkpt lat="44.18205" lon="2.05771">
        <ele>255</ele>
        <time>2017-12-06T13:17:48Z</time>
      </trkpt>
      <trkpt lat="44.18202" lon="2.05771">
        <ele>254</ele>
        <time>2017-12-06T13:17:50Z</time>
      </trkpt>
      <trkpt lat="44.182" lon="2.05771">
        <ele>253</ele>
        <time>2017-12-06T13:17:52Z</time>
      </trkpt>
      <trkpt lat="44.18197" lon="2.05772">
        <ele>252</ele>
        <time>2017-12-06T13:17:54Z</time>
      </trkpt>
      <trkpt lat="44.18194" lon="2.05773">
        <ele>252</ele>
        <time>2017-12-06T13:17:56Z</time>
      </trkpt>
      <trkpt lat="44.18192" lon="2.05773">
        <ele>251</ele>
        <time>2017-12-06T13:17:58Z</time>
      </trkpt>
      <trkpt lat="44.18189" lon="2.05774">
        <ele>250</ele>
        <time>2017-12-06T13:18:00Z</time>
      </trkpt>
      <trkpt lat="44.18186" lon="2.05774">
        <ele>249</ele>
        <time>2017-12-06T13:18:02Z</time>
      </trkpt>
      <trkpt lat="44.18184" lon="2.05774">
        <ele>248</ele>
        <time>2017-12-06T13:18:04Z</time>
      </trkpt>
      <trkpt lat="44.1818" lon="2.05774">
        <ele>248</ele>
        <time>2017-12-06T13:18:06Z</time>
      </trkpt>
      <trkpt lat="44.18176" lon="2.05771">
        <ele>248</ele>
        <time>2017-12-06T13:18:08Z</time>
      </trkpt>
      <trkpt lat="44.18173" lon="2.05771">
        <ele>247</ele>
        <time>2017-12-06T13:18:10Z</time>
      </trkpt>
      <trkpt lat="44.1817" lon="2.0577">
        <ele>247</ele>
        <time>2017-12-06T13:18:12Z</time>
      </trkpt>
      <trkpt lat="44.18168" lon="2.0577">
        <ele>247</ele>
        <time>2017-12-06T13:18:14Z</time>
      </trkpt>
      <trkpt lat="44.18165" lon="2.0577">
        <ele>246</ele>
        <time>2017-12-06T13:18:16Z</time>
      </trkpt>
      <trkpt lat="44.18161" lon="2.05769">
        <ele>246</ele>
        <time>2017-12-06T13:18:18Z</time>
      </trkpt>
      <trkpt lat="44.18158" lon="2.05768">
        <ele>246</ele>
        <time>2017-12-06T13:18:20Z</time>
      </trkpt>
      <trkpt lat="44.18155" lon="2.05767">
        <ele>246</ele>
        <time>2017-12-06T13:18:22Z</time>
      </trkpt>
      <trkpt lat="44.18151" lon="2.05766">
        <ele>246</ele>
        <time>2017-12-06T13:18:24Z</time>
      </trkpt>
      <trkpt lat="44.18148" lon="2.05766">
        <ele>246</ele>
        <time>2017-12-06T13:18:26Z</time>
      </trkpt>
      <trkpt lat="44.18145" lon="2.05766">
        <ele>246</ele>
        <time>2017-12-06T13:18:28Z</time>
      </trkpt>
      <trkpt lat="44.18141" lon="2.05766">
        <ele>246</ele>
        <time>2017-12-06T13:18:30Z</time>
      </trkpt>
      <trkpt lat="44.18138" lon="2.05766">
        <ele>246</ele>
        <time>2017-12-06T13:18:32Z</time>
      </trkpt>
      <trkpt lat="44.18134" lon="2.05766">
        <ele>246</ele>
        <time>2017-12-06T13:18:34Z</time>
      </trkpt>
      <trkpt lat="44.18131" lon="2.05765">
        <ele>247</ele>
        <time>2017-12-06T13:18:36Z</time>
      </trkpt>
      <trkpt lat="44.18127" lon="2.05766">
        <ele>247</ele>
        <time>2017-12-06T13:18:38Z</time>
      </trkpt>
      <trkpt lat="44.18124" lon="2.05766">
        <ele>247</ele>
        <time>2017-12-06T13:18:40Z</time>
      </trkpt>
      <trkpt lat="44.18121" lon="2.05768">
        <ele>247</ele>
        <time>2017-12-06T13:18:42Z</time>
      </trkpt>
      <trkpt lat="44.18119" lon="2.0577">
        <ele>247</ele>
        <time>2017-12-06T13:18:44Z</time>
      </trkpt>
      <trkpt lat="44.18118" lon="2.05771">
        <ele>247</ele>
        <time>2017-12-06T13:18:46Z</time>
      </trkpt>
      <trkpt lat="44.18115" lon="2.05773">
        <ele>247</ele>
        <time>2017-12-06T13:18:48Z</time>
      </trkpt>
      <trkpt lat="44.18114" lon="2.05775">
        <ele>247</ele>
        <time>2017-12-06T13:18:50Z</time>
      </trkpt>
      <trkpt lat="44.18112" lon="2.05778">
        <ele>246</ele>
        <time>2017-12-06T13:18:52Z</time>
      </trkpt>
      <trkpt lat="44.1811" lon="2.0578">
        <ele>246</ele>
        <time>2017-12-06T13:18:54Z</time>
      </trkpt>
      <trkpt lat="44.18109" lon="2.05783">
        <ele>245</ele>
        <time>2017-12-06T13:18:56Z</time>
      </trkpt>
      <trkpt lat="44.18107" lon="2.05785">
        <ele>243</ele>
        <time>2017-12-06T13:18:58Z</time>
      </trkpt>
      <trkpt lat="44.18108" lon="2.05788">
        <ele>242</ele>
        <time>2017-12-06T13:19:00Z</time>
      </trkpt>
      <trkpt lat="44.18107" lon="2.05791">
        <ele>240</ele>
        <time>2017-12-06T13:19:02Z</time>
      </trkpt>
      <trkpt lat="44.18106" lon="2.05794">
        <ele>239</ele>
        <time>2017-12-06T13:19:04Z</time>
      </trkpt>
      <trkpt lat="44.18106" lon="2.05797">
        <ele>237</ele>
        <time>2017-12-06T13:19:06Z</time>
      </trkpt>
      <trkpt lat="44.18105" lon="2.058">
        <ele>235</ele>
        <time>2017-12-06T13:19:08Z</time>
      </trkpt>
      <trkpt lat="44.18104" lon="2.05802">
        <ele>233</ele>
        <time>2017-12-06T13:19:10Z</time>
      </trkpt>
      <trkpt lat="44.18103" lon="2.05805">
        <ele>231</ele>
        <time>2017-12-06T13:19:12Z</time>
      </trkpt>
      <trkpt lat="44.18102" lon="2.05808">
        <ele>229</ele>
        <time>2017-12-06T13:19:14Z</time>
      </trkpt>
      <trkpt lat="44.18101" lon="2.05812">
        <ele>227</ele>
        <time>2017-12-06T13:19:16Z</time>
      </trkpt>
      <trkpt lat="44.18099" lon="2.05816">
        <ele>226</ele>
        <time>2017-12-06T13:19:18Z</time>
      </trkpt>
      <trkpt lat="44.18097" lon="2.05818">
        <ele>225</ele>
        <time>2017-12-06T13:19:20Z</time>
      </trkpt>
      <trkpt lat="44.18097" lon="2.05818">
        <ele>225</ele>
        <time>2017-12-06T13:19:22Z</time>
      </trkpt>
      <trkpt lat="44.18092" lon="2.05823">
        <ele>225</ele>
        <time>2017-12-06T13:19:24Z</time>
      </trkpt>
      <trkpt lat="44.18091" lon="2.05828">
        <ele>225</ele>
        <time>2017-12-06T13:19:26Z</time>
      </trkpt>
      <trkpt lat="44.18088" lon="2.05831">
        <ele>225</ele>
        <time>2017-12-06T13:19:28Z</time>
      </trkpt>
      <trkpt lat="44.18085" lon="2.05834">
        <ele>225</ele>
        <time>2017-12-06T13:19:30Z</time>
      </trkpt>
      <trkpt lat="44.18082" lon="2.05838">
        <ele>226</ele>
        <time>2017-12-06T13:19:32Z</time>
      </trkpt>
      <trkpt lat="44.18078" lon="2.05842">
        <ele>227</ele>
        <time>2017-12-06T13:19:34Z</time>
      </trkpt>
      <trkpt lat="44.18075" lon="2.05846">
        <ele>227</ele>
        <time>2017-12-06T13:19:36Z</time>
      </trkpt>
      <trkpt lat="44.18073" lon="2.05849">
        <ele>228</ele>
        <time>2017-12-06T13:19:38Z</time>
      </trkpt>
      <trkpt lat="44.18069" lon="2.05853">
        <ele>229</ele>
        <time>2017-12-06T13:19:40Z</time>
      </trkpt>
      <trkpt lat="44.18067" lon="2.05857">
        <ele>229</ele>
        <time>2017-12-06T13:19:42Z</time>
      </trkpt>
      <trkpt lat="44.18065" lon="2.0586">
        <ele>230</ele>
        <time>2017-12-06T13:19:44Z</time>
      </trkpt>
      <trkpt lat="44.18063" lon="2.05863">
        <ele>230</ele>
        <time>2017-12-06T13:19:46Z</time>
      </trkpt>
      <trkpt lat="44.1806" lon="2.05866">
        <ele>231</ele>
        <time>2017-12-06T13:19:48Z</time>
      </trkpt>
      <trkpt lat="44.18057" lon="2.05869">
        <ele>231</ele>
        <time>2017-12-06T13:19:50Z</time>
      </trkpt>
      <trkpt lat="44.18055" lon="2.05872">
        <ele>231</ele>
        <time>2017-12-06T13:19:52Z</time>
      </trkpt>
      <trkpt lat="44.18053" lon="2.05875">
        <ele>231</ele>
        <time>2017-12-06T13:19:54Z</time>
      </trkpt>
      <trkpt lat="44.18051" lon="2.05878">
        <ele>231</ele>
        <time>2017-12-06T13:19:56Z</time>
      </trkpt>
      <trkpt lat="44.18049" lon="2.05882">
        <ele>231</ele>
        <time>2017-12-06T13:19:58Z</time>
      </trkpt>
      <trkpt lat="44.18047" lon="2.05885">
        <ele>231</ele>
        <time>2017-12-06T13:20:00Z</time>
      </trkpt>
      <trkpt lat="44.18044" lon="2.05887">
        <ele>230</ele>
        <time>2017-12-06T13:20:02Z</time>
      </trkpt>
      <trkpt lat="44.18042" lon="2.05889">
        <ele>230</ele>
        <time>2017-12-06T13:20:04Z</time>
      </trkpt>
      <trkpt lat="44.18039" lon="2.05891">
        <ele>230</ele>
        <time>2017-12-06T13:20:06Z</time>
      </trkpt>
      <trkpt lat="44.18036" lon="2.05895">
        <ele>230</ele>
        <time>2017-12-06T13:20:08Z</time>
      </trkpt>
      <trkpt lat="44.18033" lon="2.05897">
        <ele>230</ele>
        <time>2017-12-06T13:20:10Z</time>
      </trkpt>
      <trkpt lat="44.1803" lon="2.059">
        <ele>229</ele>
        <time>2017-12-06T13:20:12Z</time>
      </trkpt>
      <trkpt lat="44.18028" lon="2.05902">
        <ele>229</ele>
        <time>2017-12-06T13:20:14Z</time>
      </trkpt>
      <trkpt lat="44.18025" lon="2.05904">
        <ele>229</ele>
        <time>2017-12-06T13:20:16Z</time>
      </trkpt>
      <trkpt lat="44.18022" lon="2.05906">
        <ele>228</ele>
        <time>2017-12-06T13:20:18Z</time>
      </trkpt>
      <trkpt lat="44.1802" lon="2.05908">
        <ele>228</ele>
        <time>2017-12-06T13:20:20Z</time>
      </trkpt>
      <trkpt lat="44.18018" lon="2.05908">
        <ele>227</ele>
        <time>2017-12-06T13:20:22Z</time>
      </trkpt>
      <trkpt lat="44.18015" lon="2.0591">
        <ele>227</ele>
        <time>2017-12-06T13:20:24Z</time>
      </trkpt>
      <trkpt lat="44.18013" lon="2.05914">
        <ele>226</ele>
        <time>2017-12-06T13:20:26Z</time>
      </trkpt>
      <trkpt lat="44.18011" lon="2.05917">
        <ele>226</ele>
        <time>2017-12-06T13:20:28Z</time>
      </trkpt>
      <trkpt lat="44.18009" lon="2.0592">
        <ele>225</ele>
        <time>2017-12-06T13:20:30Z</time>
      </trkpt>
      <trkpt lat="44.18007" lon="2.05922">
        <ele>224</ele>
        <time>2017-12-06T13:20:32Z</time>
      </trkpt>
      <trkpt lat="44.18004" lon="2.05925">
        <ele>223</ele>
        <time>2017-12-06T13:20:34Z</time>
      </trkpt>
      <trkpt lat="44.18002" lon="2.05927">
        <ele>222</ele>
        <time>2017-12-06T13:20:36Z</time>
      </trkpt>
      <trkpt lat="44.17995" lon="2.05925">
        <ele>222</ele>
        <time>2017-12-06T13:20:38Z</time>
      </trkpt>
      <trkpt lat="44.1799" lon="2.05925">
        <ele>222</ele>
        <time>2017-12-06T13:20:40Z</time>
      </trkpt>
      <trkpt lat="44.17987" lon="2.05927">
        <ele>222</ele>
        <time>2017-12-06T13:20:42Z</time>
      </trkpt>
      <trkpt lat="44.17984" lon="2.05928">
        <ele>222</ele>
        <time>2017-12-06T13:20:44Z</time>
      </trkpt>
      <trkpt lat="44.17981" lon="2.05929">
        <ele>223</ele>
        <time>2017-12-06T13:20:46Z</time>
      </trkpt>
      <trkpt lat="44.17979" lon="2.0593">
        <ele>223</ele>
        <time>2017-12-06T13:20:48Z</time>
      </trkpt>
      <trkpt lat="44.17976" lon="2.05932">
        <ele>223</ele>
        <time>2017-12-06T13:20:50Z</time>
      </trkpt>
      <trkpt lat="44.17973" lon="2.05933">
        <ele>223</ele>
        <time>2017-12-06T13:20:52Z</time>
      </trkpt>
      <trkpt lat="44.17971" lon="2.05934">
        <ele>223</ele>
        <time>2017-12-06T13:20:54Z</time>
      </trkpt>
      <trkpt lat="44.17969" lon="2.05933">
        <ele>223</ele>
        <time>2017-12-06T13:20:56Z</time>
      </trkpt>
      <trkpt lat="44.17967" lon="2.05931">
        <ele>222</ele>
        <time>2017-12-06T13:20:58Z</time>
      </trkpt>
      <trkpt lat="44.17965" lon="2.05929">
        <ele>222</ele>
        <time>2017-12-06T13:21:00Z</time>
      </trkpt>
      <trkpt lat="44.17962" lon="2.05927">
        <ele>222</ele>
        <time>2017-12-06T13:21:02Z</time>
      </trkpt>
      <trkpt lat="44.17961" lon="2.05924">
        <ele>221</ele>
        <time>2017-12-06T13:21:04Z</time>
      </trkpt>
      <trkpt lat="44.17958" lon="2.05922">
        <ele>221</ele>
        <time>2017-12-06T13:21:06Z</time>
      </trkpt>
      <trkpt lat="44.17956" lon="2.05919">
        <ele>221</ele>
        <time>2017-12-06T13:21:08Z</time>
      </trkpt>
      <trkpt lat="44.17954" lon="2.05916">
        <ele>220</ele>
        <time>2017-12-06T13:21:10Z</time>
      </trkpt>
      <trkpt lat="44.17952" lon="2.05913">
        <ele>220</ele>
        <time>2017-12-06T13:21:12Z</time>
      </trkpt>
      <trkpt lat="44.17949" lon="2.05909">
        <ele>220</ele>
        <time>2017-12-06T13:21:14Z</time>
      </trkpt>
      <trkpt lat="44.17947" lon="2.05905">
        <ele>220</ele>
        <time>2017-12-06T13:21:16Z</time>
      </trkpt>
      <trkpt lat="44.17945" lon="2.05901">
        <ele>220</ele>
        <time>2017-12-06T13:21:18Z</time>
      </trkpt>
      <trkpt lat="44.17944" lon="2.05897">
        <ele>220</ele>
        <time>2017-12-06T13:21:20Z</time>
      </trkpt>
      <trkpt lat="44.17943" lon="2.05894">
        <ele>220</ele>
        <time>2017-12-06T13:21:22Z</time>
      </trkpt>
      <trkpt lat="44.17941" lon="2.05892">
        <ele>220</ele>
        <time>2017-12-06T13:21:24Z</time>
      </trkpt>
      <trkpt lat="44.1794" lon="2.05888">
        <ele>220</ele>
        <time>2017-12-06T13:21:26Z</time>
      </trkpt>
      <trkpt lat="44.17938" lon="2.05885">
        <ele>220</ele>
        <time>2017-12-06T13:21:28Z</time>
      </trkpt>
      <trkpt lat="44.17937" lon="2.05882">
        <ele>219</ele>
        <time>2017-12-06T13:21:30Z</time>
      </trkpt>
      <trkpt lat="44.17934" lon="2.0588">
        <ele>219</ele>
        <time>2017-12-06T13:21:32Z</time>
      </trkpt>
      <trkpt lat="44.17932" lon="2.05878">
        <ele>218</ele>
        <time>2017-12-06T13:21:34Z</time>
      </trkpt>
      <trkpt lat="44.1793" lon="2.05878">
        <ele>218</ele>
        <time>2017-12-06T13:21:36Z</time>
      </trkpt>
      <trkpt lat="44.17928" lon="2.05877">
        <ele>217</ele>
        <time>2017-12-06T13:21:38Z</time>
      </trkpt>
      <trkpt lat="44.17924" lon="2.05877">
        <ele>216</ele>
        <time>2017-12-06T13:21:40Z</time>
      </trkpt>
      <trkpt lat="44.17922" lon="2.05877">
        <ele>216</ele>
        <time>2017-12-06T13:21:42Z</time>
      </trkpt>
      <trkpt lat="44.17919" lon="2.05878">
        <ele>215</ele>
        <time>2017-12-06T13:21:44Z</time>
      </trkpt>
      <trkpt lat="44.17916" lon="2.05879">
        <ele>215</ele>
        <time>2017-12-06T13:21:46Z</time>
      </trkpt>
      <trkpt lat="44.17913" lon="2.0588">
        <ele>214</ele>
        <time>2017-12-06T13:21:48Z</time>
      </trkpt>
      <trkpt lat="44.1791" lon="2.0588">
        <ele>214</ele>
        <time>2017-12-06T13:21:50Z</time>
      </trkpt>
      <trkpt lat="44.17907" lon="2.05882">
        <ele>214</ele>
        <time>2017-12-06T13:21:52Z</time>
      </trkpt>
      <trkpt lat="44.17905" lon="2.05883">
        <ele>214</ele>
        <time>2017-12-06T13:21:54Z</time>
      </trkpt>
      <trkpt lat="44.17902" lon="2.05884">
        <ele>213</ele>
        <time>2017-12-06T13:21:56Z</time>
      </trkpt>
      <trkpt lat="44.17899" lon="2.05886">
        <ele>213</ele>
        <time>2017-12-06T13:21:58Z</time>
      </trkpt>
      <trkpt lat="44.17897" lon="2.05887">
        <ele>212</ele>
        <time>2017-12-06T13:22:00Z</time>
      </trkpt>
      <trkpt lat="44.17894" lon="2.05889">
        <ele>212</ele>
        <time>2017-12-06T13:22:02Z</time>
      </trkpt>
      <trkpt lat="44.17891" lon="2.0589">
        <ele>211</ele>
        <time>2017-12-06T13:22:04Z</time>
      </trkpt>
      <trkpt lat="44.17889" lon="2.05892">
        <ele>211</ele>
        <time>2017-12-06T13:22:06Z</time>
      </trkpt>
      <trkpt lat="44.17886" lon="2.05894">
        <ele>210</ele>
        <time>2017-12-06T13:22:08Z</time>
      </trkpt>
      <trkpt lat="44.17883" lon="2.05896">
        <ele>210</ele>
        <time>2017-12-06T13:22:10Z</time>
      </trkpt>
      <trkpt lat="44.1788" lon="2.05897">
        <ele>210</ele>
        <time>2017-12-06T13:22:12Z</time>
      </trkpt>
      <trkpt lat="44.17878" lon="2.05898">
        <ele>210</ele>
        <time>2017-12-06T13:22:14Z</time>
      </trkpt>
      <trkpt lat="44.17875" lon="2.059">
        <ele>210</ele>
        <time>2017-12-06T13:22:16Z</time>
      </trkpt>
      <trkpt lat="44.17873" lon="2.05903">
        <ele>210</ele>
        <time>2017-12-06T13:22:18Z</time>
      </trkpt>
      <trkpt lat="44.17871" lon="2.05905">
        <ele>210</ele>
        <time>2017-12-06T13:22:20Z</time>
      </trkpt>
      <trkpt lat="44.17869" lon="2.05907">
        <ele>209</ele>
        <time>2017-12-06T13:22:22Z</time>
      </trkpt>
      <trkpt lat="44.17866" lon="2.0591">
        <ele>209</ele>
        <time>2017-12-06T13:22:24Z</time>
      </trkpt>
      <trkpt lat="44.17864" lon="2.05911">
        <ele>208</ele>
        <time>2017-12-06T13:22:26Z</time>
      </trkpt>
      <trkpt lat="44.17863" lon="2.05912">
        <ele>208</ele>
        <time>2017-12-06T13:22:28Z</time>
      </trkpt>
      <trkpt lat="44.17861" lon="2.05913">
        <ele>207</ele>
        <time>2017-12-06T13:22:30Z</time>
      </trkpt>
      <trkpt lat="44.17858" lon="2.05916">
        <ele>206</ele>
        <time>2017-12-06T13:22:32Z</time>
      </trkpt>
      <trkpt lat="44.17856" lon="2.05919">
        <ele>206</ele>
        <time>2017-12-06T13:22:34Z</time>
      </trkpt>
      <trkpt lat="44.17854" lon="2.05921">
        <ele>205</ele>
        <time>2017-12-06T13:22:36Z</time>
      </trkpt>
      <trkpt lat="44.17852" lon="2.05924">
        <ele>204</ele>
        <time>2017-12-06T13:22:38Z</time>
      </trkpt>
      <trkpt lat="44.1785" lon="2.05928">
        <ele>203</ele>
        <time>2017-12-06T13:22:40Z</time>
      </trkpt>
      <trkpt lat="44.17847" lon="2.05929">
        <ele>203</ele>
        <time>2017-12-06T13:22:42Z</time>
      </trkpt>
      <trkpt lat="44.17845" lon="2.05931">
        <ele>202</ele>
        <time>2017-12-06T13:22:44Z</time>
      </trkpt>
      <trkpt lat="44.17841" lon="2.05933">
        <ele>202</ele>
        <time>2017-12-06T13:22:46Z</time>
      </trkpt>
      <trkpt lat="44.17838" lon="2.05934">
        <ele>202</ele>
        <time>2017-12-06T13:22:48Z</time>
      </trkpt>
      <trkpt lat="44.17836" lon="2.05937">
        <ele>202</ele>
        <time>2017-12-06T13:22:50Z</time>
      </trkpt>
      <trkpt lat="44.17833" lon="2.0594">
        <ele>202</ele>
        <time>2017-12-06T13:22:52Z</time>
      </trkpt>
      <trkpt lat="44.1783" lon="2.05942">
        <ele>202</ele>
        <time>2017-12-06T13:22:54Z</time>
      </trkpt>
      <trkpt lat="44.17827" lon="2.05944">
        <ele>202</ele>
        <time>2017-12-06T13:22:56Z</time>
      </trkpt>
      <trkpt lat="44.17823" lon="2.05945">
        <ele>202</ele>
        <time>2017-12-06T13:22:58Z</time>
      </trkpt>
      <trkpt lat="44.17821" lon="2.05948">
        <ele>202</ele>
        <time>2017-12-06T13:23:00Z</time>
      </trkpt>
      <trkpt lat="44.17818" lon="2.0595">
        <ele>202</ele>
        <time>2017-12-06T13:23:02Z</time>
      </trkpt>
      <trkpt lat="44.17815" lon="2.05952">
        <ele>202</ele>
        <time>2017-12-06T13:23:04Z</time>
      </trkpt>
      <trkpt lat="44.17813" lon="2.05953">
        <ele>202</ele>
        <time>2017-12-06T13:23:06Z</time>
      </trkpt>
      <trkpt lat="44.17811" lon="2.05955">
        <ele>202</ele>
        <time>2017-12-06T13:23:08Z</time>
      </trkpt>
      <trkpt lat="44.17809" lon="2.05957">
        <ele>201</ele>
        <time>2017-12-06T13:23:10Z</time>
      </trkpt>
      <trkpt lat="44.17806" lon="2.05959">
        <ele>201</ele>
        <time>2017-12-06T13:23:12Z</time>
      </trkpt>
      <trkpt lat="44.17803" lon="2.0596">
        <ele>200</ele>
        <time>2017-12-06T13:23:14Z</time>
      </trkpt>
      <trkpt lat="44.17801" lon="2.05962">
        <ele>199</ele>
        <time>2017-12-06T13:23:16Z</time>
      </trkpt>
      <trkpt lat="44.17798" lon="2.05963">
        <ele>199</ele>
        <time>2017-12-06T13:23:18Z</time>
      </trkpt>
      <trkpt lat="44.17796" lon="2.05964">
        <ele>198</ele>
        <time>2017-12-06T13:23:20Z</time>
      </trkpt>
      <trkpt lat="44.17793" lon="2.05965">
        <ele>198</ele>
        <time>2017-12-06T13:23:22Z</time>
      </trkpt>
      <trkpt lat="44.1779" lon="2.05966">
        <ele>197</ele>
        <time>2017-12-06T13:23:24Z</time>
      </trkpt>
      <trkpt lat="44.17787" lon="2.05967">
        <ele>197</ele>
        <time>2017-12-06T13:23:26Z</time>
      </trkpt>
      <trkpt lat="44.17784" lon="2.05968">
        <ele>197</ele>
        <time>2017-12-06T13:23:28Z</time>
      </trkpt>
      <trkpt lat="44.17782" lon="2.0597">
        <ele>196</ele>
        <time>2017-12-06T13:23:30Z</time>
      </trkpt>
      <trkpt lat="44.17779" lon="2.05971">
        <ele>196</ele>
        <time>2017-12-06T13:23:32Z</time>
      </trkpt>
      <trkpt lat="44.17776" lon="2.05972">
        <ele>195</ele>
        <time>2017-12-06T13:23:34Z</time>
      </trkpt>
      <trkpt lat="44.17773" lon="2.05974">
        <ele>195</ele>
        <time>2017-12-06T13:23:36Z</time>
      </trkpt>
      <trkpt lat="44.17771" lon="2.05975">
        <ele>194</ele>
        <time>2017-12-06T13:23:38Z</time>
      </trkpt>
      <trkpt lat="44.17768" lon="2.05977">
        <ele>194</ele>
        <time>2017-12-06T13:23:40Z</time>
      </trkpt>
      <trkpt lat="44.17765" lon="2.05979">
        <ele>193</ele>
        <time>2017-12-06T13:23:42Z</time>
      </trkpt>
      <trkpt lat="44.17763" lon="2.05981">
        <ele>192</ele>
        <time>2017-12-06T13:23:44Z</time>
      </trkpt>
      <trkpt lat="44.1776" lon="2.05982">
        <ele>192</ele>
        <time>2017-12-06T13:23:46Z</time>
      </trkpt>
      <trkpt lat="44.17757" lon="2.05983">
        <ele>192</ele>
        <time>2017-12-06T13:23:48Z</time>
      </trkpt>
      <trkpt lat="44.17754" lon="2.05985">
        <ele>191</ele>
        <time>2017-12-06T13:23:50Z</time>
      </trkpt>
      <trkpt lat="44.17751" lon="2.05986">
        <ele>191</ele>
        <time>2017-12-06T13:23:52Z</time>
      </trkpt>
      <trkpt lat="44.17748" lon="2.05987">
        <ele>190</ele>
        <time>2017-12-06T13:23:54Z</time>
      </trkpt>
      <trkpt lat="44.17745" lon="2.05988">
        <ele>190</ele>
        <time>2017-12-06T13:23:56Z</time>
      </trkpt>
      <trkpt lat="44.17742" lon="2.05989">
        <ele>190</ele>
        <time>2017-12-06T13:23:58Z</time>
      </trkpt>
      <trkpt lat="44.17739" lon="2.0599">
        <ele>190</ele>
        <time>2017-12-06T13:24:00Z</time>
      </trkpt>
      <trkpt lat="44.17737" lon="2.05993">
        <ele>190</ele>
        <time>2017-12-06T13:24:02Z</time>
      </trkpt>
      <trkpt lat="44.17734" lon="2.05994">
        <ele>189</ele>
        <time>2017-12-06T13:24:04Z</time>
      </trkpt>
      <trkpt lat="44.17731" lon="2.05994">
        <ele>189</ele>
        <time>2017-12-06T13:24:06Z</time>
      </trkpt>
      <trkpt lat="44.17729" lon="2.05995">
        <ele>189</ele>
        <time>2017-12-06T13:24:08Z</time>
      </trkpt>
      <trkpt lat="44.17726" lon="2.05996">
        <ele>189</ele>
        <time>2017-12-06T13:24:10Z</time>
      </trkpt>
      <trkpt lat="44.17723" lon="2.05997">
        <ele>188</ele>
        <time>2017-12-06T13:24:12Z</time>
      </trkpt>
      <trkpt lat="44.17721" lon="2.05998">
        <ele>188</ele>
        <time>2017-12-06T13:24:14Z</time>
      </trkpt>
      <trkpt lat="44.17718" lon="2.06">
        <ele>187</ele>
        <time>2017-12-06T13:24:16Z</time>
      </trkpt>
      <trkpt lat="44.17716" lon="2.06003">
        <ele>187</ele>
        <time>2017-12-06T13:24:18Z</time>
      </trkpt>
      <trkpt lat="44.17712" lon="2.06003">
        <ele>186</ele>
        <time>2017-12-06T13:24:20Z</time>
      </trkpt>
      <trkpt lat="44.1771" lon="2.06004">
        <ele>186</ele>
        <time>2017-12-06T13:24:22Z</time>
      </trkpt>
      <trkpt lat="44.17707" lon="2.06004">
        <ele>185</ele>
        <time>2017-12-06T13:24:24Z</time>
      </trkpt>
      <trkpt lat="44.17705" lon="2.06006">
        <ele>184</ele>
        <time>2017-12-06T13:24:26Z</time>
      </trkpt>
      <trkpt lat="44.17702" lon="2.06008">
        <ele>184</ele>
        <time>2017-12-06T13:24:28Z</time>
      </trkpt>
      <trkpt lat="44.177" lon="2.0601">
        <ele>183</ele>
        <time>2017-12-06T13:24:30Z</time>
      </trkpt>
      <trkpt lat="44.17697" lon="2.06011">
        <ele>183</ele>
        <time>2017-12-06T13:24:32Z</time>
      </trkpt>
      <trkpt lat="44.17695" lon="2.06014">
        <ele>182</ele>
        <time>2017-12-06T13:24:34Z</time>
      </trkpt>
      <trkpt lat="44.17693" lon="2.06016">
        <ele>182</ele>
        <time>2017-12-06T13:24:36Z</time>
      </trkpt>
      <trkpt lat="44.1769" lon="2.06018">
        <ele>181</ele>
        <time>2017-12-06T13:24:38Z</time>
      </trkpt>
      <trkpt lat="44.17688" lon="2.06019">
        <ele>180</ele>
        <time>2017-12-06T13:24:40Z</time>
      </trkpt>
      <trkpt lat="44.17684" lon="2.06021">
        <ele>179</ele>
        <time>2017-12-06T13:24:42Z</time>
      </trkpt>
      <trkpt lat="44.17682" lon="2.06022">
        <ele>179</ele>
        <time>2017-12-06T13:24:44Z</time>
      </trkpt>
      <trkpt lat="44.17679" lon="2.06023">
        <ele>178</ele>
        <time>2017-12-06T13:24:46Z</time>
      </trkpt>
      <trkpt lat="44.17676" lon="2.06025">
        <ele>178</ele>
        <time>2017-12-06T13:24:48Z</time>
      </trkpt>
      <trkpt lat="44.17673" lon="2.06025">
        <ele>178</ele>
        <time>2017-12-06T13:24:50Z</time>
      </trkpt>
      <trkpt lat="44.17671" lon="2.06027">
        <ele>177</ele>
        <time>2017-12-06T13:24:52Z</time>
      </trkpt>
      <trkpt lat="44.17668" lon="2.06029">
        <ele>177</ele>
        <time>2017-12-06T13:24:54Z</time>
      </trkpt>
      <trkpt lat="44.17665" lon="2.0603">
        <ele>177</ele>
        <time>2017-12-06T13:24:56Z</time>
      </trkpt>
      <trkpt lat="44.17662" lon="2.06032">
        <ele>177</ele>
        <time>2017-12-06T13:24:58Z</time>
      </trkpt>
      <trkpt lat="44.17659" lon="2.06034">
        <ele>177</ele>
        <time>2017-12-06T13:25:00Z</time>
      </trkpt>
      <trkpt lat="44.17657" lon="2.06036">
        <ele>177</ele>
        <time>2017-12-06T13:25:02Z</time>
      </trkpt>
      <trkpt lat="44.17654" lon="2.06037">
        <ele>177</ele>
        <time>2017-12-06T13:25:04Z</time>
      </trkpt>
      <trkpt lat="44.17651" lon="2.06039">
        <ele>177</ele>
        <time>2017-12-06T13:25:06Z</time>
      </trkpt>
      <trkpt lat="44.17648" lon="2.06041">
        <ele>177</ele>
        <time>2017-12-06T13:25:08Z</time>
      </trkpt>
      <trkpt lat="44.17645" lon="2.06042">
        <ele>177</ele>
        <time>2017-12-06T13:25:10Z</time>
      </trkpt>
      <trkpt lat="44.17641" lon="2.06044">
        <ele>177</ele>
        <time>2017-12-06T13:25:12Z</time>
      </trkpt>
      <trkpt lat="44.17639" lon="2.06045">
        <ele>177</ele>
        <time>2017-12-06T13:25:14Z</time>
      </trkpt>
      <trkpt lat="44.17636" lon="2.06048">
        <ele>177</ele>
        <time>2017-12-06T13:25:16Z</time>
      </trkpt>
      <trkpt lat="44.17633" lon="2.0605">
        <ele>177</ele>
        <time>2017-12-06T13:25:18Z</time>
      </trkpt>
      <trkpt lat="44.1763" lon="2.06051">
        <ele>177</ele>
        <time>2017-12-06T13:25:20Z</time>
      </trkpt>
      <trkpt lat="44.17627" lon="2.06054">
        <ele>177</ele>
        <time>2017-12-06T13:25:22Z</time>
      </trkpt>
      <trkpt lat="44.17622" lon="2.06057">
        <ele>178</ele>
        <time>2017-12-06T13:25:24Z</time>
      </trkpt>
      <trkpt lat="44.17619" lon="2.06057">
        <ele>179</ele>
        <time>2017-12-06T13:25:26Z</time>
      </trkpt>
      <trkpt lat="44.17617" lon="2.06057">
        <ele>179</ele>
        <time>2017-12-06T13:25:28Z</time>
      </trkpt>
      <trkpt lat="44.17614" lon="2.06057">
        <ele>179</ele>
        <time>2017-12-06T13:25:30Z</time>
      </trkpt>
      <trkpt lat="44.17611" lon="2.06057">
        <ele>179</ele>
        <time>2017-12-06T13:25:32Z</time>
      </trkpt>
      <trkpt lat="44.17609" lon="2.06057">
        <ele>179</ele>
        <time>2017-12-06T13:25:34Z</time>
      </trkpt>
      <trkpt lat="44.17605" lon="2.06057">
        <ele>180</ele>
        <time>2017-12-06T13:25:36Z</time>
      </trkpt>
      <trkpt lat="44.17602" lon="2.06057">
        <ele>179</ele>
        <time>2017-12-06T13:25:38Z</time>
      </trkpt>
      <trkpt lat="44.176" lon="2.06057">
        <ele>179</ele>
        <time>2017-12-06T13:25:40Z</time>
      </trkpt>
      <trkpt lat="44.17597" lon="2.06057">
        <ele>178</ele>
        <time>2017-12-06T13:25:42Z</time>
      </trkpt>
      <trkpt lat="44.17595" lon="2.06058">
        <ele>177</ele>
        <time>2017-12-06T13:25:44Z</time>
      </trkpt>
      <trkpt lat="44.17592" lon="2.06058">
        <ele>176</ele>
        <time>2017-12-06T13:25:46Z</time>
      </trkpt>
      <trkpt lat="44.17589" lon="2.06057">
        <ele>176</ele>
        <time>2017-12-06T13:25:48Z</time>
      </trkpt>
      <trkpt lat="44.17586" lon="2.06054">
        <ele>175</ele>
        <time>2017-12-06T13:25:50Z</time>
      </trkpt>
      <trkpt lat="44.17584" lon="2.06051">
        <ele>175</ele>
        <time>2017-12-06T13:25:52Z</time>
      </trkpt>
      <trkpt lat="44.17583" lon="2.06049">
        <ele>175</ele>
        <time>2017-12-06T13:25:54Z</time>
      </trkpt>
      <trkpt lat="44.17581" lon="2.06045">
        <ele>174</ele>
        <time>2017-12-06T13:25:56Z</time>
      </trkpt>
      <trkpt lat="44.17581" lon="2.06042">
        <ele>174</ele>
        <time>2017-12-06T13:25:58Z</time>
      </trkpt>
      <trkpt lat="44.17581" lon="2.06038">
        <ele>174</ele>
        <time>2017-12-06T13:26:00Z</time>
      </trkpt>
      <trkpt lat="44.17581" lon="2.06036">
        <ele>173</ele>
        <time>2017-12-06T13:26:02Z</time>
      </trkpt>
      <trkpt lat="44.17581" lon="2.06033">
        <ele>173</ele>
        <time>2017-12-06T13:26:04Z</time>
      </trkpt>
      <trkpt lat="44.17581" lon="2.0603">
        <ele>172</ele>
        <time>2017-12-06T13:26:06Z</time>
      </trkpt>
      <trkpt lat="44.1758" lon="2.06026">
        <ele>172</ele>
        <time>2017-12-06T13:26:08Z</time>
      </trkpt>
      <trkpt lat="44.1758" lon="2.06023">
        <ele>171</ele>
        <time>2017-12-06T13:26:10Z</time>
      </trkpt>
      <trkpt lat="44.1758" lon="2.06019">
        <ele>171</ele>
        <time>2017-12-06T13:26:12Z</time>
      </trkpt>
      <trkpt lat="44.17579" lon="2.06016">
        <ele>170</ele>
        <time>2017-12-06T13:26:14Z</time>
      </trkpt>
      <trkpt lat="44.17579" lon="2.06012">
        <ele>170</ele>
        <time>2017-12-06T13:26:16Z</time>
      </trkpt>
      <trkpt lat="44.17579" lon="2.06009">
        <ele>170</ele>
        <time>2017-12-06T13:26:18Z</time>
      </trkpt>
      <trkpt lat="44.17579" lon="2.06005">
        <ele>170</ele>
        <time>2017-12-06T13:26:20Z</time>
      </trkpt>
      <trkpt lat="44.17578" lon="2.06002">
        <ele>169</ele>
        <time>2017-12-06T13:26:22Z</time>
      </trkpt>
      <trkpt lat="44.17578" lon="2.05998">
        <ele>169</ele>
        <time>2017-12-06T13:26:24Z</time>
      </trkpt>
      <trkpt lat="44.17576" lon="2.05994">
        <ele>169</ele>
        <time>2017-12-06T13:26:26Z</time>
      </trkpt>
      <trkpt lat="44.17575" lon="2.05988">
        <ele>169</ele>
        <time>2017-12-06T13:26:28Z</time>
      </trkpt>
      <trkpt lat="44.17574" lon="2.05984">
        <ele>169</ele>
        <time>2017-12-06T13:26:30Z</time>
      </trkpt>
      <trkpt lat="44.17575" lon="2.05978">
        <ele>170</ele>
        <time>2017-12-06T13:26:32Z</time>
      </trkpt>
      <trkpt lat="44.17575" lon="2.05973">
        <ele>170</ele>
        <time>2017-12-06T13:26:34Z</time>
      </trkpt>
      <trkpt lat="44.17574" lon="2.05969">
        <ele>171</ele>
        <time>2017-12-06T13:26:36Z</time>
      </trkpt>
      <trkpt lat="44.17574" lon="2.05964">
        <ele>171</ele>
        <time>2017-12-06T13:26:38Z</time>
      </trkpt>
      <trkpt lat="44.17574" lon="2.0596">
        <ele>172</ele>
        <time>2017-12-06T13:26:40Z</time>
      </trkpt>
      <trkpt lat="44.17573" lon="2.05957">
        <ele>173</ele>
        <time>2017-12-06T13:26:42Z</time>
      </trkpt>
      <trkpt lat="44.17574" lon="2.05954">
        <ele>174</ele>
        <time>2017-12-06T13:26:44Z</time>
      </trkpt>
      <trkpt lat="44.17574" lon="2.0595">
        <ele>174</ele>
        <time>2017-12-06T13:26:46Z</time>
      </trkpt>
      <trkpt lat="44.17573" lon="2.05947">
        <ele>175</ele>
        <time>2017-12-06T13:26:48Z</time>
      </trkpt>
      <trkpt lat="44.17573" lon="2.05944">
        <ele>176</ele>
        <time>2017-12-06T13:26:50Z</time>
      </trkpt>
      <trkpt lat="44.17571" lon="2.05941">
        <ele>176</ele>
        <time>2017-12-06T13:26:52Z</time>
      </trkpt>
      <trkpt lat="44.17571" lon="2.05938">
        <ele>176</ele>
        <time>2017-12-06T13:26:54Z</time>
      </trkpt>
      <trkpt lat="44.17571" lon="2.05935">
        <ele>176</ele>
        <time>2017-12-06T13:26:56Z</time>
      </trkpt>
      <trkpt lat="44.17569" lon="2.0593">
        <ele>176</ele>
        <time>2017-12-06T13:26:58Z</time>
      </trkpt>
      <trkpt lat="44.17568" lon="2.05927">
        <ele>176</ele>
        <time>2017-12-06T13:27:00Z</time>
      </trkpt>
      <trkpt lat="44.17568" lon="2.05924">
        <ele>175</ele>
        <time>2017-12-06T13:27:02Z</time>
      </trkpt>
      <trkpt lat="44.17568" lon="2.05921">
        <ele>174</ele>
        <time>2017-12-06T13:27:04Z</time>
      </trkpt>
      <trkpt lat="44.17568" lon="2.05917">
        <ele>173</ele>
        <time>2017-12-06T13:27:06Z</time>
      </trkpt>
      <trkpt lat="44.17568" lon="2.05913">
        <ele>172</ele>
        <time>2017-12-06T13:27:08Z</time>
      </trkpt>
      <trkpt lat="44.17566" lon="2.05909">
        <ele>171</ele>
        <time>2017-12-06T13:27:10Z</time>
      </trkpt>
      <trkpt lat="44.17562" lon="2.05904">
        <ele>169</ele>
        <time>2017-12-06T13:27:12Z</time>
      </trkpt>
      <trkpt lat="44.1756" lon="2.05902">
        <ele>168</ele>
        <time>2017-12-06T13:27:14Z</time>
      </trkpt>
      <trkpt lat="44.17557" lon="2.05901">
        <ele>167</ele>
        <time>2017-12-06T13:27:16Z</time>
      </trkpt>
      <trkpt lat="44.17555" lon="2.059">
        <ele>166</ele>
        <time>2017-12-06T13:27:18Z</time>
      </trkpt>
      <trkpt lat="44.17552" lon="2.05899">
        <ele>165</ele>
        <time>2017-12-06T13:27:20Z</time>
      </trkpt>
      <trkpt lat="44.17549" lon="2.05898">
        <ele>164</ele>
        <time>2017-12-06T13:27:22Z</time>
      </trkpt>
      <trkpt lat="44.17547" lon="2.05897">
        <ele>163</ele>
        <time>2017-12-06T13:27:24Z</time>
      </trkpt>
      <trkpt lat="44.17545" lon="2.05897">
        <ele>162</ele>
        <time>2017-12-06T13:27:26Z</time>
      </trkpt>
      <trkpt lat="44.17542" lon="2.05897">
        <ele>161</ele>
        <time>2017-12-06T13:27:28Z</time>
      </trkpt>
      <trkpt lat="44.1754" lon="2.05896">
        <ele>160</ele>
        <time>2017-12-06T13:27:30Z</time>
      </trkpt>
      <trkpt lat="44.17537" lon="2.05897">
        <ele>159</ele>
        <time>2017-12-06T13:27:32Z</time>
      </trkpt>
      <trkpt lat="44.17534" lon="2.05897">
        <ele>158</ele>
        <time>2017-12-06T13:27:34Z</time>
      </trkpt>
      <trkpt lat="44.17531" lon="2.05898">
        <ele>158</ele>
        <time>2017-12-06T13:27:36Z</time>
      </trkpt>
      <trkpt lat="44.17528" lon="2.05898">
        <ele>158</ele>
        <time>2017-12-06T13:27:38Z</time>
      </trkpt>
      <trkpt lat="44.17524" lon="2.059">
        <ele>158</ele>
        <time>2017-12-06T13:27:40Z</time>
      </trkpt>
      <trkpt lat="44.1752" lon="2.05904">
        <ele>160</ele>
        <time>2017-12-06T13:27:42Z</time>
      </trkpt>
      <trkpt lat="44.17517" lon="2.05904">
        <ele>161</ele>
        <time>2017-12-06T13:27:44Z</time>
      </trkpt>
      <trkpt lat="44.17514" lon="2.05905">
        <ele>163</ele>
        <time>2017-12-06T13:27:46Z</time>
      </trkpt>
      <trkpt lat="44.17511" lon="2.05906">
        <ele>165</ele>
        <time>2017-12-06T13:27:48Z</time>
      </trkpt>
      <trkpt lat="44.17508" lon="2.05907">
        <ele>167</ele>
        <time>2017-12-06T13:27:50Z</time>
      </trkpt>
      <trkpt lat="44.17504" lon="2.0591">
        <ele>170</ele>
        <time>2017-12-06T13:27:52Z</time>
      </trkpt>
      <trkpt lat="44.17501" lon="2.05911">
        <ele>172</ele>
        <time>2017-12-06T13:27:54Z</time>
      </trkpt>
      <trkpt lat="44.17499" lon="2.05912">
        <ele>175</ele>
        <time>2017-12-06T13:27:56Z</time>
      </trkpt>
      <trkpt lat="44.17497" lon="2.05915">
        <ele>177</ele>
        <time>2017-12-06T13:27:58Z</time>
      </trkpt>
      <trkpt lat="44.17495" lon="2.05916">
        <ele>179</ele>
        <time>2017-12-06T13:28:00Z</time>
      </trkpt>
      <trkpt lat="44.17492" lon="2.05917">
        <ele>181</ele>
        <time>2017-12-06T13:28:02Z</time>
      </trkpt>
      <trkpt lat="44.17488" lon="2.05917">
        <ele>183</ele>
        <time>2017-12-06T13:28:04Z</time>
      </trkpt>
      <trkpt lat="44.17485" lon="2.05918">
        <ele>185</ele>
        <time>2017-12-06T13:28:06Z</time>
      </trkpt>
      <trkpt lat="44.17482" lon="2.05919">
        <ele>187</ele>
        <time>2017-12-06T13:28:08Z</time>
      </trkpt>
      <trkpt lat="44.17478" lon="2.0592">
        <ele>190</ele>
        <time>2017-12-06T13:28:10Z</time>
      </trkpt>
      <trkpt lat="44.17475" lon="2.05921">
        <ele>192</ele>
        <time>2017-12-06T13:28:12Z</time>
      </trkpt>
      <trkpt lat="44.17472" lon="2.05923">
        <ele>195</ele>
        <time>2017-12-06T13:28:14Z</time>
      </trkpt>
      <trkpt lat="44.17468" lon="2.05923">
        <ele>198</ele>
        <time>2017-12-06T13:28:16Z</time>
      </trkpt>
      <trkpt lat="44.17465" lon="2.05923">
        <ele>200</ele>
        <time>2017-12-06T13:28:18Z</time>
      </trkpt>
      <trkpt lat="44.17462" lon="2.05922">
        <ele>202</ele>
        <time>2017-12-06T13:28:20Z</time>
      </trkpt>
      <trkpt lat="44.17459" lon="2.05922">
        <ele>204</ele>
        <time>2017-12-06T13:28:22Z</time>
      </trkpt>
      <trkpt lat="44.17456" lon="2.05921">
        <ele>206</ele>
        <time>2017-12-06T13:28:24Z</time>
      </trkpt>
      <trkpt lat="44.17454" lon="2.0592">
        <ele>207</ele>
        <time>2017-12-06T13:28:26Z</time>
      </trkpt>
      <trkpt lat="44.17451" lon="2.05919">
        <ele>208</ele>
        <time>2017-12-06T13:28:28Z</time>
      </trkpt>
      <trkpt lat="44.17449" lon="2.05919">
        <ele>209</ele>
        <time>2017-12-06T13:28:30Z</time>
      </trkpt>
      <trkpt lat="44.17447" lon="2.05917">
        <ele>209</ele>
        <time>2017-12-06T13:28:32Z</time>
      </trkpt>
      <trkpt lat="44.17444" lon="2.05917">
        <ele>209</ele>
        <time>2017-12-06T13:28:34Z</time>
      </trkpt>
      <trkpt lat="44.17442" lon="2.05916">
        <ele>208</ele>
        <time>2017-12-06T13:28:36Z</time>
      </trkpt>
      <trkpt lat="44.17439" lon="2.05916">
        <ele>208</ele>
        <time>2017-12-06T13:28:38Z</time>
      </trkpt>
      <trkpt lat="44.17437" lon="2.05915">
        <ele>208</ele>
        <time>2017-12-06T13:28:40Z</time>
      </trkpt>
      <trkpt lat="44.17434" lon="2.05915">
        <ele>207</ele>
        <time>2017-12-06T13:28:42Z</time>
      </trkpt>
      <trkpt lat="44.17432" lon="2.05913">
        <ele>207</ele>
        <time>2017-12-06T13:28:44Z</time>
      </trkpt>
      <trkpt lat="44.17429" lon="2.05912">
        <ele>207</ele>
        <time>2017-12-06T13:28:46Z</time>
      </trkpt>
      <trkpt lat="44.17427" lon="2.05911">
        <ele>206</ele>
        <time>2017-12-06T13:28:48Z</time>
      </trkpt>
      <trkpt lat="44.17425" lon="2.05909">
        <ele>206</ele>
        <time>2017-12-06T13:28:50Z</time>
      </trkpt>
      <trkpt lat="44.17423" lon="2.05907">
        <ele>205</ele>
        <time>2017-12-06T13:28:52Z</time>
      </trkpt>
      <trkpt lat="44.17421" lon="2.05904">
        <ele>205</ele>
        <time>2017-12-06T13:28:54Z</time>
      </trkpt>
      <trkpt lat="44.17419" lon="2.05903">
        <ele>204</ele>
        <time>2017-12-06T13:28:56Z</time>
      </trkpt>
      <trkpt lat="44.17417" lon="2.059">
        <ele>203</ele>
        <time>2017-12-06T13:28:58Z</time>
      </trkpt>
      <trkpt lat="44.17415" lon="2.05896">
        <ele>202</ele>
        <time>2017-12-06T13:29:00Z</time>
      </trkpt>
      <trkpt lat="44.17413" lon="2.05894">
        <ele>201</ele>
        <time>2017-12-06T13:29:02Z</time>
      </trkpt>
      <trkpt lat="44.17411" lon="2.05891">
        <ele>200</ele>
        <time>2017-12-06T13:29:04Z</time>
      </trkpt>
      <trkpt lat="44.1741" lon="2.0589">
        <ele>199</ele>
        <time>2017-12-06T13:29:06Z</time>
      </trkpt>
      <trkpt lat="44.17408" lon="2.05887">
        <ele>198</ele>
        <time>2017-12-06T13:29:08Z</time>
      </trkpt>
      <trkpt lat="44.17405" lon="2.05884">
        <ele>197</ele>
        <time>2017-12-06T13:29:10Z</time>
      </trkpt>
      <trkpt lat="44.17403" lon="2.05881">
        <ele>196</ele>
        <time>2017-12-06T13:29:12Z</time>
      </trkpt>
      <trkpt lat="44.17401" lon="2.05878">
        <ele>194</ele>
        <time>2017-12-06T13:29:14Z</time>
      </trkpt>
      <trkpt lat="44.17399" lon="2.05875">
        <ele>193</ele>
        <time>2017-12-06T13:29:16Z</time>
      </trkpt>
      <trkpt lat="44.17397" lon="2.05873">
        <ele>193</ele>
        <time>2017-12-06T13:29:18Z</time>
      </trkpt>
      <trkpt lat="44.17395" lon="2.0587">
        <ele>192</ele>
        <time>2017-12-06T13:29:20Z</time>
      </trkpt>
      <trkpt lat="44.17393" lon="2.05867">
        <ele>191</ele>
        <time>2017-12-06T13:29:22Z</time>
      </trkpt>
      <trkpt lat="44.1739" lon="2.05862">
        <ele>190</ele>
        <time>2017-12-06T13:29:24Z</time>
      </trkpt>
      <trkpt lat="44.17389" lon="2.05859">
        <ele>190</ele>
        <time>2017-12-06T13:29:26Z</time>
      </trkpt>
      <trkpt lat="44.17387" lon="2.05857">
        <ele>189</ele>
        <time>2017-12-06T13:29:28Z</time>
      </trkpt>
      <trkpt lat="44.17385" lon="2.05853">
        <ele>188</ele>
        <time>2017-12-06T13:29:30Z</time>
      </trkpt>
      <trkpt lat="44.17383" lon="2.05851">
        <ele>187</ele>
        <time>2017-12-06T13:29:32Z</time>
      </trkpt>
      <trkpt lat="44.17382" lon="2.05849">
        <ele>186</ele>
        <time>2017-12-06T13:29:34Z</time>
      </trkpt>
      <trkpt lat="44.17379" lon="2.05846">
        <ele>186</ele>
        <time>2017-12-06T13:29:36Z</time>
      </trkpt>
      <trkpt lat="44.17377" lon="2.05843">
        <ele>185</ele>
        <time>2017-12-06T13:29:38Z</time>
      </trkpt>
      <trkpt lat="44.17374" lon="2.05841">
        <ele>185</ele>
        <time>2017-12-06T13:29:40Z</time>
      </trkpt>
      <trkpt lat="44.17371" lon="2.05838">
        <ele>185</ele>
        <time>2017-12-06T13:29:42Z</time>
      </trkpt>
      <trkpt lat="44.17369" lon="2.05836">
        <ele>185</ele>
        <time>2017-12-06T13:29:44Z</time>
      </trkpt>
      <trkpt lat="44.17367" lon="2.05834">
        <ele>184</ele>
        <time>2017-12-06T13:29:46Z</time>
      </trkpt>
      <trkpt lat="44.17366" lon="2.05831">
        <ele>184</ele>
        <time>2017-12-06T13:29:48Z</time>
      </trkpt>
      <trkpt lat="44.17364" lon="2.05827">
        <ele>184</ele>
        <time>2017-12-06T13:29:50Z</time>
      </trkpt>
      <trkpt lat="44.17363" lon="2.05824">
        <ele>184</ele>
        <time>2017-12-06T13:29:52Z</time>
      </trkpt>
      <trkpt lat="44.17362" lon="2.05822">
        <ele>183</ele>
        <time>2017-12-06T13:29:54Z</time>
      </trkpt>
      <trkpt lat="44.17361" lon="2.05819">
        <ele>183</ele>
        <time>2017-12-06T13:29:56Z</time>
      </trkpt>
      <trkpt lat="44.1736" lon="2.05816">
        <ele>182</ele>
        <time>2017-12-06T13:29:58Z</time>
      </trkpt>
      <trkpt lat="44.17358" lon="2.05814">
        <ele>180</ele>
        <time>2017-12-06T13:30:00Z</time>
      </trkpt>
      <trkpt lat="44.17356" lon="2.05811">
        <ele>180</ele>
        <time>2017-12-06T13:30:02Z</time>
      </trkpt>
      <trkpt lat="44.17355" lon="2.05808">
        <ele>179</ele>
        <time>2017-12-06T13:30:04Z</time>
      </trkpt>
      <trkpt lat="44.17353" lon="2.05804">
        <ele>178</ele>
        <time>2017-12-06T13:30:06Z</time>
      </trkpt>
      <trkpt lat="44.17352" lon="2.05801">
        <ele>177</ele>
        <time>2017-12-06T13:30:08Z</time>
      </trkpt>
      <trkpt lat="44.1735" lon="2.05798">
        <ele>176</ele>
        <time>2017-12-06T13:30:10Z</time>
      </trkpt>
      <trkpt lat="44.17348" lon="2.05795">
        <ele>176</ele>
        <time>2017-12-06T13:30:12Z</time>
      </trkpt>
      <trkpt lat="44.17346" lon="2.05791">
        <ele>176</ele>
        <time>2017-12-06T13:30:14Z</time>
      </trkpt>
      <trkpt lat="44.17345" lon="2.05788">
        <ele>176</ele>
        <time>2017-12-06T13:30:16Z</time>
      </trkpt>
      <trkpt lat="44.17343" lon="2.05785">
        <ele>175</ele>
        <time>2017-12-06T13:30:18Z</time>
      </trkpt>
      <trkpt lat="44.1734" lon="2.05781">
        <ele>175</ele>
        <time>2017-12-06T13:30:20Z</time>
      </trkpt>
      <trkpt lat="44.17339" lon="2.05778">
        <ele>175</ele>
        <time>2017-12-06T13:30:22Z</time>
      </trkpt>
      <trkpt lat="44.17337" lon="2.05775">
        <ele>176</ele>
        <time>2017-12-06T13:30:24Z</time>
      </trkpt>
      <trkpt lat="44.17335" lon="2.05771">
        <ele>176</ele>
        <time>2017-12-06T13:30:26Z</time>
      </trkpt>
      <trkpt lat="44.17334" lon="2.05768">
        <ele>176</ele>
        <time>2017-12-06T13:30:28Z</time>
      </trkpt>
      <trkpt lat="44.17332" lon="2.05764">
        <ele>176</ele>
        <time>2017-12-06T13:30:30Z</time>
      </trkpt>
      <trkpt lat="44.17331" lon="2.05761">
        <ele>176</ele>
        <time>2017-12-06T13:30:32Z</time>
      </trkpt>
      <trkpt lat="44.1733" lon="2.05758">
        <ele>176</ele>
        <time>2017-12-06T13:30:34Z</time>
      </trkpt>
      <trkpt lat="44.17328" lon="2.05756">
        <ele>176</ele>
        <time>2017-12-06T13:30:36Z</time>
      </trkpt>
      <trkpt lat="44.17328" lon="2.05752">
        <ele>176</ele>
        <time>2017-12-06T13:30:38Z</time>
      </trkpt>
      <trkpt lat="44.17327" lon="2.05748">
        <ele>175</ele>
        <time>2017-12-06T13:30:40Z</time>
      </trkpt>
      <trkpt lat="44.17325" lon="2.05744">
        <ele>175</ele>
        <time>2017-12-06T13:30:42Z</time>
      </trkpt>
      <trkpt lat="44.17324" lon="2.05741">
        <ele>174</ele>
        <time>2017-12-06T13:30:44Z</time>
      </trkpt>
      <trkpt lat="44.17322" lon="2.05737">
        <ele>174</ele>
        <time>2017-12-06T13:30:46Z</time>
      </trkpt>
      <trkpt lat="44.1732" lon="2.05735">
        <ele>174</ele>
        <time>2017-12-06T13:30:48Z</time>
      </trkpt>
      <trkpt lat="44.17319" lon="2.05732">
        <ele>173</ele>
        <time>2017-12-06T13:30:50Z</time>
      </trkpt>
      <trkpt lat="44.17319" lon="2.0573">
        <ele>173</ele>
        <time>2017-12-06T13:30:52Z</time>
      </trkpt>
      <trkpt lat="44.17318" lon="2.05726">
        <ele>172</ele>
        <time>2017-12-06T13:30:54Z</time>
      </trkpt>
      <trkpt lat="44.17317" lon="2.05723">
        <ele>172</ele>
        <time>2017-12-06T13:30:56Z</time>
      </trkpt>
      <trkpt lat="44.17316" lon="2.0572">
        <ele>171</ele>
        <time>2017-12-06T13:30:58Z</time>
      </trkpt>
      <trkpt lat="44.17313" lon="2.05715">
        <ele>170</ele>
        <time>2017-12-06T13:31:00Z</time>
      </trkpt>
      <trkpt lat="44.17312" lon="2.05711">
        <ele>170</ele>
        <time>2017-12-06T13:31:02Z</time>
      </trkpt>
      <trkpt lat="44.17308" lon="2.05707">
        <ele>169</ele>
        <time>2017-12-06T13:31:04Z</time>
      </trkpt>
      <trkpt lat="44.17307" lon="2.05703">
        <ele>169</ele>
        <time>2017-12-06T13:31:06Z</time>
      </trkpt>
      <trkpt lat="44.17306" lon="2.057">
        <ele>169</ele>
        <time>2017-12-06T13:31:08Z</time>
      </trkpt>
      <trkpt lat="44.17305" lon="2.05697">
        <ele>170</ele>
        <time>2017-12-06T13:31:10Z</time>
      </trkpt>
      <trkpt lat="44.17303" lon="2.05693">
        <ele>170</ele>
        <time>2017-12-06T13:31:12Z</time>
      </trkpt>
      <trkpt lat="44.17301" lon="2.0569">
        <ele>170</ele>
        <time>2017-12-06T13:31:14Z</time>
      </trkpt>
      <trkpt lat="44.173" lon="2.05688">
        <ele>170</ele>
        <time>2017-12-06T13:31:16Z</time>
      </trkpt>
      <trkpt lat="44.17299" lon="2.05685">
        <ele>170</ele>
        <time>2017-12-06T13:31:18Z</time>
      </trkpt>
      <trkpt lat="44.17297" lon="2.05682">
        <ele>170</ele>
        <time>2017-12-06T13:31:20Z</time>
      </trkpt>
      <trkpt lat="44.17296" lon="2.0568">
        <ele>169</ele>
        <time>2017-12-06T13:31:22Z</time>
      </trkpt>
      <trkpt lat="44.17295" lon="2.05677">
        <ele>169</ele>
        <time>2017-12-06T13:31:24Z</time>
      </trkpt>
      <trkpt lat="44.17295" lon="2.05674">
        <ele>168</ele>
        <time>2017-12-06T13:31:26Z</time>
      </trkpt>
      <trkpt lat="44.17293" lon="2.05672">
        <ele>167</ele>
        <time>2017-12-06T13:31:28Z</time>
      </trkpt>
      <trkpt lat="44.17293" lon="2.05669">
        <ele>166</ele>
        <time>2017-12-06T13:31:30Z</time>
      </trkpt>
      <trkpt lat="44.17292" lon="2.05666">
        <ele>165</ele>
        <time>2017-12-06T13:31:32Z</time>
      </trkpt>
      <trkpt lat="44.17291" lon="2.05663">
        <ele>165</ele>
        <time>2017-12-06T13:31:34Z</time>
      </trkpt>
      <trkpt lat="44.1729" lon="2.05661">
        <ele>164</ele>
        <time>2017-12-06T13:31:36Z</time>
      </trkpt>
      <trkpt lat="44.17288" lon="2.05657">
        <ele>163</ele>
        <time>2017-12-06T13:31:38Z</time>
      </trkpt>
      <trkpt lat="44.17288" lon="2.05654">
        <ele>163</ele>
        <time>2017-12-06T13:31:40Z</time>
      </trkpt>
      <trkpt lat="44.17287" lon="2.05651">
        <ele>162</ele>
        <time>2017-12-06T13:31:42Z</time>
      </trkpt>
      <trkpt lat="44.17286" lon="2.05648">
        <ele>162</ele>
        <time>2017-12-06T13:31:44Z</time>
      </trkpt>
      <trkpt lat="44.17285" lon="2.05644">
        <ele>161</ele>
        <time>2017-12-06T13:31:46Z</time>
      </trkpt>
      <trkpt lat="44.17284" lon="2.0564">
        <ele>161</ele>
        <time>2017-12-06T13:31:48Z</time>
      </trkpt>
      <trkpt lat="44.17283" lon="2.05637">
        <ele>160</ele>
        <time>2017-12-06T13:31:50Z</time>
      </trkpt>
      <trkpt lat="44.17282" lon="2.05632">
        <ele>160</ele>
        <time>2017-12-06T13:31:52Z</time>
      </trkpt>
      <trkpt lat="44.1728" lon="2.05628">
        <ele>159</ele>
        <time>2017-12-06T13:31:54Z</time>
      </trkpt>
      <trkpt lat="44.17278" lon="2.05623">
        <ele>159</ele>
        <time>2017-12-06T13:31:56Z</time>
      </trkpt>
      <trkpt lat="44.17277" lon="2.05619">
        <ele>158</ele>
        <time>2017-12-06T13:31:58Z</time>
      </trkpt>
      <trkpt lat="44.17276" lon="2.05615">
        <ele>159</ele>
        <time>2017-12-06T13:32:00Z</time>
      </trkpt>
      <trkpt lat="44.17274" lon="2.0561">
        <ele>159</ele>
        <time>2017-12-06T13:32:02Z</time>
      </trkpt>
      <trkpt lat="44.17272" lon="2.05604">
        <ele>159</ele>
        <time>2017-12-06T13:32:04Z</time>
      </trkpt>
      <trkpt lat="44.1727" lon="2.056">
        <ele>160</ele>
        <time>2017-12-06T13:32:06Z</time>
      </trkpt>
      <trkpt lat="44.17267" lon="2.05597">
        <ele>161</ele>
        <time>2017-12-06T13:32:08Z</time>
      </trkpt>
      <trkpt lat="44.17266" lon="2.05594">
        <ele>162</ele>
        <time>2017-12-06T13:32:10Z</time>
      </trkpt>
      <trkpt lat="44.17265" lon="2.0559">
        <ele>163</ele>
        <time>2017-12-06T13:32:12Z</time>
      </trkpt>
      <trkpt lat="44.17263" lon="2.05586">
        <ele>164</ele>
        <time>2017-12-06T13:32:14Z</time>
      </trkpt>
      <trkpt lat="44.17261" lon="2.05582">
        <ele>165</ele>
        <time>2017-12-06T13:32:16Z</time>
      </trkpt>
      <trkpt lat="44.1726" lon="2.05578">
        <ele>165</ele>
        <time>2017-12-06T13:32:18Z</time>
      </trkpt>
      <trkpt lat="44.17257" lon="2.05574">
        <ele>166</ele>
        <time>2017-12-06T13:32:20Z</time>
      </trkpt>
      <trkpt lat="44.17255" lon="2.05571">
        <ele>166</ele>
        <time>2017-12-06T13:32:22Z</time>
      </trkpt>
      <trkpt lat="44.17253" lon="2.05569">
        <ele>166</ele>
        <time>2017-12-06T13:32:24Z</time>
      </trkpt>
      <trkpt lat="44.17251" lon="2.05566">
        <ele>166</ele>
        <time>2017-12-06T13:32:26Z</time>
      </trkpt>
      <trkpt lat="44.17249" lon="2.05562">
        <ele>166</ele>
        <time>2017-12-06T13:32:28Z</time>
      </trkpt>
      <trkpt lat="44.17247" lon="2.05559">
        <ele>166</ele>
        <time>2017-12-06T13:32:30Z</time>
      </trkpt>
      <trkpt lat="44.17245" lon="2.05556">
        <ele>166</ele>
        <time>2017-12-06T13:32:32Z</time>
      </trkpt>
      <trkpt lat="44.17244" lon="2.05552">
        <ele>166</ele>
        <time>2017-12-06T13:32:34Z</time>
      </trkpt>
      <trkpt lat="44.17242" lon="2.05548">
        <ele>167</ele>
        <time>2017-12-06T13:32:36Z</time>
      </trkpt>
      <trkpt lat="44.17241" lon="2.05544">
        <ele>167</ele>
        <time>2017-12-06T13:32:38Z</time>
      </trkpt>
      <trkpt lat="44.17239" lon="2.05541">
        <ele>168</ele>
        <time>2017-12-06T13:32:40Z</time>
      </trkpt>
      <trkpt lat="44.17239" lon="2.05537">
        <ele>168</ele>
        <time>2017-12-06T13:32:42Z</time>
      </trkpt>
      <trkpt lat="44.17238" lon="2.05533">
        <ele>168</ele>
        <time>2017-12-06T13:32:44Z</time>
      </trkpt>
      <trkpt lat="44.17237" lon="2.05529">
        <ele>169</ele>
        <time>2017-12-06T13:32:46Z</time>
      </trkpt>
      <trkpt lat="44.17236" lon="2.05526">
        <ele>169</ele>
        <time>2017-12-06T13:32:48Z</time>
      </trkpt>
      <trkpt lat="44.17236" lon="2.05524">
        <ele>169</ele>
        <time>2017-12-06T13:32:50Z</time>
      </trkpt>
      <trkpt lat="44.17236" lon="2.05524">
        <ele>169</ele>
        <time>2017-12-06T13:32:52Z</time>
      </trkpt>
      <trkpt lat="44.17236" lon="2.05524">
        <ele>169</ele>
        <time>2017-12-06T13:32:54Z</time>
      </trkpt>
      <trkpt lat="44.17234" lon="2.05515">
        <ele>169</ele>
        <time>2017-12-06T13:32:56Z</time>
      </trkpt>
      <trkpt lat="44.17234" lon="2.0551">
        <ele>169</ele>
        <time>2017-12-06T13:32:58Z</time>
      </trkpt>
      <trkpt lat="44.17233" lon="2.05507">
        <ele>168</ele>
        <time>2017-12-06T13:33:00Z</time>
      </trkpt>
      <trkpt lat="44.17232" lon="2.05503">
        <ele>168</ele>
        <time>2017-12-06T13:33:02Z</time>
      </trkpt>
      <trkpt lat="44.17232" lon="2.05499">
        <ele>167</ele>
        <time>2017-12-06T13:33:04Z</time>
      </trkpt>
      <trkpt lat="44.17232" lon="2.05495">
        <ele>166</ele>
        <time>2017-12-06T13:33:06Z</time>
      </trkpt>
      <trkpt lat="44.17232" lon="2.05492">
        <ele>166</ele>
        <time>2017-12-06T13:33:08Z</time>
      </trkpt>
      <trkpt lat="44.17232" lon="2.05487">
        <ele>165</ele>
        <time>2017-12-06T13:33:10Z</time>
      </trkpt>
      <trkpt lat="44.17232" lon="2.05482">
        <ele>164</ele>
        <time>2017-12-06T13:33:12Z</time>
      </trkpt>
      <trkpt lat="44.17232" lon="2.05477">
        <ele>163</ele>
        <time>2017-12-06T13:33:14Z</time>
      </trkpt>
      <trkpt lat="44.17231" lon="2.05473">
        <ele>162</ele>
        <time>2017-12-06T13:33:16Z</time>
      </trkpt>
      <trkpt lat="44.17232" lon="2.05471">
        <ele>162</ele>
        <time>2017-12-06T13:33:18Z</time>
      </trkpt>
      <trkpt lat="44.17231" lon="2.05466">
        <ele>162</ele>
        <time>2017-12-06T13:33:20Z</time>
      </trkpt>
      <trkpt lat="44.17231" lon="2.05462">
        <ele>161</ele>
        <time>2017-12-06T13:33:22Z</time>
      </trkpt>
      <trkpt lat="44.1723" lon="2.05457">
        <ele>161</ele>
        <time>2017-12-06T13:33:24Z</time>
      </trkpt>
      <trkpt lat="44.17228" lon="2.05452">
        <ele>161</ele>
        <time>2017-12-06T13:33:26Z</time>
      </trkpt>
      <trkpt lat="44.17228" lon="2.05448">
        <ele>161</ele>
        <time>2017-12-06T13:33:28Z</time>
      </trkpt>
      <trkpt lat="44.17227" lon="2.05445">
        <ele>161</ele>
        <time>2017-12-06T13:33:30Z</time>
      </trkpt>
      <trkpt lat="44.17228" lon="2.05441">
        <ele>161</ele>
        <time>2017-12-06T13:33:32Z</time>
      </trkpt>
      <trkpt lat="44.17228" lon="2.05438">
        <ele>161</ele>
        <time>2017-12-06T13:33:34Z</time>
      </trkpt>
      <trkpt lat="44.17229" lon="2.05435">
        <ele>161</ele>
        <time>2017-12-06T13:33:36Z</time>
      </trkpt>
      <trkpt lat="44.17228" lon="2.05431">
        <ele>161</ele>
        <time>2017-12-06T13:33:38Z</time>
      </trkpt>
      <trkpt lat="44.17227" lon="2.05427">
        <ele>161</ele>
        <time>2017-12-06T13:33:40Z</time>
      </trkpt>
      <trkpt lat="44.17227" lon="2.05423">
        <ele>160</ele>
        <time>2017-12-06T13:33:42Z</time>
      </trkpt>
      <trkpt lat="44.17225" lon="2.05418">
        <ele>160</ele>
        <time>2017-12-06T13:33:44Z</time>
      </trkpt>
      <trkpt lat="44.17226" lon="2.05414">
        <ele>160</ele>
        <time>2017-12-06T13:33:46Z</time>
      </trkpt>
      <trkpt lat="44.17226" lon="2.0541">
        <ele>159</ele>
        <time>2017-12-06T13:33:48Z</time>
      </trkpt>
      <trkpt lat="44.17225" lon="2.05407">
        <ele>159</ele>
        <time>2017-12-06T13:33:50Z</time>
      </trkpt>
      <trkpt lat="44.17224" lon="2.05403">
        <ele>159</ele>
        <time>2017-12-06T13:33:52Z</time>
      </trkpt>
      <trkpt lat="44.17223" lon="2.054">
        <ele>159</ele>
        <time>2017-12-06T13:33:54Z</time>
      </trkpt>
      <trkpt lat="44.17223" lon="2.05396">
        <ele>159</ele>
        <time>2017-12-06T13:33:56Z</time>
      </trkpt>
      <trkpt lat="44.17224" lon="2.05393">
        <ele>159</ele>
        <time>2017-12-06T13:33:58Z</time>
      </trkpt>
      <trkpt lat="44.17223" lon="2.0539">
        <ele>159</ele>
        <time>2017-12-06T13:34:00Z</time>
      </trkpt>
      <trkpt lat="44.17224" lon="2.05387">
        <ele>159</ele>
        <time>2017-12-06T13:34:02Z</time>
      </trkpt>
      <trkpt lat="44.17224" lon="2.05381">
        <ele>159</ele>
        <time>2017-12-06T13:34:04Z</time>
      </trkpt>
      <trkpt lat="44.17224" lon="2.05376">
        <ele>159</ele>
        <time>2017-12-06T13:34:06Z</time>
      </trkpt>
      <trkpt lat="44.17224" lon="2.05372">
        <ele>159</ele>
        <time>2017-12-06T13:34:08Z</time>
      </trkpt>
      <trkpt lat="44.17224" lon="2.05368">
        <ele>159</ele>
        <time>2017-12-06T13:34:10Z</time>
      </trkpt>
      <trkpt lat="44.17224" lon="2.05363">
        <ele>158</ele>
        <time>2017-12-06T13:34:12Z</time>
      </trkpt>
      <trkpt lat="44.17225" lon="2.05359">
        <ele>158</ele>
        <time>2017-12-06T13:34:14Z</time>
      </trkpt>
      <trkpt lat="44.17226" lon="2.05355">
        <ele>158</ele>
        <time>2017-12-06T13:34:16Z</time>
      </trkpt>
      <trkpt lat="44.17227" lon="2.05351">
        <ele>158</ele>
        <time>2017-12-06T13:34:18Z</time>
      </trkpt>
      <trkpt lat="44.17229" lon="2.05348">
        <ele>157</ele>
        <time>2017-12-06T13:34:20Z</time>
      </trkpt>
      <trkpt lat="44.1723" lon="2.05345">
        <ele>157</ele>
        <time>2017-12-06T13:34:22Z</time>
      </trkpt>
      <trkpt lat="44.1723" lon="2.0534">
        <ele>157</ele>
        <time>2017-12-06T13:34:24Z</time>
      </trkpt>
      <trkpt lat="44.17229" lon="2.05336">
        <ele>157</ele>
        <time>2017-12-06T13:34:26Z</time>
      </trkpt>
      <trkpt lat="44.17228" lon="2.05332">
        <ele>157</ele>
        <time>2017-12-06T13:34:28Z</time>
      </trkpt>
      <trkpt lat="44.17228" lon="2.05328">
        <ele>157</ele>
        <time>2017-12-06T13:34:30Z</time>
      </trkpt>
      <trkpt lat="44.17228" lon="2.05328">
        <ele>157</ele>
        <time>2017-12-06T13:34:32Z</time>
      </trkpt>
      <trkpt lat="44.17225" lon="2.05319">
        <ele>158</ele>
        <time>2017-12-06T13:34:34Z</time>
      </trkpt>
      <trkpt lat="44.17223" lon="2.05314">
        <ele>159</ele>
        <time>2017-12-06T13:34:36Z</time>
      </trkpt>
      <trkpt lat="44.17223" lon="2.0531">
        <ele>160</ele>
        <time>2017-12-06T13:34:38Z</time>
      </trkpt>
      <trkpt lat="44.17221" lon="2.05306">
        <ele>161</ele>
        <time>2017-12-06T13:34:40Z</time>
      </trkpt>
      <trkpt lat="44.17221" lon="2.05306">
        <ele>162</ele>
        <time>2017-12-06T13:34:42Z</time>
      </trkpt>
      <trkpt lat="44.17221" lon="2.05299">
        <ele>163</ele>
        <time>2017-12-06T13:34:44Z</time>
      </trkpt>
      <trkpt lat="44.17221" lon="2.05295">
        <ele>163</ele>
        <time>2017-12-06T13:34:46Z</time>
      </trkpt>
      <trkpt lat="44.17219" lon="2.0529">
        <ele>164</ele>
        <time>2017-12-06T13:34:48Z</time>
      </trkpt>
      <trkpt lat="44.17218" lon="2.05286">
        <ele>164</ele>
        <time>2017-12-06T13:34:50Z</time>
      </trkpt>
      <trkpt lat="44.17217" lon="2.05282">
        <ele>165</ele>
        <time>2017-12-06T13:34:52Z</time>
      </trkpt>
      <trkpt lat="44.17215" lon="2.05279">
        <ele>165</ele>
        <time>2017-12-06T13:34:54Z</time>
      </trkpt>
      <trkpt lat="44.17214" lon="2.05274">
        <ele>166</ele>
        <time>2017-12-06T13:34:56Z</time>
      </trkpt>
      <trkpt lat="44.17214" lon="2.05269">
        <ele>166</ele>
        <time>2017-12-06T13:34:58Z</time>
      </trkpt>
      <trkpt lat="44.17213" lon="2.05265">
        <ele>166</ele>
        <time>2017-12-06T13:35:00Z</time>
      </trkpt>
      <trkpt lat="44.17211" lon="2.05262">
        <ele>166</ele>
        <time>2017-12-06T13:35:02Z</time>
      </trkpt>
      <trkpt lat="44.1721" lon="2.05258">
        <ele>167</ele>
        <time>2017-12-06T13:35:04Z</time>
      </trkpt>
      <trkpt lat="44.17209" lon="2.05254">
        <ele>167</ele>
        <time>2017-12-06T13:35:06Z</time>
      </trkpt>
      <trkpt lat="44.17208" lon="2.05251">
        <ele>167</ele>
        <time>2017-12-06T13:35:08Z</time>
      </trkpt>
      <trkpt lat="44.17208" lon="2.05247">
        <ele>167</ele>
        <time>2017-12-06T13:35:10Z</time>
      </trkpt>
      <trkpt lat="44.17208" lon="2.05243">
        <ele>167</ele>
        <time>2017-12-06T13:35:12Z</time>
      </trkpt>
      <trkpt lat="44.17208" lon="2.0524">
        <ele>167</ele>
        <time>2017-12-06T13:35:14Z</time>
      </trkpt>
      <trkpt lat="44.17208" lon="2.05235">
        <ele>167</ele>
        <time>2017-12-06T13:35:16Z</time>
      </trkpt>
      <trkpt lat="44.17207" lon="2.05232">
        <ele>167</ele>
        <time>2017-12-06T13:35:18Z</time>
      </trkpt>
      <trkpt lat="44.17208" lon="2.05228">
        <ele>167</ele>
        <time>2017-12-06T13:35:20Z</time>
      </trkpt>
      <trkpt lat="44.17208" lon="2.05228">
        <ele>167</ele>
        <time>2017-12-06T13:35:22Z</time>
      </trkpt>
      <trkpt lat="44.17207" lon="2.0522">
        <ele>168</ele>
        <time>2017-12-06T13:35:24Z</time>
      </trkpt>
      <trkpt lat="44.17207" lon="2.05216">
        <ele>168</ele>
        <time>2017-12-06T13:35:26Z</time>
      </trkpt>
      <trkpt lat="44.17207" lon="2.05211">
        <ele>168</ele>
        <time>2017-12-06T13:35:28Z</time>
      </trkpt>
      <trkpt lat="44.17208" lon="2.05207">
        <ele>168</ele>
        <time>2017-12-06T13:35:30Z</time>
      </trkpt>
      <trkpt lat="44.17208" lon="2.05203">
        <ele>169</ele>
        <time>2017-12-06T13:35:32Z</time>
      </trkpt>
      <trkpt lat="44.17207" lon="2.05199">
        <ele>169</ele>
        <time>2017-12-06T13:35:34Z</time>
      </trkpt>
      <trkpt lat="44.17208" lon="2.05195">
        <ele>169</ele>
        <time>2017-12-06T13:35:36Z</time>
      </trkpt>
      <trkpt lat="44.17208" lon="2.0519">
        <ele>170</ele>
        <time>2017-12-06T13:35:38Z</time>
      </trkpt>
      <trkpt lat="44.17209" lon="2.05187">
        <ele>170</ele>
        <time>2017-12-06T13:35:40Z</time>
      </trkpt>
      <trkpt lat="44.17209" lon="2.05184">
        <ele>171</ele>
        <time>2017-12-06T13:35:42Z</time>
      </trkpt>
      <trkpt lat="44.17209" lon="2.05184">
        <ele>172</ele>
        <time>2017-12-06T13:35:44Z</time>
      </trkpt>
      <trkpt lat="44.17207" lon="2.05177">
        <ele>172</ele>
        <time>2017-12-06T13:35:46Z</time>
      </trkpt>
      <trkpt lat="44.17207" lon="2.05174">
        <ele>173</ele>
        <time>2017-12-06T13:35:48Z</time>
      </trkpt>
      <trkpt lat="44.17207" lon="2.05174">
        <ele>174</ele>
        <time>2017-12-06T13:35:50Z</time>
      </trkpt>
      <trkpt lat="44.17207" lon="2.05174">
        <ele>175</ele>
        <time>2017-12-06T13:35:52Z</time>
      </trkpt>
      <trkpt lat="44.17207" lon="2.05174">
        <ele>175</ele>
        <time>2017-12-06T13:35:54Z</time>
      </trkpt>
      <trkpt lat="44.17204" lon="2.05157">
        <ele>176</ele>
        <time>2017-12-06T13:35:56Z</time>
      </trkpt>
      <trkpt lat="44.17205" lon="2.05151">
        <ele>176</ele>
        <time>2017-12-06T13:35:58Z</time>
      </trkpt>
      <trkpt lat="44.17205" lon="2.05151">
        <ele>176</ele>
        <time>2017-12-06T13:36:00Z</time>
      </trkpt>
      <trkpt lat="44.17205" lon="2.05142">
        <ele>176</ele>
        <time>2017-12-06T13:36:02Z</time>
      </trkpt>
      <trkpt lat="44.17206" lon="2.05137">
        <ele>176</ele>
        <time>2017-12-06T13:36:04Z</time>
      </trkpt>
      <trkpt lat="44.17206" lon="2.05132">
        <ele>176</ele>
        <time>2017-12-06T13:36:06Z</time>
      </trkpt>
      <trkpt lat="44.17205" lon="2.05128">
        <ele>176</ele>
        <time>2017-12-06T13:36:08Z</time>
      </trkpt>
      <trkpt lat="44.17206" lon="2.05123">
        <ele>175</ele>
        <time>2017-12-06T13:36:10Z</time>
      </trkpt>
      <trkpt lat="44.17206" lon="2.05119">
        <ele>175</ele>
        <time>2017-12-06T13:36:12Z</time>
      </trkpt>
      <trkpt lat="44.17205" lon="2.05114">
        <ele>175</ele>
        <time>2017-12-06T13:36:14Z</time>
      </trkpt>
      <trkpt lat="44.17204" lon="2.05109">
        <ele>174</ele>
        <time>2017-12-06T13:36:16Z</time>
      </trkpt>
      <trkpt lat="44.17204" lon="2.05105">
        <ele>174</ele>
        <time>2017-12-06T13:36:18Z</time>
      </trkpt>
      <trkpt lat="44.17203" lon="2.05101">
        <ele>174</ele>
        <time>2017-12-06T13:36:20Z</time>
      </trkpt>
      <trkpt lat="44.17202" lon="2.05097">
        <ele>173</ele>
        <time>2017-12-06T13:36:22Z</time>
      </trkpt>
      <trkpt lat="44.17201" lon="2.05093">
        <ele>173</ele>
        <time>2017-12-06T13:36:24Z</time>
      </trkpt>
      <trkpt lat="44.17201" lon="2.05089">
        <ele>173</ele>
        <time>2017-12-06T13:36:26Z</time>
      </trkpt>
      <trkpt lat="44.172" lon="2.05085">
        <ele>173</ele>
        <time>2017-12-06T13:36:28Z</time>
      </trkpt>
      <trkpt lat="44.172" lon="2.05082">
        <ele>172</ele>
        <time>2017-12-06T13:36:30Z</time>
      </trkpt>
      <trkpt lat="44.17199" lon="2.05078">
        <ele>172</ele>
        <time>2017-12-06T13:36:32Z</time>
      </trkpt>
      <trkpt lat="44.17199" lon="2.05075">
        <ele>171</ele>
        <time>2017-12-06T13:36:34Z</time>
      </trkpt>
      <trkpt lat="44.17198" lon="2.05072">
        <ele>171</ele>
        <time>2017-12-06T13:36:36Z</time>
      </trkpt>
      <trkpt lat="44.17199" lon="2.05068">
        <ele>170</ele>
        <time>2017-12-06T13:36:38Z</time>
      </trkpt>
      <trkpt lat="44.17199" lon="2.05063">
        <ele>170</ele>
        <time>2017-12-06T13:36:40Z</time>
      </trkpt>
      <trkpt lat="44.17198" lon="2.05058">
        <ele>169</ele>
        <time>2017-12-06T13:36:42Z</time>
      </trkpt>
      <trkpt lat="44.17197" lon="2.05054">
        <ele>169</ele>
        <time>2017-12-06T13:36:44Z</time>
      </trkpt>
      <trkpt lat="44.17198" lon="2.05049">
        <ele>169</ele>
        <time>2017-12-06T13:36:46Z</time>
      </trkpt>
      <trkpt lat="44.17198" lon="2.05044">
        <ele>168</ele>
        <time>2017-12-06T13:36:48Z</time>
      </trkpt>
      <trkpt lat="44.17197" lon="2.05038">
        <ele>168</ele>
        <time>2017-12-06T13:36:50Z</time>
      </trkpt>
      <trkpt lat="44.17197" lon="2.05034">
        <ele>168</ele>
        <time>2017-12-06T13:36:52Z</time>
      </trkpt>
      <trkpt lat="44.17197" lon="2.0503">
        <ele>167</ele>
        <time>2017-12-06T13:36:54Z</time>
      </trkpt>
      <trkpt lat="44.17196" lon="2.05025">
        <ele>167</ele>
        <time>2017-12-06T13:36:56Z</time>
      </trkpt>
      <trkpt lat="44.17196" lon="2.05021">
        <ele>168</ele>
        <time>2017-12-06T13:36:58Z</time>
      </trkpt>
      <trkpt lat="44.17195" lon="2.05017">
        <ele>168</ele>
        <time>2017-12-06T13:37:00Z</time>
      </trkpt>
      <trkpt lat="44.17195" lon="2.05013">
        <ele>168</ele>
        <time>2017-12-06T13:37:02Z</time>
      </trkpt>
      <trkpt lat="44.17193" lon="2.05009">
        <ele>168</ele>
        <time>2017-12-06T13:37:04Z</time>
      </trkpt>
      <trkpt lat="44.17192" lon="2.05004">
        <ele>168</ele>
        <time>2017-12-06T13:37:06Z</time>
      </trkpt>
      <trkpt lat="44.17192" lon="2.05001">
        <ele>169</ele>
        <time>2017-12-06T13:37:08Z</time>
      </trkpt>
      <trkpt lat="44.17192" lon="2.04996">
        <ele>169</ele>
        <time>2017-12-06T13:37:10Z</time>
      </trkpt>
      <trkpt lat="44.17191" lon="2.04993">
        <ele>169</ele>
        <time>2017-12-06T13:37:12Z</time>
      </trkpt>
      <trkpt lat="44.17191" lon="2.04989">
        <ele>169</ele>
        <time>2017-12-06T13:37:14Z</time>
      </trkpt>
      <trkpt lat="44.17191" lon="2.04989">
        <ele>170</ele>
        <time>2017-12-06T13:37:16Z</time>
      </trkpt>
      <trkpt lat="44.17191" lon="2.04981">
        <ele>170</ele>
        <time>2017-12-06T13:37:18Z</time>
      </trkpt>
      <trkpt lat="44.17192" lon="2.04978">
        <ele>170</ele>
        <time>2017-12-06T13:37:20Z</time>
      </trkpt>
      <trkpt lat="44.17192" lon="2.04974">
        <ele>170</ele>
        <time>2017-12-06T13:37:22Z</time>
      </trkpt>
      <trkpt lat="44.17192" lon="2.0497">
        <ele>170</ele>
        <time>2017-12-06T13:37:24Z</time>
      </trkpt>
      <trkpt lat="44.17191" lon="2.04966">
        <ele>170</ele>
        <time>2017-12-06T13:37:26Z</time>
      </trkpt>
      <trkpt lat="44.1719" lon="2.04962">
        <ele>170</ele>
        <time>2017-12-06T13:37:28Z</time>
      </trkpt>
      <trkpt lat="44.1719" lon="2.04962">
        <ele>170</ele>
        <time>2017-12-06T13:37:30Z</time>
      </trkpt>
      <trkpt lat="44.17188" lon="2.04955">
        <ele>171</ele>
        <time>2017-12-06T13:37:32Z</time>
      </trkpt>
      <trkpt lat="44.17188" lon="2.04951">
        <ele>171</ele>
        <time>2017-12-06T13:37:34Z</time>
      </trkpt>
      <trkpt lat="44.17189" lon="2.04947">
        <ele>171</ele>
        <time>2017-12-06T13:37:36Z</time>
      </trkpt>
      <trkpt lat="44.17188" lon="2.04943">
        <ele>171</ele>
        <time>2017-12-06T13:37:38Z</time>
      </trkpt>
      <trkpt lat="44.17188" lon="2.04939">
        <ele>171</ele>
        <time>2017-12-06T13:37:40Z</time>
      </trkpt>
      <trkpt lat="44.17189" lon="2.04935">
        <ele>171</ele>
        <time>2017-12-06T13:37:42Z</time>
      </trkpt>
      <trkpt lat="44.17189" lon="2.0493">
        <ele>171</ele>
        <time>2017-12-06T13:37:44Z</time>
      </trkpt>
      <trkpt lat="44.17189" lon="2.04925">
        <ele>170</ele>
        <time>2017-12-06T13:37:46Z</time>
      </trkpt>
      <trkpt lat="44.17188" lon="2.04921">
        <ele>170</ele>
        <time>2017-12-06T13:37:48Z</time>
      </trkpt>
      <trkpt lat="44.17188" lon="2.04919">
        <ele>170</ele>
        <time>2017-12-06T13:37:50Z</time>
      </trkpt>
      <trkpt lat="44.17188" lon="2.04919">
        <ele>170</ele>
        <time>2017-12-06T13:37:52Z</time>
      </trkpt>
      <trkpt lat="44.17188" lon="2.04919">
        <ele>170</ele>
        <time>2017-12-06T13:37:54Z</time>
      </trkpt>
      <trkpt lat="44.17188" lon="2.04919">
        <ele>170</ele>
        <time>2017-12-06T13:37:56Z</time>
      </trkpt>
      <trkpt lat="44.17188" lon="2.04919">
        <ele>171</ele>
        <time>2017-12-06T13:37:58Z</time>
      </trkpt>
      <trkpt lat="44.17188" lon="2.04919">
        <ele>172</ele>
        <time>2017-12-06T13:38:00Z</time>
      </trkpt>
      <trkpt lat="44.17188" lon="2.04919">
        <ele>173</ele>
        <time>2017-12-06T13:38:02Z</time>
      </trkpt>
      <trkpt lat="44.17188" lon="2.04919">
        <ele>174</ele>
        <time>2017-12-06T13:38:04Z</time>
      </trkpt>
      <trkpt lat="44.17188" lon="2.04919">
        <ele>175</ele>
        <time>2017-12-06T13:38:06Z</time>
      </trkpt>
      <trkpt lat="44.17188" lon="2.04919">
        <ele>177</ele>
        <time>2017-12-06T13:38:08Z</time>
      </trkpt>
      <trkpt lat="44.17188" lon="2.04919">
        <ele>178</ele>
        <time>2017-12-06T13:38:10Z</time>
      </trkpt>
      <trkpt lat="44.17188" lon="2.04919">
        <ele>178</ele>
        <time>2017-12-06T13:38:12Z</time>
      </trkpt>
      <trkpt lat="44.17188" lon="2.04919">
        <ele>179</ele>
        <time>2017-12-06T13:38:14Z</time>
      </trkpt>
      <trkpt lat="44.17188" lon="2.04919">
        <ele>179</ele>
        <time>2017-12-06T13:38:16Z</time>
      </trkpt>
      <trkpt lat="44.17188" lon="2.04919">
        <ele>179</ele>
        <time>2017-12-06T13:38:18Z</time>
      </trkpt>
      <trkpt lat="44.17188" lon="2.04919">
        <ele>179</ele>
        <time>2017-12-06T13:38:20Z</time>
      </trkpt>
      <trkpt lat="44.17196" lon="2.04891">
        <ele>180</ele>
        <time>2017-12-06T13:38:22Z</time>
      </trkpt>
      <trkpt lat="44.17194" lon="2.04891">
        <ele>180</ele>
        <time>2017-12-06T13:38:24Z</time>
      </trkpt>
      <trkpt lat="44.17192" lon="2.04889">
        <ele>180</ele>
        <time>2017-12-06T13:38:26Z</time>
      </trkpt>
      <trkpt lat="44.1719" lon="2.04887">
        <ele>180</ele>
        <time>2017-12-06T13:38:28Z</time>
      </trkpt>
      <trkpt lat="44.1719" lon="2.04887">
        <ele>180</ele>
        <time>2017-12-06T13:38:30Z</time>
      </trkpt>
      <trkpt lat="44.17188" lon="2.04883">
        <ele>180</ele>
        <time>2017-12-06T13:38:32Z</time>
      </trkpt>
      <trkpt lat="44.17188" lon="2.04883">
        <ele>180</ele>
        <time>2017-12-06T13:38:34Z</time>
      </trkpt>
      <trkpt lat="44.17185" lon="2.04879">
        <ele>180</ele>
        <time>2017-12-06T13:38:36Z</time>
      </trkpt>
      <trkpt lat="44.17184" lon="2.04875">
        <ele>180</ele>
        <time>2017-12-06T13:38:38Z</time>
      </trkpt>
      <trkpt lat="44.17183" lon="2.04873">
        <ele>180</ele>
        <time>2017-12-06T13:38:40Z</time>
      </trkpt>
      <trkpt lat="44.17181" lon="2.0487">
        <ele>180</ele>
        <time>2017-12-06T13:38:42Z</time>
      </trkpt>
      <trkpt lat="44.1718" lon="2.04868">
        <ele>180</ele>
        <time>2017-12-06T13:38:44Z</time>
      </trkpt>
      <trkpt lat="44.1718" lon="2.04865">
        <ele>179</ele>
        <time>2017-12-06T13:38:46Z</time>
      </trkpt>
      <trkpt lat="44.17179" lon="2.04863">
        <ele>179</ele>
        <time>2017-12-06T13:38:48Z</time>
      </trkpt>
      <trkpt lat="44.17178" lon="2.04859">
        <ele>179</ele>
        <time>2017-12-06T13:38:50Z</time>
      </trkpt>
      <trkpt lat="44.17177" lon="2.04856">
        <ele>179</ele>
        <time>2017-12-06T13:38:52Z</time>
      </trkpt>
      <trkpt lat="44.17176" lon="2.04853">
        <ele>179</ele>
        <time>2017-12-06T13:38:54Z</time>
      </trkpt>
      <trkpt lat="44.17175" lon="2.04849">
        <ele>179</ele>
        <time>2017-12-06T13:38:56Z</time>
      </trkpt>
      <trkpt lat="44.17174" lon="2.04845">
        <ele>178</ele>
        <time>2017-12-06T13:38:58Z</time>
      </trkpt>
      <trkpt lat="44.17173" lon="2.04842">
        <ele>178</ele>
        <time>2017-12-06T13:39:00Z</time>
      </trkpt>
      <trkpt lat="44.17172" lon="2.04837">
        <ele>178</ele>
        <time>2017-12-06T13:39:02Z</time>
      </trkpt>
      <trkpt lat="44.17172" lon="2.04834">
        <ele>177</ele>
        <time>2017-12-06T13:39:04Z</time>
      </trkpt>
      <trkpt lat="44.17173" lon="2.04831">
        <ele>177</ele>
        <time>2017-12-06T13:39:06Z</time>
      </trkpt>
      <trkpt lat="44.17172" lon="2.04828">
        <ele>177</ele>
        <time>2017-12-06T13:39:08Z</time>
      </trkpt>
      <trkpt lat="44.17172" lon="2.04826">
        <ele>176</ele>
        <time>2017-12-06T13:39:10Z</time>
      </trkpt>
      <trkpt lat="44.1717" lon="2.04822">
        <ele>176</ele>
        <time>2017-12-06T13:39:12Z</time>
      </trkpt>
      <trkpt lat="44.17169" lon="2.04819">
        <ele>176</ele>
        <time>2017-12-06T13:39:14Z</time>
      </trkpt>
      <trkpt lat="44.17167" lon="2.04815">
        <ele>176</ele>
        <time>2017-12-06T13:39:16Z</time>
      </trkpt>
      <trkpt lat="44.17167" lon="2.04812">
        <ele>176</ele>
        <time>2017-12-06T13:39:18Z</time>
      </trkpt>
      <trkpt lat="44.17166" lon="2.04808">
        <ele>176</ele>
        <time>2017-12-06T13:39:20Z</time>
      </trkpt>
      <trkpt lat="44.17166" lon="2.04804">
        <ele>176</ele>
        <time>2017-12-06T13:39:22Z</time>
      </trkpt>
      <trkpt lat="44.17165" lon="2.048">
        <ele>176</ele>
        <time>2017-12-06T13:39:24Z</time>
      </trkpt>
      <trkpt lat="44.17164" lon="2.04796">
        <ele>176</ele>
        <time>2017-12-06T13:39:26Z</time>
      </trkpt>
      <trkpt lat="44.17163" lon="2.04792">
        <ele>175</ele>
        <time>2017-12-06T13:39:28Z</time>
      </trkpt>
      <trkpt lat="44.17161" lon="2.04788">
        <ele>175</ele>
        <time>2017-12-06T13:39:30Z</time>
      </trkpt>
      <trkpt lat="44.1716" lon="2.04785">
        <ele>176</ele>
        <time>2017-12-06T13:39:32Z</time>
      </trkpt>
      <trkpt lat="44.17157" lon="2.04783">
        <ele>176</ele>
        <time>2017-12-06T13:39:34Z</time>
      </trkpt>
      <trkpt lat="44.17155" lon="2.0478">
        <ele>177</ele>
        <time>2017-12-06T13:39:36Z</time>
      </trkpt>
      <trkpt lat="44.17154" lon="2.04776">
        <ele>177</ele>
        <time>2017-12-06T13:39:38Z</time>
      </trkpt>
      <trkpt lat="44.17153" lon="2.04773">
        <ele>178</ele>
        <time>2017-12-06T13:39:40Z</time>
      </trkpt>
      <trkpt lat="44.17153" lon="2.04769">
        <ele>178</ele>
        <time>2017-12-06T13:39:42Z</time>
      </trkpt>
      <trkpt lat="44.17152" lon="2.04766">
        <ele>179</ele>
        <time>2017-12-06T13:39:44Z</time>
      </trkpt>
      <trkpt lat="44.17152" lon="2.04762">
        <ele>179</ele>
        <time>2017-12-06T13:39:46Z</time>
      </trkpt>
      <trkpt lat="44.1715" lon="2.04759">
        <ele>180</ele>
        <time>2017-12-06T13:39:48Z</time>
      </trkpt>
      <trkpt lat="44.17149" lon="2.04756">
        <ele>180</ele>
        <time>2017-12-06T13:39:50Z</time>
      </trkpt>
      <trkpt lat="44.17148" lon="2.04751">
        <ele>181</ele>
        <time>2017-12-06T13:39:52Z</time>
      </trkpt>
      <trkpt lat="44.17147" lon="2.04748">
        <ele>181</ele>
        <time>2017-12-06T13:39:54Z</time>
      </trkpt>
      <trkpt lat="44.17147" lon="2.04745">
        <ele>182</ele>
        <time>2017-12-06T13:39:56Z</time>
      </trkpt>
      <trkpt lat="44.17146" lon="2.04743">
        <ele>182</ele>
        <time>2017-12-06T13:39:58Z</time>
      </trkpt>
      <trkpt lat="44.17146" lon="2.0474">
        <ele>183</ele>
        <time>2017-12-06T13:40:00Z</time>
      </trkpt>
      <trkpt lat="44.17146" lon="2.04737">
        <ele>183</ele>
        <time>2017-12-06T13:40:02Z</time>
      </trkpt>
      <trkpt lat="44.17146" lon="2.04732">
        <ele>183</ele>
        <time>2017-12-06T13:40:04Z</time>
      </trkpt>
      <trkpt lat="44.17145" lon="2.04729">
        <ele>183</ele>
        <time>2017-12-06T13:40:06Z</time>
      </trkpt>
      <trkpt lat="44.17145" lon="2.04724">
        <ele>183</ele>
        <time>2017-12-06T13:40:08Z</time>
      </trkpt>
      <trkpt lat="44.17145" lon="2.04722">
        <ele>184</ele>
        <time>2017-12-06T13:40:10Z</time>
      </trkpt>
      <trkpt lat="44.17145" lon="2.04719">
        <ele>184</ele>
        <time>2017-12-06T13:40:12Z</time>
      </trkpt>
      <trkpt lat="44.17144" lon="2.04716">
        <ele>184</ele>
        <time>2017-12-06T13:40:14Z</time>
      </trkpt>
      <trkpt lat="44.17144" lon="2.04711">
        <ele>184</ele>
        <time>2017-12-06T13:40:16Z</time>
      </trkpt>
      <trkpt lat="44.17143" lon="2.04706">
        <ele>184</ele>
        <time>2017-12-06T13:40:18Z</time>
      </trkpt>
      <trkpt lat="44.17143" lon="2.04703">
        <ele>184</ele>
        <time>2017-12-06T13:40:20Z</time>
      </trkpt>
      <trkpt lat="44.17143" lon="2.04699">
        <ele>183</ele>
        <time>2017-12-06T13:40:22Z</time>
      </trkpt>
      <trkpt lat="44.17143" lon="2.04696">
        <ele>183</ele>
        <time>2017-12-06T13:40:24Z</time>
      </trkpt>
      <trkpt lat="44.17142" lon="2.04692">
        <ele>183</ele>
        <time>2017-12-06T13:40:26Z</time>
      </trkpt>
      <trkpt lat="44.17142" lon="2.04689">
        <ele>182</ele>
        <time>2017-12-06T13:40:28Z</time>
      </trkpt>
      <trkpt lat="44.17142" lon="2.04685">
        <ele>182</ele>
        <time>2017-12-06T13:40:30Z</time>
      </trkpt>
      <trkpt lat="44.17142" lon="2.04681">
        <ele>182</ele>
        <time>2017-12-06T13:40:32Z</time>
      </trkpt>
      <trkpt lat="44.17141" lon="2.04679">
        <ele>181</ele>
        <time>2017-12-06T13:40:34Z</time>
      </trkpt>
      <trkpt lat="44.17141" lon="2.04679">
        <ele>181</ele>
        <time>2017-12-06T13:40:36Z</time>
      </trkpt>
      <trkpt lat="44.17141" lon="2.04673">
        <ele>181</ele>
        <time>2017-12-06T13:40:38Z</time>
      </trkpt>
      <trkpt lat="44.17141" lon="2.0467">
        <ele>181</ele>
        <time>2017-12-06T13:40:40Z</time>
      </trkpt>
      <trkpt lat="44.17141" lon="2.04666">
        <ele>182</ele>
        <time>2017-12-06T13:40:42Z</time>
      </trkpt>
      <trkpt lat="44.17141" lon="2.04666">
        <ele>182</ele>
        <time>2017-12-06T13:40:44Z</time>
      </trkpt>
      <trkpt lat="44.17141" lon="2.04658">
        <ele>183</ele>
        <time>2017-12-06T13:40:46Z</time>
      </trkpt>
      <trkpt lat="44.17141" lon="2.04654">
        <ele>184</ele>
        <time>2017-12-06T13:40:48Z</time>
      </trkpt>
      <trkpt lat="44.1714" lon="2.0465">
        <ele>185</ele>
        <time>2017-12-06T13:40:50Z</time>
      </trkpt>
      <trkpt lat="44.17141" lon="2.04644">
        <ele>185</ele>
        <time>2017-12-06T13:40:52Z</time>
      </trkpt>
      <trkpt lat="44.17142" lon="2.04637">
        <ele>186</ele>
        <time>2017-12-06T13:40:54Z</time>
      </trkpt>
      <trkpt lat="44.17142" lon="2.04637">
        <ele>186</ele>
        <time>2017-12-06T13:40:56Z</time>
      </trkpt>
      <trkpt lat="44.1714" lon="2.0463">
        <ele>187</ele>
        <time>2017-12-06T13:40:58Z</time>
      </trkpt>
      <trkpt lat="44.1714" lon="2.0463">
        <ele>187</ele>
        <time>2017-12-06T13:41:00Z</time>
      </trkpt>
      <trkpt lat="44.17138" lon="2.04621">
        <ele>188</ele>
        <time>2017-12-06T13:41:02Z</time>
      </trkpt>
      <trkpt lat="44.17137" lon="2.04618">
        <ele>188</ele>
        <time>2017-12-06T13:41:04Z</time>
      </trkpt>
      <trkpt lat="44.17137" lon="2.04614">
        <ele>189</ele>
        <time>2017-12-06T13:41:06Z</time>
      </trkpt>
      <trkpt lat="44.17136" lon="2.0461">
        <ele>189</ele>
        <time>2017-12-06T13:41:08Z</time>
      </trkpt>
      <trkpt lat="44.17136" lon="2.04607">
        <ele>190</ele>
        <time>2017-12-06T13:41:10Z</time>
      </trkpt>
      <trkpt lat="44.17135" lon="2.04602">
        <ele>191</ele>
        <time>2017-12-06T13:41:12Z</time>
      </trkpt>
      <trkpt lat="44.17135" lon="2.04599">
        <ele>191</ele>
        <time>2017-12-06T13:41:14Z</time>
      </trkpt>
      <trkpt lat="44.17134" lon="2.04596">
        <ele>191</ele>
        <time>2017-12-06T13:41:16Z</time>
      </trkpt>
      <trkpt lat="44.17133" lon="2.04592">
        <ele>191</ele>
        <time>2017-12-06T13:41:18Z</time>
      </trkpt>
      <trkpt lat="44.17133" lon="2.04589">
        <ele>191</ele>
        <time>2017-12-06T13:41:20Z</time>
      </trkpt>
      <trkpt lat="44.17132" lon="2.04586">
        <ele>191</ele>
        <time>2017-12-06T13:41:22Z</time>
      </trkpt>
      <trkpt lat="44.1713" lon="2.04582">
        <ele>192</ele>
        <time>2017-12-06T13:41:24Z</time>
      </trkpt>
      <trkpt lat="44.1713" lon="2.04579">
        <ele>192</ele>
        <time>2017-12-06T13:41:26Z</time>
      </trkpt>
      <trkpt lat="44.17129" lon="2.04575">
        <ele>192</ele>
        <time>2017-12-06T13:41:28Z</time>
      </trkpt>
      <trkpt lat="44.17129" lon="2.04571">
        <ele>193</ele>
        <time>2017-12-06T13:41:30Z</time>
      </trkpt>
      <trkpt lat="44.17129" lon="2.04568">
        <ele>193</ele>
        <time>2017-12-06T13:41:32Z</time>
      </trkpt>
      <trkpt lat="44.1713" lon="2.04565">
        <ele>193</ele>
        <time>2017-12-06T13:41:34Z</time>
      </trkpt>
      <trkpt lat="44.17129" lon="2.04561">
        <ele>193</ele>
        <time>2017-12-06T13:41:36Z</time>
      </trkpt>
      <trkpt lat="44.17127" lon="2.04557">
        <ele>194</ele>
        <time>2017-12-06T13:41:38Z</time>
      </trkpt>
      <trkpt lat="44.17127" lon="2.04552">
        <ele>194</ele>
        <time>2017-12-06T13:41:40Z</time>
      </trkpt>
      <trkpt lat="44.17128" lon="2.04549">
        <ele>194</ele>
        <time>2017-12-06T13:41:42Z</time>
      </trkpt>
      <trkpt lat="44.17128" lon="2.04549">
        <ele>194</ele>
        <time>2017-12-06T13:41:44Z</time>
      </trkpt>
      <trkpt lat="44.17128" lon="2.04544">
        <ele>194</ele>
        <time>2017-12-06T13:41:46Z</time>
      </trkpt>
      <trkpt lat="44.17128" lon="2.0454">
        <ele>194</ele>
        <time>2017-12-06T13:41:48Z</time>
      </trkpt>
      <trkpt lat="44.17128" lon="2.04537">
        <ele>194</ele>
        <time>2017-12-06T13:41:50Z</time>
      </trkpt>
      <trkpt lat="44.17128" lon="2.04537">
        <ele>193</ele>
        <time>2017-12-06T13:41:52Z</time>
      </trkpt>
      <trkpt lat="44.17128" lon="2.0453">
        <ele>193</ele>
        <time>2017-12-06T13:41:54Z</time>
      </trkpt>
      <trkpt lat="44.17128" lon="2.04525">
        <ele>193</ele>
        <time>2017-12-06T13:41:56Z</time>
      </trkpt>
      <trkpt lat="44.17127" lon="2.0452">
        <ele>194</ele>
        <time>2017-12-06T13:41:58Z</time>
      </trkpt>
      <trkpt lat="44.17127" lon="2.0452">
        <ele>195</ele>
        <time>2017-12-06T13:42:00Z</time>
      </trkpt>
      <trkpt lat="44.17126" lon="2.04512">
        <ele>195</ele>
        <time>2017-12-06T13:42:02Z</time>
      </trkpt>
      <trkpt lat="44.17126" lon="2.04512">
        <ele>196</ele>
        <time>2017-12-06T13:42:04Z</time>
      </trkpt>
      <trkpt lat="44.17127" lon="2.04505">
        <ele>197</ele>
        <time>2017-12-06T13:42:06Z</time>
      </trkpt>
      <trkpt lat="44.17127" lon="2.04501">
        <ele>198</ele>
        <time>2017-12-06T13:42:08Z</time>
      </trkpt>
      <trkpt lat="44.17127" lon="2.04497">
        <ele>198</ele>
        <time>2017-12-06T13:42:10Z</time>
      </trkpt>
      <trkpt lat="44.17128" lon="2.04493">
        <ele>198</ele>
        <time>2017-12-06T13:42:12Z</time>
      </trkpt>
      <trkpt lat="44.17126" lon="2.04488">
        <ele>199</ele>
        <time>2017-12-06T13:42:14Z</time>
      </trkpt>
      <trkpt lat="44.17127" lon="2.04485">
        <ele>198</ele>
        <time>2017-12-06T13:42:16Z</time>
      </trkpt>
      <trkpt lat="44.17125" lon="2.04481">
        <ele>198</ele>
        <time>2017-12-06T13:42:18Z</time>
      </trkpt>
      <trkpt lat="44.17124" lon="2.04479">
        <ele>198</ele>
        <time>2017-12-06T13:42:20Z</time>
      </trkpt>
      <trkpt lat="44.17124" lon="2.04475">
        <ele>199</ele>
        <time>2017-12-06T13:42:22Z</time>
      </trkpt>
      <trkpt lat="44.17123" lon="2.04471">
        <ele>199</ele>
        <time>2017-12-06T13:42:24Z</time>
      </trkpt>
      <trkpt lat="44.17123" lon="2.04467">
        <ele>199</ele>
        <time>2017-12-06T13:42:26Z</time>
      </trkpt>
      <trkpt lat="44.17122" lon="2.04465">
        <ele>200</ele>
        <time>2017-12-06T13:42:28Z</time>
      </trkpt>
      <trkpt lat="44.17122" lon="2.04462">
        <ele>200</ele>
        <time>2017-12-06T13:42:30Z</time>
      </trkpt>
      <trkpt lat="44.17122" lon="2.04459">
        <ele>200</ele>
        <time>2017-12-06T13:42:32Z</time>
      </trkpt>
      <trkpt lat="44.17122" lon="2.04455">
        <ele>200</ele>
        <time>2017-12-06T13:42:34Z</time>
      </trkpt>
      <trkpt lat="44.17122" lon="2.04451">
        <ele>200</ele>
        <time>2017-12-06T13:42:36Z</time>
      </trkpt>
      <trkpt lat="44.17122" lon="2.04448">
        <ele>200</ele>
        <time>2017-12-06T13:42:38Z</time>
      </trkpt>
      <trkpt lat="44.17123" lon="2.04445">
        <ele>200</ele>
        <time>2017-12-06T13:42:40Z</time>
      </trkpt>
      <trkpt lat="44.17122" lon="2.04442">
        <ele>199</ele>
        <time>2017-12-06T13:42:42Z</time>
      </trkpt>
      <trkpt lat="44.17121" lon="2.04438">
        <ele>199</ele>
        <time>2017-12-06T13:42:44Z</time>
      </trkpt>
      <trkpt lat="44.1712" lon="2.04435">
        <ele>199</ele>
        <time>2017-12-06T13:42:46Z</time>
      </trkpt>
      <trkpt lat="44.17119" lon="2.0443">
        <ele>200</ele>
        <time>2017-12-06T13:42:48Z</time>
      </trkpt>
      <trkpt lat="44.17119" lon="2.04427">
        <ele>200</ele>
        <time>2017-12-06T13:42:50Z</time>
      </trkpt>
      <trkpt lat="44.17118" lon="2.04424">
        <ele>201</ele>
        <time>2017-12-06T13:42:52Z</time>
      </trkpt>
      <trkpt lat="44.17117" lon="2.0442">
        <ele>201</ele>
        <time>2017-12-06T13:42:54Z</time>
      </trkpt>
      <trkpt lat="44.17116" lon="2.04417">
        <ele>202</ele>
        <time>2017-12-06T13:42:56Z</time>
      </trkpt>
      <trkpt lat="44.17115" lon="2.04414">
        <ele>202</ele>
        <time>2017-12-06T13:42:58Z</time>
      </trkpt>
      <trkpt lat="44.17115" lon="2.0441">
        <ele>203</ele>
        <time>2017-12-06T13:43:00Z</time>
      </trkpt>
      <trkpt lat="44.17114" lon="2.04406">
        <ele>203</ele>
        <time>2017-12-06T13:43:02Z</time>
      </trkpt>
      <trkpt lat="44.17113" lon="2.04403">
        <ele>204</ele>
        <time>2017-12-06T13:43:04Z</time>
      </trkpt>
      <trkpt lat="44.17113" lon="2.04403">
        <ele>204</ele>
        <time>2017-12-06T13:43:06Z</time>
      </trkpt>
      <trkpt lat="44.17111" lon="2.04398">
        <ele>205</ele>
        <time>2017-12-06T13:43:08Z</time>
      </trkpt>
      <trkpt lat="44.17111" lon="2.04398">
        <ele>205</ele>
        <time>2017-12-06T13:43:10Z</time>
      </trkpt>
      <trkpt lat="44.1711" lon="2.04391">
        <ele>206</ele>
        <time>2017-12-06T13:43:12Z</time>
      </trkpt>
      <trkpt lat="44.17111" lon="2.04387">
        <ele>207</ele>
        <time>2017-12-06T13:43:14Z</time>
      </trkpt>
      <trkpt lat="44.17111" lon="2.04387">
        <ele>207</ele>
        <time>2017-12-06T13:43:16Z</time>
      </trkpt>
      <trkpt lat="44.17111" lon="2.04387">
        <ele>208</ele>
        <time>2017-12-06T13:43:18Z</time>
      </trkpt>
      <trkpt lat="44.1711" lon="2.04376">
        <ele>207</ele>
        <time>2017-12-06T13:43:20Z</time>
      </trkpt>
      <trkpt lat="44.17109" lon="2.04371">
        <ele>207</ele>
        <time>2017-12-06T13:43:22Z</time>
      </trkpt>
      <trkpt lat="44.17108" lon="2.04367">
        <ele>207</ele>
        <time>2017-12-06T13:43:24Z</time>
      </trkpt>
      <trkpt lat="44.17107" lon="2.04364">
        <ele>207</ele>
        <time>2017-12-06T13:43:26Z</time>
      </trkpt>
      <trkpt lat="44.17107" lon="2.04361">
        <ele>206</ele>
        <time>2017-12-06T13:43:28Z</time>
      </trkpt>
      <trkpt lat="44.17106" lon="2.04358">
        <ele>206</ele>
        <time>2017-12-06T13:43:30Z</time>
      </trkpt>
      <trkpt lat="44.17103" lon="2.04353">
        <ele>206</ele>
        <time>2017-12-06T13:43:32Z</time>
      </trkpt>
      <trkpt lat="44.17101" lon="2.0435">
        <ele>205</ele>
        <time>2017-12-06T13:43:34Z</time>
      </trkpt>
      <trkpt lat="44.17098" lon="2.04345">
        <ele>206</ele>
        <time>2017-12-06T13:43:36Z</time>
      </trkpt>
      <trkpt lat="44.17096" lon="2.04343">
        <ele>206</ele>
        <time>2017-12-06T13:43:38Z</time>
      </trkpt>
      <trkpt lat="44.17094" lon="2.0434">
        <ele>206</ele>
        <time>2017-12-06T13:43:40Z</time>
      </trkpt>
      <trkpt lat="44.17093" lon="2.04337">
        <ele>207</ele>
        <time>2017-12-06T13:43:42Z</time>
      </trkpt>
      <trkpt lat="44.17091" lon="2.04334">
        <ele>207</ele>
        <time>2017-12-06T13:43:44Z</time>
      </trkpt>
      <trkpt lat="44.17089" lon="2.04331">
        <ele>209</ele>
        <time>2017-12-06T13:43:46Z</time>
      </trkpt>
      <trkpt lat="44.17087" lon="2.04328">
        <ele>209</ele>
        <time>2017-12-06T13:43:48Z</time>
      </trkpt>
      <trkpt lat="44.17086" lon="2.04325">
        <ele>210</ele>
        <time>2017-12-06T13:43:50Z</time>
      </trkpt>
      <trkpt lat="44.17085" lon="2.0432">
        <ele>211</ele>
        <time>2017-12-06T13:43:52Z</time>
      </trkpt>
      <trkpt lat="44.17085" lon="2.0432">
        <ele>212</ele>
        <time>2017-12-06T13:43:54Z</time>
      </trkpt>
      <trkpt lat="44.17083" lon="2.04314">
        <ele>212</ele>
        <time>2017-12-06T13:43:56Z</time>
      </trkpt>
      <trkpt lat="44.17082" lon="2.04311">
        <ele>213</ele>
        <time>2017-12-06T13:43:58Z</time>
      </trkpt>
      <trkpt lat="44.1708" lon="2.04308">
        <ele>213</ele>
        <time>2017-12-06T13:44:00Z</time>
      </trkpt>
      <trkpt lat="44.17079" lon="2.04304">
        <ele>213</ele>
        <time>2017-12-06T13:44:02Z</time>
      </trkpt>
      <trkpt lat="44.17077" lon="2.04303">
        <ele>213</ele>
        <time>2017-12-06T13:44:04Z</time>
      </trkpt>
      <trkpt lat="44.17077" lon="2.043">
        <ele>213</ele>
        <time>2017-12-06T13:44:06Z</time>
      </trkpt>
      <trkpt lat="44.17077" lon="2.04296">
        <ele>213</ele>
        <time>2017-12-06T13:44:08Z</time>
      </trkpt>
      <trkpt lat="44.17076" lon="2.04293">
        <ele>213</ele>
        <time>2017-12-06T13:44:10Z</time>
      </trkpt>
      <trkpt lat="44.17075" lon="2.04291">
        <ele>213</ele>
        <time>2017-12-06T13:44:12Z</time>
      </trkpt>
      <trkpt lat="44.17074" lon="2.04288">
        <ele>212</ele>
        <time>2017-12-06T13:44:14Z</time>
      </trkpt>
      <trkpt lat="44.17074" lon="2.04287">
        <ele>212</ele>
        <time>2017-12-06T13:44:16Z</time>
      </trkpt>
      <trkpt lat="44.17074" lon="2.04283">
        <ele>212</ele>
        <time>2017-12-06T13:44:18Z</time>
      </trkpt>
      <trkpt lat="44.17074" lon="2.0428">
        <ele>211</ele>
        <time>2017-12-06T13:44:20Z</time>
      </trkpt>
      <trkpt lat="44.17074" lon="2.04276">
        <ele>211</ele>
        <time>2017-12-06T13:44:22Z</time>
      </trkpt>
      <trkpt lat="44.17073" lon="2.04273">
        <ele>210</ele>
        <time>2017-12-06T13:44:24Z</time>
      </trkpt>
      <trkpt lat="44.17073" lon="2.04268">
        <ele>211</ele>
        <time>2017-12-06T13:44:26Z</time>
      </trkpt>
      <trkpt lat="44.17073" lon="2.04265">
        <ele>211</ele>
        <time>2017-12-06T13:44:28Z</time>
      </trkpt>
      <trkpt lat="44.17071" lon="2.0426">
        <ele>211</ele>
        <time>2017-12-06T13:44:30Z</time>
      </trkpt>
      <trkpt lat="44.1707" lon="2.04257">
        <ele>211</ele>
        <time>2017-12-06T13:44:32Z</time>
      </trkpt>
      <trkpt lat="44.1707" lon="2.04253">
        <ele>211</ele>
        <time>2017-12-06T13:44:34Z</time>
      </trkpt>
      <trkpt lat="44.1707" lon="2.04249">
        <ele>212</ele>
        <time>2017-12-06T13:44:36Z</time>
      </trkpt>
      <trkpt lat="44.17069" lon="2.04246">
        <ele>212</ele>
        <time>2017-12-06T13:44:38Z</time>
      </trkpt>
      <trkpt lat="44.17069" lon="2.04243">
        <ele>213</ele>
        <time>2017-12-06T13:44:40Z</time>
      </trkpt>
      <trkpt lat="44.17069" lon="2.04243">
        <ele>214</ele>
        <time>2017-12-06T13:44:42Z</time>
      </trkpt>
      <trkpt lat="44.17068" lon="2.04236">
        <ele>214</ele>
        <time>2017-12-06T13:44:44Z</time>
      </trkpt>
      <trkpt lat="44.17068" lon="2.04233">
        <ele>215</ele>
        <time>2017-12-06T13:44:46Z</time>
      </trkpt>
      <trkpt lat="44.17067" lon="2.04229">
        <ele>215</ele>
        <time>2017-12-06T13:44:48Z</time>
      </trkpt>
      <trkpt lat="44.17067" lon="2.04224">
        <ele>216</ele>
        <time>2017-12-06T13:44:50Z</time>
      </trkpt>
      <trkpt lat="44.17068" lon="2.04221">
        <ele>217</ele>
        <time>2017-12-06T13:44:52Z</time>
      </trkpt>
      <trkpt lat="44.17067" lon="2.0422">
        <ele>217</ele>
        <time>2017-12-06T13:44:54Z</time>
      </trkpt>
      <trkpt lat="44.17067" lon="2.0422">
        <ele>218</ele>
        <time>2017-12-06T13:44:56Z</time>
      </trkpt>
      <trkpt lat="44.17069" lon="2.04221">
        <ele>218</ele>
        <time>2017-12-06T13:44:58Z</time>
      </trkpt>
      <trkpt lat="44.1707" lon="2.04222">
        <ele>218</ele>
        <time>2017-12-06T13:45:00Z</time>
      </trkpt>
      <trkpt lat="44.17071" lon="2.04224">
        <ele>219</ele>
        <time>2017-12-06T13:45:02Z</time>
      </trkpt>
      <trkpt lat="44.17072" lon="2.04226">
        <ele>219</ele>
        <time>2017-12-06T13:45:04Z</time>
      </trkpt>
      <trkpt lat="44.17074" lon="2.04229">
        <ele>218</ele>
        <time>2017-12-06T13:45:06Z</time>
      </trkpt>
      <trkpt lat="44.17075" lon="2.04231">
        <ele>218</ele>
        <time>2017-12-06T13:45:08Z</time>
      </trkpt>
      <trkpt lat="44.17077" lon="2.04233">
        <ele>218</ele>
        <time>2017-12-06T13:45:10Z</time>
      </trkpt>
      <trkpt lat="44.17078" lon="2.04237">
        <ele>217</ele>
        <time>2017-12-06T13:45:12Z</time>
      </trkpt>
      <trkpt lat="44.17079" lon="2.0424">
        <ele>216</ele>
        <time>2017-12-06T13:45:14Z</time>
      </trkpt>
      <trkpt lat="44.17081" lon="2.04243">
        <ele>216</ele>
        <time>2017-12-06T13:45:16Z</time>
      </trkpt>
      <trkpt lat="44.17082" lon="2.04245">
        <ele>215</ele>
        <time>2017-12-06T13:45:18Z</time>
      </trkpt>
      <trkpt lat="44.17083" lon="2.04247">
        <ele>215</ele>
        <time>2017-12-06T13:45:20Z</time>
      </trkpt>
      <trkpt lat="44.17084" lon="2.04251">
        <ele>214</ele>
        <time>2017-12-06T13:45:22Z</time>
      </trkpt>
      <trkpt lat="44.17084" lon="2.04253">
        <ele>214</ele>
        <time>2017-12-06T13:45:24Z</time>
      </trkpt>
      <trkpt lat="44.17086" lon="2.04256">
        <ele>213</ele>
        <time>2017-12-06T13:45:26Z</time>
      </trkpt>
      <trkpt lat="44.17088" lon="2.04258">
        <ele>213</ele>
        <time>2017-12-06T13:45:28Z</time>
      </trkpt>
      <trkpt lat="44.17089" lon="2.04261">
        <ele>213</ele>
        <time>2017-12-06T13:45:30Z</time>
      </trkpt>
      <trkpt lat="44.17091" lon="2.04264">
        <ele>212</ele>
        <time>2017-12-06T13:45:32Z</time>
      </trkpt>
      <trkpt lat="44.17092" lon="2.04266">
        <ele>212</ele>
        <time>2017-12-06T13:45:34Z</time>
      </trkpt>
      <trkpt lat="44.17093" lon="2.04269">
        <ele>212</ele>
        <time>2017-12-06T13:45:36Z</time>
      </trkpt>
      <trkpt lat="44.17094" lon="2.04272">
        <ele>212</ele>
        <time>2017-12-06T13:45:38Z</time>
      </trkpt>
      <trkpt lat="44.17095" lon="2.04275">
        <ele>212</ele>
        <time>2017-12-06T13:45:40Z</time>
      </trkpt>
      <trkpt lat="44.17096" lon="2.04278">
        <ele>212</ele>
        <time>2017-12-06T13:45:42Z</time>
      </trkpt>
      <trkpt lat="44.17098" lon="2.0428">
        <ele>212</ele>
        <time>2017-12-06T13:45:44Z</time>
      </trkpt>
      <trkpt lat="44.17098" lon="2.04283">
        <ele>213</ele>
        <time>2017-12-06T13:45:46Z</time>
      </trkpt>
      <trkpt lat="44.17098" lon="2.04285">
        <ele>214</ele>
        <time>2017-12-06T13:45:48Z</time>
      </trkpt>
      <trkpt lat="44.171" lon="2.04287">
        <ele>215</ele>
        <time>2017-12-06T13:45:50Z</time>
      </trkpt>
      <trkpt lat="44.17102" lon="2.04289">
        <ele>215</ele>
        <time>2017-12-06T13:45:52Z</time>
      </trkpt>
      <trkpt lat="44.17104" lon="2.04291">
        <ele>216</ele>
        <time>2017-12-06T13:45:54Z</time>
      </trkpt>
      <trkpt lat="44.17106" lon="2.04293">
        <ele>217</ele>
        <time>2017-12-06T13:45:56Z</time>
      </trkpt>
      <trkpt lat="44.17108" lon="2.04294">
        <ele>218</ele>
        <time>2017-12-06T13:45:58Z</time>
      </trkpt>
      <trkpt lat="44.17109" lon="2.04295">
        <ele>219</ele>
        <time>2017-12-06T13:46:00Z</time>
      </trkpt>
      <trkpt lat="44.17111" lon="2.04297">
        <ele>220</ele>
        <time>2017-12-06T13:46:02Z</time>
      </trkpt>
      <trkpt lat="44.17112" lon="2.04298">
        <ele>221</ele>
        <time>2017-12-06T13:46:04Z</time>
      </trkpt>
      <trkpt lat="44.17114" lon="2.04299">
        <ele>221</ele>
        <time>2017-12-06T13:46:06Z</time>
      </trkpt>
      <trkpt lat="44.17115" lon="2.04301">
        <ele>222</ele>
        <time>2017-12-06T13:46:08Z</time>
      </trkpt>
      <trkpt lat="44.17118" lon="2.04303">
        <ele>223</ele>
        <time>2017-12-06T13:46:10Z</time>
      </trkpt>
      <trkpt lat="44.1712" lon="2.04304">
        <ele>224</ele>
        <time>2017-12-06T13:46:12Z</time>
      </trkpt>
      <trkpt lat="44.17122" lon="2.04305">
        <ele>224</ele>
        <time>2017-12-06T13:46:14Z</time>
      </trkpt>
      <trkpt lat="44.17124" lon="2.04305">
        <ele>225</ele>
        <time>2017-12-06T13:46:16Z</time>
      </trkpt>
      <trkpt lat="44.17126" lon="2.04306">
        <ele>226</ele>
        <time>2017-12-06T13:46:18Z</time>
      </trkpt>
      <trkpt lat="44.17128" lon="2.04308">
        <ele>227</ele>
        <time>2017-12-06T13:46:20Z</time>
      </trkpt>
      <trkpt lat="44.1713" lon="2.0431">
        <ele>227</ele>
        <time>2017-12-06T13:46:22Z</time>
      </trkpt>
      <trkpt lat="44.17132" lon="2.04311">
        <ele>228</ele>
        <time>2017-12-06T13:46:24Z</time>
      </trkpt>
      <trkpt lat="44.17133" lon="2.04312">
        <ele>229</ele>
        <time>2017-12-06T13:46:26Z</time>
      </trkpt>
      <trkpt lat="44.17136" lon="2.04313">
        <ele>230</ele>
        <time>2017-12-06T13:46:28Z</time>
      </trkpt>
      <trkpt lat="44.17139" lon="2.04314">
        <ele>231</ele>
        <time>2017-12-06T13:46:30Z</time>
      </trkpt>
      <trkpt lat="44.17141" lon="2.04316">
        <ele>231</ele>
        <time>2017-12-06T13:46:32Z</time>
      </trkpt>
      <trkpt lat="44.17144" lon="2.04318">
        <ele>232</ele>
        <time>2017-12-06T13:46:34Z</time>
      </trkpt>
      <trkpt lat="44.17146" lon="2.04321">
        <ele>232</ele>
        <time>2017-12-06T13:46:36Z</time>
      </trkpt>
      <trkpt lat="44.17148" lon="2.04324">
        <ele>233</ele>
        <time>2017-12-06T13:46:38Z</time>
      </trkpt>
      <trkpt lat="44.17151" lon="2.04326">
        <ele>234</ele>
        <time>2017-12-06T13:46:40Z</time>
      </trkpt>
      <trkpt lat="44.17153" lon="2.04329">
        <ele>234</ele>
        <time>2017-12-06T13:46:42Z</time>
      </trkpt>
      <trkpt lat="44.17156" lon="2.04331">
        <ele>235</ele>
        <time>2017-12-06T13:46:44Z</time>
      </trkpt>
      <trkpt lat="44.17157" lon="2.04334">
        <ele>235</ele>
        <time>2017-12-06T13:46:46Z</time>
      </trkpt>
      <trkpt lat="44.17158" lon="2.04338">
        <ele>236</ele>
        <time>2017-12-06T13:46:48Z</time>
      </trkpt>
      <trkpt lat="44.1716" lon="2.0434">
        <ele>237</ele>
        <time>2017-12-06T13:46:50Z</time>
      </trkpt>
      <trkpt lat="44.17161" lon="2.04343">
        <ele>238</ele>
        <time>2017-12-06T13:46:52Z</time>
      </trkpt>
      <trkpt lat="44.17163" lon="2.04347">
        <ele>239</ele>
        <time>2017-12-06T13:46:54Z</time>
      </trkpt>
      <trkpt lat="44.17164" lon="2.04351">
        <ele>240</ele>
        <time>2017-12-06T13:46:56Z</time>
      </trkpt>
      <trkpt lat="44.17165" lon="2.04354">
        <ele>241</ele>
        <time>2017-12-06T13:46:58Z</time>
      </trkpt>
      <trkpt lat="44.17167" lon="2.04357">
        <ele>241</ele>
        <time>2017-12-06T13:47:00Z</time>
      </trkpt>
      <trkpt lat="44.17168" lon="2.04359">
        <ele>242</ele>
        <time>2017-12-06T13:47:02Z</time>
      </trkpt>
      <trkpt lat="44.17169" lon="2.04363">
        <ele>242</ele>
        <time>2017-12-06T13:47:04Z</time>
      </trkpt>
      <trkpt lat="44.17169" lon="2.04365">
        <ele>243</ele>
        <time>2017-12-06T13:47:06Z</time>
      </trkpt>
      <trkpt lat="44.1717" lon="2.04368">
        <ele>243</ele>
        <time>2017-12-06T13:47:08Z</time>
      </trkpt>
      <trkpt lat="44.17171" lon="2.04371">
        <ele>244</ele>
        <time>2017-12-06T13:47:10Z</time>
      </trkpt>
      <trkpt lat="44.17172" lon="2.04372">
        <ele>244</ele>
        <time>2017-12-06T13:47:12Z</time>
      </trkpt>
      <trkpt lat="44.17173" lon="2.04375">
        <ele>245</ele>
        <time>2017-12-06T13:47:14Z</time>
      </trkpt>
      <trkpt lat="44.17173" lon="2.04378">
        <ele>245</ele>
        <time>2017-12-06T13:47:16Z</time>
      </trkpt>
      <trkpt lat="44.17174" lon="2.04382">
        <ele>246</ele>
        <time>2017-12-06T13:47:18Z</time>
      </trkpt>
      <trkpt lat="44.17175" lon="2.04385">
        <ele>246</ele>
        <time>2017-12-06T13:47:20Z</time>
      </trkpt>
      <trkpt lat="44.17176" lon="2.04388">
        <ele>246</ele>
        <time>2017-12-06T13:47:22Z</time>
      </trkpt>
      <trkpt lat="44.17177" lon="2.04391">
        <ele>247</ele>
        <time>2017-12-06T13:47:24Z</time>
      </trkpt>
      <trkpt lat="44.17178" lon="2.04394">
        <ele>247</ele>
        <time>2017-12-06T13:47:26Z</time>
      </trkpt>
      <trkpt lat="44.17179" lon="2.04398">
        <ele>247</ele>
        <time>2017-12-06T13:47:28Z</time>
      </trkpt>
      <trkpt lat="44.1718" lon="2.04402">
        <ele>246</ele>
        <time>2017-12-06T13:47:30Z</time>
      </trkpt>
      <trkpt lat="44.17181" lon="2.04405">
        <ele>246</ele>
        <time>2017-12-06T13:47:32Z</time>
      </trkpt>
      <trkpt lat="44.17181" lon="2.04408">
        <ele>246</ele>
        <time>2017-12-06T13:47:34Z</time>
      </trkpt>
      <trkpt lat="44.17181" lon="2.04412">
        <ele>246</ele>
        <time>2017-12-06T13:47:36Z</time>
      </trkpt>
      <trkpt lat="44.17182" lon="2.04415">
        <ele>246</ele>
        <time>2017-12-06T13:47:38Z</time>
      </trkpt>
      <trkpt lat="44.17183" lon="2.04418">
        <ele>246</ele>
        <time>2017-12-06T13:47:40Z</time>
      </trkpt>
      <trkpt lat="44.17184" lon="2.04421">
        <ele>245</ele>
        <time>2017-12-06T13:47:42Z</time>
      </trkpt>
      <trkpt lat="44.17184" lon="2.04424">
        <ele>245</ele>
        <time>2017-12-06T13:47:44Z</time>
      </trkpt>
      <trkpt lat="44.17185" lon="2.04427">
        <ele>245</ele>
        <time>2017-12-06T13:47:46Z</time>
      </trkpt>
      <trkpt lat="44.17186" lon="2.04431">
        <ele>246</ele>
        <time>2017-12-06T13:47:48Z</time>
      </trkpt>
      <trkpt lat="44.17187" lon="2.04434">
        <ele>246</ele>
        <time>2017-12-06T13:47:50Z</time>
      </trkpt>
      <trkpt lat="44.17188" lon="2.04437">
        <ele>245</ele>
        <time>2017-12-06T13:47:52Z</time>
      </trkpt>
      <trkpt lat="44.17189" lon="2.04441">
        <ele>245</ele>
        <time>2017-12-06T13:47:54Z</time>
      </trkpt>
      <trkpt lat="44.17189" lon="2.04444">
        <ele>245</ele>
        <time>2017-12-06T13:47:56Z</time>
      </trkpt>
      <trkpt lat="44.1719" lon="2.04448">
        <ele>245</ele>
        <time>2017-12-06T13:47:58Z</time>
      </trkpt>
      <trkpt lat="44.1719" lon="2.04451">
        <ele>245</ele>
        <time>2017-12-06T13:48:00Z</time>
      </trkpt>
      <trkpt lat="44.17191" lon="2.04455">
        <ele>245</ele>
        <time>2017-12-06T13:48:02Z</time>
      </trkpt>
      <trkpt lat="44.17191" lon="2.04459">
        <ele>244</ele>
        <time>2017-12-06T13:48:04Z</time>
      </trkpt>
      <trkpt lat="44.17191" lon="2.04462">
        <ele>244</ele>
        <time>2017-12-06T13:48:06Z</time>
      </trkpt>
      <trkpt lat="44.17192" lon="2.04465">
        <ele>244</ele>
        <time>2017-12-06T13:48:08Z</time>
      </trkpt>
      <trkpt lat="44.17192" lon="2.04468">
        <ele>243</ele>
        <time>2017-12-06T13:48:10Z</time>
      </trkpt>
      <trkpt lat="44.17193" lon="2.04472">
        <ele>243</ele>
        <time>2017-12-06T13:48:12Z</time>
      </trkpt>
      <trkpt lat="44.17194" lon="2.04476">
        <ele>243</ele>
        <time>2017-12-06T13:48:14Z</time>
      </trkpt>
      <trkpt lat="44.17195" lon="2.0448">
        <ele>242</ele>
        <time>2017-12-06T13:48:16Z</time>
      </trkpt>
      <trkpt lat="44.17196" lon="2.04483">
        <ele>242</ele>
        <time>2017-12-06T13:48:18Z</time>
      </trkpt>
      <trkpt lat="44.17196" lon="2.04486">
        <ele>241</ele>
        <time>2017-12-06T13:48:20Z</time>
      </trkpt>
      <trkpt lat="44.17197" lon="2.0449">
        <ele>241</ele>
        <time>2017-12-06T13:48:22Z</time>
      </trkpt>
      <trkpt lat="44.17198" lon="2.04493">
        <ele>241</ele>
        <time>2017-12-06T13:48:24Z</time>
      </trkpt>
      <trkpt lat="44.17199" lon="2.04497">
        <ele>240</ele>
        <time>2017-12-06T13:48:26Z</time>
      </trkpt>
      <trkpt lat="44.172" lon="2.045">
        <ele>240</ele>
        <time>2017-12-06T13:48:28Z</time>
      </trkpt>
      <trkpt lat="44.17201" lon="2.04503">
        <ele>240</ele>
        <time>2017-12-06T13:48:30Z</time>
      </trkpt>
      <trkpt lat="44.17202" lon="2.04506">
        <ele>240</ele>
        <time>2017-12-06T13:48:32Z</time>
      </trkpt>
      <trkpt lat="44.17203" lon="2.04509">
        <ele>240</ele>
        <time>2017-12-06T13:48:34Z</time>
      </trkpt>
      <trkpt lat="44.17204" lon="2.04512">
        <ele>240</ele>
        <time>2017-12-06T13:48:36Z</time>
      </trkpt>
      <trkpt lat="44.17205" lon="2.04516">
        <ele>240</ele>
        <time>2017-12-06T13:48:38Z</time>
      </trkpt>
      <trkpt lat="44.17206" lon="2.04519">
        <ele>239</ele>
        <time>2017-12-06T13:48:40Z</time>
      </trkpt>
      <trkpt lat="44.17207" lon="2.04522">
        <ele>239</ele>
        <time>2017-12-06T13:48:42Z</time>
      </trkpt>
      <trkpt lat="44.17208" lon="2.04525">
        <ele>239</ele>
        <time>2017-12-06T13:48:44Z</time>
      </trkpt>
      <trkpt lat="44.1721" lon="2.04528">
        <ele>239</ele>
        <time>2017-12-06T13:48:46Z</time>
      </trkpt>
      <trkpt lat="44.17211" lon="2.04532">
        <ele>239</ele>
        <time>2017-12-06T13:48:48Z</time>
      </trkpt>
      <trkpt lat="44.17212" lon="2.04535">
        <ele>239</ele>
        <time>2017-12-06T13:48:50Z</time>
      </trkpt>
      <trkpt lat="44.17213" lon="2.04538">
        <ele>239</ele>
        <time>2017-12-06T13:48:52Z</time>
      </trkpt>
      <trkpt lat="44.17215" lon="2.04542">
        <ele>239</ele>
        <time>2017-12-06T13:48:54Z</time>
      </trkpt>
      <trkpt lat="44.17216" lon="2.04545">
        <ele>239</ele>
        <time>2017-12-06T13:48:56Z</time>
      </trkpt>
      <trkpt lat="44.17218" lon="2.04548">
        <ele>239</ele>
        <time>2017-12-06T13:48:58Z</time>
      </trkpt>
      <trkpt lat="44.17219" lon="2.04551">
        <ele>240</ele>
        <time>2017-12-06T13:49:00Z</time>
      </trkpt>
      <trkpt lat="44.17221" lon="2.04554">
        <ele>240</ele>
        <time>2017-12-06T13:49:02Z</time>
      </trkpt>
      <trkpt lat="44.17222" lon="2.04556">
        <ele>241</ele>
        <time>2017-12-06T13:49:04Z</time>
      </trkpt>
      <trkpt lat="44.17224" lon="2.04559">
        <ele>241</ele>
        <time>2017-12-06T13:49:06Z</time>
      </trkpt>
      <trkpt lat="44.17226" lon="2.04561">
        <ele>241</ele>
        <time>2017-12-06T13:49:08Z</time>
      </trkpt>
      <trkpt lat="44.17227" lon="2.04564">
        <ele>242</ele>
        <time>2017-12-06T13:49:10Z</time>
      </trkpt>
      <trkpt lat="44.17228" lon="2.04566">
        <ele>242</ele>
        <time>2017-12-06T13:49:12Z</time>
      </trkpt>
      <trkpt lat="44.1723" lon="2.04569">
        <ele>242</ele>
        <time>2017-12-06T13:49:14Z</time>
      </trkpt>
      <trkpt lat="44.1723" lon="2.04571">
        <ele>243</ele>
        <time>2017-12-06T13:49:16Z</time>
      </trkpt>
      <trkpt lat="44.17231" lon="2.04574">
        <ele>243</ele>
        <time>2017-12-06T13:49:18Z</time>
      </trkpt>
      <trkpt lat="44.17232" lon="2.04578">
        <ele>243</ele>
        <time>2017-12-06T13:49:20Z</time>
      </trkpt>
      <trkpt lat="44.17233" lon="2.04582">
        <ele>243</ele>
        <time>2017-12-06T13:49:22Z</time>
      </trkpt>
      <trkpt lat="44.17234" lon="2.04586">
        <ele>244</ele>
        <time>2017-12-06T13:49:24Z</time>
      </trkpt>
      <trkpt lat="44.17234" lon="2.04589">
        <ele>244</ele>
        <time>2017-12-06T13:49:26Z</time>
      </trkpt>
      <trkpt lat="44.17235" lon="2.04593">
        <ele>244</ele>
        <time>2017-12-06T13:49:28Z</time>
      </trkpt>
      <trkpt lat="44.17237" lon="2.04596">
        <ele>245</ele>
        <time>2017-12-06T13:49:30Z</time>
      </trkpt>
      <trkpt lat="44.17238" lon="2.04599">
        <ele>245</ele>
        <time>2017-12-06T13:49:32Z</time>
      </trkpt>
      <trkpt lat="44.17239" lon="2.04602">
        <ele>246</ele>
        <time>2017-12-06T13:49:34Z</time>
      </trkpt>
      <trkpt lat="44.1724" lon="2.04605">
        <ele>246</ele>
        <time>2017-12-06T13:49:36Z</time>
      </trkpt>
      <trkpt lat="44.17241" lon="2.04608">
        <ele>247</ele>
        <time>2017-12-06T13:49:38Z</time>
      </trkpt>
      <trkpt lat="44.17243" lon="2.04611">
        <ele>247</ele>
        <time>2017-12-06T13:49:40Z</time>
      </trkpt>
      <trkpt lat="44.17244" lon="2.04613">
        <ele>248</ele>
        <time>2017-12-06T13:49:42Z</time>
      </trkpt>
      <trkpt lat="44.17245" lon="2.04616">
        <ele>248</ele>
        <time>2017-12-06T13:49:44Z</time>
      </trkpt>
      <trkpt lat="44.17247" lon="2.04619">
        <ele>248</ele>
        <time>2017-12-06T13:49:46Z</time>
      </trkpt>
      <trkpt lat="44.17249" lon="2.04623">
        <ele>249</ele>
        <time>2017-12-06T13:49:48Z</time>
      </trkpt>
      <trkpt lat="44.1725" lon="2.04625">
        <ele>250</ele>
        <time>2017-12-06T13:49:50Z</time>
      </trkpt>
      <trkpt lat="44.17251" lon="2.04627">
        <ele>251</ele>
        <time>2017-12-06T13:49:52Z</time>
      </trkpt>
      <trkpt lat="44.17253" lon="2.04629">
        <ele>252</ele>
        <time>2017-12-06T13:49:54Z</time>
      </trkpt>
      <trkpt lat="44.17255" lon="2.04631">
        <ele>253</ele>
        <time>2017-12-06T13:49:56Z</time>
      </trkpt>
      <trkpt lat="44.17257" lon="2.04634">
        <ele>254</ele>
        <time>2017-12-06T13:49:58Z</time>
      </trkpt>
      <trkpt lat="44.17258" lon="2.04636">
        <ele>254</ele>
        <time>2017-12-06T13:50:00Z</time>
      </trkpt>
      <trkpt lat="44.17261" lon="2.04639">
        <ele>255</ele>
        <time>2017-12-06T13:50:02Z</time>
      </trkpt>
      <trkpt lat="44.17263" lon="2.04642">
        <ele>256</ele>
        <time>2017-12-06T13:50:04Z</time>
      </trkpt>
      <trkpt lat="44.17265" lon="2.04644">
        <ele>256</ele>
        <time>2017-12-06T13:50:06Z</time>
      </trkpt>
      <trkpt lat="44.17267" lon="2.04648">
        <ele>256</ele>
        <time>2017-12-06T13:50:08Z</time>
      </trkpt>
      <trkpt lat="44.17269" lon="2.0465">
        <ele>257</ele>
        <time>2017-12-06T13:50:10Z</time>
      </trkpt>
      <trkpt lat="44.1727" lon="2.04652">
        <ele>257</ele>
        <time>2017-12-06T13:50:12Z</time>
      </trkpt>
      <trkpt lat="44.17272" lon="2.04654">
        <ele>257</ele>
        <time>2017-12-06T13:50:14Z</time>
      </trkpt>
      <trkpt lat="44.17274" lon="2.04656">
        <ele>257</ele>
        <time>2017-12-06T13:50:16Z</time>
      </trkpt>
      <trkpt lat="44.17277" lon="2.04658">
        <ele>258</ele>
        <time>2017-12-06T13:50:18Z</time>
      </trkpt>
      <trkpt lat="44.17278" lon="2.04661">
        <ele>258</ele>
        <time>2017-12-06T13:50:20Z</time>
      </trkpt>
      <trkpt lat="44.1728" lon="2.04663">
        <ele>258</ele>
        <time>2017-12-06T13:50:22Z</time>
      </trkpt>
      <trkpt lat="44.17282" lon="2.04665">
        <ele>259</ele>
        <time>2017-12-06T13:50:24Z</time>
      </trkpt>
      <trkpt lat="44.17283" lon="2.04667">
        <ele>259</ele>
        <time>2017-12-06T13:50:26Z</time>
      </trkpt>
      <trkpt lat="44.17285" lon="2.04669">
        <ele>259</ele>
        <time>2017-12-06T13:50:28Z</time>
      </trkpt>
      <trkpt lat="44.17287" lon="2.04672">
        <ele>260</ele>
        <time>2017-12-06T13:50:30Z</time>
      </trkpt>
      <trkpt lat="44.17289" lon="2.04674">
        <ele>260</ele>
        <time>2017-12-06T13:50:32Z</time>
      </trkpt>
      <trkpt lat="44.1729" lon="2.04676">
        <ele>260</ele>
        <time>2017-12-06T13:50:34Z</time>
      </trkpt>
      <trkpt lat="44.17293" lon="2.04676">
        <ele>261</ele>
        <time>2017-12-06T13:50:36Z</time>
      </trkpt>
      <trkpt lat="44.17296" lon="2.04676">
        <ele>261</ele>
        <time>2017-12-06T13:50:38Z</time>
      </trkpt>
      <trkpt lat="44.17299" lon="2.04676">
        <ele>261</ele>
        <time>2017-12-06T13:50:40Z</time>
      </trkpt>
      <trkpt lat="44.17299" lon="2.04676">
        <ele>261</ele>
        <time>2017-12-06T13:50:42Z</time>
      </trkpt>
      <trkpt lat="44.17299" lon="2.04676">
        <ele>262</ele>
        <time>2017-12-06T13:50:44Z</time>
      </trkpt>
      <trkpt lat="44.17304" lon="2.04673">
        <ele>262</ele>
        <time>2017-12-06T13:50:46Z</time>
      </trkpt>
      <trkpt lat="44.17306" lon="2.04671">
        <ele>262</ele>
        <time>2017-12-06T13:50:48Z</time>
      </trkpt>
      <trkpt lat="44.17306" lon="2.04669">
        <ele>262</ele>
        <time>2017-12-06T13:50:50Z</time>
      </trkpt>
      <trkpt lat="44.17307" lon="2.04667">
        <ele>262</ele>
        <time>2017-12-06T13:50:52Z</time>
      </trkpt>
      <trkpt lat="44.17307" lon="2.04666">
        <ele>262</ele>
        <time>2017-12-06T13:50:54Z</time>
      </trkpt>
      <trkpt lat="44.17307" lon="2.04664">
        <ele>262</ele>
        <time>2017-12-06T13:50:56Z</time>
      </trkpt>
      <trkpt lat="44.17306" lon="2.04661">
        <ele>262</ele>
        <time>2017-12-06T13:50:58Z</time>
      </trkpt>
      <trkpt lat="44.17305" lon="2.04659">
        <ele>262</ele>
        <time>2017-12-06T13:51:00Z</time>
      </trkpt>
      <trkpt lat="44.17304" lon="2.04658">
        <ele>262</ele>
        <time>2017-12-06T13:51:02Z</time>
      </trkpt>
      <trkpt lat="44.17303" lon="2.04657">
        <ele>263</ele>
        <time>2017-12-06T13:51:04Z</time>
      </trkpt>
      <trkpt lat="44.17301" lon="2.04655">
        <ele>263</ele>
        <time>2017-12-06T13:51:06Z</time>
      </trkpt>
      <trkpt lat="44.173" lon="2.04652">
        <ele>264</ele>
        <time>2017-12-06T13:51:08Z</time>
      </trkpt>
      <trkpt lat="44.17298" lon="2.04651">
        <ele>264</ele>
        <time>2017-12-06T13:51:10Z</time>
      </trkpt>
      <trkpt lat="44.17296" lon="2.04648">
        <ele>264</ele>
        <time>2017-12-06T13:51:12Z</time>
      </trkpt>
      <trkpt lat="44.17294" lon="2.04646">
        <ele>265</ele>
        <time>2017-12-06T13:51:14Z</time>
      </trkpt>
      <trkpt lat="44.17292" lon="2.04644">
        <ele>265</ele>
        <time>2017-12-06T13:51:16Z</time>
      </trkpt>
      <trkpt lat="44.1729" lon="2.04643">
        <ele>265</ele>
        <time>2017-12-06T13:51:18Z</time>
      </trkpt>
      <trkpt lat="44.17287" lon="2.04641">
        <ele>265</ele>
        <time>2017-12-06T13:51:20Z</time>
      </trkpt>
      <trkpt lat="44.17284" lon="2.04638">
        <ele>265</ele>
        <time>2017-12-06T13:51:22Z</time>
      </trkpt>
      <trkpt lat="44.17282" lon="2.04637">
        <ele>266</ele>
        <time>2017-12-06T13:51:24Z</time>
      </trkpt>
      <trkpt lat="44.1728" lon="2.04635">
        <ele>266</ele>
        <time>2017-12-06T13:51:26Z</time>
      </trkpt>
      <trkpt lat="44.17278" lon="2.04634">
        <ele>266</ele>
        <time>2017-12-06T13:51:28Z</time>
      </trkpt>
      <trkpt lat="44.17276" lon="2.04633">
        <ele>266</ele>
        <time>2017-12-06T13:51:30Z</time>
      </trkpt>
      <trkpt lat="44.17275" lon="2.04632">
        <ele>266</ele>
        <time>2017-12-06T13:51:32Z</time>
      </trkpt>
      <trkpt lat="44.17273" lon="2.0463">
        <ele>266</ele>
        <time>2017-12-06T13:51:34Z</time>
      </trkpt>
      <trkpt lat="44.17271" lon="2.04628">
        <ele>266</ele>
        <time>2017-12-06T13:51:36Z</time>
      </trkpt>
      <trkpt lat="44.17269" lon="2.04625">
        <ele>266</ele>
        <time>2017-12-06T13:51:38Z</time>
      </trkpt>
      <trkpt lat="44.17268" lon="2.04622">
        <ele>265</ele>
        <time>2017-12-06T13:51:40Z</time>
      </trkpt>
      <trkpt lat="44.17266" lon="2.04619">
        <ele>265</ele>
        <time>2017-12-06T13:51:42Z</time>
      </trkpt>
      <trkpt lat="44.17265" lon="2.04616">
        <ele>264</ele>
        <time>2017-12-06T13:51:44Z</time>
      </trkpt>
      <trkpt lat="44.17264" lon="2.04614">
        <ele>264</ele>
        <time>2017-12-06T13:51:46Z</time>
      </trkpt>
      <trkpt lat="44.17262" lon="2.04611">
        <ele>263</ele>
        <time>2017-12-06T13:51:48Z</time>
      </trkpt>
      <trkpt lat="44.17261" lon="2.04608">
        <ele>263</ele>
        <time>2017-12-06T13:51:50Z</time>
      </trkpt>
      <trkpt lat="44.17259" lon="2.04606">
        <ele>262</ele>
        <time>2017-12-06T13:51:52Z</time>
      </trkpt>
      <trkpt lat="44.17259" lon="2.04603">
        <ele>262</ele>
        <time>2017-12-06T13:51:54Z</time>
      </trkpt>
      <trkpt lat="44.17258" lon="2.04599">
        <ele>262</ele>
        <time>2017-12-06T13:51:56Z</time>
      </trkpt>
      <trkpt lat="44.17257" lon="2.04596">
        <ele>261</ele>
        <time>2017-12-06T13:51:58Z</time>
      </trkpt>
      <trkpt lat="44.17256" lon="2.04593">
        <ele>261</ele>
        <time>2017-12-06T13:52:00Z</time>
      </trkpt>
      <trkpt lat="44.17256" lon="2.04593">
        <ele>261</ele>
        <time>2017-12-06T13:52:02Z</time>
      </trkpt>
      <trkpt lat="44.17256" lon="2.04588">
        <ele>261</ele>
        <time>2017-12-06T13:52:04Z</time>
      </trkpt>
      <trkpt lat="44.17256" lon="2.04584">
        <ele>261</ele>
        <time>2017-12-06T13:52:06Z</time>
      </trkpt>
      <trkpt lat="44.17255" lon="2.04581">
        <ele>261</ele>
        <time>2017-12-06T13:52:08Z</time>
      </trkpt>
      <trkpt lat="44.17255" lon="2.04577">
        <ele>261</ele>
        <time>2017-12-06T13:52:10Z</time>
      </trkpt>
      <trkpt lat="44.17255" lon="2.04574">
        <ele>260</ele>
        <time>2017-12-06T13:52:12Z</time>
      </trkpt>
      <trkpt lat="44.17255" lon="2.04571">
        <ele>260</ele>
        <time>2017-12-06T13:52:14Z</time>
      </trkpt>
      <trkpt lat="44.17254" lon="2.04567">
        <ele>260</ele>
        <time>2017-12-06T13:52:16Z</time>
      </trkpt>
      <trkpt lat="44.17253" lon="2.04564">
        <ele>259</ele>
        <time>2017-12-06T13:52:18Z</time>
      </trkpt>
      <trkpt lat="44.17252" lon="2.0456">
        <ele>259</ele>
        <time>2017-12-06T13:52:20Z</time>
      </trkpt>
      <trkpt lat="44.17251" lon="2.04556">
        <ele>259</ele>
        <time>2017-12-06T13:52:22Z</time>
      </trkpt>
      <trkpt lat="44.1725" lon="2.04552">
        <ele>258</ele>
        <time>2017-12-06T13:52:24Z</time>
      </trkpt>
      <trkpt lat="44.17249" lon="2.04548">
        <ele>258</ele>
        <time>2017-12-06T13:52:26Z</time>
      </trkpt>
      <trkpt lat="44.17247" lon="2.04543">
        <ele>258</ele>
        <time>2017-12-06T13:52:28Z</time>
      </trkpt>
      <trkpt lat="44.17247" lon="2.0454">
        <ele>258</ele>
        <time>2017-12-06T13:52:30Z</time>
      </trkpt>
      <trkpt lat="44.17245" lon="2.04536">
        <ele>258</ele>
        <time>2017-12-06T13:52:32Z</time>
      </trkpt>
      <trkpt lat="44.17245" lon="2.04532">
        <ele>258</ele>
        <time>2017-12-06T13:52:34Z</time>
      </trkpt>
      <trkpt lat="44.17244" lon="2.04529">
        <ele>259</ele>
        <time>2017-12-06T13:52:36Z</time>
      </trkpt>
      <trkpt lat="44.17243" lon="2.04525">
        <ele>259</ele>
        <time>2017-12-06T13:52:38Z</time>
      </trkpt>
      <trkpt lat="44.17243" lon="2.04521">
        <ele>259</ele>
        <time>2017-12-06T13:52:40Z</time>
      </trkpt>
      <trkpt lat="44.17244" lon="2.04517">
        <ele>258</ele>
        <time>2017-12-06T13:52:42Z</time>
      </trkpt>
      <trkpt lat="44.17243" lon="2.04513">
        <ele>258</ele>
        <time>2017-12-06T13:52:44Z</time>
      </trkpt>
      <trkpt lat="44.17244" lon="2.04509">
        <ele>258</ele>
        <time>2017-12-06T13:52:46Z</time>
      </trkpt>
      <trkpt lat="44.17244" lon="2.04505">
        <ele>258</ele>
        <time>2017-12-06T13:52:48Z</time>
      </trkpt>
      <trkpt lat="44.17245" lon="2.04501">
        <ele>258</ele>
        <time>2017-12-06T13:52:50Z</time>
      </trkpt>
      <trkpt lat="44.17245" lon="2.04496">
        <ele>257</ele>
        <time>2017-12-06T13:52:52Z</time>
      </trkpt>
      <trkpt lat="44.17246" lon="2.04492">
        <ele>257</ele>
        <time>2017-12-06T13:52:54Z</time>
      </trkpt>
      <trkpt lat="44.17246" lon="2.04488">
        <ele>257</ele>
        <time>2017-12-06T13:52:56Z</time>
      </trkpt>
      <trkpt lat="44.17246" lon="2.04484">
        <ele>256</ele>
        <time>2017-12-06T13:52:58Z</time>
      </trkpt>
      <trkpt lat="44.17245" lon="2.04482">
        <ele>256</ele>
        <time>2017-12-06T13:53:00Z</time>
      </trkpt>
      <trkpt lat="44.17246" lon="2.04478">
        <ele>256</ele>
        <time>2017-12-06T13:53:02Z</time>
      </trkpt>
      <trkpt lat="44.17245" lon="2.04474">
        <ele>256</ele>
        <time>2017-12-06T13:53:04Z</time>
      </trkpt>
      <trkpt lat="44.17246" lon="2.04472">
        <ele>255</ele>
        <time>2017-12-06T13:53:06Z</time>
      </trkpt>
      <trkpt lat="44.17246" lon="2.04469">
        <ele>255</ele>
        <time>2017-12-06T13:53:08Z</time>
      </trkpt>
      <trkpt lat="44.17246" lon="2.04465">
        <ele>255</ele>
        <time>2017-12-06T13:53:10Z</time>
      </trkpt>
      <trkpt lat="44.17245" lon="2.04462">
        <ele>255</ele>
        <time>2017-12-06T13:53:12Z</time>
      </trkpt>
      <trkpt lat="44.17245" lon="2.04458">
        <ele>255</ele>
        <time>2017-12-06T13:53:14Z</time>
      </trkpt>
      <trkpt lat="44.17244" lon="2.04455">
        <ele>255</ele>
        <time>2017-12-06T13:53:16Z</time>
      </trkpt>
      <trkpt lat="44.17243" lon="2.04452">
        <ele>255</ele>
        <time>2017-12-06T13:53:18Z</time>
      </trkpt>
      <trkpt lat="44.17243" lon="2.04448">
        <ele>256</ele>
        <time>2017-12-06T13:53:20Z</time>
      </trkpt>
      <trkpt lat="44.17242" lon="2.04445">
        <ele>256</ele>
        <time>2017-12-06T13:53:22Z</time>
      </trkpt>
      <trkpt lat="44.17241" lon="2.04442">
        <ele>256</ele>
        <time>2017-12-06T13:53:24Z</time>
      </trkpt>
      <trkpt lat="44.17241" lon="2.04437">
        <ele>256</ele>
        <time>2017-12-06T13:53:26Z</time>
      </trkpt>
      <trkpt lat="44.1724" lon="2.04432">
        <ele>257</ele>
        <time>2017-12-06T13:53:28Z</time>
      </trkpt>
      <trkpt lat="44.17239" lon="2.04429">
        <ele>257</ele>
        <time>2017-12-06T13:53:30Z</time>
      </trkpt>
      <trkpt lat="44.17239" lon="2.04425">
        <ele>257</ele>
        <time>2017-12-06T13:53:32Z</time>
      </trkpt>
      <trkpt lat="44.17238" lon="2.04421">
        <ele>257</ele>
        <time>2017-12-06T13:53:34Z</time>
      </trkpt>
      <trkpt lat="44.17237" lon="2.04417">
        <ele>258</ele>
        <time>2017-12-06T13:53:36Z</time>
      </trkpt>
      <trkpt lat="44.17236" lon="2.04414">
        <ele>258</ele>
        <time>2017-12-06T13:53:38Z</time>
      </trkpt>
      <trkpt lat="44.17235" lon="2.0441">
        <ele>258</ele>
        <time>2017-12-06T13:53:40Z</time>
      </trkpt>
      <trkpt lat="44.17235" lon="2.04406">
        <ele>258</ele>
        <time>2017-12-06T13:53:42Z</time>
      </trkpt>
      <trkpt lat="44.17235" lon="2.04406">
        <ele>258</ele>
        <time>2017-12-06T13:53:44Z</time>
      </trkpt>
      <trkpt lat="44.17235" lon="2.04406">
        <ele>258</ele>
        <time>2017-12-06T13:53:46Z</time>
      </trkpt>
      <trkpt lat="44.17234" lon="2.04395">
        <ele>258</ele>
        <time>2017-12-06T13:53:48Z</time>
      </trkpt>
      <trkpt lat="44.17233" lon="2.04391">
        <ele>258</ele>
        <time>2017-12-06T13:53:50Z</time>
      </trkpt>
      <trkpt lat="44.17233" lon="2.04386">
        <ele>258</ele>
        <time>2017-12-06T13:53:52Z</time>
      </trkpt>
      <trkpt lat="44.17232" lon="2.04381">
        <ele>258</ele>
        <time>2017-12-06T13:53:54Z</time>
      </trkpt>
      <trkpt lat="44.17232" lon="2.04377">
        <ele>258</ele>
        <time>2017-12-06T13:53:56Z</time>
      </trkpt>
      <trkpt lat="44.17231" lon="2.04373">
        <ele>258</ele>
        <time>2017-12-06T13:53:58Z</time>
      </trkpt>
      <trkpt lat="44.17231" lon="2.04369">
        <ele>258</ele>
        <time>2017-12-06T13:54:00Z</time>
      </trkpt>
      <trkpt lat="44.17231" lon="2.04366">
        <ele>258</ele>
        <time>2017-12-06T13:54:02Z</time>
      </trkpt>
      <trkpt lat="44.17231" lon="2.04362">
        <ele>258</ele>
        <time>2017-12-06T13:54:04Z</time>
      </trkpt>
      <trkpt lat="44.17231" lon="2.04358">
        <ele>258</ele>
        <time>2017-12-06T13:54:06Z</time>
      </trkpt>
      <trkpt lat="44.17231" lon="2.04354">
        <ele>258</ele>
        <time>2017-12-06T13:54:08Z</time>
      </trkpt>
      <trkpt lat="44.17231" lon="2.0435">
        <ele>258</ele>
        <time>2017-12-06T13:54:10Z</time>
      </trkpt>
      <trkpt lat="44.17231" lon="2.04346">
        <ele>258</ele>
        <time>2017-12-06T13:54:12Z</time>
      </trkpt>
      <trkpt lat="44.17231" lon="2.04346">
        <ele>258</ele>
        <time>2017-12-06T13:54:14Z</time>
      </trkpt>
      <trkpt lat="44.17228" lon="2.04338">
        <ele>259</ele>
        <time>2017-12-06T13:54:16Z</time>
      </trkpt>
      <trkpt lat="44.17227" lon="2.04334">
        <ele>259</ele>
        <time>2017-12-06T13:54:18Z</time>
      </trkpt>
      <trkpt lat="44.17226" lon="2.04331">
        <ele>259</ele>
        <time>2017-12-06T13:54:20Z</time>
      </trkpt>
      <trkpt lat="44.17225" lon="2.04327">
        <ele>260</ele>
        <time>2017-12-06T13:54:22Z</time>
      </trkpt>
      <trkpt lat="44.17224" lon="2.04323">
        <ele>260</ele>
        <time>2017-12-06T13:54:24Z</time>
      </trkpt>
      <trkpt lat="44.17223" lon="2.04319">
        <ele>261</ele>
        <time>2017-12-06T13:54:26Z</time>
      </trkpt>
      <trkpt lat="44.17221" lon="2.04316">
        <ele>261</ele>
        <time>2017-12-06T13:54:28Z</time>
      </trkpt>
      <trkpt lat="44.1722" lon="2.04312">
        <ele>262</ele>
        <time>2017-12-06T13:54:30Z</time>
      </trkpt>
      <trkpt lat="44.17218" lon="2.04308">
        <ele>262</ele>
        <time>2017-12-06T13:54:32Z</time>
      </trkpt>
      <trkpt lat="44.17217" lon="2.04303">
        <ele>262</ele>
        <time>2017-12-06T13:54:34Z</time>
      </trkpt>
      <trkpt lat="44.17216" lon="2.043">
        <ele>263</ele>
        <time>2017-12-06T13:54:36Z</time>
      </trkpt>
      <trkpt lat="44.17215" lon="2.04296">
        <ele>263</ele>
        <time>2017-12-06T13:54:38Z</time>
      </trkpt>
      <trkpt lat="44.17214" lon="2.04292">
        <ele>263</ele>
        <time>2017-12-06T13:54:40Z</time>
      </trkpt>
      <trkpt lat="44.17213" lon="2.04288">
        <ele>263</ele>
        <time>2017-12-06T13:54:42Z</time>
      </trkpt>
      <trkpt lat="44.17212" lon="2.04284">
        <ele>263</ele>
        <time>2017-12-06T13:54:44Z</time>
      </trkpt>
      <trkpt lat="44.1721" lon="2.04279">
        <ele>264</ele>
        <time>2017-12-06T13:54:46Z</time>
      </trkpt>
      <trkpt lat="44.17209" lon="2.04276">
        <ele>264</ele>
        <time>2017-12-06T13:54:48Z</time>
      </trkpt>
      <trkpt lat="44.17208" lon="2.04273">
        <ele>264</ele>
        <time>2017-12-06T13:54:50Z</time>
      </trkpt>
      <trkpt lat="44.17207" lon="2.0427">
        <ele>264</ele>
        <time>2017-12-06T13:54:52Z</time>
      </trkpt>
      <trkpt lat="44.17206" lon="2.04266">
        <ele>264</ele>
        <time>2017-12-06T13:54:54Z</time>
      </trkpt>
      <trkpt lat="44.17205" lon="2.04264">
        <ele>265</ele>
        <time>2017-12-06T13:54:56Z</time>
      </trkpt>
      <trkpt lat="44.17205" lon="2.0426">
        <ele>265</ele>
        <time>2017-12-06T13:54:58Z</time>
      </trkpt>
      <trkpt lat="44.17204" lon="2.04257">
        <ele>265</ele>
        <time>2017-12-06T13:55:00Z</time>
      </trkpt>
      <trkpt lat="44.17203" lon="2.04252">
        <ele>265</ele>
        <time>2017-12-06T13:55:02Z</time>
      </trkpt>
      <trkpt lat="44.17202" lon="2.04249">
        <ele>265</ele>
        <time>2017-12-06T13:55:04Z</time>
      </trkpt>
      <trkpt lat="44.172" lon="2.04245">
        <ele>265</ele>
        <time>2017-12-06T13:55:06Z</time>
      </trkpt>
      <trkpt lat="44.172" lon="2.04242">
        <ele>266</ele>
        <time>2017-12-06T13:55:08Z</time>
      </trkpt>
      <trkpt lat="44.172" lon="2.04238">
        <ele>266</ele>
        <time>2017-12-06T13:55:10Z</time>
      </trkpt>
      <trkpt lat="44.172" lon="2.04234">
        <ele>265</ele>
        <time>2017-12-06T13:55:12Z</time>
      </trkpt>
      <trkpt lat="44.172" lon="2.04231">
        <ele>265</ele>
        <time>2017-12-06T13:55:14Z</time>
      </trkpt>
      <trkpt lat="44.17201" lon="2.04227">
        <ele>265</ele>
        <time>2017-12-06T13:55:16Z</time>
      </trkpt>
      <trkpt lat="44.17201" lon="2.04223">
        <ele>265</ele>
        <time>2017-12-06T13:55:18Z</time>
      </trkpt>
      <trkpt lat="44.17202" lon="2.04219">
        <ele>265</ele>
        <time>2017-12-06T13:55:20Z</time>
      </trkpt>
      <trkpt lat="44.17203" lon="2.04216">
        <ele>265</ele>
        <time>2017-12-06T13:55:22Z</time>
      </trkpt>
      <trkpt lat="44.17204" lon="2.04212">
        <ele>265</ele>
        <time>2017-12-06T13:55:24Z</time>
      </trkpt>
      <trkpt lat="44.17205" lon="2.04209">
        <ele>265</ele>
        <time>2017-12-06T13:55:26Z</time>
      </trkpt>
      <trkpt lat="44.17206" lon="2.04205">
        <ele>264</ele>
        <time>2017-12-06T13:55:28Z</time>
      </trkpt>
      <trkpt lat="44.17207" lon="2.04202">
        <ele>264</ele>
        <time>2017-12-06T13:55:30Z</time>
      </trkpt>
      <trkpt lat="44.17208" lon="2.04199">
        <ele>263</ele>
        <time>2017-12-06T13:55:32Z</time>
      </trkpt>
      <trkpt lat="44.17209" lon="2.04196">
        <ele>263</ele>
        <time>2017-12-06T13:55:34Z</time>
      </trkpt>
      <trkpt lat="44.17211" lon="2.04193">
        <ele>262</ele>
        <time>2017-12-06T13:55:36Z</time>
      </trkpt>
      <trkpt lat="44.17212" lon="2.04189">
        <ele>262</ele>
        <time>2017-12-06T13:55:38Z</time>
      </trkpt>
      <trkpt lat="44.17213" lon="2.04187">
        <ele>261</ele>
        <time>2017-12-06T13:55:40Z</time>
      </trkpt>
      <trkpt lat="44.17215" lon="2.04185">
        <ele>261</ele>
        <time>2017-12-06T13:55:42Z</time>
      </trkpt>
      <trkpt lat="44.17217" lon="2.04183">
        <ele>260</ele>
        <time>2017-12-06T13:55:44Z</time>
      </trkpt>
      <trkpt lat="44.17219" lon="2.04181">
        <ele>260</ele>
        <time>2017-12-06T13:55:46Z</time>
      </trkpt>
      <trkpt lat="44.1722" lon="2.04178">
        <ele>260</ele>
        <time>2017-12-06T13:55:48Z</time>
      </trkpt>
      <trkpt lat="44.17222" lon="2.04176">
        <ele>260</ele>
        <time>2017-12-06T13:55:50Z</time>
      </trkpt>
      <trkpt lat="44.17224" lon="2.04174">
        <ele>260</ele>
        <time>2017-12-06T13:55:52Z</time>
      </trkpt>
      <trkpt lat="44.17226" lon="2.04171">
        <ele>260</ele>
        <time>2017-12-06T13:55:54Z</time>
      </trkpt>
      <trkpt lat="44.17228" lon="2.04169">
        <ele>260</ele>
        <time>2017-12-06T13:55:56Z</time>
      </trkpt>
      <trkpt lat="44.1723" lon="2.04167">
        <ele>260</ele>
        <time>2017-12-06T13:55:58Z</time>
      </trkpt>
      <trkpt lat="44.17232" lon="2.04165">
        <ele>260</ele>
        <time>2017-12-06T13:56:00Z</time>
      </trkpt>
      <trkpt lat="44.17234" lon="2.04164">
        <ele>260</ele>
        <time>2017-12-06T13:56:02Z</time>
      </trkpt>
      <trkpt lat="44.17236" lon="2.04162">
        <ele>260</ele>
        <time>2017-12-06T13:56:04Z</time>
      </trkpt>
      <trkpt lat="44.17239" lon="2.04161">
        <ele>261</ele>
        <time>2017-12-06T13:56:06Z</time>
      </trkpt>
      <trkpt lat="44.17241" lon="2.04159">
        <ele>261</ele>
        <time>2017-12-06T13:56:08Z</time>
      </trkpt>
      <trkpt lat="44.17243" lon="2.04158">
        <ele>261</ele>
        <time>2017-12-06T13:56:10Z</time>
      </trkpt>
      <trkpt lat="44.17246" lon="2.04157">
        <ele>261</ele>
        <time>2017-12-06T13:56:12Z</time>
      </trkpt>
      <trkpt lat="44.17248" lon="2.04156">
        <ele>262</ele>
        <time>2017-12-06T13:56:14Z</time>
      </trkpt>
      <trkpt lat="44.17251" lon="2.04154">
        <ele>262</ele>
        <time>2017-12-06T13:56:16Z</time>
      </trkpt>
      <trkpt lat="44.17253" lon="2.04152">
        <ele>263</ele>
        <time>2017-12-06T13:56:18Z</time>
      </trkpt>
      <trkpt lat="44.17255" lon="2.04151">
        <ele>263</ele>
        <time>2017-12-06T13:56:20Z</time>
      </trkpt>
      <trkpt lat="44.17257" lon="2.0415">
        <ele>263</ele>
        <time>2017-12-06T13:56:22Z</time>
      </trkpt>
      <trkpt lat="44.17259" lon="2.04149">
        <ele>263</ele>
        <time>2017-12-06T13:56:24Z</time>
      </trkpt>
      <trkpt lat="44.17262" lon="2.04148">
        <ele>264</ele>
        <time>2017-12-06T13:56:26Z</time>
      </trkpt>
      <trkpt lat="44.17265" lon="2.04147">
        <ele>264</ele>
        <time>2017-12-06T13:56:28Z</time>
      </trkpt>
      <trkpt lat="44.17267" lon="2.04146">
        <ele>264</ele>
        <time>2017-12-06T13:56:30Z</time>
      </trkpt>
      <trkpt lat="44.1727" lon="2.04145">
        <ele>264</ele>
        <time>2017-12-06T13:56:32Z</time>
      </trkpt>
      <trkpt lat="44.1727" lon="2.04145">
        <ele>264</ele>
        <time>2017-12-06T13:56:34Z</time>
      </trkpt>
      <trkpt lat="44.17274" lon="2.04143">
        <ele>264</ele>
        <time>2017-12-06T13:56:36Z</time>
      </trkpt>
      <trkpt lat="44.17277" lon="2.04141">
        <ele>264</ele>
        <time>2017-12-06T13:56:38Z</time>
      </trkpt>
      <trkpt lat="44.17279" lon="2.0414">
        <ele>265</ele>
        <time>2017-12-06T13:56:40Z</time>
      </trkpt>
      <trkpt lat="44.17282" lon="2.04138">
        <ele>265</ele>
        <time>2017-12-06T13:56:42Z</time>
      </trkpt>
      <trkpt lat="44.17282" lon="2.04138">
        <ele>265</ele>
        <time>2017-12-06T13:56:44Z</time>
      </trkpt>
      <trkpt lat="44.17286" lon="2.04136">
        <ele>265</ele>
        <time>2017-12-06T13:56:46Z</time>
      </trkpt>
      <trkpt lat="44.17288" lon="2.04134">
        <ele>265</ele>
        <time>2017-12-06T13:56:48Z</time>
      </trkpt>
      <trkpt lat="44.1729" lon="2.04132">
        <ele>265</ele>
        <time>2017-12-06T13:56:50Z</time>
      </trkpt>
      <trkpt lat="44.17292" lon="2.0413">
        <ele>265</ele>
        <time>2017-12-06T13:56:52Z</time>
      </trkpt>
      <trkpt lat="44.17294" lon="2.04128">
        <ele>265</ele>
        <time>2017-12-06T13:56:54Z</time>
      </trkpt>
      <trkpt lat="44.17296" lon="2.04127">
        <ele>265</ele>
        <time>2017-12-06T13:56:56Z</time>
      </trkpt>
      <trkpt lat="44.17298" lon="2.04125">
        <ele>264</ele>
        <time>2017-12-06T13:56:58Z</time>
      </trkpt>
      <trkpt lat="44.173" lon="2.04124">
        <ele>264</ele>
        <time>2017-12-06T13:57:00Z</time>
      </trkpt>
      <trkpt lat="44.17302" lon="2.04124">
        <ele>264</ele>
        <time>2017-12-06T13:57:02Z</time>
      </trkpt>
      <trkpt lat="44.17304" lon="2.04123">
        <ele>264</ele>
        <time>2017-12-06T13:57:04Z</time>
      </trkpt>
      <trkpt lat="44.17307" lon="2.04122">
        <ele>264</ele>
        <time>2017-12-06T13:57:06Z</time>
      </trkpt>
      <trkpt lat="44.1731" lon="2.0412">
        <ele>264</ele>
        <time>2017-12-06T13:57:08Z</time>
      </trkpt>
      <trkpt lat="44.17312" lon="2.04118">
        <ele>264</ele>
        <time>2017-12-06T13:57:10Z</time>
      </trkpt>
      <trkpt lat="44.17315" lon="2.04115">
        <ele>265</ele>
        <time>2017-12-06T13:57:12Z</time>
      </trkpt>
      <trkpt lat="44.17317" lon="2.04112">
        <ele>265</ele>
        <time>2017-12-06T13:57:14Z</time>
      </trkpt>
      <trkpt lat="44.1732" lon="2.0411">
        <ele>265</ele>
        <time>2017-12-06T13:57:16Z</time>
      </trkpt>
      <trkpt lat="44.17323" lon="2.04107">
        <ele>266</ele>
        <time>2017-12-06T13:57:18Z</time>
      </trkpt>
      <trkpt lat="44.17326" lon="2.04105">
        <ele>266</ele>
        <time>2017-12-06T13:57:20Z</time>
      </trkpt>
      <trkpt lat="44.17328" lon="2.04102">
        <ele>266</ele>
        <time>2017-12-06T13:57:22Z</time>
      </trkpt>
      <trkpt lat="44.1733" lon="2.041">
        <ele>266</ele>
        <time>2017-12-06T13:57:24Z</time>
      </trkpt>
      <trkpt lat="44.17333" lon="2.04098">
        <ele>267</ele>
        <time>2017-12-06T13:57:26Z</time>
      </trkpt>
      <trkpt lat="44.17335" lon="2.04094">
        <ele>267</ele>
        <time>2017-12-06T13:57:28Z</time>
      </trkpt>
      <trkpt lat="44.17337" lon="2.04092">
        <ele>266</ele>
        <time>2017-12-06T13:57:30Z</time>
      </trkpt>
      <trkpt lat="44.17339" lon="2.04089">
        <ele>266</ele>
        <time>2017-12-06T13:57:32Z</time>
      </trkpt>
      <trkpt lat="44.17341" lon="2.04087">
        <ele>266</ele>
        <time>2017-12-06T13:57:34Z</time>
      </trkpt>
      <trkpt lat="44.17343" lon="2.04084">
        <ele>266</ele>
        <time>2017-12-06T13:57:36Z</time>
      </trkpt>
      <trkpt lat="44.17344" lon="2.0408">
        <ele>266</ele>
        <time>2017-12-06T13:57:38Z</time>
      </trkpt>
      <trkpt lat="44.17346" lon="2.04077">
        <ele>265</ele>
        <time>2017-12-06T13:57:40Z</time>
      </trkpt>
      <trkpt lat="44.17348" lon="2.04075">
        <ele>265</ele>
        <time>2017-12-06T13:57:42Z</time>
      </trkpt>
      <trkpt lat="44.1735" lon="2.04072">
        <ele>265</ele>
        <time>2017-12-06T13:57:44Z</time>
      </trkpt>
      <trkpt lat="44.17351" lon="2.04069">
        <ele>265</ele>
        <time>2017-12-06T13:57:46Z</time>
      </trkpt>
      <trkpt lat="44.17352" lon="2.04066">
        <ele>265</ele>
        <time>2017-12-06T13:57:48Z</time>
      </trkpt>
      <trkpt lat="44.17354" lon="2.04064">
        <ele>264</ele>
        <time>2017-12-06T13:57:50Z</time>
      </trkpt>
      <trkpt lat="44.17355" lon="2.04062">
        <ele>264</ele>
        <time>2017-12-06T13:57:52Z</time>
      </trkpt>
      <trkpt lat="44.17355" lon="2.04062">
        <ele>264</ele>
        <time>2017-12-06T13:57:54Z</time>
      </trkpt>
      <trkpt lat="44.17358" lon="2.04059">
        <ele>264</ele>
        <time>2017-12-06T13:57:56Z</time>
      </trkpt>
      <trkpt lat="44.1736" lon="2.04058">
        <ele>264</ele>
        <time>2017-12-06T13:57:58Z</time>
      </trkpt>
      <trkpt lat="44.17361" lon="2.04056">
        <ele>264</ele>
        <time>2017-12-06T13:58:00Z</time>
      </trkpt>
      <trkpt lat="44.17362" lon="2.04053">
        <ele>264</ele>
        <time>2017-12-06T13:58:02Z</time>
      </trkpt>
      <trkpt lat="44.17363" lon="2.0405">
        <ele>264</ele>
        <time>2017-12-06T13:58:04Z</time>
      </trkpt>
      <trkpt lat="44.17365" lon="2.04048">
        <ele>264</ele>
        <time>2017-12-06T13:58:06Z</time>
      </trkpt>
      <trkpt lat="44.17366" lon="2.04044">
        <ele>264</ele>
        <time>2017-12-06T13:58:08Z</time>
      </trkpt>
      <trkpt lat="44.17366" lon="2.0404">
        <ele>264</ele>
        <time>2017-12-06T13:58:10Z</time>
      </trkpt>
      <trkpt lat="44.17365" lon="2.04037">
        <ele>264</ele>
        <time>2017-12-06T13:58:12Z</time>
      </trkpt>
      <trkpt lat="44.17363" lon="2.04034">
        <ele>264</ele>
        <time>2017-12-06T13:58:14Z</time>
      </trkpt>
      <trkpt lat="44.17361" lon="2.04033">
        <ele>265</ele>
        <time>2017-12-06T13:58:16Z</time>
      </trkpt>
      <trkpt lat="44.17359" lon="2.04031">
        <ele>266</ele>
        <time>2017-12-06T13:58:18Z</time>
      </trkpt>
      <trkpt lat="44.17356" lon="2.0403">
        <ele>267</ele>
        <time>2017-12-06T13:58:20Z</time>
      </trkpt>
      <trkpt lat="44.17353" lon="2.04028">
        <ele>268</ele>
        <time>2017-12-06T13:58:22Z</time>
      </trkpt>
      <trkpt lat="44.17351" lon="2.04028">
        <ele>270</ele>
        <time>2017-12-06T13:58:24Z</time>
      </trkpt>
      <trkpt lat="44.17348" lon="2.04028">
        <ele>271</ele>
        <time>2017-12-06T13:58:26Z</time>
      </trkpt>
      <trkpt lat="44.17346" lon="2.04027">
        <ele>272</ele>
        <time>2017-12-06T13:58:28Z</time>
      </trkpt>
      <trkpt lat="44.17344" lon="2.04027">
        <ele>273</ele>
        <time>2017-12-06T13:58:30Z</time>
      </trkpt>
      <trkpt lat="44.17341" lon="2.04027">
        <ele>274</ele>
        <time>2017-12-06T13:58:32Z</time>
      </trkpt>
      <trkpt lat="44.17339" lon="2.04026">
        <ele>274</ele>
        <time>2017-12-06T13:58:34Z</time>
      </trkpt>
      <trkpt lat="44.17336" lon="2.04026">
        <ele>274</ele>
        <time>2017-12-06T13:58:36Z</time>
      </trkpt>
      <trkpt lat="44.17334" lon="2.04025">
        <ele>275</ele>
        <time>2017-12-06T13:58:38Z</time>
      </trkpt>
      <trkpt lat="44.17331" lon="2.04024">
        <ele>275</ele>
        <time>2017-12-06T13:58:40Z</time>
      </trkpt>
      <trkpt lat="44.17329" lon="2.04023">
        <ele>275</ele>
        <time>2017-12-06T13:58:42Z</time>
      </trkpt>
      <trkpt lat="44.17326" lon="2.04023">
        <ele>275</ele>
        <time>2017-12-06T13:58:44Z</time>
      </trkpt>
      <trkpt lat="44.17323" lon="2.04023">
        <ele>275</ele>
        <time>2017-12-06T13:58:46Z</time>
      </trkpt>
      <trkpt lat="44.17321" lon="2.04023">
        <ele>275</ele>
        <time>2017-12-06T13:58:48Z</time>
      </trkpt>
      <trkpt lat="44.17319" lon="2.04022">
        <ele>275</ele>
        <time>2017-12-06T13:58:50Z</time>
      </trkpt>
      <trkpt lat="44.17317" lon="2.04021">
        <ele>275</ele>
        <time>2017-12-06T13:58:52Z</time>
      </trkpt>
      <trkpt lat="44.17314" lon="2.04021">
        <ele>275</ele>
        <time>2017-12-06T13:58:54Z</time>
      </trkpt>
      <trkpt lat="44.17312" lon="2.04019">
        <ele>275</ele>
        <time>2017-12-06T13:58:56Z</time>
      </trkpt>
      <trkpt lat="44.17309" lon="2.04019">
        <ele>276</ele>
        <time>2017-12-06T13:58:58Z</time>
      </trkpt>
      <trkpt lat="44.17306" lon="2.04018">
        <ele>276</ele>
        <time>2017-12-06T13:59:00Z</time>
      </trkpt>
      <trkpt lat="44.17304" lon="2.04017">
        <ele>276</ele>
        <time>2017-12-06T13:59:02Z</time>
      </trkpt>
      <trkpt lat="44.17302" lon="2.04016">
        <ele>276</ele>
        <time>2017-12-06T13:59:04Z</time>
      </trkpt>
      <trkpt lat="44.17299" lon="2.04015">
        <ele>276</ele>
        <time>2017-12-06T13:59:06Z</time>
      </trkpt>
      <trkpt lat="44.17297" lon="2.04014">
        <ele>276</ele>
        <time>2017-12-06T13:59:08Z</time>
      </trkpt>
      <trkpt lat="44.17294" lon="2.04013">
        <ele>275</ele>
        <time>2017-12-06T13:59:10Z</time>
      </trkpt>
      <trkpt lat="44.17291" lon="2.04012">
        <ele>275</ele>
        <time>2017-12-06T13:59:12Z</time>
      </trkpt>
      <trkpt lat="44.17289" lon="2.0401">
        <ele>275</ele>
        <time>2017-12-06T13:59:14Z</time>
      </trkpt>
      <trkpt lat="44.17287" lon="2.04008">
        <ele>274</ele>
        <time>2017-12-06T13:59:16Z</time>
      </trkpt>
      <trkpt lat="44.17284" lon="2.04008">
        <ele>273</ele>
        <time>2017-12-06T13:59:18Z</time>
      </trkpt>
      <trkpt lat="44.17282" lon="2.04006">
        <ele>273</ele>
        <time>2017-12-06T13:59:20Z</time>
      </trkpt>
      <trkpt lat="44.17279" lon="2.04004">
        <ele>272</ele>
        <time>2017-12-06T13:59:22Z</time>
      </trkpt>
      <trkpt lat="44.17277" lon="2.04002">
        <ele>271</ele>
        <time>2017-12-06T13:59:24Z</time>
      </trkpt>
      <trkpt lat="44.17275" lon="2.04001">
        <ele>271</ele>
        <time>2017-12-06T13:59:26Z</time>
      </trkpt>
      <trkpt lat="44.17273" lon="2.03999">
        <ele>270</ele>
        <time>2017-12-06T13:59:28Z</time>
      </trkpt>
      <trkpt lat="44.1727" lon="2.03997">
        <ele>269</ele>
        <time>2017-12-06T13:59:30Z</time>
      </trkpt>
      <trkpt lat="44.17268" lon="2.03995">
        <ele>268</ele>
        <time>2017-12-06T13:59:32Z</time>
      </trkpt>
      <trkpt lat="44.17266" lon="2.03993">
        <ele>267</ele>
        <time>2017-12-06T13:59:34Z</time>
      </trkpt>
      <trkpt lat="44.17264" lon="2.03991">
        <ele>267</ele>
        <time>2017-12-06T13:59:36Z</time>
      </trkpt>
      <trkpt lat="44.17261" lon="2.03989">
        <ele>266</ele>
        <time>2017-12-06T13:59:38Z</time>
      </trkpt>
      <trkpt lat="44.17259" lon="2.03988">
        <ele>265</ele>
        <time>2017-12-06T13:59:40Z</time>
      </trkpt>
      <trkpt lat="44.17256" lon="2.03985">
        <ele>264</ele>
        <time>2017-12-06T13:59:42Z</time>
      </trkpt>
      <trkpt lat="44.17254" lon="2.03983">
        <ele>263</ele>
        <time>2017-12-06T13:59:44Z</time>
      </trkpt>
      <trkpt lat="44.17251" lon="2.03981">
        <ele>262</ele>
        <time>2017-12-06T13:59:46Z</time>
      </trkpt>
      <trkpt lat="44.17249" lon="2.03979">
        <ele>261</ele>
        <time>2017-12-06T13:59:48Z</time>
      </trkpt>
      <trkpt lat="44.17247" lon="2.03977">
        <ele>261</ele>
        <time>2017-12-06T13:59:50Z</time>
      </trkpt>
      <trkpt lat="44.17244" lon="2.03973">
        <ele>260</ele>
        <time>2017-12-06T13:59:52Z</time>
      </trkpt>
      <trkpt lat="44.17241" lon="2.03969">
        <ele>260</ele>
        <time>2017-12-06T13:59:54Z</time>
      </trkpt>
      <trkpt lat="44.1724" lon="2.03967">
        <ele>259</ele>
        <time>2017-12-06T13:59:56Z</time>
      </trkpt>
      <trkpt lat="44.17238" lon="2.03965">
        <ele>259</ele>
        <time>2017-12-06T13:59:58Z</time>
      </trkpt>
      <trkpt lat="44.17236" lon="2.03961">
        <ele>259</ele>
        <time>2017-12-06T14:00:00Z</time>
      </trkpt>
      <trkpt lat="44.17234" lon="2.03959">
        <ele>259</ele>
        <time>2017-12-06T14:00:02Z</time>
      </trkpt>
      <trkpt lat="44.17232" lon="2.03955">
        <ele>259</ele>
        <time>2017-12-06T14:00:04Z</time>
      </trkpt>
      <trkpt lat="44.1723" lon="2.0395">
        <ele>259</ele>
        <time>2017-12-06T14:00:06Z</time>
      </trkpt>
      <trkpt lat="44.17228" lon="2.03946">
        <ele>259</ele>
        <time>2017-12-06T14:00:08Z</time>
      </trkpt>
      <trkpt lat="44.17226" lon="2.03942">
        <ele>259</ele>
        <time>2017-12-06T14:00:10Z</time>
      </trkpt>
      <trkpt lat="44.17225" lon="2.03938">
        <ele>258</ele>
        <time>2017-12-06T14:00:12Z</time>
      </trkpt>
      <trkpt lat="44.17225" lon="2.03934">
        <ele>258</ele>
        <time>2017-12-06T14:00:14Z</time>
      </trkpt>
      <trkpt lat="44.17223" lon="2.0393">
        <ele>257</ele>
        <time>2017-12-06T14:00:16Z</time>
      </trkpt>
      <trkpt lat="44.17222" lon="2.03926">
        <ele>257</ele>
        <time>2017-12-06T14:00:18Z</time>
      </trkpt>
      <trkpt lat="44.17222" lon="2.03923">
        <ele>256</ele>
        <time>2017-12-06T14:00:20Z</time>
      </trkpt>
      <trkpt lat="44.17222" lon="2.0392">
        <ele>255</ele>
        <time>2017-12-06T14:00:22Z</time>
      </trkpt>
      <trkpt lat="44.17222" lon="2.03917">
        <ele>255</ele>
        <time>2017-12-06T14:00:24Z</time>
      </trkpt>
      <trkpt lat="44.17221" lon="2.03915">
        <ele>254</ele>
        <time>2017-12-06T14:00:26Z</time>
      </trkpt>
      <trkpt lat="44.17221" lon="2.03912">
        <ele>253</ele>
        <time>2017-12-06T14:00:28Z</time>
      </trkpt>
      <trkpt lat="44.17221" lon="2.03909">
        <ele>253</ele>
        <time>2017-12-06T14:00:30Z</time>
      </trkpt>
      <trkpt lat="44.17222" lon="2.03906">
        <ele>253</ele>
        <time>2017-12-06T14:00:32Z</time>
      </trkpt>
      <trkpt lat="44.17222" lon="2.03902">
        <ele>252</ele>
        <time>2017-12-06T14:00:34Z</time>
      </trkpt>
      <trkpt lat="44.17223" lon="2.03899">
        <ele>252</ele>
        <time>2017-12-06T14:00:36Z</time>
      </trkpt>
      <trkpt lat="44.17223" lon="2.03893">
        <ele>252</ele>
        <time>2017-12-06T14:00:38Z</time>
      </trkpt>
      <trkpt lat="44.17223" lon="2.03888">
        <ele>251</ele>
        <time>2017-12-06T14:00:40Z</time>
      </trkpt>
      <trkpt lat="44.17222" lon="2.03884">
        <ele>250</ele>
        <time>2017-12-06T14:00:42Z</time>
      </trkpt>
      <trkpt lat="44.17222" lon="2.03881">
        <ele>250</ele>
        <time>2017-12-06T14:00:44Z</time>
      </trkpt>
      <trkpt lat="44.17221" lon="2.03877">
        <ele>249</ele>
        <time>2017-12-06T14:00:46Z</time>
      </trkpt>
      <trkpt lat="44.1722" lon="2.03873">
        <ele>249</ele>
        <time>2017-12-06T14:00:48Z</time>
      </trkpt>
      <trkpt lat="44.1722" lon="2.0387">
        <ele>248</ele>
        <time>2017-12-06T14:00:50Z</time>
      </trkpt>
      <trkpt lat="44.1722" lon="2.03867">
        <ele>248</ele>
        <time>2017-12-06T14:00:52Z</time>
      </trkpt>
      <trkpt lat="44.1722" lon="2.03864">
        <ele>247</ele>
        <time>2017-12-06T14:00:54Z</time>
      </trkpt>
      <trkpt lat="44.1722" lon="2.03861">
        <ele>246</ele>
        <time>2017-12-06T14:00:56Z</time>
      </trkpt>
      <trkpt lat="44.1722" lon="2.03859">
        <ele>246</ele>
        <time>2017-12-06T14:00:58Z</time>
      </trkpt>
      <trkpt lat="44.1722" lon="2.03856">
        <ele>245</ele>
        <time>2017-12-06T14:01:00Z</time>
      </trkpt>
      <trkpt lat="44.17219" lon="2.03853">
        <ele>245</ele>
        <time>2017-12-06T14:01:02Z</time>
      </trkpt>
      <trkpt lat="44.17219" lon="2.03851">
        <ele>245</ele>
        <time>2017-12-06T14:01:04Z</time>
      </trkpt>
      <trkpt lat="44.1722" lon="2.03849">
        <ele>244</ele>
        <time>2017-12-06T14:01:06Z</time>
      </trkpt>
      <trkpt lat="44.1722" lon="2.03845">
        <ele>244</ele>
        <time>2017-12-06T14:01:08Z</time>
      </trkpt>
      <trkpt lat="44.17219" lon="2.03841">
        <ele>244</ele>
        <time>2017-12-06T14:01:10Z</time>
      </trkpt>
      <trkpt lat="44.17219" lon="2.03838">
        <ele>244</ele>
        <time>2017-12-06T14:01:12Z</time>
      </trkpt>
      <trkpt lat="44.1722" lon="2.03834">
        <ele>243</ele>
        <time>2017-12-06T14:01:14Z</time>
      </trkpt>
      <trkpt lat="44.17219" lon="2.03831">
        <ele>243</ele>
        <time>2017-12-06T14:01:16Z</time>
      </trkpt>
      <trkpt lat="44.1722" lon="2.03827">
        <ele>243</ele>
        <time>2017-12-06T14:01:18Z</time>
      </trkpt>
      <trkpt lat="44.17219" lon="2.03823">
        <ele>242</ele>
        <time>2017-12-06T14:01:20Z</time>
      </trkpt>
      <trkpt lat="44.17219" lon="2.03819">
        <ele>242</ele>
        <time>2017-12-06T14:01:22Z</time>
      </trkpt>
      <trkpt lat="44.17219" lon="2.03815">
        <ele>241</ele>
        <time>2017-12-06T14:01:24Z</time>
      </trkpt>
      <trkpt lat="44.1722" lon="2.03811">
        <ele>240</ele>
        <time>2017-12-06T14:01:26Z</time>
      </trkpt>
      <trkpt lat="44.1722" lon="2.03807">
        <ele>240</ele>
        <time>2017-12-06T14:01:28Z</time>
      </trkpt>
      <trkpt lat="44.1722" lon="2.03803">
        <ele>240</ele>
        <time>2017-12-06T14:01:30Z</time>
      </trkpt>
      <trkpt lat="44.1722" lon="2.03799">
        <ele>239</ele>
        <time>2017-12-06T14:01:32Z</time>
      </trkpt>
      <trkpt lat="44.1722" lon="2.03795">
        <ele>239</ele>
        <time>2017-12-06T14:01:34Z</time>
      </trkpt>
      <trkpt lat="44.17219" lon="2.03791">
        <ele>239</ele>
        <time>2017-12-06T14:01:36Z</time>
      </trkpt>
      <trkpt lat="44.1722" lon="2.03786">
        <ele>238</ele>
        <time>2017-12-06T14:01:38Z</time>
      </trkpt>
      <trkpt lat="44.17221" lon="2.03783">
        <ele>239</ele>
        <time>2017-12-06T14:01:40Z</time>
      </trkpt>
      <trkpt lat="44.17221" lon="2.03779">
        <ele>239</ele>
        <time>2017-12-06T14:01:42Z</time>
      </trkpt>
      <trkpt lat="44.17222" lon="2.03775">
        <ele>239</ele>
        <time>2017-12-06T14:01:44Z</time>
      </trkpt>
      <trkpt lat="44.17222" lon="2.03771">
        <ele>239</ele>
        <time>2017-12-06T14:01:46Z</time>
      </trkpt>
      <trkpt lat="44.17222" lon="2.03767">
        <ele>239</ele>
        <time>2017-12-06T14:01:48Z</time>
      </trkpt>
      <trkpt lat="44.17223" lon="2.03764">
        <ele>239</ele>
        <time>2017-12-06T14:01:50Z</time>
      </trkpt>
      <trkpt lat="44.17224" lon="2.03759">
        <ele>239</ele>
        <time>2017-12-06T14:01:52Z</time>
      </trkpt>
      <trkpt lat="44.17224" lon="2.03755">
        <ele>240</ele>
        <time>2017-12-06T14:01:54Z</time>
      </trkpt>
      <trkpt lat="44.17225" lon="2.03752">
        <ele>240</ele>
        <time>2017-12-06T14:01:56Z</time>
      </trkpt>
      <trkpt lat="44.17225" lon="2.03748">
        <ele>240</ele>
        <time>2017-12-06T14:01:58Z</time>
      </trkpt>
      <trkpt lat="44.17225" lon="2.03743">
        <ele>239</ele>
        <time>2017-12-06T14:02:00Z</time>
      </trkpt>
      <trkpt lat="44.17225" lon="2.03738">
        <ele>239</ele>
        <time>2017-12-06T14:02:02Z</time>
      </trkpt>
      <trkpt lat="44.17225" lon="2.03734">
        <ele>239</ele>
        <time>2017-12-06T14:02:04Z</time>
      </trkpt>
      <trkpt lat="44.17226" lon="2.0373">
        <ele>239</ele>
        <time>2017-12-06T14:02:06Z</time>
      </trkpt>
      <trkpt lat="44.17225" lon="2.03726">
        <ele>239</ele>
        <time>2017-12-06T14:02:08Z</time>
      </trkpt>
      <trkpt lat="44.17226" lon="2.03722">
        <ele>239</ele>
        <time>2017-12-06T14:02:10Z</time>
      </trkpt>
      <trkpt lat="44.17226" lon="2.03718">
        <ele>238</ele>
        <time>2017-12-06T14:02:12Z</time>
      </trkpt>
      <trkpt lat="44.17226" lon="2.03715">
        <ele>238</ele>
        <time>2017-12-06T14:02:14Z</time>
      </trkpt>
      <trkpt lat="44.17226" lon="2.03711">
        <ele>239</ele>
        <time>2017-12-06T14:02:16Z</time>
      </trkpt>
      <trkpt lat="44.17227" lon="2.03707">
        <ele>239</ele>
        <time>2017-12-06T14:02:18Z</time>
      </trkpt>
      <trkpt lat="44.17227" lon="2.03704">
        <ele>239</ele>
        <time>2017-12-06T14:02:20Z</time>
      </trkpt>
      <trkpt lat="44.17227" lon="2.037">
        <ele>240</ele>
        <time>2017-12-06T14:02:22Z</time>
      </trkpt>
      <trkpt lat="44.17227" lon="2.03696">
        <ele>240</ele>
        <time>2017-12-06T14:02:24Z</time>
      </trkpt>
      <trkpt lat="44.17226" lon="2.03692">
        <ele>240</ele>
        <time>2017-12-06T14:02:26Z</time>
      </trkpt>
      <trkpt lat="44.17227" lon="2.03688">
        <ele>241</ele>
        <time>2017-12-06T14:02:28Z</time>
      </trkpt>
      <trkpt lat="44.17227" lon="2.03685">
        <ele>241</ele>
        <time>2017-12-06T14:02:30Z</time>
      </trkpt>
      <trkpt lat="44.17227" lon="2.03681">
        <ele>241</ele>
        <time>2017-12-06T14:02:32Z</time>
      </trkpt>
      <trkpt lat="44.17227" lon="2.03677">
        <ele>241</ele>
        <time>2017-12-06T14:02:34Z</time>
      </trkpt>
      <trkpt lat="44.17227" lon="2.03674">
        <ele>240</ele>
        <time>2017-12-06T14:02:36Z</time>
      </trkpt>
      <trkpt lat="44.17228" lon="2.0367">
        <ele>240</ele>
        <time>2017-12-06T14:02:38Z</time>
      </trkpt>
      <trkpt lat="44.17228" lon="2.03666">
        <ele>240</ele>
        <time>2017-12-06T14:02:40Z</time>
      </trkpt>
      <trkpt lat="44.17228" lon="2.03662">
        <ele>239</ele>
        <time>2017-12-06T14:02:42Z</time>
      </trkpt>
      <trkpt lat="44.17227" lon="2.03659">
        <ele>239</ele>
        <time>2017-12-06T14:02:44Z</time>
      </trkpt>
      <trkpt lat="44.17227" lon="2.03655">
        <ele>238</ele>
        <time>2017-12-06T14:02:46Z</time>
      </trkpt>
      <trkpt lat="44.17227" lon="2.03652">
        <ele>238</ele>
        <time>2017-12-06T14:02:48Z</time>
      </trkpt>
      <trkpt lat="44.17226" lon="2.03648">
        <ele>238</ele>
        <time>2017-12-06T14:02:50Z</time>
      </trkpt>
      <trkpt lat="44.17227" lon="2.03645">
        <ele>237</ele>
        <time>2017-12-06T14:02:52Z</time>
      </trkpt>
      <trkpt lat="44.17228" lon="2.03641">
        <ele>236</ele>
        <time>2017-12-06T14:02:54Z</time>
      </trkpt>
      <trkpt lat="44.1723" lon="2.03638">
        <ele>236</ele>
        <time>2017-12-06T14:02:56Z</time>
      </trkpt>
      <trkpt lat="44.17231" lon="2.03634">
        <ele>235</ele>
        <time>2017-12-06T14:02:58Z</time>
      </trkpt>
      <trkpt lat="44.17232" lon="2.0363">
        <ele>234</ele>
        <time>2017-12-06T14:03:00Z</time>
      </trkpt>
      <trkpt lat="44.17233" lon="2.03627">
        <ele>233</ele>
        <time>2017-12-06T14:03:02Z</time>
      </trkpt>
      <trkpt lat="44.17234" lon="2.03624">
        <ele>231</ele>
        <time>2017-12-06T14:03:04Z</time>
      </trkpt>
      <trkpt lat="44.17236" lon="2.03621">
        <ele>230</ele>
        <time>2017-12-06T14:03:06Z</time>
      </trkpt>
      <trkpt lat="44.17237" lon="2.03618">
        <ele>229</ele>
        <time>2017-12-06T14:03:08Z</time>
      </trkpt>
      <trkpt lat="44.1724" lon="2.03616">
        <ele>227</ele>
        <time>2017-12-06T14:03:10Z</time>
      </trkpt>
      <trkpt lat="44.17241" lon="2.03613">
        <ele>226</ele>
        <time>2017-12-06T14:03:12Z</time>
      </trkpt>
      <trkpt lat="44.17243" lon="2.03612">
        <ele>224</ele>
        <time>2017-12-06T14:03:14Z</time>
      </trkpt>
      <trkpt lat="44.17245" lon="2.0361">
        <ele>223</ele>
        <time>2017-12-06T14:03:16Z</time>
      </trkpt>
      <trkpt lat="44.17246" lon="2.03608">
        <ele>222</ele>
        <time>2017-12-06T14:03:18Z</time>
      </trkpt>
      <trkpt lat="44.17248" lon="2.03606">
        <ele>222</ele>
        <time>2017-12-06T14:03:20Z</time>
      </trkpt>
      <trkpt lat="44.1725" lon="2.03605">
        <ele>221</ele>
        <time>2017-12-06T14:03:22Z</time>
      </trkpt>
      <trkpt lat="44.17253" lon="2.03604">
        <ele>221</ele>
        <time>2017-12-06T14:03:24Z</time>
      </trkpt>
      <trkpt lat="44.17256" lon="2.03602">
        <ele>220</ele>
        <time>2017-12-06T14:03:26Z</time>
      </trkpt>
      <trkpt lat="44.17258" lon="2.03601">
        <ele>220</ele>
        <time>2017-12-06T14:03:28Z</time>
      </trkpt>
      <trkpt lat="44.1726" lon="2.03599">
        <ele>220</ele>
        <time>2017-12-06T14:03:30Z</time>
      </trkpt>
      <trkpt lat="44.17262" lon="2.03598">
        <ele>220</ele>
        <time>2017-12-06T14:03:32Z</time>
      </trkpt>
      <trkpt lat="44.17264" lon="2.03596">
        <ele>220</ele>
        <time>2017-12-06T14:03:34Z</time>
      </trkpt>
      <trkpt lat="44.17266" lon="2.03594">
        <ele>220</ele>
        <time>2017-12-06T14:03:36Z</time>
      </trkpt>
      <trkpt lat="44.17268" lon="2.03592">
        <ele>220</ele>
        <time>2017-12-06T14:03:38Z</time>
      </trkpt>
      <trkpt lat="44.17271" lon="2.03591">
        <ele>220</ele>
        <time>2017-12-06T14:03:40Z</time>
      </trkpt>
      <trkpt lat="44.17273" lon="2.0359">
        <ele>219</ele>
        <time>2017-12-06T14:03:42Z</time>
      </trkpt>
      <trkpt lat="44.17275" lon="2.03589">
        <ele>219</ele>
        <time>2017-12-06T14:03:44Z</time>
      </trkpt>
      <trkpt lat="44.17277" lon="2.03587">
        <ele>219</ele>
        <time>2017-12-06T14:03:46Z</time>
      </trkpt>
      <trkpt lat="44.17279" lon="2.03585">
        <ele>219</ele>
        <time>2017-12-06T14:03:48Z</time>
      </trkpt>
      <trkpt lat="44.17282" lon="2.03584">
        <ele>219</ele>
        <time>2017-12-06T14:03:50Z</time>
      </trkpt>
      <trkpt lat="44.17284" lon="2.03583">
        <ele>219</ele>
        <time>2017-12-06T14:03:52Z</time>
      </trkpt>
      <trkpt lat="44.17286" lon="2.03581">
        <ele>218</ele>
        <time>2017-12-06T14:03:54Z</time>
      </trkpt>
      <trkpt lat="44.17289" lon="2.0358">
        <ele>218</ele>
        <time>2017-12-06T14:03:56Z</time>
      </trkpt>
      <trkpt lat="44.17292" lon="2.03579">
        <ele>218</ele>
        <time>2017-12-06T14:03:58Z</time>
      </trkpt>
      <trkpt lat="44.17295" lon="2.03577">
        <ele>218</ele>
        <time>2017-12-06T14:04:00Z</time>
      </trkpt>
      <trkpt lat="44.17296" lon="2.03575">
        <ele>218</ele>
        <time>2017-12-06T14:04:02Z</time>
      </trkpt>
      <trkpt lat="44.17298" lon="2.03573">
        <ele>218</ele>
        <time>2017-12-06T14:04:04Z</time>
      </trkpt>
      <trkpt lat="44.17301" lon="2.03572">
        <ele>219</ele>
        <time>2017-12-06T14:04:06Z</time>
      </trkpt>
      <trkpt lat="44.17304" lon="2.03572">
        <ele>219</ele>
        <time>2017-12-06T14:04:08Z</time>
      </trkpt>
      <trkpt lat="44.17307" lon="2.03571">
        <ele>219</ele>
        <time>2017-12-06T14:04:10Z</time>
      </trkpt>
      <trkpt lat="44.17309" lon="2.03568">
        <ele>219</ele>
        <time>2017-12-06T14:04:12Z</time>
      </trkpt>
      <trkpt lat="44.17312" lon="2.03566">
        <ele>220</ele>
        <time>2017-12-06T14:04:14Z</time>
      </trkpt>
      <trkpt lat="44.17314" lon="2.03566">
        <ele>220</ele>
        <time>2017-12-06T14:04:16Z</time>
      </trkpt>
      <trkpt lat="44.17317" lon="2.03565">
        <ele>220</ele>
        <time>2017-12-06T14:04:18Z</time>
      </trkpt>
      <trkpt lat="44.1732" lon="2.03563">
        <ele>220</ele>
        <time>2017-12-06T14:04:20Z</time>
      </trkpt>
      <trkpt lat="44.17322" lon="2.03561">
        <ele>221</ele>
        <time>2017-12-06T14:04:22Z</time>
      </trkpt>
      <trkpt lat="44.17325" lon="2.03559">
        <ele>221</ele>
        <time>2017-12-06T14:04:24Z</time>
      </trkpt>
      <trkpt lat="44.17327" lon="2.03558">
        <ele>221</ele>
        <time>2017-12-06T14:04:26Z</time>
      </trkpt>
      <trkpt lat="44.1733" lon="2.03557">
        <ele>221</ele>
        <time>2017-12-06T14:04:28Z</time>
      </trkpt>
      <trkpt lat="44.17333" lon="2.03557">
        <ele>221</ele>
        <time>2017-12-06T14:04:30Z</time>
      </trkpt>
      <trkpt lat="44.17336" lon="2.03555">
        <ele>221</ele>
        <time>2017-12-06T14:04:32Z</time>
      </trkpt>
      <trkpt lat="44.17338" lon="2.03553">
        <ele>221</ele>
        <time>2017-12-06T14:04:34Z</time>
      </trkpt>
      <trkpt lat="44.17338" lon="2.03553">
        <ele>221</ele>
        <time>2017-12-06T14:04:36Z</time>
      </trkpt>
      <trkpt lat="44.17343" lon="2.0355">
        <ele>221</ele>
        <time>2017-12-06T14:04:38Z</time>
      </trkpt>
      <trkpt lat="44.17345" lon="2.03548">
        <ele>221</ele>
        <time>2017-12-06T14:04:40Z</time>
      </trkpt>
      <trkpt lat="44.17349" lon="2.03548">
        <ele>221</ele>
        <time>2017-12-06T14:04:42Z</time>
      </trkpt>
      <trkpt lat="44.17352" lon="2.03546">
        <ele>221</ele>
        <time>2017-12-06T14:04:44Z</time>
      </trkpt>
      <trkpt lat="44.17357" lon="2.03544">
        <ele>221</ele>
        <time>2017-12-06T14:04:46Z</time>
      </trkpt>
      <trkpt lat="44.17359" lon="2.03543">
        <ele>221</ele>
        <time>2017-12-06T14:04:48Z</time>
      </trkpt>
      <trkpt lat="44.17362" lon="2.03541">
        <ele>222</ele>
        <time>2017-12-06T14:04:50Z</time>
      </trkpt>
      <trkpt lat="44.17365" lon="2.03538">
        <ele>222</ele>
        <time>2017-12-06T14:04:52Z</time>
      </trkpt>
      <trkpt lat="44.17366" lon="2.03536">
        <ele>222</ele>
        <time>2017-12-06T14:04:54Z</time>
      </trkpt>
      <trkpt lat="44.17369" lon="2.03532">
        <ele>223</ele>
        <time>2017-12-06T14:04:56Z</time>
      </trkpt>
      <trkpt lat="44.17372" lon="2.03529">
        <ele>224</ele>
        <time>2017-12-06T14:04:58Z</time>
      </trkpt>
      <trkpt lat="44.17374" lon="2.03525">
        <ele>224</ele>
        <time>2017-12-06T14:05:00Z</time>
      </trkpt>
      <trkpt lat="44.17377" lon="2.03522">
        <ele>225</ele>
        <time>2017-12-06T14:05:02Z</time>
      </trkpt>
      <trkpt lat="44.17378" lon="2.03518">
        <ele>226</ele>
        <time>2017-12-06T14:05:04Z</time>
      </trkpt>
      <trkpt lat="44.1738" lon="2.03516">
        <ele>227</ele>
        <time>2017-12-06T14:05:06Z</time>
      </trkpt>
      <trkpt lat="44.17382" lon="2.03514">
        <ele>227</ele>
        <time>2017-12-06T14:05:08Z</time>
      </trkpt>
      <trkpt lat="44.17383" lon="2.03511">
        <ele>228</ele>
        <time>2017-12-06T14:05:10Z</time>
      </trkpt>
      <trkpt lat="44.17386" lon="2.03509">
        <ele>229</ele>
        <time>2017-12-06T14:05:12Z</time>
      </trkpt>
      <trkpt lat="44.17388" lon="2.03507">
        <ele>229</ele>
        <time>2017-12-06T14:05:14Z</time>
      </trkpt>
      <trkpt lat="44.1739" lon="2.03505">
        <ele>230</ele>
        <time>2017-12-06T14:05:16Z</time>
      </trkpt>
      <trkpt lat="44.17392" lon="2.03503">
        <ele>230</ele>
        <time>2017-12-06T14:05:18Z</time>
      </trkpt>
      <trkpt lat="44.17394" lon="2.03501">
        <ele>230</ele>
        <time>2017-12-06T14:05:20Z</time>
      </trkpt>
      <trkpt lat="44.17396" lon="2.03499">
        <ele>231</ele>
        <time>2017-12-06T14:05:22Z</time>
      </trkpt>
      <trkpt lat="44.17399" lon="2.03496">
        <ele>231</ele>
        <time>2017-12-06T14:05:24Z</time>
      </trkpt>
      <trkpt lat="44.17401" lon="2.03492">
        <ele>231</ele>
        <time>2017-12-06T14:05:26Z</time>
      </trkpt>
      <trkpt lat="44.17404" lon="2.0349">
        <ele>232</ele>
        <time>2017-12-06T14:05:28Z</time>
      </trkpt>
      <trkpt lat="44.17406" lon="2.03487">
        <ele>232</ele>
        <time>2017-12-06T14:05:30Z</time>
      </trkpt>
      <trkpt lat="44.17408" lon="2.03484">
        <ele>232</ele>
        <time>2017-12-06T14:05:32Z</time>
      </trkpt>
      <trkpt lat="44.17409" lon="2.03481">
        <ele>233</ele>
        <time>2017-12-06T14:05:34Z</time>
      </trkpt>
      <trkpt lat="44.17411" lon="2.03479">
        <ele>233</ele>
        <time>2017-12-06T14:05:36Z</time>
      </trkpt>
      <trkpt lat="44.17413" lon="2.03476">
        <ele>233</ele>
        <time>2017-12-06T14:05:38Z</time>
      </trkpt>
      <trkpt lat="44.17415" lon="2.03474">
        <ele>233</ele>
        <time>2017-12-06T14:05:40Z</time>
      </trkpt>
      <trkpt lat="44.17417" lon="2.03472">
        <ele>233</ele>
        <time>2017-12-06T14:05:42Z</time>
      </trkpt>
      <trkpt lat="44.17419" lon="2.0347">
        <ele>233</ele>
        <time>2017-12-06T14:05:44Z</time>
      </trkpt>
      <trkpt lat="44.17421" lon="2.03468">
        <ele>233</ele>
        <time>2017-12-06T14:05:46Z</time>
      </trkpt>
      <trkpt lat="44.17423" lon="2.03465">
        <ele>232</ele>
        <time>2017-12-06T14:05:48Z</time>
      </trkpt>
      <trkpt lat="44.17425" lon="2.03463">
        <ele>232</ele>
        <time>2017-12-06T14:05:50Z</time>
      </trkpt>
      <trkpt lat="44.17426" lon="2.03459">
        <ele>232</ele>
        <time>2017-12-06T14:05:52Z</time>
      </trkpt>
      <trkpt lat="44.17428" lon="2.03456">
        <ele>232</ele>
        <time>2017-12-06T14:05:54Z</time>
      </trkpt>
      <trkpt lat="44.17429" lon="2.03452">
        <ele>232</ele>
        <time>2017-12-06T14:05:56Z</time>
      </trkpt>
      <trkpt lat="44.1743" lon="2.03449">
        <ele>232</ele>
        <time>2017-12-06T14:05:58Z</time>
      </trkpt>
      <trkpt lat="44.17432" lon="2.03445">
        <ele>232</ele>
        <time>2017-12-06T14:06:00Z</time>
      </trkpt>
      <trkpt lat="44.17434" lon="2.03442">
        <ele>232</ele>
        <time>2017-12-06T14:06:02Z</time>
      </trkpt>
      <trkpt lat="44.17435" lon="2.03439">
        <ele>233</ele>
        <time>2017-12-06T14:06:04Z</time>
      </trkpt>
      <trkpt lat="44.17437" lon="2.03437">
        <ele>233</ele>
        <time>2017-12-06T14:06:06Z</time>
      </trkpt>
      <trkpt lat="44.17438" lon="2.03434">
        <ele>234</ele>
        <time>2017-12-06T14:06:08Z</time>
      </trkpt>
      <trkpt lat="44.1744" lon="2.0343">
        <ele>235</ele>
        <time>2017-12-06T14:06:10Z</time>
      </trkpt>
      <trkpt lat="44.17441" lon="2.03427">
        <ele>236</ele>
        <time>2017-12-06T14:06:12Z</time>
      </trkpt>
      <trkpt lat="44.17443" lon="2.03424">
        <ele>236</ele>
        <time>2017-12-06T14:06:14Z</time>
      </trkpt>
      <trkpt lat="44.17445" lon="2.03421">
        <ele>237</ele>
        <time>2017-12-06T14:06:16Z</time>
      </trkpt>
      <trkpt lat="44.17446" lon="2.03418">
        <ele>238</ele>
        <time>2017-12-06T14:06:18Z</time>
      </trkpt>
      <trkpt lat="44.17448" lon="2.03415">
        <ele>238</ele>
        <time>2017-12-06T14:06:20Z</time>
      </trkpt>
      <trkpt lat="44.17449" lon="2.03411">
        <ele>239</ele>
        <time>2017-12-06T14:06:22Z</time>
      </trkpt>
      <trkpt lat="44.17451" lon="2.03408">
        <ele>239</ele>
        <time>2017-12-06T14:06:24Z</time>
      </trkpt>
      <trkpt lat="44.17453" lon="2.03405">
        <ele>239</ele>
        <time>2017-12-06T14:06:26Z</time>
      </trkpt>
      <trkpt lat="44.17454" lon="2.03401">
        <ele>240</ele>
        <time>2017-12-06T14:06:28Z</time>
      </trkpt>
      <trkpt lat="44.17455" lon="2.03398">
        <ele>240</ele>
        <time>2017-12-06T14:06:30Z</time>
      </trkpt>
      <trkpt lat="44.17456" lon="2.03396">
        <ele>240</ele>
        <time>2017-12-06T14:06:32Z</time>
      </trkpt>
      <trkpt lat="44.17457" lon="2.03394">
        <ele>241</ele>
        <time>2017-12-06T14:06:34Z</time>
      </trkpt>
      <trkpt lat="44.17458" lon="2.03391">
        <ele>241</ele>
        <time>2017-12-06T14:06:36Z</time>
      </trkpt>
      <trkpt lat="44.17458" lon="2.03386">
        <ele>241</ele>
        <time>2017-12-06T14:06:38Z</time>
      </trkpt>
      <trkpt lat="44.17458" lon="2.03386">
        <ele>241</ele>
        <time>2017-12-06T14:06:40Z</time>
      </trkpt>
      <trkpt lat="44.1746" lon="2.0338">
        <ele>241</ele>
        <time>2017-12-06T14:06:42Z</time>
      </trkpt>
      <trkpt lat="44.17461" lon="2.03376">
        <ele>241</ele>
        <time>2017-12-06T14:06:44Z</time>
      </trkpt>
      <trkpt lat="44.17462" lon="2.03372">
        <ele>242</ele>
        <time>2017-12-06T14:06:46Z</time>
      </trkpt>
      <trkpt lat="44.17463" lon="2.03368">
        <ele>242</ele>
        <time>2017-12-06T14:06:48Z</time>
      </trkpt>
      <trkpt lat="44.17464" lon="2.03363">
        <ele>241</ele>
        <time>2017-12-06T14:06:50Z</time>
      </trkpt>
      <trkpt lat="44.17465" lon="2.0336">
        <ele>241</ele>
        <time>2017-12-06T14:06:52Z</time>
      </trkpt>
      <trkpt lat="44.17466" lon="2.03356">
        <ele>241</ele>
        <time>2017-12-06T14:06:54Z</time>
      </trkpt>
      <trkpt lat="44.17467" lon="2.03352">
        <ele>240</ele>
        <time>2017-12-06T14:06:56Z</time>
      </trkpt>
      <trkpt lat="44.17467" lon="2.03348">
        <ele>240</ele>
        <time>2017-12-06T14:06:58Z</time>
      </trkpt>
      <trkpt lat="44.17468" lon="2.03346">
        <ele>239</ele>
        <time>2017-12-06T14:07:00Z</time>
      </trkpt>
      <trkpt lat="44.17469" lon="2.03343">
        <ele>239</ele>
        <time>2017-12-06T14:07:02Z</time>
      </trkpt>
      <trkpt lat="44.1747" lon="2.03339">
        <ele>238</ele>
        <time>2017-12-06T14:07:04Z</time>
      </trkpt>
      <trkpt lat="44.17472" lon="2.03337">
        <ele>237</ele>
        <time>2017-12-06T14:07:06Z</time>
      </trkpt>
      <trkpt lat="44.17473" lon="2.03334">
        <ele>237</ele>
        <time>2017-12-06T14:07:08Z</time>
      </trkpt>
      <trkpt lat="44.17474" lon="2.0333">
        <ele>236</ele>
        <time>2017-12-06T14:07:10Z</time>
      </trkpt>
      <trkpt lat="44.17476" lon="2.03327">
        <ele>236</ele>
        <time>2017-12-06T14:07:12Z</time>
      </trkpt>
      <trkpt lat="44.17478" lon="2.03325">
        <ele>235</ele>
        <time>2017-12-06T14:07:14Z</time>
      </trkpt>
      <trkpt lat="44.1748" lon="2.03321">
        <ele>235</ele>
        <time>2017-12-06T14:07:16Z</time>
      </trkpt>
      <trkpt lat="44.17482" lon="2.03317">
        <ele>235</ele>
        <time>2017-12-06T14:07:18Z</time>
      </trkpt>
      <trkpt lat="44.17483" lon="2.03313">
        <ele>235</ele>
        <time>2017-12-06T14:07:20Z</time>
      </trkpt>
      <trkpt lat="44.17484" lon="2.0331">
        <ele>235</ele>
        <time>2017-12-06T14:07:22Z</time>
      </trkpt>
      <trkpt lat="44.17485" lon="2.03307">
        <ele>234</ele>
        <time>2017-12-06T14:07:24Z</time>
      </trkpt>
      <trkpt lat="44.17487" lon="2.03304">
        <ele>234</ele>
        <time>2017-12-06T14:07:26Z</time>
      </trkpt>
      <trkpt lat="44.17488" lon="2.03301">
        <ele>234</ele>
        <time>2017-12-06T14:07:28Z</time>
      </trkpt>
      <trkpt lat="44.17489" lon="2.03299">
        <ele>234</ele>
        <time>2017-12-06T14:07:30Z</time>
      </trkpt>
      <trkpt lat="44.17491" lon="2.03296">
        <ele>234</ele>
        <time>2017-12-06T14:07:32Z</time>
      </trkpt>
      <trkpt lat="44.17492" lon="2.03293">
        <ele>233</ele>
        <time>2017-12-06T14:07:34Z</time>
      </trkpt>
      <trkpt lat="44.17493" lon="2.0329">
        <ele>233</ele>
        <time>2017-12-06T14:07:36Z</time>
      </trkpt>
      <trkpt lat="44.17495" lon="2.03288">
        <ele>233</ele>
        <time>2017-12-06T14:07:38Z</time>
      </trkpt>
      <trkpt lat="44.17496" lon="2.03285">
        <ele>233</ele>
        <time>2017-12-06T14:07:40Z</time>
      </trkpt>
      <trkpt lat="44.17497" lon="2.03282">
        <ele>233</ele>
        <time>2017-12-06T14:07:42Z</time>
      </trkpt>
      <trkpt lat="44.17499" lon="2.03279">
        <ele>233</ele>
        <time>2017-12-06T14:07:44Z</time>
      </trkpt>
      <trkpt lat="44.175" lon="2.03276">
        <ele>232</ele>
        <time>2017-12-06T14:07:46Z</time>
      </trkpt>
      <trkpt lat="44.17501" lon="2.03273">
        <ele>232</ele>
        <time>2017-12-06T14:07:48Z</time>
      </trkpt>
      <trkpt lat="44.17502" lon="2.03271">
        <ele>232</ele>
        <time>2017-12-06T14:07:50Z</time>
      </trkpt>
      <trkpt lat="44.17503" lon="2.03269">
        <ele>233</ele>
        <time>2017-12-06T14:07:52Z</time>
      </trkpt>
      <trkpt lat="44.17504" lon="2.03265">
        <ele>233</ele>
        <time>2017-12-06T14:07:54Z</time>
      </trkpt>
      <trkpt lat="44.17505" lon="2.03261">
        <ele>233</ele>
        <time>2017-12-06T14:07:56Z</time>
      </trkpt>
      <trkpt lat="44.17507" lon="2.03259">
        <ele>233</ele>
        <time>2017-12-06T14:07:58Z</time>
      </trkpt>
      <trkpt lat="44.17508" lon="2.03256">
        <ele>233</ele>
        <time>2017-12-06T14:08:00Z</time>
      </trkpt>
      <trkpt lat="44.17508" lon="2.03256">
        <ele>234</ele>
        <time>2017-12-06T14:08:02Z</time>
      </trkpt>
      <trkpt lat="44.17511" lon="2.03252">
        <ele>234</ele>
        <time>2017-12-06T14:08:04Z</time>
      </trkpt>
      <trkpt lat="44.17513" lon="2.0325">
        <ele>234</ele>
        <time>2017-12-06T14:08:06Z</time>
      </trkpt>
      <trkpt lat="44.17514" lon="2.03246">
        <ele>234</ele>
        <time>2017-12-06T14:08:08Z</time>
      </trkpt>
      <trkpt lat="44.17516" lon="2.03243">
        <ele>235</ele>
        <time>2017-12-06T14:08:10Z</time>
      </trkpt>
      <trkpt lat="44.17519" lon="2.0324">
        <ele>234</ele>
        <time>2017-12-06T14:08:12Z</time>
      </trkpt>
      <trkpt lat="44.1752" lon="2.03237">
        <ele>234</ele>
        <time>2017-12-06T14:08:14Z</time>
      </trkpt>
      <trkpt lat="44.17523" lon="2.03234">
        <ele>234</ele>
        <time>2017-12-06T14:08:16Z</time>
      </trkpt>
      <trkpt lat="44.17524" lon="2.03232">
        <ele>234</ele>
        <time>2017-12-06T14:08:18Z</time>
      </trkpt>
      <trkpt lat="44.17526" lon="2.03229">
        <ele>234</ele>
        <time>2017-12-06T14:08:20Z</time>
      </trkpt>
      <trkpt lat="44.17527" lon="2.03228">
        <ele>234</ele>
        <time>2017-12-06T14:08:22Z</time>
      </trkpt>
      <trkpt lat="44.17529" lon="2.03226">
        <ele>235</ele>
        <time>2017-12-06T14:08:24Z</time>
      </trkpt>
      <trkpt lat="44.1753" lon="2.03224">
        <ele>235</ele>
        <time>2017-12-06T14:08:26Z</time>
      </trkpt>
      <trkpt lat="44.17533" lon="2.0322">
        <ele>236</ele>
        <time>2017-12-06T14:08:28Z</time>
      </trkpt>
      <trkpt lat="44.17535" lon="2.03217">
        <ele>236</ele>
        <time>2017-12-06T14:08:30Z</time>
      </trkpt>
      <trkpt lat="44.17537" lon="2.03213">
        <ele>237</ele>
        <time>2017-12-06T14:08:32Z</time>
      </trkpt>
      <trkpt lat="44.1754" lon="2.0321">
        <ele>237</ele>
        <time>2017-12-06T14:08:34Z</time>
      </trkpt>
      <trkpt lat="44.17542" lon="2.03207">
        <ele>238</ele>
        <time>2017-12-06T14:08:36Z</time>
      </trkpt>
      <trkpt lat="44.17545" lon="2.03205">
        <ele>238</ele>
        <time>2017-12-06T14:08:38Z</time>
      </trkpt>
      <trkpt lat="44.17547" lon="2.03203">
        <ele>238</ele>
        <time>2017-12-06T14:08:40Z</time>
      </trkpt>
      <trkpt lat="44.1755" lon="2.032">
        <ele>238</ele>
        <time>2017-12-06T14:08:42Z</time>
      </trkpt>
      <trkpt lat="44.17553" lon="2.03198">
        <ele>238</ele>
        <time>2017-12-06T14:08:44Z</time>
      </trkpt>
      <trkpt lat="44.17555" lon="2.03195">
        <ele>239</ele>
        <time>2017-12-06T14:08:46Z</time>
      </trkpt>
      <trkpt lat="44.17557" lon="2.03194">
        <ele>239</ele>
        <time>2017-12-06T14:08:48Z</time>
      </trkpt>
      <trkpt lat="44.17559" lon="2.03192">
        <ele>239</ele>
        <time>2017-12-06T14:08:50Z</time>
      </trkpt>
      <trkpt lat="44.17562" lon="2.0319">
        <ele>239</ele>
        <time>2017-12-06T14:08:52Z</time>
      </trkpt>
      <trkpt lat="44.17564" lon="2.03187">
        <ele>239</ele>
        <time>2017-12-06T14:08:54Z</time>
      </trkpt>
      <trkpt lat="44.17567" lon="2.03184">
        <ele>240</ele>
        <time>2017-12-06T14:08:56Z</time>
      </trkpt>
      <trkpt lat="44.17569" lon="2.03182">
        <ele>241</ele>
        <time>2017-12-06T14:08:58Z</time>
      </trkpt>
      <trkpt lat="44.17572" lon="2.03181">
        <ele>242</ele>
        <time>2017-12-06T14:09:00Z</time>
      </trkpt>
      <trkpt lat="44.17574" lon="2.03178">
        <ele>243</ele>
        <time>2017-12-06T14:09:02Z</time>
      </trkpt>
      <trkpt lat="44.17576" lon="2.03175">
        <ele>244</ele>
        <time>2017-12-06T14:09:04Z</time>
      </trkpt>
      <trkpt lat="44.17579" lon="2.03172">
        <ele>244</ele>
        <time>2017-12-06T14:09:06Z</time>
      </trkpt>
      <trkpt lat="44.1758" lon="2.03171">
        <ele>245</ele>
        <time>2017-12-06T14:09:08Z</time>
      </trkpt>
      <trkpt lat="44.17581" lon="2.03168">
        <ele>246</ele>
        <time>2017-12-06T14:09:10Z</time>
      </trkpt>
      <trkpt lat="44.17582" lon="2.03165">
        <ele>246</ele>
        <time>2017-12-06T14:09:12Z</time>
      </trkpt>
      <trkpt lat="44.17583" lon="2.03162">
        <ele>246</ele>
        <time>2017-12-06T14:09:14Z</time>
      </trkpt>
      <trkpt lat="44.17585" lon="2.03158">
        <ele>246</ele>
        <time>2017-12-06T14:09:16Z</time>
      </trkpt>
      <trkpt lat="44.17586" lon="2.03154">
        <ele>246</ele>
        <time>2017-12-06T14:09:18Z</time>
      </trkpt>
      <trkpt lat="44.17587" lon="2.03151">
        <ele>247</ele>
        <time>2017-12-06T14:09:20Z</time>
      </trkpt>
      <trkpt lat="44.17588" lon="2.03148">
        <ele>247</ele>
        <time>2017-12-06T14:09:22Z</time>
      </trkpt>
      <trkpt lat="44.17589" lon="2.03146">
        <ele>247</ele>
        <time>2017-12-06T14:09:24Z</time>
      </trkpt>
      <trkpt lat="44.17589" lon="2.03143">
        <ele>247</ele>
        <time>2017-12-06T14:09:26Z</time>
      </trkpt>
      <trkpt lat="44.1759" lon="2.03141">
        <ele>248</ele>
        <time>2017-12-06T14:09:28Z</time>
      </trkpt>
      <trkpt lat="44.1759" lon="2.03137">
        <ele>248</ele>
        <time>2017-12-06T14:09:30Z</time>
      </trkpt>
      <trkpt lat="44.17591" lon="2.03134">
        <ele>248</ele>
        <time>2017-12-06T14:09:32Z</time>
      </trkpt>
      <trkpt lat="44.17591" lon="2.03132">
        <ele>247</ele>
        <time>2017-12-06T14:09:34Z</time>
      </trkpt>
      <trkpt lat="44.17591" lon="2.03129">
        <ele>247</ele>
        <time>2017-12-06T14:09:36Z</time>
      </trkpt>
      <trkpt lat="44.17591" lon="2.03126">
        <ele>247</ele>
        <time>2017-12-06T14:09:38Z</time>
      </trkpt>
      <trkpt lat="44.17591" lon="2.03123">
        <ele>247</ele>
        <time>2017-12-06T14:09:40Z</time>
      </trkpt>
      <trkpt lat="44.1759" lon="2.03119">
        <ele>247</ele>
        <time>2017-12-06T14:09:42Z</time>
      </trkpt>
      <trkpt lat="44.17589" lon="2.03116">
        <ele>248</ele>
        <time>2017-12-06T14:09:44Z</time>
      </trkpt>
      <trkpt lat="44.17587" lon="2.03112">
        <ele>248</ele>
        <time>2017-12-06T14:09:46Z</time>
      </trkpt>
      <trkpt lat="44.17586" lon="2.0311">
        <ele>249</ele>
        <time>2017-12-06T14:09:48Z</time>
      </trkpt>
      <trkpt lat="44.17584" lon="2.03109">
        <ele>250</ele>
        <time>2017-12-06T14:09:50Z</time>
      </trkpt>
      <trkpt lat="44.17582" lon="2.0311">
        <ele>251</ele>
        <time>2017-12-06T14:09:52Z</time>
      </trkpt>
      <trkpt lat="44.1758" lon="2.0311">
        <ele>252</ele>
        <time>2017-12-06T14:09:54Z</time>
      </trkpt>
      <trkpt lat="44.17579" lon="2.03112">
        <ele>252</ele>
        <time>2017-12-06T14:09:56Z</time>
      </trkpt>
      <trkpt lat="44.17577" lon="2.03114">
        <ele>252</ele>
        <time>2017-12-06T14:09:58Z</time>
      </trkpt>
      <trkpt lat="44.17576" lon="2.03115">
        <ele>252</ele>
        <time>2017-12-06T14:10:00Z</time>
      </trkpt>
      <trkpt lat="44.17575" lon="2.03117">
        <ele>252</ele>
        <time>2017-12-06T14:10:02Z</time>
      </trkpt>
      <trkpt lat="44.17575" lon="2.0312">
        <ele>252</ele>
        <time>2017-12-06T14:10:04Z</time>
      </trkpt>
      <trkpt lat="44.17574" lon="2.0312">
        <ele>251</ele>
        <time>2017-12-06T14:10:06Z</time>
      </trkpt>
      <trkpt lat="44.17573" lon="2.03122">
        <ele>250</ele>
        <time>2017-12-06T14:10:08Z</time>
      </trkpt>
      <trkpt lat="44.17572" lon="2.03123">
        <ele>249</ele>
        <time>2017-12-06T14:10:10Z</time>
      </trkpt>
      <trkpt lat="44.1757" lon="2.03125">
        <ele>248</ele>
        <time>2017-12-06T14:10:12Z</time>
      </trkpt>
      <trkpt lat="44.17568" lon="2.03126">
        <ele>247</ele>
        <time>2017-12-06T14:10:14Z</time>
      </trkpt>
      <trkpt lat="44.17566" lon="2.03128">
        <ele>246</ele>
        <time>2017-12-06T14:10:16Z</time>
      </trkpt>
      <trkpt lat="44.17564" lon="2.03129">
        <ele>245</ele>
        <time>2017-12-06T14:10:18Z</time>
      </trkpt>
      <trkpt lat="44.17562" lon="2.03129">
        <ele>245</ele>
        <time>2017-12-06T14:10:20Z</time>
      </trkpt>
      <trkpt lat="44.1756" lon="2.0313">
        <ele>245</ele>
        <time>2017-12-06T14:10:22Z</time>
      </trkpt>
      <trkpt lat="44.17558" lon="2.03131">
        <ele>244</ele>
        <time>2017-12-06T14:10:24Z</time>
      </trkpt>
      <trkpt lat="44.17555" lon="2.03131">
        <ele>244</ele>
        <time>2017-12-06T14:10:26Z</time>
      </trkpt>
      <trkpt lat="44.17553" lon="2.03132">
        <ele>244</ele>
        <time>2017-12-06T14:10:28Z</time>
      </trkpt>
      <trkpt lat="44.17551" lon="2.03133">
        <ele>244</ele>
        <time>2017-12-06T14:10:30Z</time>
      </trkpt>
      <trkpt lat="44.17549" lon="2.03134">
        <ele>244</ele>
        <time>2017-12-06T14:10:32Z</time>
      </trkpt>
      <trkpt lat="44.17546" lon="2.03134">
        <ele>243</ele>
        <time>2017-12-06T14:10:34Z</time>
      </trkpt>
      <trkpt lat="44.17544" lon="2.03135">
        <ele>243</ele>
        <time>2017-12-06T14:10:36Z</time>
      </trkpt>
      <trkpt lat="44.17541" lon="2.03136">
        <ele>243</ele>
        <time>2017-12-06T14:10:38Z</time>
      </trkpt>
      <trkpt lat="44.17538" lon="2.03136">
        <ele>243</ele>
        <time>2017-12-06T14:10:40Z</time>
      </trkpt>
      <trkpt lat="44.17534" lon="2.03137">
        <ele>243</ele>
        <time>2017-12-06T14:10:42Z</time>
      </trkpt>
      <trkpt lat="44.17532" lon="2.03139">
        <ele>244</ele>
        <time>2017-12-06T14:10:44Z</time>
      </trkpt>
      <trkpt lat="44.17529" lon="2.03139">
        <ele>244</ele>
        <time>2017-12-06T14:10:46Z</time>
      </trkpt>
      <trkpt lat="44.17527" lon="2.0314">
        <ele>245</ele>
        <time>2017-12-06T14:10:48Z</time>
      </trkpt>
      <trkpt lat="44.17524" lon="2.03141">
        <ele>246</ele>
        <time>2017-12-06T14:10:50Z</time>
      </trkpt>
      <trkpt lat="44.17521" lon="2.03143">
        <ele>246</ele>
        <time>2017-12-06T14:10:52Z</time>
      </trkpt>
      <trkpt lat="44.17519" lon="2.03144">
        <ele>247</ele>
        <time>2017-12-06T14:10:54Z</time>
      </trkpt>
      <trkpt lat="44.17516" lon="2.03145">
        <ele>248</ele>
        <time>2017-12-06T14:10:56Z</time>
      </trkpt>
      <trkpt lat="44.17513" lon="2.03146">
        <ele>249</ele>
        <time>2017-12-06T14:10:58Z</time>
      </trkpt>
      <trkpt lat="44.17511" lon="2.03148">
        <ele>249</ele>
        <time>2017-12-06T14:11:00Z</time>
      </trkpt>
      <trkpt lat="44.17509" lon="2.03149">
        <ele>250</ele>
        <time>2017-12-06T14:11:02Z</time>
      </trkpt>
      <trkpt lat="44.17507" lon="2.0315">
        <ele>250</ele>
        <time>2017-12-06T14:11:04Z</time>
      </trkpt>
      <trkpt lat="44.17504" lon="2.03151">
        <ele>251</ele>
        <time>2017-12-06T14:11:06Z</time>
      </trkpt>
      <trkpt lat="44.17502" lon="2.03151">
        <ele>251</ele>
        <time>2017-12-06T14:11:08Z</time>
      </trkpt>
      <trkpt lat="44.17499" lon="2.03153">
        <ele>251</ele>
        <time>2017-12-06T14:11:10Z</time>
      </trkpt>
      <trkpt lat="44.17497" lon="2.03154">
        <ele>251</ele>
        <time>2017-12-06T14:11:12Z</time>
      </trkpt>
      <trkpt lat="44.17495" lon="2.03155">
        <ele>251</ele>
        <time>2017-12-06T14:11:14Z</time>
      </trkpt>
      <trkpt lat="44.17493" lon="2.03155">
        <ele>251</ele>
        <time>2017-12-06T14:11:16Z</time>
      </trkpt>
      <trkpt lat="44.1749" lon="2.03155">
        <ele>252</ele>
        <time>2017-12-06T14:11:18Z</time>
      </trkpt>
      <trkpt lat="44.17488" lon="2.03154">
        <ele>252</ele>
        <time>2017-12-06T14:11:20Z</time>
      </trkpt>
      <trkpt lat="44.17486" lon="2.03155">
        <ele>252</ele>
        <time>2017-12-06T14:11:22Z</time>
      </trkpt>
      <trkpt lat="44.17484" lon="2.03156">
        <ele>252</ele>
        <time>2017-12-06T14:11:24Z</time>
      </trkpt>
      <trkpt lat="44.17481" lon="2.03158">
        <ele>252</ele>
        <time>2017-12-06T14:11:26Z</time>
      </trkpt>
      <trkpt lat="44.17479" lon="2.0316">
        <ele>252</ele>
        <time>2017-12-06T14:11:28Z</time>
      </trkpt>
      <trkpt lat="44.17476" lon="2.0316">
        <ele>252</ele>
        <time>2017-12-06T14:11:30Z</time>
      </trkpt>
      <trkpt lat="44.17474" lon="2.03161">
        <ele>252</ele>
        <time>2017-12-06T14:11:32Z</time>
      </trkpt>
      <trkpt lat="44.17473" lon="2.03161">
        <ele>252</ele>
        <time>2017-12-06T14:11:34Z</time>
      </trkpt>
      <trkpt lat="44.17471" lon="2.03163">
        <ele>252</ele>
        <time>2017-12-06T14:11:36Z</time>
      </trkpt>
      <trkpt lat="44.17469" lon="2.03164">
        <ele>253</ele>
        <time>2017-12-06T14:11:38Z</time>
      </trkpt>
      <trkpt lat="44.17466" lon="2.03164">
        <ele>254</ele>
        <time>2017-12-06T14:11:40Z</time>
      </trkpt>
      <trkpt lat="44.17465" lon="2.03166">
        <ele>255</ele>
        <time>2017-12-06T14:11:42Z</time>
      </trkpt>
      <trkpt lat="44.17462" lon="2.03168">
        <ele>255</ele>
        <time>2017-12-06T14:11:44Z</time>
      </trkpt>
      <trkpt lat="44.17461" lon="2.0317">
        <ele>256</ele>
        <time>2017-12-06T14:11:46Z</time>
      </trkpt>
      <trkpt lat="44.17459" lon="2.03172">
        <ele>257</ele>
        <time>2017-12-06T14:11:48Z</time>
      </trkpt>
      <trkpt lat="44.17458" lon="2.03174">
        <ele>257</ele>
        <time>2017-12-06T14:11:50Z</time>
      </trkpt>
      <trkpt lat="44.17456" lon="2.03177">
        <ele>257</ele>
        <time>2017-12-06T14:11:52Z</time>
      </trkpt>
      <trkpt lat="44.17454" lon="2.03179">
        <ele>257</ele>
        <time>2017-12-06T14:11:54Z</time>
      </trkpt>
      <trkpt lat="44.17452" lon="2.0318">
        <ele>257</ele>
        <time>2017-12-06T14:11:56Z</time>
      </trkpt>
      <trkpt lat="44.1745" lon="2.03181">
        <ele>256</ele>
        <time>2017-12-06T14:11:58Z</time>
      </trkpt>
      <trkpt lat="44.17449" lon="2.03183">
        <ele>256</ele>
        <time>2017-12-06T14:12:00Z</time>
      </trkpt>
      <trkpt lat="44.17447" lon="2.03185">
        <ele>255</ele>
        <time>2017-12-06T14:12:02Z</time>
      </trkpt>
      <trkpt lat="44.17447" lon="2.03185">
        <ele>254</ele>
        <time>2017-12-06T14:12:04Z</time>
      </trkpt>
      <trkpt lat="44.17444" lon="2.03189">
        <ele>254</ele>
        <time>2017-12-06T14:12:06Z</time>
      </trkpt>
      <trkpt lat="44.17442" lon="2.03192">
        <ele>254</ele>
        <time>2017-12-06T14:12:08Z</time>
      </trkpt>
      <trkpt lat="44.1744" lon="2.03195">
        <ele>254</ele>
        <time>2017-12-06T14:12:10Z</time>
      </trkpt>
      <trkpt lat="44.17439" lon="2.03198">
        <ele>254</ele>
        <time>2017-12-06T14:12:12Z</time>
      </trkpt>
      <trkpt lat="44.17437" lon="2.03201">
        <ele>255</ele>
        <time>2017-12-06T14:12:14Z</time>
      </trkpt>
      <trkpt lat="44.17436" lon="2.03204">
        <ele>255</ele>
        <time>2017-12-06T14:12:16Z</time>
      </trkpt>
      <trkpt lat="44.17433" lon="2.03206">
        <ele>256</ele>
        <time>2017-12-06T14:12:18Z</time>
      </trkpt>
      <trkpt lat="44.17432" lon="2.03207">
        <ele>255</ele>
        <time>2017-12-06T14:12:20Z</time>
      </trkpt>
      <trkpt lat="44.1743" lon="2.0321">
        <ele>256</ele>
        <time>2017-12-06T14:12:22Z</time>
      </trkpt>
      <trkpt lat="44.17427" lon="2.03212">
        <ele>256</ele>
        <time>2017-12-06T14:12:24Z</time>
      </trkpt>
      <trkpt lat="44.17426" lon="2.03214">
        <ele>256</ele>
        <time>2017-12-06T14:12:26Z</time>
      </trkpt>
      <trkpt lat="44.17422" lon="2.03218">
        <ele>256</ele>
        <time>2017-12-06T14:12:28Z</time>
      </trkpt>
      <trkpt lat="44.17421" lon="2.0322">
        <ele>257</ele>
        <time>2017-12-06T14:12:30Z</time>
      </trkpt>
      <trkpt lat="44.17419" lon="2.03222">
        <ele>258</ele>
        <time>2017-12-06T14:12:32Z</time>
      </trkpt>
      <trkpt lat="44.17417" lon="2.03224">
        <ele>258</ele>
        <time>2017-12-06T14:12:34Z</time>
      </trkpt>
      <trkpt lat="44.17415" lon="2.03225">
        <ele>259</ele>
        <time>2017-12-06T14:12:36Z</time>
      </trkpt>
      <trkpt lat="44.17413" lon="2.03227">
        <ele>260</ele>
        <time>2017-12-06T14:12:38Z</time>
      </trkpt>
      <trkpt lat="44.17411" lon="2.03229">
        <ele>261</ele>
        <time>2017-12-06T14:12:40Z</time>
      </trkpt>
      <trkpt lat="44.17409" lon="2.0323">
        <ele>261</ele>
        <time>2017-12-06T14:12:42Z</time>
      </trkpt>
      <trkpt lat="44.17407" lon="2.03232">
        <ele>262</ele>
        <time>2017-12-06T14:12:44Z</time>
      </trkpt>
      <trkpt lat="44.17404" lon="2.03233">
        <ele>262</ele>
        <time>2017-12-06T14:12:46Z</time>
      </trkpt>
      <trkpt lat="44.17401" lon="2.03235">
        <ele>262</ele>
        <time>2017-12-06T14:12:48Z</time>
      </trkpt>
      <trkpt lat="44.174" lon="2.03237">
        <ele>262</ele>
        <time>2017-12-06T14:12:50Z</time>
      </trkpt>
      <trkpt lat="44.17398" lon="2.03238">
        <ele>262</ele>
        <time>2017-12-06T14:12:52Z</time>
      </trkpt>
      <trkpt lat="44.17396" lon="2.0324">
        <ele>262</ele>
        <time>2017-12-06T14:12:54Z</time>
      </trkpt>
      <trkpt lat="44.17394" lon="2.03242">
        <ele>261</ele>
        <time>2017-12-06T14:12:56Z</time>
      </trkpt>
      <trkpt lat="44.17393" lon="2.03244">
        <ele>261</ele>
        <time>2017-12-06T14:12:58Z</time>
      </trkpt>
      <trkpt lat="44.17391" lon="2.03247">
        <ele>261</ele>
        <time>2017-12-06T14:13:00Z</time>
      </trkpt>
      <trkpt lat="44.1739" lon="2.03249">
        <ele>261</ele>
        <time>2017-12-06T14:13:02Z</time>
      </trkpt>
      <trkpt lat="44.17389" lon="2.03251">
        <ele>261</ele>
        <time>2017-12-06T14:13:04Z</time>
      </trkpt>
      <trkpt lat="44.17387" lon="2.03253">
        <ele>261</ele>
        <time>2017-12-06T14:13:06Z</time>
      </trkpt>
      <trkpt lat="44.17385" lon="2.03255">
        <ele>260</ele>
        <time>2017-12-06T14:13:08Z</time>
      </trkpt>
      <trkpt lat="44.17383" lon="2.03259">
        <ele>261</ele>
        <time>2017-12-06T14:13:10Z</time>
      </trkpt>
      <trkpt lat="44.17382" lon="2.03263">
        <ele>261</ele>
        <time>2017-12-06T14:13:12Z</time>
      </trkpt>
      <trkpt lat="44.17381" lon="2.03266">
        <ele>261</ele>
        <time>2017-12-06T14:13:14Z</time>
      </trkpt>
      <trkpt lat="44.17379" lon="2.03269">
        <ele>262</ele>
        <time>2017-12-06T14:13:16Z</time>
      </trkpt>
      <trkpt lat="44.17379" lon="2.03269">
        <ele>262</ele>
        <time>2017-12-06T14:13:18Z</time>
      </trkpt>
      <trkpt lat="44.17376" lon="2.03273">
        <ele>263</ele>
        <time>2017-12-06T14:13:20Z</time>
      </trkpt>
      <trkpt lat="44.17373" lon="2.03276">
        <ele>263</ele>
        <time>2017-12-06T14:13:22Z</time>
      </trkpt>
      <trkpt lat="44.1737" lon="2.03279">
        <ele>264</ele>
        <time>2017-12-06T14:13:24Z</time>
      </trkpt>
      <trkpt lat="44.17369" lon="2.03281">
        <ele>264</ele>
        <time>2017-12-06T14:13:26Z</time>
      </trkpt>
      <trkpt lat="44.17368" lon="2.03282">
        <ele>265</ele>
        <time>2017-12-06T14:13:28Z</time>
      </trkpt>
      <trkpt lat="44.17366" lon="2.03283">
        <ele>265</ele>
        <time>2017-12-06T14:13:30Z</time>
      </trkpt>
      <trkpt lat="44.17363" lon="2.03286">
        <ele>265</ele>
        <time>2017-12-06T14:13:32Z</time>
      </trkpt>
      <trkpt lat="44.17361" lon="2.03288">
        <ele>265</ele>
        <time>2017-12-06T14:13:34Z</time>
      </trkpt>
      <trkpt lat="44.17359" lon="2.03291">
        <ele>265</ele>
        <time>2017-12-06T14:13:36Z</time>
      </trkpt>
      <trkpt lat="44.17356" lon="2.03293">
        <ele>265</ele>
        <time>2017-12-06T14:13:38Z</time>
      </trkpt>
      <trkpt lat="44.17354" lon="2.03295">
        <ele>266</ele>
        <time>2017-12-06T14:13:40Z</time>
      </trkpt>
      <trkpt lat="44.17352" lon="2.03296">
        <ele>266</ele>
        <time>2017-12-06T14:13:42Z</time>
      </trkpt>
      <trkpt lat="44.1735" lon="2.03298">
        <ele>267</ele>
        <time>2017-12-06T14:13:44Z</time>
      </trkpt>
      <trkpt lat="44.17348" lon="2.03298">
        <ele>267</ele>
        <time>2017-12-06T14:13:46Z</time>
      </trkpt>
      <trkpt lat="44.17346" lon="2.033">
        <ele>268</ele>
        <time>2017-12-06T14:13:48Z</time>
      </trkpt>
      <trkpt lat="44.17343" lon="2.033">
        <ele>268</ele>
        <time>2017-12-06T14:13:50Z</time>
      </trkpt>
      <trkpt lat="44.1734" lon="2.03301">
        <ele>268</ele>
        <time>2017-12-06T14:13:52Z</time>
      </trkpt>
      <trkpt lat="44.17338" lon="2.03302">
        <ele>268</ele>
        <time>2017-12-06T14:13:54Z</time>
      </trkpt>
      <trkpt lat="44.17335" lon="2.03303">
        <ele>267</ele>
        <time>2017-12-06T14:13:56Z</time>
      </trkpt>
      <trkpt lat="44.17332" lon="2.03304">
        <ele>267</ele>
        <time>2017-12-06T14:13:58Z</time>
      </trkpt>
      <trkpt lat="44.1733" lon="2.03306">
        <ele>267</ele>
        <time>2017-12-06T14:14:00Z</time>
      </trkpt>
      <trkpt lat="44.17328" lon="2.03308">
        <ele>267</ele>
        <time>2017-12-06T14:14:02Z</time>
      </trkpt>
      <trkpt lat="44.17326" lon="2.03309">
        <ele>266</ele>
        <time>2017-12-06T14:14:04Z</time>
      </trkpt>
      <trkpt lat="44.17323" lon="2.0331">
        <ele>266</ele>
        <time>2017-12-06T14:14:06Z</time>
      </trkpt>
      <trkpt lat="44.17321" lon="2.0331">
        <ele>266</ele>
        <time>2017-12-06T14:14:08Z</time>
      </trkpt>
      <trkpt lat="44.17318" lon="2.03311">
        <ele>266</ele>
        <time>2017-12-06T14:14:10Z</time>
      </trkpt>
      <trkpt lat="44.17315" lon="2.03311">
        <ele>265</ele>
        <time>2017-12-06T14:14:12Z</time>
      </trkpt>
      <trkpt lat="44.17313" lon="2.0331">
        <ele>265</ele>
        <time>2017-12-06T14:14:14Z</time>
      </trkpt>
      <trkpt lat="44.17311" lon="2.03311">
        <ele>264</ele>
        <time>2017-12-06T14:14:16Z</time>
      </trkpt>
      <trkpt lat="44.17308" lon="2.03311">
        <ele>264</ele>
        <time>2017-12-06T14:14:18Z</time>
      </trkpt>
      <trkpt lat="44.17305" lon="2.0331">
        <ele>264</ele>
        <time>2017-12-06T14:14:20Z</time>
      </trkpt>
      <trkpt lat="44.17303" lon="2.0331">
        <ele>263</ele>
        <time>2017-12-06T14:14:22Z</time>
      </trkpt>
      <trkpt lat="44.173" lon="2.03311">
        <ele>263</ele>
        <time>2017-12-06T14:14:24Z</time>
      </trkpt>
      <trkpt lat="44.17297" lon="2.0331">
        <ele>263</ele>
        <time>2017-12-06T14:14:26Z</time>
      </trkpt>
      <trkpt lat="44.17295" lon="2.03311">
        <ele>263</ele>
        <time>2017-12-06T14:14:28Z</time>
      </trkpt>
      <trkpt lat="44.17293" lon="2.03312">
        <ele>263</ele>
        <time>2017-12-06T14:14:30Z</time>
      </trkpt>
      <trkpt lat="44.17291" lon="2.03313">
        <ele>263</ele>
        <time>2017-12-06T14:14:32Z</time>
      </trkpt>
      <trkpt lat="44.17288" lon="2.03312">
        <ele>262</ele>
        <time>2017-12-06T14:14:34Z</time>
      </trkpt>
      <trkpt lat="44.17285" lon="2.03312">
        <ele>262</ele>
        <time>2017-12-06T14:14:36Z</time>
      </trkpt>
      <trkpt lat="44.17283" lon="2.0331">
        <ele>262</ele>
        <time>2017-12-06T14:14:38Z</time>
      </trkpt>
      <trkpt lat="44.17281" lon="2.03309">
        <ele>262</ele>
        <time>2017-12-06T14:14:40Z</time>
      </trkpt>
      <trkpt lat="44.17278" lon="2.03309">
        <ele>262</ele>
        <time>2017-12-06T14:14:42Z</time>
      </trkpt>
      <trkpt lat="44.17275" lon="2.03308">
        <ele>262</ele>
        <time>2017-12-06T14:14:44Z</time>
      </trkpt>
      <trkpt lat="44.17272" lon="2.03307">
        <ele>262</ele>
        <time>2017-12-06T14:14:46Z</time>
      </trkpt>
      <trkpt lat="44.17269" lon="2.03307">
        <ele>262</ele>
        <time>2017-12-06T14:14:48Z</time>
      </trkpt>
      <trkpt lat="44.17266" lon="2.03306">
        <ele>262</ele>
        <time>2017-12-06T14:14:50Z</time>
      </trkpt>
      <trkpt lat="44.17264" lon="2.03305">
        <ele>262</ele>
        <time>2017-12-06T14:14:52Z</time>
      </trkpt>
      <trkpt lat="44.17262" lon="2.03304">
        <ele>263</ele>
        <time>2017-12-06T14:14:54Z</time>
      </trkpt>
      <trkpt lat="44.1726" lon="2.03303">
        <ele>263</ele>
        <time>2017-12-06T14:14:56Z</time>
      </trkpt>
      <trkpt lat="44.17257" lon="2.03302">
        <ele>264</ele>
        <time>2017-12-06T14:14:58Z</time>
      </trkpt>
      <trkpt lat="44.17254" lon="2.03302">
        <ele>264</ele>
        <time>2017-12-06T14:15:00Z</time>
      </trkpt>
      <trkpt lat="44.17252" lon="2.03302">
        <ele>264</ele>
        <time>2017-12-06T14:15:02Z</time>
      </trkpt>
      <trkpt lat="44.17248" lon="2.03301">
        <ele>265</ele>
        <time>2017-12-06T14:15:04Z</time>
      </trkpt>
      <trkpt lat="44.17245" lon="2.033">
        <ele>265</ele>
        <time>2017-12-06T14:15:06Z</time>
      </trkpt>
      <trkpt lat="44.17242" lon="2.033">
        <ele>265</ele>
        <time>2017-12-06T14:15:08Z</time>
      </trkpt>
      <trkpt lat="44.1724" lon="2.03299">
        <ele>265</ele>
        <time>2017-12-06T14:15:10Z</time>
      </trkpt>
      <trkpt lat="44.17237" lon="2.03299">
        <ele>265</ele>
        <time>2017-12-06T14:15:12Z</time>
      </trkpt>
      <trkpt lat="44.17234" lon="2.03298">
        <ele>265</ele>
        <time>2017-12-06T14:15:14Z</time>
      </trkpt>
      <trkpt lat="44.17231" lon="2.03297">
        <ele>265</ele>
        <time>2017-12-06T14:15:16Z</time>
      </trkpt>
      <trkpt lat="44.17228" lon="2.03295">
        <ele>265</ele>
        <time>2017-12-06T14:15:18Z</time>
      </trkpt>
      <trkpt lat="44.17226" lon="2.03294">
        <ele>264</ele>
        <time>2017-12-06T14:15:20Z</time>
      </trkpt>
      <trkpt lat="44.17223" lon="2.03292">
        <ele>264</ele>
        <time>2017-12-06T14:15:22Z</time>
      </trkpt>
      <trkpt lat="44.1722" lon="2.03291">
        <ele>263</ele>
        <time>2017-12-06T14:15:24Z</time>
      </trkpt>
      <trkpt lat="44.17217" lon="2.03289">
        <ele>263</ele>
        <time>2017-12-06T14:15:26Z</time>
      </trkpt>
      <trkpt lat="44.17215" lon="2.03288">
        <ele>262</ele>
        <time>2017-12-06T14:15:28Z</time>
      </trkpt>
      <trkpt lat="44.17213" lon="2.03286">
        <ele>261</ele>
        <time>2017-12-06T14:15:30Z</time>
      </trkpt>
      <trkpt lat="44.17211" lon="2.03283">
        <ele>261</ele>
        <time>2017-12-06T14:15:32Z</time>
      </trkpt>
      <trkpt lat="44.17209" lon="2.0328">
        <ele>260</ele>
        <time>2017-12-06T14:15:34Z</time>
      </trkpt>
      <trkpt lat="44.17208" lon="2.03278">
        <ele>260</ele>
        <time>2017-12-06T14:15:36Z</time>
      </trkpt>
      <trkpt lat="44.17207" lon="2.03276">
        <ele>259</ele>
        <time>2017-12-06T14:15:38Z</time>
      </trkpt>
      <trkpt lat="44.17206" lon="2.03274">
        <ele>259</ele>
        <time>2017-12-06T14:15:40Z</time>
      </trkpt>
      <trkpt lat="44.17204" lon="2.0327">
        <ele>258</ele>
        <time>2017-12-06T14:15:42Z</time>
      </trkpt>
      <trkpt lat="44.17204" lon="2.03268">
        <ele>258</ele>
        <time>2017-12-06T14:15:44Z</time>
      </trkpt>
      <trkpt lat="44.17202" lon="2.03264">
        <ele>257</ele>
        <time>2017-12-06T14:15:46Z</time>
      </trkpt>
      <trkpt lat="44.17201" lon="2.03261">
        <ele>257</ele>
        <time>2017-12-06T14:15:48Z</time>
      </trkpt>
      <trkpt lat="44.172" lon="2.03258">
        <ele>257</ele>
        <time>2017-12-06T14:15:50Z</time>
      </trkpt>
      <trkpt lat="44.17198" lon="2.03256">
        <ele>257</ele>
        <time>2017-12-06T14:15:52Z</time>
      </trkpt>
      <trkpt lat="44.17197" lon="2.0325">
        <ele>257</ele>
        <time>2017-12-06T14:15:54Z</time>
      </trkpt>
      <trkpt lat="44.17195" lon="2.03246">
        <ele>257</ele>
        <time>2017-12-06T14:15:56Z</time>
      </trkpt>
      <trkpt lat="44.17194" lon="2.03242">
        <ele>257</ele>
        <time>2017-12-06T14:15:58Z</time>
      </trkpt>
      <trkpt lat="44.17193" lon="2.03241">
        <ele>257</ele>
        <time>2017-12-06T14:16:00Z</time>
      </trkpt>
      <trkpt lat="44.17189" lon="2.03236">
        <ele>257</ele>
        <time>2017-12-06T14:16:02Z</time>
      </trkpt>
      <trkpt lat="44.17188" lon="2.03232">
        <ele>257</ele>
        <time>2017-12-06T14:16:04Z</time>
      </trkpt>
      <trkpt lat="44.17187" lon="2.03229">
        <ele>258</ele>
        <time>2017-12-06T14:16:06Z</time>
      </trkpt>
      <trkpt lat="44.17185" lon="2.03227">
        <ele>258</ele>
        <time>2017-12-06T14:16:08Z</time>
      </trkpt>
      <trkpt lat="44.17184" lon="2.03225">
        <ele>257</ele>
        <time>2017-12-06T14:16:10Z</time>
      </trkpt>
      <trkpt lat="44.17181" lon="2.03221">
        <ele>257</ele>
        <time>2017-12-06T14:16:12Z</time>
      </trkpt>
      <trkpt lat="44.1718" lon="2.03218">
        <ele>258</ele>
        <time>2017-12-06T14:16:14Z</time>
      </trkpt>
      <trkpt lat="44.17179" lon="2.03216">
        <ele>258</ele>
        <time>2017-12-06T14:16:16Z</time>
      </trkpt>
      <trkpt lat="44.17178" lon="2.03214">
        <ele>258</ele>
        <time>2017-12-06T14:16:18Z</time>
      </trkpt>
      <trkpt lat="44.17176" lon="2.03212">
        <ele>258</ele>
        <time>2017-12-06T14:16:20Z</time>
      </trkpt>
      <trkpt lat="44.17174" lon="2.0321">
        <ele>259</ele>
        <time>2017-12-06T14:16:22Z</time>
      </trkpt>
      <trkpt lat="44.17173" lon="2.03209">
        <ele>259</ele>
        <time>2017-12-06T14:16:24Z</time>
      </trkpt>
      <trkpt lat="44.17171" lon="2.03205">
        <ele>259</ele>
        <time>2017-12-06T14:16:26Z</time>
      </trkpt>
      <trkpt lat="44.1717" lon="2.03201">
        <ele>260</ele>
        <time>2017-12-06T14:16:28Z</time>
      </trkpt>
      <trkpt lat="44.17169" lon="2.03199">
        <ele>260</ele>
        <time>2017-12-06T14:16:30Z</time>
      </trkpt>
      <trkpt lat="44.17168" lon="2.03196">
        <ele>260</ele>
        <time>2017-12-06T14:16:32Z</time>
      </trkpt>
      <trkpt lat="44.17167" lon="2.03192">
        <ele>260</ele>
        <time>2017-12-06T14:16:34Z</time>
      </trkpt>
      <trkpt lat="44.17166" lon="2.03189">
        <ele>259</ele>
        <time>2017-12-06T14:16:36Z</time>
      </trkpt>
      <trkpt lat="44.17165" lon="2.03186">
        <ele>259</ele>
        <time>2017-12-06T14:16:38Z</time>
      </trkpt>
      <trkpt lat="44.17163" lon="2.03184">
        <ele>259</ele>
        <time>2017-12-06T14:16:40Z</time>
      </trkpt>
      <trkpt lat="44.17162" lon="2.03181">
        <ele>259</ele>
        <time>2017-12-06T14:16:42Z</time>
      </trkpt>
      <trkpt lat="44.17161" lon="2.03178">
        <ele>259</ele>
        <time>2017-12-06T14:16:44Z</time>
      </trkpt>
      <trkpt lat="44.1716" lon="2.03176">
        <ele>260</ele>
        <time>2017-12-06T14:16:46Z</time>
      </trkpt>
      <trkpt lat="44.17158" lon="2.03173">
        <ele>260</ele>
        <time>2017-12-06T14:16:48Z</time>
      </trkpt>
      <trkpt lat="44.17158" lon="2.0317">
        <ele>260</ele>
        <time>2017-12-06T14:16:50Z</time>
      </trkpt>
      <trkpt lat="44.17157" lon="2.03167">
        <ele>261</ele>
        <time>2017-12-06T14:16:52Z</time>
      </trkpt>
      <trkpt lat="44.17155" lon="2.03166">
        <ele>261</ele>
        <time>2017-12-06T14:16:54Z</time>
      </trkpt>
      <trkpt lat="44.17154" lon="2.03163">
        <ele>262</ele>
        <time>2017-12-06T14:16:56Z</time>
      </trkpt>
      <trkpt lat="44.17152" lon="2.03161">
        <ele>262</ele>
        <time>2017-12-06T14:16:58Z</time>
      </trkpt>
      <trkpt lat="44.1715" lon="2.03157">
        <ele>262</ele>
        <time>2017-12-06T14:17:00Z</time>
      </trkpt>
      <trkpt lat="44.17149" lon="2.03153">
        <ele>263</ele>
        <time>2017-12-06T14:17:02Z</time>
      </trkpt>
      <trkpt lat="44.17149" lon="2.03149">
        <ele>263</ele>
        <time>2017-12-06T14:17:04Z</time>
      </trkpt>
      <trkpt lat="44.17148" lon="2.03146">
        <ele>263</ele>
        <time>2017-12-06T14:17:06Z</time>
      </trkpt>
      <trkpt lat="44.17147" lon="2.03141">
        <ele>263</ele>
        <time>2017-12-06T14:17:08Z</time>
      </trkpt>
      <trkpt lat="44.17145" lon="2.03137">
        <ele>263</ele>
        <time>2017-12-06T14:17:10Z</time>
      </trkpt>
      <trkpt lat="44.17143" lon="2.03135">
        <ele>264</ele>
        <time>2017-12-06T14:17:12Z</time>
      </trkpt>
      <trkpt lat="44.17141" lon="2.03132">
        <ele>264</ele>
        <time>2017-12-06T14:17:14Z</time>
      </trkpt>
      <trkpt lat="44.1714" lon="2.03129">
        <ele>264</ele>
        <time>2017-12-06T14:17:16Z</time>
      </trkpt>
      <trkpt lat="44.17138" lon="2.03126">
        <ele>264</ele>
        <time>2017-12-06T14:17:18Z</time>
      </trkpt>
      <trkpt lat="44.17137" lon="2.03123">
        <ele>264</ele>
        <time>2017-12-06T14:17:20Z</time>
      </trkpt>
      <trkpt lat="44.17137" lon="2.0312">
        <ele>264</ele>
        <time>2017-12-06T14:17:22Z</time>
      </trkpt>
      <trkpt lat="44.17136" lon="2.03116">
        <ele>264</ele>
        <time>2017-12-06T14:17:24Z</time>
      </trkpt>
      <trkpt lat="44.17135" lon="2.03114">
        <ele>265</ele>
        <time>2017-12-06T14:17:26Z</time>
      </trkpt>
      <trkpt lat="44.17134" lon="2.03109">
        <ele>265</ele>
        <time>2017-12-06T14:17:28Z</time>
      </trkpt>
      <trkpt lat="44.17132" lon="2.03105">
        <ele>265</ele>
        <time>2017-12-06T14:17:30Z</time>
      </trkpt>
      <trkpt lat="44.17129" lon="2.031">
        <ele>265</ele>
        <time>2017-12-06T14:17:32Z</time>
      </trkpt>
      <trkpt lat="44.17127" lon="2.03095">
        <ele>264</ele>
        <time>2017-12-06T14:17:34Z</time>
      </trkpt>
      <trkpt lat="44.17125" lon="2.03091">
        <ele>264</ele>
        <time>2017-12-06T14:17:36Z</time>
      </trkpt>
      <trkpt lat="44.17124" lon="2.03088">
        <ele>263</ele>
        <time>2017-12-06T14:17:38Z</time>
      </trkpt>
      <trkpt lat="44.17123" lon="2.03084">
        <ele>263</ele>
        <time>2017-12-06T14:17:40Z</time>
      </trkpt>
      <trkpt lat="44.17122" lon="2.0308">
        <ele>262</ele>
        <time>2017-12-06T14:17:42Z</time>
      </trkpt>
      <trkpt lat="44.1712" lon="2.03076">
        <ele>261</ele>
        <time>2017-12-06T14:17:44Z</time>
      </trkpt>
      <trkpt lat="44.17118" lon="2.03072">
        <ele>261</ele>
        <time>2017-12-06T14:17:46Z</time>
      </trkpt>
      <trkpt lat="44.17117" lon="2.03069">
        <ele>260</ele>
        <time>2017-12-06T14:17:48Z</time>
      </trkpt>
      <trkpt lat="44.17115" lon="2.03065">
        <ele>260</ele>
        <time>2017-12-06T14:17:50Z</time>
      </trkpt>
      <trkpt lat="44.17113" lon="2.03062">
        <ele>260</ele>
        <time>2017-12-06T14:17:52Z</time>
      </trkpt>
      <trkpt lat="44.17112" lon="2.03058">
        <ele>260</ele>
        <time>2017-12-06T14:17:54Z</time>
      </trkpt>
      <trkpt lat="44.17111" lon="2.03055">
        <ele>260</ele>
        <time>2017-12-06T14:17:56Z</time>
      </trkpt>
      <trkpt lat="44.17109" lon="2.03052">
        <ele>260</ele>
        <time>2017-12-06T14:17:58Z</time>
      </trkpt>
      <trkpt lat="44.17108" lon="2.03049">
        <ele>260</ele>
        <time>2017-12-06T14:18:00Z</time>
      </trkpt>
      <trkpt lat="44.17107" lon="2.03046">
        <ele>260</ele>
        <time>2017-12-06T14:18:02Z</time>
      </trkpt>
      <trkpt lat="44.17106" lon="2.03042">
        <ele>260</ele>
        <time>2017-12-06T14:18:04Z</time>
      </trkpt>
      <trkpt lat="44.17105" lon="2.03039">
        <ele>260</ele>
        <time>2017-12-06T14:18:06Z</time>
      </trkpt>
      <trkpt lat="44.17104" lon="2.03036">
        <ele>259</ele>
        <time>2017-12-06T14:18:08Z</time>
      </trkpt>
      <trkpt lat="44.17103" lon="2.03032">
        <ele>259</ele>
        <time>2017-12-06T14:18:10Z</time>
      </trkpt>
      <trkpt lat="44.17102" lon="2.03029">
        <ele>259</ele>
        <time>2017-12-06T14:18:12Z</time>
      </trkpt>
      <trkpt lat="44.17101" lon="2.03026">
        <ele>259</ele>
        <time>2017-12-06T14:18:14Z</time>
      </trkpt>
      <trkpt lat="44.171" lon="2.03022">
        <ele>259</ele>
        <time>2017-12-06T14:18:16Z</time>
      </trkpt>
      <trkpt lat="44.17099" lon="2.03019">
        <ele>259</ele>
        <time>2017-12-06T14:18:18Z</time>
      </trkpt>
      <trkpt lat="44.17097" lon="2.03017">
        <ele>259</ele>
        <time>2017-12-06T14:18:20Z</time>
      </trkpt>
      <trkpt lat="44.17096" lon="2.03013">
        <ele>258</ele>
        <time>2017-12-06T14:18:22Z</time>
      </trkpt>
      <trkpt lat="44.17096" lon="2.03009">
        <ele>258</ele>
        <time>2017-12-06T14:18:24Z</time>
      </trkpt>
      <trkpt lat="44.17096" lon="2.03006">
        <ele>258</ele>
        <time>2017-12-06T14:18:26Z</time>
      </trkpt>
      <trkpt lat="44.17094" lon="2.03002">
        <ele>258</ele>
        <time>2017-12-06T14:18:28Z</time>
      </trkpt>
      <trkpt lat="44.17093" lon="2.02999">
        <ele>257</ele>
        <time>2017-12-06T14:18:30Z</time>
      </trkpt>
      <trkpt lat="44.17092" lon="2.02995">
        <ele>257</ele>
        <time>2017-12-06T14:18:32Z</time>
      </trkpt>
      <trkpt lat="44.17091" lon="2.02991">
        <ele>257</ele>
        <time>2017-12-06T14:18:34Z</time>
      </trkpt>
      <trkpt lat="44.17089" lon="2.02987">
        <ele>257</ele>
        <time>2017-12-06T14:18:36Z</time>
      </trkpt>
      <trkpt lat="44.17088" lon="2.02984">
        <ele>257</ele>
        <time>2017-12-06T14:18:38Z</time>
      </trkpt>
      <trkpt lat="44.17087" lon="2.02981">
        <ele>257</ele>
        <time>2017-12-06T14:18:40Z</time>
      </trkpt>
      <trkpt lat="44.17085" lon="2.02977">
        <ele>256</ele>
        <time>2017-12-06T14:18:42Z</time>
      </trkpt>
      <trkpt lat="44.17083" lon="2.02974">
        <ele>256</ele>
        <time>2017-12-06T14:18:44Z</time>
      </trkpt>
      <trkpt lat="44.17082" lon="2.02971">
        <ele>256</ele>
        <time>2017-12-06T14:18:46Z</time>
      </trkpt>
      <trkpt lat="44.17081" lon="2.02969">
        <ele>256</ele>
        <time>2017-12-06T14:18:48Z</time>
      </trkpt>
      <trkpt lat="44.1708" lon="2.02965">
        <ele>256</ele>
        <time>2017-12-06T14:18:50Z</time>
      </trkpt>
      <trkpt lat="44.17079" lon="2.02962">
        <ele>255</ele>
        <time>2017-12-06T14:18:52Z</time>
      </trkpt>
      <trkpt lat="44.17077" lon="2.02959">
        <ele>255</ele>
        <time>2017-12-06T14:18:54Z</time>
      </trkpt>
      <trkpt lat="44.17076" lon="2.02955">
        <ele>255</ele>
        <time>2017-12-06T14:18:56Z</time>
      </trkpt>
      <trkpt lat="44.17076" lon="2.02952">
        <ele>254</ele>
        <time>2017-12-06T14:18:58Z</time>
      </trkpt>
      <trkpt lat="44.17074" lon="2.02948">
        <ele>254</ele>
        <time>2017-12-06T14:19:00Z</time>
      </trkpt>
      <trkpt lat="44.17072" lon="2.02945">
        <ele>254</ele>
        <time>2017-12-06T14:19:02Z</time>
      </trkpt>
      <trkpt lat="44.17071" lon="2.02941">
        <ele>254</ele>
        <time>2017-12-06T14:19:04Z</time>
      </trkpt>
      <trkpt lat="44.1707" lon="2.02938">
        <ele>253</ele>
        <time>2017-12-06T14:19:06Z</time>
      </trkpt>
      <trkpt lat="44.17069" lon="2.02935">
        <ele>253</ele>
        <time>2017-12-06T14:19:08Z</time>
      </trkpt>
      <trkpt lat="44.17068" lon="2.02932">
        <ele>254</ele>
        <time>2017-12-06T14:19:10Z</time>
      </trkpt>
      <trkpt lat="44.17067" lon="2.02929">
        <ele>254</ele>
        <time>2017-12-06T14:19:12Z</time>
      </trkpt>
      <trkpt lat="44.17066" lon="2.02926">
        <ele>254</ele>
        <time>2017-12-06T14:19:14Z</time>
      </trkpt>
      <trkpt lat="44.17066" lon="2.02922">
        <ele>255</ele>
        <time>2017-12-06T14:19:16Z</time>
      </trkpt>
      <trkpt lat="44.17065" lon="2.02918">
        <ele>255</ele>
        <time>2017-12-06T14:19:18Z</time>
      </trkpt>
      <trkpt lat="44.17065" lon="2.02915">
        <ele>256</ele>
        <time>2017-12-06T14:19:20Z</time>
      </trkpt>
      <trkpt lat="44.17064" lon="2.02911">
        <ele>256</ele>
        <time>2017-12-06T14:19:22Z</time>
      </trkpt>
      <trkpt lat="44.17062" lon="2.02906">
        <ele>256</ele>
        <time>2017-12-06T14:19:24Z</time>
      </trkpt>
      <trkpt lat="44.1706" lon="2.02903">
        <ele>257</ele>
        <time>2017-12-06T14:19:26Z</time>
      </trkpt>
      <trkpt lat="44.17059" lon="2.02898">
        <ele>257</ele>
        <time>2017-12-06T14:19:28Z</time>
      </trkpt>
      <trkpt lat="44.17057" lon="2.02893">
        <ele>257</ele>
        <time>2017-12-06T14:19:30Z</time>
      </trkpt>
      <trkpt lat="44.17055" lon="2.02891">
        <ele>257</ele>
        <time>2017-12-06T14:19:32Z</time>
      </trkpt>
      <trkpt lat="44.17054" lon="2.02888">
        <ele>257</ele>
        <time>2017-12-06T14:19:34Z</time>
      </trkpt>
      <trkpt lat="44.17052" lon="2.02884">
        <ele>257</ele>
        <time>2017-12-06T14:19:36Z</time>
      </trkpt>
      <trkpt lat="44.1705" lon="2.02882">
        <ele>257</ele>
        <time>2017-12-06T14:19:38Z</time>
      </trkpt>
      <trkpt lat="44.17047" lon="2.0288">
        <ele>256</ele>
        <time>2017-12-06T14:19:40Z</time>
      </trkpt>
      <trkpt lat="44.17046" lon="2.02878">
        <ele>256</ele>
        <time>2017-12-06T14:19:42Z</time>
      </trkpt>
      <trkpt lat="44.17044" lon="2.02875">
        <ele>256</ele>
        <time>2017-12-06T14:19:44Z</time>
      </trkpt>
      <trkpt lat="44.17042" lon="2.02871">
        <ele>256</ele>
        <time>2017-12-06T14:19:46Z</time>
      </trkpt>
      <trkpt lat="44.17041" lon="2.02868">
        <ele>256</ele>
        <time>2017-12-06T14:19:48Z</time>
      </trkpt>
      <trkpt lat="44.17039" lon="2.02866">
        <ele>255</ele>
        <time>2017-12-06T14:19:50Z</time>
      </trkpt>
      <trkpt lat="44.17037" lon="2.02863">
        <ele>255</ele>
        <time>2017-12-06T14:19:52Z</time>
      </trkpt>
      <trkpt lat="44.17035" lon="2.0286">
        <ele>254</ele>
        <time>2017-12-06T14:19:54Z</time>
      </trkpt>
      <trkpt lat="44.17034" lon="2.02858">
        <ele>254</ele>
        <time>2017-12-06T14:19:56Z</time>
      </trkpt>
      <trkpt lat="44.17032" lon="2.02855">
        <ele>254</ele>
        <time>2017-12-06T14:19:58Z</time>
      </trkpt>
      <trkpt lat="44.1703" lon="2.02853">
        <ele>253</ele>
        <time>2017-12-06T14:20:00Z</time>
      </trkpt>
      <trkpt lat="44.17028" lon="2.02849">
        <ele>253</ele>
        <time>2017-12-06T14:20:02Z</time>
      </trkpt>
      <trkpt lat="44.17027" lon="2.02845">
        <ele>252</ele>
        <time>2017-12-06T14:20:04Z</time>
      </trkpt>
      <trkpt lat="44.17025" lon="2.02842">
        <ele>251</ele>
        <time>2017-12-06T14:20:06Z</time>
      </trkpt>
      <trkpt lat="44.17024" lon="2.02838">
        <ele>251</ele>
        <time>2017-12-06T14:20:08Z</time>
      </trkpt>
      <trkpt lat="44.17022" lon="2.02835">
        <ele>250</ele>
        <time>2017-12-06T14:20:10Z</time>
      </trkpt>
      <trkpt lat="44.17021" lon="2.02832">
        <ele>249</ele>
        <time>2017-12-06T14:20:12Z</time>
      </trkpt>
      <trkpt lat="44.17019" lon="2.02829">
        <ele>249</ele>
        <time>2017-12-06T14:20:14Z</time>
      </trkpt>
      <trkpt lat="44.17018" lon="2.02827">
        <ele>248</ele>
        <time>2017-12-06T14:20:16Z</time>
      </trkpt>
      <trkpt lat="44.17017" lon="2.02824">
        <ele>248</ele>
        <time>2017-12-06T14:20:18Z</time>
      </trkpt>
      <trkpt lat="44.17016" lon="2.02821">
        <ele>248</ele>
        <time>2017-12-06T14:20:20Z</time>
      </trkpt>
      <trkpt lat="44.17015" lon="2.02817">
        <ele>247</ele>
        <time>2017-12-06T14:20:22Z</time>
      </trkpt>
      <trkpt lat="44.17015" lon="2.02813">
        <ele>247</ele>
        <time>2017-12-06T14:20:24Z</time>
      </trkpt>
      <trkpt lat="44.17015" lon="2.0281">
        <ele>247</ele>
        <time>2017-12-06T14:20:26Z</time>
      </trkpt>
      <trkpt lat="44.17015" lon="2.02807">
        <ele>247</ele>
        <time>2017-12-06T14:20:28Z</time>
      </trkpt>
      <trkpt lat="44.17014" lon="2.02803">
        <ele>247</ele>
        <time>2017-12-06T14:20:30Z</time>
      </trkpt>
      <trkpt lat="44.17015" lon="2.028">
        <ele>247</ele>
        <time>2017-12-06T14:20:32Z</time>
      </trkpt>
      <trkpt lat="44.17013" lon="2.02796">
        <ele>247</ele>
        <time>2017-12-06T14:20:34Z</time>
      </trkpt>
      <trkpt lat="44.17013" lon="2.02793">
        <ele>248</ele>
        <time>2017-12-06T14:20:36Z</time>
      </trkpt>
      <trkpt lat="44.17012" lon="2.0279">
        <ele>248</ele>
        <time>2017-12-06T14:20:38Z</time>
      </trkpt>
      <trkpt lat="44.17011" lon="2.02786">
        <ele>248</ele>
        <time>2017-12-06T14:20:40Z</time>
      </trkpt>
      <trkpt lat="44.17011" lon="2.02783">
        <ele>249</ele>
        <time>2017-12-06T14:20:42Z</time>
      </trkpt>
      <trkpt lat="44.1701" lon="2.0278">
        <ele>249</ele>
        <time>2017-12-06T14:20:44Z</time>
      </trkpt>
      <trkpt lat="44.1701" lon="2.02777">
        <ele>249</ele>
        <time>2017-12-06T14:20:46Z</time>
      </trkpt>
      <trkpt lat="44.17008" lon="2.02773">
        <ele>249</ele>
        <time>2017-12-06T14:20:48Z</time>
      </trkpt>
      <trkpt lat="44.17007" lon="2.02769">
        <ele>249</ele>
        <time>2017-12-06T14:20:50Z</time>
      </trkpt>
      <trkpt lat="44.17007" lon="2.02769">
        <ele>249</ele>
        <time>2017-12-06T14:20:52Z</time>
      </trkpt>
      <trkpt lat="44.17003" lon="2.02764">
        <ele>249</ele>
        <time>2017-12-06T14:20:54Z</time>
      </trkpt>
      <trkpt lat="44.17001" lon="2.02761">
        <ele>249</ele>
        <time>2017-12-06T14:20:56Z</time>
      </trkpt>
      <trkpt lat="44.16998" lon="2.02758">
        <ele>250</ele>
        <time>2017-12-06T14:20:58Z</time>
      </trkpt>
      <trkpt lat="44.16995" lon="2.02756">
        <ele>251</ele>
        <time>2017-12-06T14:21:00Z</time>
      </trkpt>
      <trkpt lat="44.16992" lon="2.02753">
        <ele>251</ele>
        <time>2017-12-06T14:21:02Z</time>
      </trkpt>
      <trkpt lat="44.1699" lon="2.0275">
        <ele>252</ele>
        <time>2017-12-06T14:21:04Z</time>
      </trkpt>
      <trkpt lat="44.16988" lon="2.02748">
        <ele>253</ele>
        <time>2017-12-06T14:21:06Z</time>
      </trkpt>
      <trkpt lat="44.16985" lon="2.02746">
        <ele>253</ele>
        <time>2017-12-06T14:21:08Z</time>
      </trkpt>
      <trkpt lat="44.16982" lon="2.02744">
        <ele>254</ele>
        <time>2017-12-06T14:21:10Z</time>
      </trkpt>
      <trkpt lat="44.16981" lon="2.02742">
        <ele>254</ele>
        <time>2017-12-06T14:21:12Z</time>
      </trkpt>
      <trkpt lat="44.16979" lon="2.02739">
        <ele>254</ele>
        <time>2017-12-06T14:21:14Z</time>
      </trkpt>
      <trkpt lat="44.16977" lon="2.02737">
        <ele>254</ele>
        <time>2017-12-06T14:21:16Z</time>
      </trkpt>
      <trkpt lat="44.16975" lon="2.02734">
        <ele>254</ele>
        <time>2017-12-06T14:21:18Z</time>
      </trkpt>
      <trkpt lat="44.16973" lon="2.02732">
        <ele>254</ele>
        <time>2017-12-06T14:21:20Z</time>
      </trkpt>
      <trkpt lat="44.16972" lon="2.02729">
        <ele>254</ele>
        <time>2017-12-06T14:21:22Z</time>
      </trkpt>
      <trkpt lat="44.1697" lon="2.02727">
        <ele>254</ele>
        <time>2017-12-06T14:21:24Z</time>
      </trkpt>
      <trkpt lat="44.16969" lon="2.02725">
        <ele>254</ele>
        <time>2017-12-06T14:21:26Z</time>
      </trkpt>
      <trkpt lat="44.16968" lon="2.02722">
        <ele>254</ele>
        <time>2017-12-06T14:21:28Z</time>
      </trkpt>
      <trkpt lat="44.16967" lon="2.02719">
        <ele>254</ele>
        <time>2017-12-06T14:21:30Z</time>
      </trkpt>
      <trkpt lat="44.16966" lon="2.02716">
        <ele>254</ele>
        <time>2017-12-06T14:21:32Z</time>
      </trkpt>
      <trkpt lat="44.16965" lon="2.02714">
        <ele>254</ele>
        <time>2017-12-06T14:21:34Z</time>
      </trkpt>
      <trkpt lat="44.16964" lon="2.02711">
        <ele>254</ele>
        <time>2017-12-06T14:21:36Z</time>
      </trkpt>
      <trkpt lat="44.16963" lon="2.02708">
        <ele>254</ele>
        <time>2017-12-06T14:21:38Z</time>
      </trkpt>
      <trkpt lat="44.16963" lon="2.02705">
        <ele>255</ele>
        <time>2017-12-06T14:21:40Z</time>
      </trkpt>
      <trkpt lat="44.16963" lon="2.02705">
        <ele>255</ele>
        <time>2017-12-06T14:21:42Z</time>
      </trkpt>
      <trkpt lat="44.16963" lon="2.02705">
        <ele>255</ele>
        <time>2017-12-06T14:21:44Z</time>
      </trkpt>
      <trkpt lat="44.1696" lon="2.02697">
        <ele>255</ele>
        <time>2017-12-06T14:21:46Z</time>
      </trkpt>
      <trkpt lat="44.16959" lon="2.02694">
        <ele>256</ele>
        <time>2017-12-06T14:21:48Z</time>
      </trkpt>
      <trkpt lat="44.16958" lon="2.0269">
        <ele>256</ele>
        <time>2017-12-06T14:21:50Z</time>
      </trkpt>
      <trkpt lat="44.16956" lon="2.02685">
        <ele>256</ele>
        <time>2017-12-06T14:21:52Z</time>
      </trkpt>
      <trkpt lat="44.16954" lon="2.02681">
        <ele>256</ele>
        <time>2017-12-06T14:21:54Z</time>
      </trkpt>
      <trkpt lat="44.16953" lon="2.02677">
        <ele>256</ele>
        <time>2017-12-06T14:21:56Z</time>
      </trkpt>
      <trkpt lat="44.1695" lon="2.02673">
        <ele>256</ele>
        <time>2017-12-06T14:21:58Z</time>
      </trkpt>
      <trkpt lat="44.16948" lon="2.0267">
        <ele>256</ele>
        <time>2017-12-06T14:22:00Z</time>
      </trkpt>
      <trkpt lat="44.16944" lon="2.02668">
        <ele>256</ele>
        <time>2017-12-06T14:22:02Z</time>
      </trkpt>
      <trkpt lat="44.16941" lon="2.02665">
        <ele>255</ele>
        <time>2017-12-06T14:22:04Z</time>
      </trkpt>
      <trkpt lat="44.16937" lon="2.02664">
        <ele>255</ele>
        <time>2017-12-06T14:22:06Z</time>
      </trkpt>
      <trkpt lat="44.16935" lon="2.02663">
        <ele>255</ele>
        <time>2017-12-06T14:22:08Z</time>
      </trkpt>
      <trkpt lat="44.16931" lon="2.02661">
        <ele>254</ele>
        <time>2017-12-06T14:22:10Z</time>
      </trkpt>
      <trkpt lat="44.16928" lon="2.02661">
        <ele>254</ele>
        <time>2017-12-06T14:22:12Z</time>
      </trkpt>
      <trkpt lat="44.16925" lon="2.02659">
        <ele>254</ele>
        <time>2017-12-06T14:22:14Z</time>
      </trkpt>
      <trkpt lat="44.16923" lon="2.02658">
        <ele>254</ele>
        <time>2017-12-06T14:22:16Z</time>
      </trkpt>
      <trkpt lat="44.1692" lon="2.02656">
        <ele>254</ele>
        <time>2017-12-06T14:22:18Z</time>
      </trkpt>
      <trkpt lat="44.16917" lon="2.02656">
        <ele>254</ele>
        <time>2017-12-06T14:22:20Z</time>
      </trkpt>
      <trkpt lat="44.16914" lon="2.02655">
        <ele>254</ele>
        <time>2017-12-06T14:22:22Z</time>
      </trkpt>
      <trkpt lat="44.16911" lon="2.02654">
        <ele>254</ele>
        <time>2017-12-06T14:22:24Z</time>
      </trkpt>
      <trkpt lat="44.16908" lon="2.02653">
        <ele>254</ele>
        <time>2017-12-06T14:22:26Z</time>
      </trkpt>
      <trkpt lat="44.16906" lon="2.02652">
        <ele>254</ele>
        <time>2017-12-06T14:22:28Z</time>
      </trkpt>
      <trkpt lat="44.16904" lon="2.02651">
        <ele>254</ele>
        <time>2017-12-06T14:22:30Z</time>
      </trkpt>
      <trkpt lat="44.16901" lon="2.0265">
        <ele>254</ele>
        <time>2017-12-06T14:22:32Z</time>
      </trkpt>
      <trkpt lat="44.16899" lon="2.02648">
        <ele>254</ele>
        <time>2017-12-06T14:22:34Z</time>
      </trkpt>
      <trkpt lat="44.16897" lon="2.02647">
        <ele>254</ele>
        <time>2017-12-06T14:22:36Z</time>
      </trkpt>
      <trkpt lat="44.16895" lon="2.02644">
        <ele>254</ele>
        <time>2017-12-06T14:22:38Z</time>
      </trkpt>
      <trkpt lat="44.16894" lon="2.02643">
        <ele>254</ele>
        <time>2017-12-06T14:22:40Z</time>
      </trkpt>
      <trkpt lat="44.16892" lon="2.0264">
        <ele>254</ele>
        <time>2017-12-06T14:22:42Z</time>
      </trkpt>
      <trkpt lat="44.16889" lon="2.02639">
        <ele>254</ele>
        <time>2017-12-06T14:22:44Z</time>
      </trkpt>
      <trkpt lat="44.16888" lon="2.02636">
        <ele>254</ele>
        <time>2017-12-06T14:22:46Z</time>
      </trkpt>
      <trkpt lat="44.16887" lon="2.02633">
        <ele>254</ele>
        <time>2017-12-06T14:22:48Z</time>
      </trkpt>
      <trkpt lat="44.16885" lon="2.0263">
        <ele>254</ele>
        <time>2017-12-06T14:22:50Z</time>
      </trkpt>
      <trkpt lat="44.16884" lon="2.02628">
        <ele>253</ele>
        <time>2017-12-06T14:22:52Z</time>
      </trkpt>
      <trkpt lat="44.16883" lon="2.02626">
        <ele>253</ele>
        <time>2017-12-06T14:22:54Z</time>
      </trkpt>
      <trkpt lat="44.16881" lon="2.02623">
        <ele>253</ele>
        <time>2017-12-06T14:22:56Z</time>
      </trkpt>
      <trkpt lat="44.16879" lon="2.02621">
        <ele>253</ele>
        <time>2017-12-06T14:22:58Z</time>
      </trkpt>
      <trkpt lat="44.16878" lon="2.02619">
        <ele>253</ele>
        <time>2017-12-06T14:23:00Z</time>
      </trkpt>
      <trkpt lat="44.16877" lon="2.02616">
        <ele>253</ele>
        <time>2017-12-06T14:23:02Z</time>
      </trkpt>
      <trkpt lat="44.16875" lon="2.02613">
        <ele>253</ele>
        <time>2017-12-06T14:23:04Z</time>
      </trkpt>
      <trkpt lat="44.16873" lon="2.0261">
        <ele>253</ele>
        <time>2017-12-06T14:23:06Z</time>
      </trkpt>
      <trkpt lat="44.16872" lon="2.02608">
        <ele>253</ele>
        <time>2017-12-06T14:23:08Z</time>
      </trkpt>
      <trkpt lat="44.1687" lon="2.02605">
        <ele>253</ele>
        <time>2017-12-06T14:23:10Z</time>
      </trkpt>
      <trkpt lat="44.16868" lon="2.02602">
        <ele>253</ele>
        <time>2017-12-06T14:23:12Z</time>
      </trkpt>
      <trkpt lat="44.16867" lon="2.026">
        <ele>253</ele>
        <time>2017-12-06T14:23:14Z</time>
      </trkpt>
      <trkpt lat="44.16865" lon="2.02598">
        <ele>253</ele>
        <time>2017-12-06T14:23:16Z</time>
      </trkpt>
      <trkpt lat="44.16863" lon="2.02595">
        <ele>253</ele>
        <time>2017-12-06T14:23:18Z</time>
      </trkpt>
      <trkpt lat="44.16861" lon="2.02591">
        <ele>253</ele>
        <time>2017-12-06T14:23:20Z</time>
      </trkpt>
      <trkpt lat="44.1686" lon="2.02588">
        <ele>253</ele>
        <time>2017-12-06T14:23:22Z</time>
      </trkpt>
      <trkpt lat="44.16858" lon="2.02585">
        <ele>252</ele>
        <time>2017-12-06T14:23:24Z</time>
      </trkpt>
      <trkpt lat="44.16857" lon="2.02582">
        <ele>252</ele>
        <time>2017-12-06T14:23:26Z</time>
      </trkpt>
      <trkpt lat="44.16855" lon="2.02578">
        <ele>252</ele>
        <time>2017-12-06T14:23:28Z</time>
      </trkpt>
      <trkpt lat="44.16855" lon="2.02574">
        <ele>252</ele>
        <time>2017-12-06T14:23:30Z</time>
      </trkpt>
      <trkpt lat="44.16854" lon="2.02571">
        <ele>252</ele>
        <time>2017-12-06T14:23:32Z</time>
      </trkpt>
      <trkpt lat="44.16852" lon="2.02568">
        <ele>251</ele>
        <time>2017-12-06T14:23:34Z</time>
      </trkpt>
      <trkpt lat="44.1685" lon="2.02565">
        <ele>251</ele>
        <time>2017-12-06T14:23:36Z</time>
      </trkpt>
      <trkpt lat="44.16848" lon="2.02562">
        <ele>251</ele>
        <time>2017-12-06T14:23:38Z</time>
      </trkpt>
      <trkpt lat="44.16846" lon="2.02559">
        <ele>251</ele>
        <time>2017-12-06T14:23:40Z</time>
      </trkpt>
      <trkpt lat="44.16844" lon="2.02557">
        <ele>251</ele>
        <time>2017-12-06T14:23:42Z</time>
      </trkpt>
      <trkpt lat="44.16841" lon="2.02555">
        <ele>251</ele>
        <time>2017-12-06T14:23:44Z</time>
      </trkpt>
      <trkpt lat="44.16839" lon="2.02553">
        <ele>251</ele>
        <time>2017-12-06T14:23:46Z</time>
      </trkpt>
      <trkpt lat="44.16837" lon="2.02552">
        <ele>251</ele>
        <time>2017-12-06T14:23:48Z</time>
      </trkpt>
      <trkpt lat="44.16835" lon="2.02551">
        <ele>251</ele>
        <time>2017-12-06T14:23:50Z</time>
      </trkpt>
      <trkpt lat="44.16832" lon="2.02548">
        <ele>252</ele>
        <time>2017-12-06T14:23:52Z</time>
      </trkpt>
      <trkpt lat="44.16829" lon="2.02547">
        <ele>252</ele>
        <time>2017-12-06T14:23:54Z</time>
      </trkpt>
      <trkpt lat="44.16826" lon="2.02545">
        <ele>253</ele>
        <time>2017-12-06T14:23:56Z</time>
      </trkpt>
      <trkpt lat="44.16822" lon="2.02543">
        <ele>253</ele>
        <time>2017-12-06T14:23:58Z</time>
      </trkpt>
      <trkpt lat="44.16818" lon="2.02542">
        <ele>254</ele>
        <time>2017-12-06T14:24:00Z</time>
      </trkpt>
      <trkpt lat="44.16815" lon="2.02541">
        <ele>255</ele>
        <time>2017-12-06T14:24:02Z</time>
      </trkpt>
      <trkpt lat="44.16812" lon="2.02541">
        <ele>255</ele>
        <time>2017-12-06T14:24:04Z</time>
      </trkpt>
      <trkpt lat="44.16809" lon="2.02541">
        <ele>256</ele>
        <time>2017-12-06T14:24:06Z</time>
      </trkpt>
      <trkpt lat="44.16806" lon="2.0254">
        <ele>256</ele>
        <time>2017-12-06T14:24:08Z</time>
      </trkpt>
      <trkpt lat="44.16803" lon="2.02539">
        <ele>257</ele>
        <time>2017-12-06T14:24:10Z</time>
      </trkpt>
      <trkpt lat="44.16799" lon="2.02539">
        <ele>258</ele>
        <time>2017-12-06T14:24:12Z</time>
      </trkpt>
      <trkpt lat="44.16797" lon="2.02538">
        <ele>258</ele>
        <time>2017-12-06T14:24:14Z</time>
      </trkpt>
      <trkpt lat="44.16794" lon="2.02536">
        <ele>259</ele>
        <time>2017-12-06T14:24:16Z</time>
      </trkpt>
      <trkpt lat="44.16793" lon="2.02535">
        <ele>259</ele>
        <time>2017-12-06T14:24:18Z</time>
      </trkpt>
      <trkpt lat="44.1679" lon="2.02533">
        <ele>259</ele>
        <time>2017-12-06T14:24:20Z</time>
      </trkpt>
      <trkpt lat="44.16788" lon="2.02532">
        <ele>259</ele>
        <time>2017-12-06T14:24:22Z</time>
      </trkpt>
      <trkpt lat="44.16786" lon="2.0253">
        <ele>260</ele>
        <time>2017-12-06T14:24:24Z</time>
      </trkpt>
      <trkpt lat="44.16786" lon="2.02528">
        <ele>260</ele>
        <time>2017-12-06T14:24:26Z</time>
      </trkpt>
      <trkpt lat="44.16784" lon="2.02525">
        <ele>260</ele>
        <time>2017-12-06T14:24:28Z</time>
      </trkpt>
      <trkpt lat="44.16782" lon="2.02522">
        <ele>260</ele>
        <time>2017-12-06T14:24:30Z</time>
      </trkpt>
      <trkpt lat="44.16781" lon="2.0252">
        <ele>260</ele>
        <time>2017-12-06T14:24:32Z</time>
      </trkpt>
      <trkpt lat="44.1678" lon="2.02518">
        <ele>259</ele>
        <time>2017-12-06T14:24:34Z</time>
      </trkpt>
      <trkpt lat="44.16779" lon="2.02514">
        <ele>259</ele>
        <time>2017-12-06T14:24:36Z</time>
      </trkpt>
      <trkpt lat="44.16778" lon="2.0251">
        <ele>259</ele>
        <time>2017-12-06T14:24:38Z</time>
      </trkpt>
      <trkpt lat="44.16777" lon="2.02507">
        <ele>259</ele>
        <time>2017-12-06T14:24:40Z</time>
      </trkpt>
      <trkpt lat="44.16776" lon="2.02504">
        <ele>259</ele>
        <time>2017-12-06T14:24:42Z</time>
      </trkpt>
      <trkpt lat="44.16775" lon="2.02501">
        <ele>259</ele>
        <time>2017-12-06T14:24:44Z</time>
      </trkpt>
      <trkpt lat="44.16774" lon="2.02498">
        <ele>258</ele>
        <time>2017-12-06T14:24:46Z</time>
      </trkpt>
      <trkpt lat="44.16773" lon="2.02495">
        <ele>258</ele>
        <time>2017-12-06T14:24:48Z</time>
      </trkpt>
      <trkpt lat="44.16771" lon="2.02492">
        <ele>258</ele>
        <time>2017-12-06T14:24:50Z</time>
      </trkpt>
      <trkpt lat="44.1677" lon="2.02489">
        <ele>257</ele>
        <time>2017-12-06T14:24:52Z</time>
      </trkpt>
      <trkpt lat="44.16768" lon="2.02487">
        <ele>257</ele>
        <time>2017-12-06T14:24:54Z</time>
      </trkpt>
      <trkpt lat="44.16767" lon="2.02484">
        <ele>256</ele>
        <time>2017-12-06T14:24:56Z</time>
      </trkpt>
      <trkpt lat="44.16766" lon="2.02481">
        <ele>256</ele>
        <time>2017-12-06T14:24:58Z</time>
      </trkpt>
      <trkpt lat="44.16764" lon="2.02477">
        <ele>255</ele>
        <time>2017-12-06T14:25:00Z</time>
      </trkpt>
      <trkpt lat="44.16761" lon="2.02475">
        <ele>255</ele>
        <time>2017-12-06T14:25:02Z</time>
      </trkpt>
      <trkpt lat="44.16759" lon="2.02474">
        <ele>254</ele>
        <time>2017-12-06T14:25:04Z</time>
      </trkpt>
      <trkpt lat="44.16757" lon="2.02472">
        <ele>253</ele>
        <time>2017-12-06T14:25:06Z</time>
      </trkpt>
      <trkpt lat="44.16754" lon="2.0247">
        <ele>252</ele>
        <time>2017-12-06T14:25:08Z</time>
      </trkpt>
      <trkpt lat="44.16751" lon="2.02469">
        <ele>252</ele>
        <time>2017-12-06T14:25:10Z</time>
      </trkpt>
      <trkpt lat="44.16747" lon="2.02469">
        <ele>251</ele>
        <time>2017-12-06T14:25:12Z</time>
      </trkpt>
      <trkpt lat="44.16744" lon="2.02469">
        <ele>250</ele>
        <time>2017-12-06T14:25:14Z</time>
      </trkpt>
      <trkpt lat="44.16741" lon="2.0247">
        <ele>250</ele>
        <time>2017-12-06T14:25:16Z</time>
      </trkpt>
      <trkpt lat="44.16738" lon="2.0247">
        <ele>250</ele>
        <time>2017-12-06T14:25:18Z</time>
      </trkpt>
      <trkpt lat="44.16735" lon="2.0247">
        <ele>250</ele>
        <time>2017-12-06T14:25:20Z</time>
      </trkpt>
      <trkpt lat="44.16732" lon="2.02471">
        <ele>250</ele>
        <time>2017-12-06T14:25:22Z</time>
      </trkpt>
      <trkpt lat="44.1673" lon="2.0247">
        <ele>250</ele>
        <time>2017-12-06T14:25:24Z</time>
      </trkpt>
      <trkpt lat="44.16728" lon="2.0247">
        <ele>251</ele>
        <time>2017-12-06T14:25:26Z</time>
      </trkpt>
      <trkpt lat="44.16725" lon="2.02472">
        <ele>251</ele>
        <time>2017-12-06T14:25:28Z</time>
      </trkpt>
      <trkpt lat="44.16722" lon="2.02472">
        <ele>252</ele>
        <time>2017-12-06T14:25:30Z</time>
      </trkpt>
      <trkpt lat="44.1672" lon="2.02473">
        <ele>252</ele>
        <time>2017-12-06T14:25:32Z</time>
      </trkpt>
      <trkpt lat="44.16716" lon="2.02473">
        <ele>252</ele>
        <time>2017-12-06T14:25:34Z</time>
      </trkpt>
      <trkpt lat="44.16713" lon="2.02474">
        <ele>253</ele>
        <time>2017-12-06T14:25:36Z</time>
      </trkpt>
      <trkpt lat="44.1671" lon="2.02476">
        <ele>253</ele>
        <time>2017-12-06T14:25:38Z</time>
      </trkpt>
      <trkpt lat="44.16708" lon="2.02477">
        <ele>253</ele>
        <time>2017-12-06T14:25:40Z</time>
      </trkpt>
      <trkpt lat="44.16705" lon="2.02477">
        <ele>253</ele>
        <time>2017-12-06T14:25:42Z</time>
      </trkpt>
      <trkpt lat="44.16703" lon="2.02478">
        <ele>254</ele>
        <time>2017-12-06T14:25:44Z</time>
      </trkpt>
      <trkpt lat="44.16701" lon="2.02479">
        <ele>254</ele>
        <time>2017-12-06T14:25:46Z</time>
      </trkpt>
      <trkpt lat="44.167" lon="2.0248">
        <ele>255</ele>
        <time>2017-12-06T14:25:48Z</time>
      </trkpt>
      <trkpt lat="44.16697" lon="2.02482">
        <ele>256</ele>
        <time>2017-12-06T14:25:50Z</time>
      </trkpt>
      <trkpt lat="44.16695" lon="2.02483">
        <ele>257</ele>
        <time>2017-12-06T14:25:52Z</time>
      </trkpt>
      <trkpt lat="44.16693" lon="2.02484">
        <ele>258</ele>
        <time>2017-12-06T14:25:54Z</time>
      </trkpt>
      <trkpt lat="44.16691" lon="2.02486">
        <ele>259</ele>
        <time>2017-12-06T14:25:56Z</time>
      </trkpt>
      <trkpt lat="44.16688" lon="2.02488">
        <ele>259</ele>
        <time>2017-12-06T14:25:58Z</time>
      </trkpt>
      <trkpt lat="44.16686" lon="2.0249">
        <ele>260</ele>
        <time>2017-12-06T14:26:00Z</time>
      </trkpt>
      <trkpt lat="44.16683" lon="2.02491">
        <ele>260</ele>
        <time>2017-12-06T14:26:02Z</time>
      </trkpt>
      <trkpt lat="44.16681" lon="2.02493">
        <ele>261</ele>
        <time>2017-12-06T14:26:04Z</time>
      </trkpt>
      <trkpt lat="44.16678" lon="2.02494">
        <ele>261</ele>
        <time>2017-12-06T14:26:06Z</time>
      </trkpt>
      <trkpt lat="44.16676" lon="2.02494">
        <ele>261</ele>
        <time>2017-12-06T14:26:08Z</time>
      </trkpt>
      <trkpt lat="44.16673" lon="2.02494">
        <ele>261</ele>
        <time>2017-12-06T14:26:10Z</time>
      </trkpt>
      <trkpt lat="44.1667" lon="2.02495">
        <ele>261</ele>
        <time>2017-12-06T14:26:12Z</time>
      </trkpt>
      <trkpt lat="44.16667" lon="2.02494">
        <ele>261</ele>
        <time>2017-12-06T14:26:14Z</time>
      </trkpt>
      <trkpt lat="44.16664" lon="2.02493">
        <ele>261</ele>
        <time>2017-12-06T14:26:16Z</time>
      </trkpt>
      <trkpt lat="44.16661" lon="2.02492">
        <ele>261</ele>
        <time>2017-12-06T14:26:18Z</time>
      </trkpt>
      <trkpt lat="44.16658" lon="2.0249">
        <ele>262</ele>
        <time>2017-12-06T14:26:20Z</time>
      </trkpt>
      <trkpt lat="44.16655" lon="2.02488">
        <ele>262</ele>
        <time>2017-12-06T14:26:22Z</time>
      </trkpt>
      <trkpt lat="44.16653" lon="2.02486">
        <ele>262</ele>
        <time>2017-12-06T14:26:24Z</time>
      </trkpt>
      <trkpt lat="44.1665" lon="2.02484">
        <ele>263</ele>
        <time>2017-12-06T14:26:26Z</time>
      </trkpt>
      <trkpt lat="44.16648" lon="2.02481">
        <ele>264</ele>
        <time>2017-12-06T14:26:28Z</time>
      </trkpt>
      <trkpt lat="44.16647" lon="2.0248">
        <ele>264</ele>
        <time>2017-12-06T14:26:30Z</time>
      </trkpt>
      <trkpt lat="44.16644" lon="2.02478">
        <ele>265</ele>
        <time>2017-12-06T14:26:32Z</time>
      </trkpt>
      <trkpt lat="44.16642" lon="2.02475">
        <ele>266</ele>
        <time>2017-12-06T14:26:34Z</time>
      </trkpt>
      <trkpt lat="44.1664" lon="2.02473">
        <ele>267</ele>
        <time>2017-12-06T14:26:36Z</time>
      </trkpt>
      <trkpt lat="44.16637" lon="2.02472">
        <ele>268</ele>
        <time>2017-12-06T14:26:38Z</time>
      </trkpt>
      <trkpt lat="44.16634" lon="2.02471">
        <ele>269</ele>
        <time>2017-12-06T14:26:40Z</time>
      </trkpt>
      <trkpt lat="44.16631" lon="2.0247">
        <ele>269</ele>
        <time>2017-12-06T14:26:42Z</time>
      </trkpt>
      <trkpt lat="44.16629" lon="2.02468">
        <ele>270</ele>
        <time>2017-12-06T14:26:44Z</time>
      </trkpt>
      <trkpt lat="44.16625" lon="2.02468">
        <ele>270</ele>
        <time>2017-12-06T14:26:46Z</time>
      </trkpt>
      <trkpt lat="44.16623" lon="2.02468">
        <ele>271</ele>
        <time>2017-12-06T14:26:48Z</time>
      </trkpt>
      <trkpt lat="44.1662" lon="2.02469">
        <ele>271</ele>
        <time>2017-12-06T14:26:50Z</time>
      </trkpt>
      <trkpt lat="44.16618" lon="2.02468">
        <ele>271</ele>
        <time>2017-12-06T14:26:52Z</time>
      </trkpt>
      <trkpt lat="44.16616" lon="2.02468">
        <ele>272</ele>
        <time>2017-12-06T14:26:54Z</time>
      </trkpt>
      <trkpt lat="44.16613" lon="2.02468">
        <ele>272</ele>
        <time>2017-12-06T14:26:56Z</time>
      </trkpt>
      <trkpt lat="44.1661" lon="2.02467">
        <ele>272</ele>
        <time>2017-12-06T14:26:58Z</time>
      </trkpt>
      <trkpt lat="44.16607" lon="2.02466">
        <ele>272</ele>
        <time>2017-12-06T14:27:00Z</time>
      </trkpt>
      <trkpt lat="44.16604" lon="2.02466">
        <ele>272</ele>
        <time>2017-12-06T14:27:02Z</time>
      </trkpt>
      <trkpt lat="44.16602" lon="2.02466">
        <ele>272</ele>
        <time>2017-12-06T14:27:04Z</time>
      </trkpt>
      <trkpt lat="44.16599" lon="2.02467">
        <ele>272</ele>
        <time>2017-12-06T14:27:06Z</time>
      </trkpt>
      <trkpt lat="44.16596" lon="2.02466">
        <ele>272</ele>
        <time>2017-12-06T14:27:08Z</time>
      </trkpt>
      <trkpt lat="44.16594" lon="2.02466">
        <ele>272</ele>
        <time>2017-12-06T14:27:10Z</time>
      </trkpt>
      <trkpt lat="44.16591" lon="2.02465">
        <ele>272</ele>
        <time>2017-12-06T14:27:12Z</time>
      </trkpt>
      <trkpt lat="44.16588" lon="2.02465">
        <ele>272</ele>
        <time>2017-12-06T14:27:14Z</time>
      </trkpt>
      <trkpt lat="44.16586" lon="2.02466">
        <ele>272</ele>
        <time>2017-12-06T14:27:16Z</time>
      </trkpt>
      <trkpt lat="44.16583" lon="2.02467">
        <ele>271</ele>
        <time>2017-12-06T14:27:18Z</time>
      </trkpt>
      <trkpt lat="44.16581" lon="2.02466">
        <ele>271</ele>
        <time>2017-12-06T14:27:20Z</time>
      </trkpt>
      <trkpt lat="44.16578" lon="2.02467">
        <ele>270</ele>
        <time>2017-12-06T14:27:22Z</time>
      </trkpt>
      <trkpt lat="44.16576" lon="2.02467">
        <ele>270</ele>
        <time>2017-12-06T14:27:24Z</time>
      </trkpt>
      <trkpt lat="44.16572" lon="2.02467">
        <ele>269</ele>
        <time>2017-12-06T14:27:26Z</time>
      </trkpt>
      <trkpt lat="44.16569" lon="2.02468">
        <ele>269</ele>
        <time>2017-12-06T14:27:28Z</time>
      </trkpt>
      <trkpt lat="44.16567" lon="2.02469">
        <ele>269</ele>
        <time>2017-12-06T14:27:30Z</time>
      </trkpt>
      <trkpt lat="44.16564" lon="2.02469">
        <ele>268</ele>
        <time>2017-12-06T14:27:32Z</time>
      </trkpt>
      <trkpt lat="44.16562" lon="2.0247">
        <ele>268</ele>
        <time>2017-12-06T14:27:34Z</time>
      </trkpt>
      <trkpt lat="44.16559" lon="2.02472">
        <ele>268</ele>
        <time>2017-12-06T14:27:36Z</time>
      </trkpt>
      <trkpt lat="44.16555" lon="2.02473">
        <ele>269</ele>
        <time>2017-12-06T14:27:38Z</time>
      </trkpt>
      <trkpt lat="44.16552" lon="2.02474">
        <ele>269</ele>
        <time>2017-12-06T14:27:40Z</time>
      </trkpt>
      <trkpt lat="44.16549" lon="2.02475">
        <ele>269</ele>
        <time>2017-12-06T14:27:42Z</time>
      </trkpt>
      <trkpt lat="44.16546" lon="2.02476">
        <ele>269</ele>
        <time>2017-12-06T14:27:44Z</time>
      </trkpt>
      <trkpt lat="44.16545" lon="2.02476">
        <ele>269</ele>
        <time>2017-12-06T14:27:46Z</time>
      </trkpt>
      <trkpt lat="44.16542" lon="2.02478">
        <ele>269</ele>
        <time>2017-12-06T14:27:48Z</time>
      </trkpt>
      <trkpt lat="44.16541" lon="2.02478">
        <ele>269</ele>
        <time>2017-12-06T14:27:50Z</time>
      </trkpt>
      <trkpt lat="44.16538" lon="2.02479">
        <ele>269</ele>
        <time>2017-12-06T14:27:52Z</time>
      </trkpt>
      <trkpt lat="44.16534" lon="2.0248">
        <ele>269</ele>
        <time>2017-12-06T14:27:54Z</time>
      </trkpt>
      <trkpt lat="44.1653" lon="2.02481">
        <ele>268</ele>
        <time>2017-12-06T14:27:56Z</time>
      </trkpt>
      <trkpt lat="44.16526" lon="2.02481">
        <ele>268</ele>
        <time>2017-12-06T14:27:58Z</time>
      </trkpt>
      <trkpt lat="44.16524" lon="2.02482">
        <ele>268</ele>
        <time>2017-12-06T14:28:00Z</time>
      </trkpt>
      <trkpt lat="44.16521" lon="2.02482">
        <ele>268</ele>
        <time>2017-12-06T14:28:02Z</time>
      </trkpt>
      <trkpt lat="44.1652" lon="2.0248">
        <ele>267</ele>
        <time>2017-12-06T14:28:04Z</time>
      </trkpt>
      <trkpt lat="44.16518" lon="2.0248">
        <ele>267</ele>
        <time>2017-12-06T14:28:06Z</time>
      </trkpt>
      <trkpt lat="44.16516" lon="2.0248">
        <ele>267</ele>
        <time>2017-12-06T14:28:08Z</time>
      </trkpt>
      <trkpt lat="44.16514" lon="2.0248">
        <ele>267</ele>
        <time>2017-12-06T14:28:10Z</time>
      </trkpt>
      <trkpt lat="44.16512" lon="2.02478">
        <ele>268</ele>
        <time>2017-12-06T14:28:12Z</time>
      </trkpt>
      <trkpt lat="44.16509" lon="2.02477">
        <ele>268</ele>
        <time>2017-12-06T14:28:14Z</time>
      </trkpt>
      <trkpt lat="44.16507" lon="2.02478">
        <ele>268</ele>
        <time>2017-12-06T14:28:16Z</time>
      </trkpt>
      <trkpt lat="44.16504" lon="2.02477">
        <ele>268</ele>
        <time>2017-12-06T14:28:18Z</time>
      </trkpt>
      <trkpt lat="44.16501" lon="2.02477">
        <ele>269</ele>
        <time>2017-12-06T14:28:20Z</time>
      </trkpt>
      <trkpt lat="44.16498" lon="2.02477">
        <ele>269</ele>
        <time>2017-12-06T14:28:22Z</time>
      </trkpt>
      <trkpt lat="44.16495" lon="2.02475">
        <ele>270</ele>
        <time>2017-12-06T14:28:24Z</time>
      </trkpt>
      <trkpt lat="44.16492" lon="2.02474">
        <ele>270</ele>
        <time>2017-12-06T14:28:26Z</time>
      </trkpt>
      <trkpt lat="44.16489" lon="2.02474">
        <ele>271</ele>
        <time>2017-12-06T14:28:28Z</time>
      </trkpt>
      <trkpt lat="44.16486" lon="2.02474">
        <ele>272</ele>
        <time>2017-12-06T14:28:30Z</time>
      </trkpt>
      <trkpt lat="44.16483" lon="2.02475">
        <ele>272</ele>
        <time>2017-12-06T14:28:32Z</time>
      </trkpt>
      <trkpt lat="44.1648" lon="2.02476">
        <ele>272</ele>
        <time>2017-12-06T14:28:34Z</time>
      </trkpt>
      <trkpt lat="44.16477" lon="2.02476">
        <ele>271</ele>
        <time>2017-12-06T14:28:36Z</time>
      </trkpt>
      <trkpt lat="44.16475" lon="2.02476">
        <ele>271</ele>
        <time>2017-12-06T14:28:38Z</time>
      </trkpt>
      <trkpt lat="44.16472" lon="2.02476">
        <ele>272</ele>
        <time>2017-12-06T14:28:40Z</time>
      </trkpt>
      <trkpt lat="44.16469" lon="2.02475">
        <ele>271</ele>
        <time>2017-12-06T14:28:42Z</time>
      </trkpt>
      <trkpt lat="44.16467" lon="2.02474">
        <ele>270</ele>
        <time>2017-12-06T14:28:44Z</time>
      </trkpt>
      <trkpt lat="44.16464" lon="2.02473">
        <ele>270</ele>
        <time>2017-12-06T14:28:46Z</time>
      </trkpt>
      <trkpt lat="44.16461" lon="2.02472">
        <ele>269</ele>
        <time>2017-12-06T14:28:48Z</time>
      </trkpt>
      <trkpt lat="44.16459" lon="2.02471">
        <ele>269</ele>
        <time>2017-12-06T14:28:50Z</time>
      </trkpt>
      <trkpt lat="44.16456" lon="2.02471">
        <ele>269</ele>
        <time>2017-12-06T14:28:52Z</time>
      </trkpt>
      <trkpt lat="44.16453" lon="2.02471">
        <ele>268</ele>
        <time>2017-12-06T14:28:54Z</time>
      </trkpt>
      <trkpt lat="44.16451" lon="2.02469">
        <ele>267</ele>
        <time>2017-12-06T14:28:56Z</time>
      </trkpt>
      <trkpt lat="44.16449" lon="2.02467">
        <ele>267</ele>
        <time>2017-12-06T14:28:58Z</time>
      </trkpt>
      <trkpt lat="44.16447" lon="2.02467">
        <ele>266</ele>
        <time>2017-12-06T14:29:00Z</time>
      </trkpt>
      <trkpt lat="44.16447" lon="2.02467">
        <ele>265</ele>
        <time>2017-12-06T14:29:02Z</time>
      </trkpt>
      <trkpt lat="44.16442" lon="2.02464">
        <ele>264</ele>
        <time>2017-12-06T14:29:04Z</time>
      </trkpt>
      <trkpt lat="44.16439" lon="2.02463">
        <ele>263</ele>
        <time>2017-12-06T14:29:06Z</time>
      </trkpt>
      <trkpt lat="44.16437" lon="2.02462">
        <ele>263</ele>
        <time>2017-12-06T14:29:08Z</time>
      </trkpt>
      <trkpt lat="44.16435" lon="2.0246">
        <ele>262</ele>
        <time>2017-12-06T14:29:10Z</time>
      </trkpt>
      <trkpt lat="44.16432" lon="2.02458">
        <ele>261</ele>
        <time>2017-12-06T14:29:12Z</time>
      </trkpt>
      <trkpt lat="44.16429" lon="2.02457">
        <ele>261</ele>
        <time>2017-12-06T14:29:14Z</time>
      </trkpt>
      <trkpt lat="44.16426" lon="2.02457">
        <ele>260</ele>
        <time>2017-12-06T14:29:16Z</time>
      </trkpt>
      <trkpt lat="44.16423" lon="2.02456">
        <ele>259</ele>
        <time>2017-12-06T14:29:18Z</time>
      </trkpt>
      <trkpt lat="44.16418" lon="2.02455">
        <ele>258</ele>
        <time>2017-12-06T14:29:20Z</time>
      </trkpt>
      <trkpt lat="44.16417" lon="2.02452">
        <ele>257</ele>
        <time>2017-12-06T14:29:22Z</time>
      </trkpt>
      <trkpt lat="44.16413" lon="2.0245">
        <ele>256</ele>
        <time>2017-12-06T14:29:24Z</time>
      </trkpt>
      <trkpt lat="44.1641" lon="2.02448">
        <ele>256</ele>
        <time>2017-12-06T14:29:26Z</time>
      </trkpt>
      <trkpt lat="44.16408" lon="2.02448">
        <ele>255</ele>
        <time>2017-12-06T14:29:28Z</time>
      </trkpt>
      <trkpt lat="44.16407" lon="2.02445">
        <ele>255</ele>
        <time>2017-12-06T14:29:30Z</time>
      </trkpt>
      <trkpt lat="44.16404" lon="2.02444">
        <ele>256</ele>
        <time>2017-12-06T14:29:32Z</time>
      </trkpt>
      <trkpt lat="44.16402" lon="2.02442">
        <ele>256</ele>
        <time>2017-12-06T14:29:34Z</time>
      </trkpt>
      <trkpt lat="44.16399" lon="2.0244">
        <ele>256</ele>
        <time>2017-12-06T14:29:36Z</time>
      </trkpt>
      <trkpt lat="44.16397" lon="2.02439">
        <ele>256</ele>
        <time>2017-12-06T14:29:38Z</time>
      </trkpt>
      <trkpt lat="44.16397" lon="2.02439">
        <ele>257</ele>
        <time>2017-12-06T14:29:40Z</time>
      </trkpt>
      <trkpt lat="44.16393" lon="2.02435">
        <ele>257</ele>
        <time>2017-12-06T14:29:42Z</time>
      </trkpt>
      <trkpt lat="44.16391" lon="2.02431">
        <ele>257</ele>
        <time>2017-12-06T14:29:44Z</time>
      </trkpt>
      <trkpt lat="44.16388" lon="2.0243">
        <ele>258</ele>
        <time>2017-12-06T14:29:46Z</time>
      </trkpt>
      <trkpt lat="44.16385" lon="2.02429">
        <ele>258</ele>
        <time>2017-12-06T14:29:48Z</time>
      </trkpt>
      <trkpt lat="44.16382" lon="2.02427">
        <ele>258</ele>
        <time>2017-12-06T14:29:50Z</time>
      </trkpt>
      <trkpt lat="44.1638" lon="2.02425">
        <ele>259</ele>
        <time>2017-12-06T14:29:52Z</time>
      </trkpt>
      <trkpt lat="44.16377" lon="2.02422">
        <ele>259</ele>
        <time>2017-12-06T14:29:54Z</time>
      </trkpt>
      <trkpt lat="44.16374" lon="2.0242">
        <ele>259</ele>
        <time>2017-12-06T14:29:56Z</time>
      </trkpt>
      <trkpt lat="44.16371" lon="2.02418">
        <ele>259</ele>
        <time>2017-12-06T14:29:58Z</time>
      </trkpt>
      <trkpt lat="44.16369" lon="2.02416">
        <ele>259</ele>
        <time>2017-12-06T14:30:00Z</time>
      </trkpt>
      <trkpt lat="44.16367" lon="2.02414">
        <ele>259</ele>
        <time>2017-12-06T14:30:02Z</time>
      </trkpt>
      <trkpt lat="44.16365" lon="2.02412">
        <ele>259</ele>
        <time>2017-12-06T14:30:04Z</time>
      </trkpt>
      <trkpt lat="44.16362" lon="2.0241">
        <ele>259</ele>
        <time>2017-12-06T14:30:06Z</time>
      </trkpt>
      <trkpt lat="44.16359" lon="2.02409">
        <ele>259</ele>
        <time>2017-12-06T14:30:08Z</time>
      </trkpt>
      <trkpt lat="44.16358" lon="2.02407">
        <ele>258</ele>
        <time>2017-12-06T14:30:10Z</time>
      </trkpt>
      <trkpt lat="44.16355" lon="2.02405">
        <ele>258</ele>
        <time>2017-12-06T14:30:12Z</time>
      </trkpt>
      <trkpt lat="44.16353" lon="2.02403">
        <ele>257</ele>
        <time>2017-12-06T14:30:14Z</time>
      </trkpt>
      <trkpt lat="44.16351" lon="2.024">
        <ele>256</ele>
        <time>2017-12-06T14:30:16Z</time>
      </trkpt>
      <trkpt lat="44.16348" lon="2.02398">
        <ele>255</ele>
        <time>2017-12-06T14:30:18Z</time>
      </trkpt>
      <trkpt lat="44.16346" lon="2.02396">
        <ele>254</ele>
        <time>2017-12-06T14:30:20Z</time>
      </trkpt>
      <trkpt lat="44.16346" lon="2.02392">
        <ele>253</ele>
        <time>2017-12-06T14:30:22Z</time>
      </trkpt>
      <trkpt lat="44.16345" lon="2.02389">
        <ele>252</ele>
        <time>2017-12-06T14:30:24Z</time>
      </trkpt>
      <trkpt lat="44.16344" lon="2.02385">
        <ele>252</ele>
        <time>2017-12-06T14:30:26Z</time>
      </trkpt>
      <trkpt lat="44.16343" lon="2.02382">
        <ele>252</ele>
        <time>2017-12-06T14:30:28Z</time>
      </trkpt>
      <trkpt lat="44.16341" lon="2.0238">
        <ele>252</ele>
        <time>2017-12-06T14:30:30Z</time>
      </trkpt>
      <trkpt lat="44.16339" lon="2.02377">
        <ele>252</ele>
        <time>2017-12-06T14:30:32Z</time>
      </trkpt>
      <trkpt lat="44.16338" lon="2.02374">
        <ele>252</ele>
        <time>2017-12-06T14:30:34Z</time>
      </trkpt>
      <trkpt lat="44.16336" lon="2.02369">
        <ele>253</ele>
        <time>2017-12-06T14:30:36Z</time>
      </trkpt>
      <trkpt lat="44.16334" lon="2.02365">
        <ele>254</ele>
        <time>2017-12-06T14:30:38Z</time>
      </trkpt>
      <trkpt lat="44.16332" lon="2.02362">
        <ele>255</ele>
        <time>2017-12-06T14:30:40Z</time>
      </trkpt>
      <trkpt lat="44.16331" lon="2.02358">
        <ele>255</ele>
        <time>2017-12-06T14:30:42Z</time>
      </trkpt>
      <trkpt lat="44.16329" lon="2.02355">
        <ele>256</ele>
        <time>2017-12-06T14:30:44Z</time>
      </trkpt>
      <trkpt lat="44.16328" lon="2.02352">
        <ele>258</ele>
        <time>2017-12-06T14:30:46Z</time>
      </trkpt>
      <trkpt lat="44.16327" lon="2.02348">
        <ele>259</ele>
        <time>2017-12-06T14:30:48Z</time>
      </trkpt>
      <trkpt lat="44.16325" lon="2.02345">
        <ele>260</ele>
        <time>2017-12-06T14:30:50Z</time>
      </trkpt>
      <trkpt lat="44.16323" lon="2.02342">
        <ele>260</ele>
        <time>2017-12-06T14:30:52Z</time>
      </trkpt>
      <trkpt lat="44.16322" lon="2.02339">
        <ele>260</ele>
        <time>2017-12-06T14:30:54Z</time>
      </trkpt>
      <trkpt lat="44.1632" lon="2.02336">
        <ele>260</ele>
        <time>2017-12-06T14:30:56Z</time>
      </trkpt>
      <trkpt lat="44.16318" lon="2.02333">
        <ele>261</ele>
        <time>2017-12-06T14:30:58Z</time>
      </trkpt>
      <trkpt lat="44.16317" lon="2.0233">
        <ele>261</ele>
        <time>2017-12-06T14:31:00Z</time>
      </trkpt>
      <trkpt lat="44.16315" lon="2.02328">
        <ele>262</ele>
        <time>2017-12-06T14:31:02Z</time>
      </trkpt>
      <trkpt lat="44.16313" lon="2.02325">
        <ele>262</ele>
        <time>2017-12-06T14:31:04Z</time>
      </trkpt>
      <trkpt lat="44.16312" lon="2.02322">
        <ele>263</ele>
        <time>2017-12-06T14:31:06Z</time>
      </trkpt>
      <trkpt lat="44.1631" lon="2.02319">
        <ele>264</ele>
        <time>2017-12-06T14:31:08Z</time>
      </trkpt>
      <trkpt lat="44.16309" lon="2.02316">
        <ele>264</ele>
        <time>2017-12-06T14:31:10Z</time>
      </trkpt>
      <trkpt lat="44.16307" lon="2.02313">
        <ele>264</ele>
        <time>2017-12-06T14:31:12Z</time>
      </trkpt>
      <trkpt lat="44.16306" lon="2.0231">
        <ele>263</ele>
        <time>2017-12-06T14:31:14Z</time>
      </trkpt>
      <trkpt lat="44.16304" lon="2.02306">
        <ele>263</ele>
        <time>2017-12-06T14:31:16Z</time>
      </trkpt>
      <trkpt lat="44.16302" lon="2.02305">
        <ele>262</ele>
        <time>2017-12-06T14:31:18Z</time>
      </trkpt>
      <trkpt lat="44.163" lon="2.02303">
        <ele>261</ele>
        <time>2017-12-06T14:31:20Z</time>
      </trkpt>
      <trkpt lat="44.16298" lon="2.023">
        <ele>260</ele>
        <time>2017-12-06T14:31:22Z</time>
      </trkpt>
      <trkpt lat="44.16296" lon="2.02298">
        <ele>260</ele>
        <time>2017-12-06T14:31:24Z</time>
      </trkpt>
      <trkpt lat="44.16294" lon="2.02294">
        <ele>260</ele>
        <time>2017-12-06T14:31:26Z</time>
      </trkpt>
      <trkpt lat="44.16293" lon="2.0229">
        <ele>259</ele>
        <time>2017-12-06T14:31:28Z</time>
      </trkpt>
      <trkpt lat="44.16291" lon="2.02287">
        <ele>260</ele>
        <time>2017-12-06T14:31:30Z</time>
      </trkpt>
      <trkpt lat="44.16289" lon="2.02283">
        <ele>260</ele>
        <time>2017-12-06T14:31:32Z</time>
      </trkpt>
      <trkpt lat="44.16288" lon="2.0228">
        <ele>261</ele>
        <time>2017-12-06T14:31:34Z</time>
      </trkpt>
      <trkpt lat="44.16286" lon="2.02278">
        <ele>262</ele>
        <time>2017-12-06T14:31:36Z</time>
      </trkpt>
      <trkpt lat="44.16285" lon="2.02275">
        <ele>262</ele>
        <time>2017-12-06T14:31:38Z</time>
      </trkpt>
      <trkpt lat="44.16283" lon="2.02273">
        <ele>262</ele>
        <time>2017-12-06T14:31:40Z</time>
      </trkpt>
      <trkpt lat="44.16281" lon="2.0227">
        <ele>262</ele>
        <time>2017-12-06T14:31:42Z</time>
      </trkpt>
      <trkpt lat="44.16279" lon="2.02267">
        <ele>262</ele>
        <time>2017-12-06T14:31:44Z</time>
      </trkpt>
      <trkpt lat="44.16277" lon="2.02263">
        <ele>263</ele>
        <time>2017-12-06T14:31:46Z</time>
      </trkpt>
      <trkpt lat="44.16275" lon="2.02261">
        <ele>262</ele>
        <time>2017-12-06T14:31:48Z</time>
      </trkpt>
      <trkpt lat="44.16274" lon="2.02258">
        <ele>262</ele>
        <time>2017-12-06T14:31:50Z</time>
      </trkpt>
      <trkpt lat="44.16273" lon="2.02255">
        <ele>262</ele>
        <time>2017-12-06T14:31:52Z</time>
      </trkpt>
      <trkpt lat="44.16271" lon="2.02252">
        <ele>262</ele>
        <time>2017-12-06T14:31:54Z</time>
      </trkpt>
      <trkpt lat="44.16269" lon="2.02249">
        <ele>262</ele>
        <time>2017-12-06T14:31:56Z</time>
      </trkpt>
      <trkpt lat="44.16267" lon="2.02247">
        <ele>261</ele>
        <time>2017-12-06T14:31:58Z</time>
      </trkpt>
      <trkpt lat="44.16266" lon="2.02243">
        <ele>261</ele>
        <time>2017-12-06T14:32:00Z</time>
      </trkpt>
      <trkpt lat="44.16264" lon="2.02239">
        <ele>260</ele>
        <time>2017-12-06T14:32:02Z</time>
      </trkpt>
      <trkpt lat="44.16263" lon="2.02236">
        <ele>259</ele>
        <time>2017-12-06T14:32:04Z</time>
      </trkpt>
      <trkpt lat="44.16261" lon="2.02234">
        <ele>258</ele>
        <time>2017-12-06T14:32:06Z</time>
      </trkpt>
      <trkpt lat="44.1626" lon="2.02232">
        <ele>257</ele>
        <time>2017-12-06T14:32:08Z</time>
      </trkpt>
      <trkpt lat="44.16258" lon="2.0223">
        <ele>255</ele>
        <time>2017-12-06T14:32:10Z</time>
      </trkpt>
      <trkpt lat="44.16256" lon="2.02228">
        <ele>254</ele>
        <time>2017-12-06T14:32:12Z</time>
      </trkpt>
      <trkpt lat="44.16254" lon="2.02226">
        <ele>253</ele>
        <time>2017-12-06T14:32:14Z</time>
      </trkpt>
      <trkpt lat="44.16252" lon="2.02224">
        <ele>252</ele>
        <time>2017-12-06T14:32:16Z</time>
      </trkpt>
      <trkpt lat="44.1625" lon="2.02222">
        <ele>251</ele>
        <time>2017-12-06T14:32:18Z</time>
      </trkpt>
      <trkpt lat="44.16248" lon="2.02219">
        <ele>250</ele>
        <time>2017-12-06T14:32:20Z</time>
      </trkpt>
      <trkpt lat="44.16246" lon="2.02216">
        <ele>250</ele>
        <time>2017-12-06T14:32:22Z</time>
      </trkpt>
      <trkpt lat="44.16244" lon="2.02214">
        <ele>250</ele>
        <time>2017-12-06T14:32:24Z</time>
      </trkpt>
      <trkpt lat="44.16241" lon="2.02212">
        <ele>249</ele>
        <time>2017-12-06T14:32:26Z</time>
      </trkpt>
      <trkpt lat="44.16239" lon="2.02209">
        <ele>250</ele>
        <time>2017-12-06T14:32:28Z</time>
      </trkpt>
      <trkpt lat="44.16237" lon="2.02207">
        <ele>250</ele>
        <time>2017-12-06T14:32:30Z</time>
      </trkpt>
      <trkpt lat="44.16235" lon="2.02204">
        <ele>250</ele>
        <time>2017-12-06T14:32:32Z</time>
      </trkpt>
      <trkpt lat="44.16233" lon="2.02202">
        <ele>250</ele>
        <time>2017-12-06T14:32:34Z</time>
      </trkpt>
      <trkpt lat="44.16231" lon="2.02199">
        <ele>251</ele>
        <time>2017-12-06T14:32:36Z</time>
      </trkpt>
      <trkpt lat="44.16229" lon="2.02197">
        <ele>251</ele>
        <time>2017-12-06T14:32:38Z</time>
      </trkpt>
      <trkpt lat="44.16228" lon="2.02195">
        <ele>251</ele>
        <time>2017-12-06T14:32:40Z</time>
      </trkpt>
      <trkpt lat="44.16225" lon="2.02192">
        <ele>251</ele>
        <time>2017-12-06T14:32:42Z</time>
      </trkpt>
      <trkpt lat="44.16223" lon="2.02189">
        <ele>251</ele>
        <time>2017-12-06T14:32:44Z</time>
      </trkpt>
      <trkpt lat="44.16221" lon="2.02187">
        <ele>251</ele>
        <time>2017-12-06T14:32:46Z</time>
      </trkpt>
      <trkpt lat="44.16218" lon="2.02184">
        <ele>251</ele>
        <time>2017-12-06T14:32:48Z</time>
      </trkpt>
      <trkpt lat="44.16216" lon="2.02182">
        <ele>252</ele>
        <time>2017-12-06T14:32:50Z</time>
      </trkpt>
      <trkpt lat="44.16213" lon="2.02179">
        <ele>252</ele>
        <time>2017-12-06T14:32:52Z</time>
      </trkpt>
      <trkpt lat="44.16211" lon="2.02176">
        <ele>253</ele>
        <time>2017-12-06T14:32:54Z</time>
      </trkpt>
      <trkpt lat="44.16209" lon="2.02174">
        <ele>253</ele>
        <time>2017-12-06T14:32:56Z</time>
      </trkpt>
      <trkpt lat="44.16208" lon="2.02172">
        <ele>254</ele>
        <time>2017-12-06T14:32:58Z</time>
      </trkpt>
      <trkpt lat="44.16206" lon="2.0217">
        <ele>254</ele>
        <time>2017-12-06T14:33:00Z</time>
      </trkpt>
      <trkpt lat="44.16204" lon="2.02168">
        <ele>255</ele>
        <time>2017-12-06T14:33:02Z</time>
      </trkpt>
      <trkpt lat="44.16201" lon="2.02166">
        <ele>255</ele>
        <time>2017-12-06T14:33:04Z</time>
      </trkpt>
      <trkpt lat="44.16199" lon="2.02164">
        <ele>255</ele>
        <time>2017-12-06T14:33:06Z</time>
      </trkpt>
      <trkpt lat="44.16196" lon="2.02163">
        <ele>255</ele>
        <time>2017-12-06T14:33:08Z</time>
      </trkpt>
      <trkpt lat="44.16194" lon="2.02161">
        <ele>255</ele>
        <time>2017-12-06T14:33:10Z</time>
      </trkpt>
      <trkpt lat="44.16192" lon="2.02159">
        <ele>255</ele>
        <time>2017-12-06T14:33:12Z</time>
      </trkpt>
      <trkpt lat="44.1619" lon="2.02157">
        <ele>255</ele>
        <time>2017-12-06T14:33:14Z</time>
      </trkpt>
      <trkpt lat="44.16188" lon="2.02155">
        <ele>254</ele>
        <time>2017-12-06T14:33:16Z</time>
      </trkpt>
      <trkpt lat="44.16185" lon="2.02153">
        <ele>254</ele>
        <time>2017-12-06T14:33:18Z</time>
      </trkpt>
      <trkpt lat="44.16183" lon="2.02151">
        <ele>254</ele>
        <time>2017-12-06T14:33:20Z</time>
      </trkpt>
      <trkpt lat="44.1618" lon="2.0215">
        <ele>254</ele>
        <time>2017-12-06T14:33:22Z</time>
      </trkpt>
      <trkpt lat="44.16178" lon="2.02148">
        <ele>254</ele>
        <time>2017-12-06T14:33:24Z</time>
      </trkpt>
      <trkpt lat="44.16176" lon="2.02146">
        <ele>254</ele>
        <time>2017-12-06T14:33:26Z</time>
      </trkpt>
      <trkpt lat="44.16173" lon="2.02144">
        <ele>254</ele>
        <time>2017-12-06T14:33:28Z</time>
      </trkpt>
      <trkpt lat="44.1617" lon="2.02142">
        <ele>254</ele>
        <time>2017-12-06T14:33:30Z</time>
      </trkpt>
      <trkpt lat="44.16168" lon="2.02141">
        <ele>254</ele>
        <time>2017-12-06T14:33:32Z</time>
      </trkpt>
      <trkpt lat="44.16165" lon="2.02139">
        <ele>254</ele>
        <time>2017-12-06T14:33:34Z</time>
      </trkpt>
      <trkpt lat="44.16163" lon="2.02137">
        <ele>254</ele>
        <time>2017-12-06T14:33:36Z</time>
      </trkpt>
      <trkpt lat="44.1616" lon="2.02136">
        <ele>254</ele>
        <time>2017-12-06T14:33:38Z</time>
      </trkpt>
      <trkpt lat="44.16157" lon="2.02134">
        <ele>254</ele>
        <time>2017-12-06T14:33:40Z</time>
      </trkpt>
      <trkpt lat="44.16155" lon="2.02132">
        <ele>254</ele>
        <time>2017-12-06T14:33:42Z</time>
      </trkpt>
      <trkpt lat="44.16152" lon="2.0213">
        <ele>254</ele>
        <time>2017-12-06T14:33:44Z</time>
      </trkpt>
      <trkpt lat="44.16149" lon="2.02128">
        <ele>254</ele>
        <time>2017-12-06T14:33:46Z</time>
      </trkpt>
      <trkpt lat="44.16146" lon="2.02127">
        <ele>254</ele>
        <time>2017-12-06T14:33:48Z</time>
      </trkpt>
      <trkpt lat="44.16144" lon="2.02126">
        <ele>255</ele>
        <time>2017-12-06T14:33:50Z</time>
      </trkpt>
      <trkpt lat="44.16142" lon="2.02126">
        <ele>255</ele>
        <time>2017-12-06T14:33:52Z</time>
      </trkpt>
      <trkpt lat="44.16139" lon="2.02126">
        <ele>256</ele>
        <time>2017-12-06T14:33:54Z</time>
      </trkpt>
      <trkpt lat="44.16137" lon="2.02125">
        <ele>256</ele>
        <time>2017-12-06T14:33:56Z</time>
      </trkpt>
      <trkpt lat="44.16135" lon="2.02125">
        <ele>256</ele>
        <time>2017-12-06T14:33:58Z</time>
      </trkpt>
      <trkpt lat="44.16133" lon="2.02125">
        <ele>256</ele>
        <time>2017-12-06T14:34:00Z</time>
      </trkpt>
      <trkpt lat="44.1613" lon="2.02125">
        <ele>255</ele>
        <time>2017-12-06T14:34:02Z</time>
      </trkpt>
      <trkpt lat="44.16128" lon="2.02125">
        <ele>254</ele>
        <time>2017-12-06T14:34:04Z</time>
      </trkpt>
      <trkpt lat="44.16126" lon="2.02124">
        <ele>254</ele>
        <time>2017-12-06T14:34:06Z</time>
      </trkpt>
      <trkpt lat="44.16123" lon="2.02124">
        <ele>253</ele>
        <time>2017-12-06T14:34:08Z</time>
      </trkpt>
      <trkpt lat="44.1612" lon="2.02123">
        <ele>252</ele>
        <time>2017-12-06T14:34:10Z</time>
      </trkpt>
      <trkpt lat="44.16118" lon="2.02123">
        <ele>252</ele>
        <time>2017-12-06T14:34:12Z</time>
      </trkpt>
      <trkpt lat="44.16115" lon="2.02123">
        <ele>251</ele>
        <time>2017-12-06T14:34:14Z</time>
      </trkpt>
      <trkpt lat="44.16113" lon="2.02122">
        <ele>250</ele>
        <time>2017-12-06T14:34:16Z</time>
      </trkpt>
      <trkpt lat="44.16111" lon="2.02122">
        <ele>250</ele>
        <time>2017-12-06T14:34:18Z</time>
      </trkpt>
      <trkpt lat="44.16109" lon="2.02121">
        <ele>250</ele>
        <time>2017-12-06T14:34:20Z</time>
      </trkpt>
      <trkpt lat="44.16105" lon="2.02122">
        <ele>250</ele>
        <time>2017-12-06T14:34:22Z</time>
      </trkpt>
      <trkpt lat="44.16103" lon="2.02121">
        <ele>250</ele>
        <time>2017-12-06T14:34:24Z</time>
      </trkpt>
      <trkpt lat="44.161" lon="2.02121">
        <ele>250</ele>
        <time>2017-12-06T14:34:26Z</time>
      </trkpt>
      <trkpt lat="44.16098" lon="2.0212">
        <ele>251</ele>
        <time>2017-12-06T14:34:28Z</time>
      </trkpt>
      <trkpt lat="44.16095" lon="2.0212">
        <ele>251</ele>
        <time>2017-12-06T14:34:30Z</time>
      </trkpt>
      <trkpt lat="44.16092" lon="2.0212">
        <ele>251</ele>
        <time>2017-12-06T14:34:32Z</time>
      </trkpt>
      <trkpt lat="44.16089" lon="2.0212">
        <ele>251</ele>
        <time>2017-12-06T14:34:34Z</time>
      </trkpt>
      <trkpt lat="44.16087" lon="2.02119">
        <ele>251</ele>
        <time>2017-12-06T14:34:36Z</time>
      </trkpt>
      <trkpt lat="44.16084" lon="2.02119">
        <ele>252</ele>
        <time>2017-12-06T14:34:38Z</time>
      </trkpt>
      <trkpt lat="44.16081" lon="2.0212">
        <ele>252</ele>
        <time>2017-12-06T14:34:40Z</time>
      </trkpt>
      <trkpt lat="44.16078" lon="2.02121">
        <ele>252</ele>
        <time>2017-12-06T14:34:42Z</time>
      </trkpt>
      <trkpt lat="44.16075" lon="2.02122">
        <ele>251</ele>
        <time>2017-12-06T14:34:44Z</time>
      </trkpt>
      <trkpt lat="44.16072" lon="2.02122">
        <ele>251</ele>
        <time>2017-12-06T14:34:46Z</time>
      </trkpt>
      <trkpt lat="44.1607" lon="2.02123">
        <ele>251</ele>
        <time>2017-12-06T14:34:48Z</time>
      </trkpt>
      <trkpt lat="44.16067" lon="2.02124">
        <ele>251</ele>
        <time>2017-12-06T14:34:50Z</time>
      </trkpt>
      <trkpt lat="44.16065" lon="2.02124">
        <ele>251</ele>
        <time>2017-12-06T14:34:52Z</time>
      </trkpt>
      <trkpt lat="44.16063" lon="2.02124">
        <ele>251</ele>
        <time>2017-12-06T14:34:54Z</time>
      </trkpt>
      <trkpt lat="44.1606" lon="2.02127">
        <ele>251</ele>
        <time>2017-12-06T14:34:56Z</time>
      </trkpt>
      <trkpt lat="44.16057" lon="2.0213">
        <ele>251</ele>
        <time>2017-12-06T14:34:58Z</time>
      </trkpt>
      <trkpt lat="44.16055" lon="2.02132">
        <ele>252</ele>
        <time>2017-12-06T14:35:00Z</time>
      </trkpt>
      <trkpt lat="44.16053" lon="2.02133">
        <ele>252</ele>
        <time>2017-12-06T14:35:02Z</time>
      </trkpt>
      <trkpt lat="44.1605" lon="2.02134">
        <ele>252</ele>
        <time>2017-12-06T14:35:04Z</time>
      </trkpt>
      <trkpt lat="44.16048" lon="2.02136">
        <ele>252</ele>
        <time>2017-12-06T14:35:06Z</time>
      </trkpt>
      <trkpt lat="44.16046" lon="2.02136">
        <ele>252</ele>
        <time>2017-12-06T14:35:08Z</time>
      </trkpt>
      <trkpt lat="44.16044" lon="2.02137">
        <ele>252</ele>
        <time>2017-12-06T14:35:10Z</time>
      </trkpt>
      <trkpt lat="44.16042" lon="2.02139">
        <ele>252</ele>
        <time>2017-12-06T14:35:12Z</time>
      </trkpt>
      <trkpt lat="44.1604" lon="2.0214">
        <ele>252</ele>
        <time>2017-12-06T14:35:14Z</time>
      </trkpt>
      <trkpt lat="44.16038" lon="2.02142">
        <ele>252</ele>
        <time>2017-12-06T14:35:16Z</time>
      </trkpt>
      <trkpt lat="44.16038" lon="2.02142">
        <ele>251</ele>
        <time>2017-12-06T14:35:18Z</time>
      </trkpt>
      <trkpt lat="44.16035" lon="2.02145">
        <ele>251</ele>
        <time>2017-12-06T14:35:20Z</time>
      </trkpt>
      <trkpt lat="44.16033" lon="2.02147">
        <ele>251</ele>
        <time>2017-12-06T14:35:22Z</time>
      </trkpt>
      <trkpt lat="44.16031" lon="2.02149">
        <ele>251</ele>
        <time>2017-12-06T14:35:24Z</time>
      </trkpt>
      <trkpt lat="44.16029" lon="2.02151">
        <ele>251</ele>
        <time>2017-12-06T14:35:26Z</time>
      </trkpt>
      <trkpt lat="44.16027" lon="2.02153">
        <ele>251</ele>
        <time>2017-12-06T14:35:28Z</time>
      </trkpt>
      <trkpt lat="44.16027" lon="2.02153">
        <ele>251</ele>
        <time>2017-12-06T14:35:30Z</time>
      </trkpt>
      <trkpt lat="44.16023" lon="2.02157">
        <ele>251</ele>
        <time>2017-12-06T14:35:32Z</time>
      </trkpt>
      <trkpt lat="44.16021" lon="2.0216">
        <ele>251</ele>
        <time>2017-12-06T14:35:34Z</time>
      </trkpt>
      <trkpt lat="44.16019" lon="2.02162">
        <ele>250</ele>
        <time>2017-12-06T14:35:36Z</time>
      </trkpt>
      <trkpt lat="44.16017" lon="2.02163">
        <ele>250</ele>
        <time>2017-12-06T14:35:38Z</time>
      </trkpt>
      <trkpt lat="44.16015" lon="2.02165">
        <ele>250</ele>
        <time>2017-12-06T14:35:40Z</time>
      </trkpt>
      <trkpt lat="44.16013" lon="2.02167">
        <ele>249</ele>
        <time>2017-12-06T14:35:42Z</time>
      </trkpt>
      <trkpt lat="44.1601" lon="2.02171">
        <ele>249</ele>
        <time>2017-12-06T14:35:44Z</time>
      </trkpt>
      <trkpt lat="44.16008" lon="2.02173">
        <ele>248</ele>
        <time>2017-12-06T14:35:46Z</time>
      </trkpt>
      <trkpt lat="44.16006" lon="2.02176">
        <ele>248</ele>
        <time>2017-12-06T14:35:48Z</time>
      </trkpt>
      <trkpt lat="44.16003" lon="2.02179">
        <ele>248</ele>
        <time>2017-12-06T14:35:50Z</time>
      </trkpt>
      <trkpt lat="44.16001" lon="2.02182">
        <ele>247</ele>
        <time>2017-12-06T14:35:52Z</time>
      </trkpt>
      <trkpt lat="44.15999" lon="2.02184">
        <ele>247</ele>
        <time>2017-12-06T14:35:54Z</time>
      </trkpt>
      <trkpt lat="44.15996" lon="2.02186">
        <ele>247</ele>
        <time>2017-12-06T14:35:56Z</time>
      </trkpt>
      <trkpt lat="44.15994" lon="2.0219">
        <ele>246</ele>
        <time>2017-12-06T14:35:58Z</time>
      </trkpt>
      <trkpt lat="44.15994" lon="2.0219">
        <ele>246</ele>
        <time>2017-12-06T14:36:00Z</time>
      </trkpt>
      <trkpt lat="44.15994" lon="2.0219">
        <ele>246</ele>
        <time>2017-12-06T14:36:02Z</time>
      </trkpt>
      <trkpt lat="44.15994" lon="2.0219">
        <ele>246</ele>
        <time>2017-12-06T14:36:04Z</time>
      </trkpt>
      <trkpt lat="44.15986" lon="2.02199">
        <ele>246</ele>
        <time>2017-12-06T14:36:06Z</time>
      </trkpt>
      <trkpt lat="44.15984" lon="2.02202">
        <ele>246</ele>
        <time>2017-12-06T14:36:08Z</time>
      </trkpt>
      <trkpt lat="44.15981" lon="2.02205">
        <ele>246</ele>
        <time>2017-12-06T14:36:10Z</time>
      </trkpt>
      <trkpt lat="44.15979" lon="2.02209">
        <ele>246</ele>
        <time>2017-12-06T14:36:12Z</time>
      </trkpt>
      <trkpt lat="44.15977" lon="2.02211">
        <ele>246</ele>
        <time>2017-12-06T14:36:14Z</time>
      </trkpt>
      <trkpt lat="44.15974" lon="2.02215">
        <ele>246</ele>
        <time>2017-12-06T14:36:16Z</time>
      </trkpt>
      <trkpt lat="44.15973" lon="2.02217">
        <ele>246</ele>
        <time>2017-12-06T14:36:18Z</time>
      </trkpt>
      <trkpt lat="44.1597" lon="2.0222">
        <ele>245</ele>
        <time>2017-12-06T14:36:20Z</time>
      </trkpt>
      <trkpt lat="44.15968" lon="2.02223">
        <ele>245</ele>
        <time>2017-12-06T14:36:22Z</time>
      </trkpt>
      <trkpt lat="44.15967" lon="2.02225">
        <ele>245</ele>
        <time>2017-12-06T14:36:24Z</time>
      </trkpt>
      <trkpt lat="44.15965" lon="2.02228">
        <ele>245</ele>
        <time>2017-12-06T14:36:26Z</time>
      </trkpt>
      <trkpt lat="44.15963" lon="2.02231">
        <ele>244</ele>
        <time>2017-12-06T14:36:28Z</time>
      </trkpt>
      <trkpt lat="44.15961" lon="2.02233">
        <ele>244</ele>
        <time>2017-12-06T14:36:30Z</time>
      </trkpt>
      <trkpt lat="44.15958" lon="2.02236">
        <ele>244</ele>
        <time>2017-12-06T14:36:32Z</time>
      </trkpt>
      <trkpt lat="44.15955" lon="2.02239">
        <ele>244</ele>
        <time>2017-12-06T14:36:34Z</time>
      </trkpt>
      <trkpt lat="44.15953" lon="2.02242">
        <ele>244</ele>
        <time>2017-12-06T14:36:36Z</time>
      </trkpt>
      <trkpt lat="44.15951" lon="2.02245">
        <ele>244</ele>
        <time>2017-12-06T14:36:38Z</time>
      </trkpt>
      <trkpt lat="44.15949" lon="2.02248">
        <ele>244</ele>
        <time>2017-12-06T14:36:40Z</time>
      </trkpt>
      <trkpt lat="44.15947" lon="2.02251">
        <ele>244</ele>
        <time>2017-12-06T14:36:42Z</time>
      </trkpt>
      <trkpt lat="44.15945" lon="2.02255">
        <ele>243</ele>
        <time>2017-12-06T14:36:44Z</time>
      </trkpt>
      <trkpt lat="44.15945" lon="2.02255">
        <ele>243</ele>
        <time>2017-12-06T14:36:46Z</time>
      </trkpt>
      <trkpt lat="44.15941" lon="2.0226">
        <ele>243</ele>
        <time>2017-12-06T14:36:48Z</time>
      </trkpt>
      <trkpt lat="44.15939" lon="2.02264">
        <ele>243</ele>
        <time>2017-12-06T14:36:50Z</time>
      </trkpt>
      <trkpt lat="44.15937" lon="2.02267">
        <ele>243</ele>
        <time>2017-12-06T14:36:52Z</time>
      </trkpt>
      <trkpt lat="44.15936" lon="2.0227">
        <ele>243</ele>
        <time>2017-12-06T14:36:54Z</time>
      </trkpt>
      <trkpt lat="44.15933" lon="2.02274">
        <ele>243</ele>
        <time>2017-12-06T14:36:56Z</time>
      </trkpt>
      <trkpt lat="44.15931" lon="2.02277">
        <ele>243</ele>
        <time>2017-12-06T14:36:58Z</time>
      </trkpt>
      <trkpt lat="44.1593" lon="2.0228">
        <ele>243</ele>
        <time>2017-12-06T14:37:00Z</time>
      </trkpt>
      <trkpt lat="44.1593" lon="2.0228">
        <ele>243</ele>
        <time>2017-12-06T14:37:02Z</time>
      </trkpt>
      <trkpt lat="44.15927" lon="2.02287">
        <ele>243</ele>
        <time>2017-12-06T14:37:04Z</time>
      </trkpt>
      <trkpt lat="44.15927" lon="2.02287">
        <ele>243</ele>
        <time>2017-12-06T14:37:06Z</time>
      </trkpt>
      <trkpt lat="44.15923" lon="2.02293">
        <ele>243</ele>
        <time>2017-12-06T14:37:08Z</time>
      </trkpt>
      <trkpt lat="44.15923" lon="2.02293">
        <ele>243</ele>
        <time>2017-12-06T14:37:10Z</time>
      </trkpt>
      <trkpt lat="44.15919" lon="2.02299">
        <ele>243</ele>
        <time>2017-12-06T14:37:12Z</time>
      </trkpt>
      <trkpt lat="44.15917" lon="2.02301">
        <ele>242</ele>
        <time>2017-12-06T14:37:14Z</time>
      </trkpt>
      <trkpt lat="44.15914" lon="2.02304">
        <ele>242</ele>
        <time>2017-12-06T14:37:16Z</time>
      </trkpt>
      <trkpt lat="44.15912" lon="2.02308">
        <ele>242</ele>
        <time>2017-12-06T14:37:18Z</time>
      </trkpt>
      <trkpt lat="44.1591" lon="2.0231">
        <ele>242</ele>
        <time>2017-12-06T14:37:20Z</time>
      </trkpt>
      <trkpt lat="44.15908" lon="2.02314">
        <ele>242</ele>
        <time>2017-12-06T14:37:22Z</time>
      </trkpt>
      <trkpt lat="44.15908" lon="2.02314">
        <ele>242</ele>
        <time>2017-12-06T14:37:24Z</time>
      </trkpt>
      <trkpt lat="44.15905" lon="2.02318">
        <ele>241</ele>
        <time>2017-12-06T14:37:26Z</time>
      </trkpt>
      <trkpt lat="44.15902" lon="2.02321">
        <ele>241</ele>
        <time>2017-12-06T14:37:28Z</time>
      </trkpt>
      <trkpt lat="44.159" lon="2.02323">
        <ele>241</ele>
        <time>2017-12-06T14:37:30Z</time>
      </trkpt>
      <trkpt lat="44.15898" lon="2.02326">
        <ele>241</ele>
        <time>2017-12-06T14:37:32Z</time>
      </trkpt>
      <trkpt lat="44.15897" lon="2.02328">
        <ele>240</ele>
        <time>2017-12-06T14:37:34Z</time>
      </trkpt>
      <trkpt lat="44.15895" lon="2.02329">
        <ele>240</ele>
        <time>2017-12-06T14:37:36Z</time>
      </trkpt>
      <trkpt lat="44.15892" lon="2.02332">
        <ele>240</ele>
        <time>2017-12-06T14:37:38Z</time>
      </trkpt>
      <trkpt lat="44.1589" lon="2.02334">
        <ele>239</ele>
        <time>2017-12-06T14:37:40Z</time>
      </trkpt>
      <trkpt lat="44.15887" lon="2.02337">
        <ele>239</ele>
        <time>2017-12-06T14:37:42Z</time>
      </trkpt>
      <trkpt lat="44.15885" lon="2.02339">
        <ele>239</ele>
        <time>2017-12-06T14:37:44Z</time>
      </trkpt>
      <trkpt lat="44.15883" lon="2.02341">
        <ele>239</ele>
        <time>2017-12-06T14:37:46Z</time>
      </trkpt>
      <trkpt lat="44.15881" lon="2.02343">
        <ele>238</ele>
        <time>2017-12-06T14:37:48Z</time>
      </trkpt>
      <trkpt lat="44.1588" lon="2.02344">
        <ele>238</ele>
        <time>2017-12-06T14:37:50Z</time>
      </trkpt>
      <trkpt lat="44.15878" lon="2.02346">
        <ele>237</ele>
        <time>2017-12-06T14:37:52Z</time>
      </trkpt>
      <trkpt lat="44.15876" lon="2.02349">
        <ele>237</ele>
        <time>2017-12-06T14:37:54Z</time>
      </trkpt>
      <trkpt lat="44.15873" lon="2.02351">
        <ele>237</ele>
        <time>2017-12-06T14:37:56Z</time>
      </trkpt>
      <trkpt lat="44.15871" lon="2.02354">
        <ele>236</ele>
        <time>2017-12-06T14:37:58Z</time>
      </trkpt>
      <trkpt lat="44.15868" lon="2.02357">
        <ele>236</ele>
        <time>2017-12-06T14:38:00Z</time>
      </trkpt>
      <trkpt lat="44.15866" lon="2.02359">
        <ele>236</ele>
        <time>2017-12-06T14:38:02Z</time>
      </trkpt>
      <trkpt lat="44.15864" lon="2.0236">
        <ele>235</ele>
        <time>2017-12-06T14:38:04Z</time>
      </trkpt>
      <trkpt lat="44.15862" lon="2.02362">
        <ele>235</ele>
        <time>2017-12-06T14:38:06Z</time>
      </trkpt>
      <trkpt lat="44.15859" lon="2.02365">
        <ele>235</ele>
        <time>2017-12-06T14:38:08Z</time>
      </trkpt>
      <trkpt lat="44.15857" lon="2.02368">
        <ele>234</ele>
        <time>2017-12-06T14:38:10Z</time>
      </trkpt>
      <trkpt lat="44.15854" lon="2.02371">
        <ele>234</ele>
        <time>2017-12-06T14:38:12Z</time>
      </trkpt>
      <trkpt lat="44.15852" lon="2.02373">
        <ele>233</ele>
        <time>2017-12-06T14:38:14Z</time>
      </trkpt>
      <trkpt lat="44.1585" lon="2.02376">
        <ele>233</ele>
        <time>2017-12-06T14:38:16Z</time>
      </trkpt>
      <trkpt lat="44.15847" lon="2.02378">
        <ele>233</ele>
        <time>2017-12-06T14:38:18Z</time>
      </trkpt>
      <trkpt lat="44.15845" lon="2.02381">
        <ele>232</ele>
        <time>2017-12-06T14:38:20Z</time>
      </trkpt>
      <trkpt lat="44.15843" lon="2.02383">
        <ele>232</ele>
        <time>2017-12-06T14:38:22Z</time>
      </trkpt>
      <trkpt lat="44.15841" lon="2.02386">
        <ele>232</ele>
        <time>2017-12-06T14:38:24Z</time>
      </trkpt>
      <trkpt lat="44.15839" lon="2.02388">
        <ele>232</ele>
        <time>2017-12-06T14:38:26Z</time>
      </trkpt>
      <trkpt lat="44.15836" lon="2.02391">
        <ele>231</ele>
        <time>2017-12-06T14:38:28Z</time>
      </trkpt>
      <trkpt lat="44.15834" lon="2.02394">
        <ele>231</ele>
        <time>2017-12-06T14:38:30Z</time>
      </trkpt>
      <trkpt lat="44.15832" lon="2.02397">
        <ele>231</ele>
        <time>2017-12-06T14:38:32Z</time>
      </trkpt>
      <trkpt lat="44.1583" lon="2.024">
        <ele>231</ele>
        <time>2017-12-06T14:38:34Z</time>
      </trkpt>
      <trkpt lat="44.15828" lon="2.02403">
        <ele>231</ele>
        <time>2017-12-06T14:38:36Z</time>
      </trkpt>
      <trkpt lat="44.15825" lon="2.02406">
        <ele>230</ele>
        <time>2017-12-06T14:38:38Z</time>
      </trkpt>
      <trkpt lat="44.15822" lon="2.0241">
        <ele>230</ele>
        <time>2017-12-06T14:38:40Z</time>
      </trkpt>
      <trkpt lat="44.15818" lon="2.02412">
        <ele>230</ele>
        <time>2017-12-06T14:38:42Z</time>
      </trkpt>
      <trkpt lat="44.15815" lon="2.02413">
        <ele>230</ele>
        <time>2017-12-06T14:38:44Z</time>
      </trkpt>
      <trkpt lat="44.15811" lon="2.02414">
        <ele>229</ele>
        <time>2017-12-06T14:38:46Z</time>
      </trkpt>
      <trkpt lat="44.15809" lon="2.02414">
        <ele>229</ele>
        <time>2017-12-06T14:38:48Z</time>
      </trkpt>
      <trkpt lat="44.15806" lon="2.02415">
        <ele>228</ele>
        <time>2017-12-06T14:38:50Z</time>
      </trkpt>
      <trkpt lat="44.15804" lon="2.02413">
        <ele>228</ele>
        <time>2017-12-06T14:38:52Z</time>
      </trkpt>
      <trkpt lat="44.15802" lon="2.02412">
        <ele>227</ele>
        <time>2017-12-06T14:38:54Z</time>
      </trkpt>
      <trkpt lat="44.15801" lon="2.0241">
        <ele>227</ele>
        <time>2017-12-06T14:38:56Z</time>
      </trkpt>
      <trkpt lat="44.158" lon="2.02408">
        <ele>226</ele>
        <time>2017-12-06T14:38:58Z</time>
      </trkpt>
      <trkpt lat="44.15799" lon="2.02405">
        <ele>226</ele>
        <time>2017-12-06T14:39:00Z</time>
      </trkpt>
      <trkpt lat="44.15798" lon="2.02402">
        <ele>226</ele>
        <time>2017-12-06T14:39:02Z</time>
      </trkpt>
      <trkpt lat="44.15799" lon="2.024">
        <ele>226</ele>
        <time>2017-12-06T14:39:04Z</time>
      </trkpt>
      <trkpt lat="44.15799" lon="2.02397">
        <ele>225</ele>
        <time>2017-12-06T14:39:06Z</time>
      </trkpt>
      <trkpt lat="44.15798" lon="2.02394">
        <ele>225</ele>
        <time>2017-12-06T14:39:08Z</time>
      </trkpt>
      <trkpt lat="44.15798" lon="2.02391">
        <ele>225</ele>
        <time>2017-12-06T14:39:10Z</time>
      </trkpt>
      <trkpt lat="44.15798" lon="2.02387">
        <ele>225</ele>
        <time>2017-12-06T14:39:12Z</time>
      </trkpt>
      <trkpt lat="44.15798" lon="2.02384">
        <ele>225</ele>
        <time>2017-12-06T14:39:14Z</time>
      </trkpt>
      <trkpt lat="44.15798" lon="2.02381">
        <ele>225</ele>
        <time>2017-12-06T14:39:16Z</time>
      </trkpt>
      <trkpt lat="44.15798" lon="2.02378">
        <ele>225</ele>
        <time>2017-12-06T14:39:18Z</time>
      </trkpt>
      <trkpt lat="44.15798" lon="2.02375">
        <ele>225</ele>
        <time>2017-12-06T14:39:20Z</time>
      </trkpt>
      <trkpt lat="44.15798" lon="2.02371">
        <ele>226</ele>
        <time>2017-12-06T14:39:22Z</time>
      </trkpt>
      <trkpt lat="44.15797" lon="2.02367">
        <ele>226</ele>
        <time>2017-12-06T14:39:24Z</time>
      </trkpt>
      <trkpt lat="44.15797" lon="2.02363">
        <ele>226</ele>
        <time>2017-12-06T14:39:26Z</time>
      </trkpt>
      <trkpt lat="44.15797" lon="2.02359">
        <ele>226</ele>
        <time>2017-12-06T14:39:28Z</time>
      </trkpt>
      <trkpt lat="44.15797" lon="2.02355">
        <ele>226</ele>
        <time>2017-12-06T14:39:30Z</time>
      </trkpt>
      <trkpt lat="44.15797" lon="2.02352">
        <ele>226</ele>
        <time>2017-12-06T14:39:32Z</time>
      </trkpt>
      <trkpt lat="44.15797" lon="2.02349">
        <ele>226</ele>
        <time>2017-12-06T14:39:34Z</time>
      </trkpt>
      <trkpt lat="44.15797" lon="2.02345">
        <ele>226</ele>
        <time>2017-12-06T14:39:36Z</time>
      </trkpt>
      <trkpt lat="44.15797" lon="2.02341">
        <ele>226</ele>
        <time>2017-12-06T14:39:38Z</time>
      </trkpt>
      <trkpt lat="44.15796" lon="2.02338">
        <ele>225</ele>
        <time>2017-12-06T14:39:40Z</time>
      </trkpt>
      <trkpt lat="44.15797" lon="2.02335">
        <ele>225</ele>
        <time>2017-12-06T14:39:42Z</time>
      </trkpt>
      <trkpt lat="44.15797" lon="2.02331">
        <ele>225</ele>
        <time>2017-12-06T14:39:44Z</time>
      </trkpt>
      <trkpt lat="44.15797" lon="2.02327">
        <ele>225</ele>
        <time>2017-12-06T14:39:46Z</time>
      </trkpt>
      <trkpt lat="44.15796" lon="2.02323">
        <ele>225</ele>
        <time>2017-12-06T14:39:48Z</time>
      </trkpt>
      <trkpt lat="44.15796" lon="2.02319">
        <ele>225</ele>
        <time>2017-12-06T14:39:50Z</time>
      </trkpt>
      <trkpt lat="44.15796" lon="2.02316">
        <ele>224</ele>
        <time>2017-12-06T14:39:52Z</time>
      </trkpt>
      <trkpt lat="44.15795" lon="2.02312">
        <ele>224</ele>
        <time>2017-12-06T14:39:54Z</time>
      </trkpt>
      <trkpt lat="44.15794" lon="2.02308">
        <ele>224</ele>
        <time>2017-12-06T14:39:56Z</time>
      </trkpt>
      <trkpt lat="44.15795" lon="2.02304">
        <ele>224</ele>
        <time>2017-12-06T14:39:58Z</time>
      </trkpt>
      <trkpt lat="44.15794" lon="2.02301">
        <ele>224</ele>
        <time>2017-12-06T14:40:00Z</time>
      </trkpt>
      <trkpt lat="44.15793" lon="2.02297">
        <ele>223</ele>
        <time>2017-12-06T14:40:02Z</time>
      </trkpt>
      <trkpt lat="44.15793" lon="2.02293">
        <ele>223</ele>
        <time>2017-12-06T14:40:04Z</time>
      </trkpt>
      <trkpt lat="44.15792" lon="2.02288">
        <ele>223</ele>
        <time>2017-12-06T14:40:06Z</time>
      </trkpt>
      <trkpt lat="44.15791" lon="2.02283">
        <ele>223</ele>
        <time>2017-12-06T14:40:08Z</time>
      </trkpt>
      <trkpt lat="44.15791" lon="2.02279">
        <ele>223</ele>
        <time>2017-12-06T14:40:10Z</time>
      </trkpt>
      <trkpt lat="44.15791" lon="2.02276">
        <ele>223</ele>
        <time>2017-12-06T14:40:12Z</time>
      </trkpt>
      <trkpt lat="44.15791" lon="2.02272">
        <ele>223</ele>
        <time>2017-12-06T14:40:14Z</time>
      </trkpt>
      <trkpt lat="44.1579" lon="2.02268">
        <ele>223</ele>
        <time>2017-12-06T14:40:16Z</time>
      </trkpt>
      <trkpt lat="44.1579" lon="2.02263">
        <ele>224</ele>
        <time>2017-12-06T14:40:18Z</time>
      </trkpt>
      <trkpt lat="44.1579" lon="2.0226">
        <ele>224</ele>
        <time>2017-12-06T14:40:20Z</time>
      </trkpt>
      <trkpt lat="44.1579" lon="2.02255">
        <ele>224</ele>
        <time>2017-12-06T14:40:22Z</time>
      </trkpt>
      <trkpt lat="44.1579" lon="2.02251">
        <ele>225</ele>
        <time>2017-12-06T14:40:24Z</time>
      </trkpt>
      <trkpt lat="44.1579" lon="2.02247">
        <ele>225</ele>
        <time>2017-12-06T14:40:26Z</time>
      </trkpt>
      <trkpt lat="44.1579" lon="2.02243">
        <ele>225</ele>
        <time>2017-12-06T14:40:28Z</time>
      </trkpt>
      <trkpt lat="44.1579" lon="2.02239">
        <ele>225</ele>
        <time>2017-12-06T14:40:30Z</time>
      </trkpt>
      <trkpt lat="44.1579" lon="2.02235">
        <ele>225</ele>
        <time>2017-12-06T14:40:32Z</time>
      </trkpt>
      <trkpt lat="44.15787" lon="2.0223">
        <ele>225</ele>
        <time>2017-12-06T14:40:34Z</time>
      </trkpt>
      <trkpt lat="44.15785" lon="2.02226">
        <ele>224</ele>
        <time>2017-12-06T14:40:36Z</time>
      </trkpt>
      <trkpt lat="44.15784" lon="2.02224">
        <ele>224</ele>
        <time>2017-12-06T14:40:38Z</time>
      </trkpt>
      <trkpt lat="44.15782" lon="2.0222">
        <ele>224</ele>
        <time>2017-12-06T14:40:40Z</time>
      </trkpt>
      <trkpt lat="44.1578" lon="2.02218">
        <ele>224</ele>
        <time>2017-12-06T14:40:42Z</time>
      </trkpt>
      <trkpt lat="44.1578" lon="2.02215">
        <ele>224</ele>
        <time>2017-12-06T14:40:44Z</time>
      </trkpt>
      <trkpt lat="44.1578" lon="2.02213">
        <ele>224</ele>
        <time>2017-12-06T14:40:46Z</time>
      </trkpt>
      <trkpt lat="44.1578" lon="2.02213">
        <ele>224</ele>
        <time>2017-12-06T14:40:48Z</time>
      </trkpt>
      <trkpt lat="44.1578" lon="2.02213">
        <ele>224</ele>
        <time>2017-12-06T14:40:50Z</time>
      </trkpt>
      <trkpt lat="44.1578" lon="2.02213">
        <ele>225</ele>
        <time>2017-12-06T14:40:52Z</time>
      </trkpt>
      <trkpt lat="44.1578" lon="2.02213">
        <ele>225</ele>
        <time>2017-12-06T14:40:54Z</time>
      </trkpt>
      <trkpt lat="44.1578" lon="2.02213">
        <ele>225</ele>
        <time>2017-12-06T14:40:56Z</time>
      </trkpt>
      <trkpt lat="44.1578" lon="2.02213">
        <ele>225</ele>
        <time>2017-12-06T14:40:58Z</time>
      </trkpt>
      <trkpt lat="44.1578" lon="2.02213">
        <ele>225</ele>
        <time>2017-12-06T14:41:00Z</time>
      </trkpt>
      <trkpt lat="44.1578" lon="2.02213">
        <ele>225</ele>
        <time>2017-12-06T14:41:02Z</time>
      </trkpt>
      <trkpt lat="44.1578" lon="2.02213">
        <ele>225</ele>
        <time>2017-12-06T14:41:04Z</time>
      </trkpt>
      <trkpt lat="44.1578" lon="2.02213">
        <ele>225</ele>
        <time>2017-12-06T14:41:06Z</time>
      </trkpt>
      <trkpt lat="44.1578" lon="2.02213">
        <ele>224</ele>
        <time>2017-12-06T14:41:08Z</time>
      </trkpt>
      <trkpt lat="44.1578" lon="2.02213">
        <ele>225</ele>
        <time>2017-12-06T14:41:10Z</time>
      </trkpt>
      <trkpt lat="44.1578" lon="2.02213">
        <ele>224</ele>
        <time>2017-12-06T14:41:12Z</time>
      </trkpt>
      <trkpt lat="44.1578" lon="2.02213">
        <ele>224</ele>
        <time>2017-12-06T14:41:14Z</time>
      </trkpt>
      <trkpt lat="44.1578" lon="2.02213">
        <ele>224</ele>
        <time>2017-12-06T14:41:16Z</time>
      </trkpt>
      <trkpt lat="44.1578" lon="2.02213">
        <ele>224</ele>
        <time>2017-12-06T14:41:18Z</time>
      </trkpt>
      <trkpt lat="44.1578" lon="2.02213">
        <ele>224</ele>
        <time>2017-12-06T14:41:20Z</time>
      </trkpt>
      <trkpt lat="44.15782" lon="2.02208">
        <ele>224</ele>
        <time>2017-12-06T14:41:22Z</time>
      </trkpt>
      <trkpt lat="44.15782" lon="2.0221">
        <ele>224</ele>
        <time>2017-12-06T14:41:24Z</time>
      </trkpt>
      <trkpt lat="44.15782" lon="2.0221">
        <ele>224</ele>
        <time>2017-12-06T14:41:26Z</time>
      </trkpt>
      <trkpt lat="44.1578" lon="2.02214">
        <ele>224</ele>
        <time>2017-12-06T14:41:28Z</time>
      </trkpt>
      <trkpt lat="44.1578" lon="2.02217">
        <ele>224</ele>
        <time>2017-12-06T14:41:30Z</time>
      </trkpt>
      <trkpt lat="44.15779" lon="2.02219">
        <ele>224</ele>
        <time>2017-12-06T14:41:32Z</time>
      </trkpt>
      <trkpt lat="44.15779" lon="2.02221">
        <ele>224</ele>
        <time>2017-12-06T14:41:34Z</time>
      </trkpt>
      <trkpt lat="44.15779" lon="2.02225">
        <ele>224</ele>
        <time>2017-12-06T14:41:36Z</time>
      </trkpt>
      <trkpt lat="44.15778" lon="2.02229">
        <ele>224</ele>
        <time>2017-12-06T14:41:38Z</time>
      </trkpt>
      <trkpt lat="44.15777" lon="2.02233">
        <ele>224</ele>
        <time>2017-12-06T14:41:40Z</time>
      </trkpt>
      <trkpt lat="44.15776" lon="2.02239">
        <ele>223</ele>
        <time>2017-12-06T14:41:42Z</time>
      </trkpt>
      <trkpt lat="44.15776" lon="2.02243">
        <ele>223</ele>
        <time>2017-12-06T14:41:44Z</time>
      </trkpt>
      <trkpt lat="44.15777" lon="2.02246">
        <ele>223</ele>
        <time>2017-12-06T14:41:46Z</time>
      </trkpt>
      <trkpt lat="44.15777" lon="2.02249">
        <ele>222</ele>
        <time>2017-12-06T14:41:48Z</time>
      </trkpt>
      <trkpt lat="44.15776" lon="2.02252">
        <ele>221</ele>
        <time>2017-12-06T14:41:50Z</time>
      </trkpt>
      <trkpt lat="44.15776" lon="2.02255">
        <ele>220</ele>
        <time>2017-12-06T14:41:52Z</time>
      </trkpt>
      <trkpt lat="44.15776" lon="2.02259">
        <ele>219</ele>
        <time>2017-12-06T14:41:54Z</time>
      </trkpt>
      <trkpt lat="44.15777" lon="2.02261">
        <ele>218</ele>
        <time>2017-12-06T14:41:56Z</time>
      </trkpt>
      <trkpt lat="44.15778" lon="2.02263">
        <ele>217</ele>
        <time>2017-12-06T14:41:58Z</time>
      </trkpt>
      <trkpt lat="44.15777" lon="2.02266">
        <ele>216</ele>
        <time>2017-12-06T14:42:00Z</time>
      </trkpt>
      <trkpt lat="44.15777" lon="2.0227">
        <ele>215</ele>
        <time>2017-12-06T14:42:02Z</time>
      </trkpt>
      <trkpt lat="44.15776" lon="2.02276">
        <ele>214</ele>
        <time>2017-12-06T14:42:04Z</time>
      </trkpt>
      <trkpt lat="44.15775" lon="2.0228">
        <ele>214</ele>
        <time>2017-12-06T14:42:06Z</time>
      </trkpt>
      <trkpt lat="44.15775" lon="2.02284">
        <ele>213</ele>
        <time>2017-12-06T14:42:08Z</time>
      </trkpt>
      <trkpt lat="44.15775" lon="2.02286">
        <ele>213</ele>
        <time>2017-12-06T14:42:10Z</time>
      </trkpt>
      <trkpt lat="44.15775" lon="2.02286">
        <ele>213</ele>
        <time>2017-12-06T14:42:12Z</time>
      </trkpt>
      <trkpt lat="44.15775" lon="2.02291">
        <ele>212</ele>
        <time>2017-12-06T14:42:14Z</time>
      </trkpt>
      <trkpt lat="44.15774" lon="2.02294">
        <ele>212</ele>
        <time>2017-12-06T14:42:16Z</time>
      </trkpt>
      <trkpt lat="44.15775" lon="2.02298">
        <ele>212</ele>
        <time>2017-12-06T14:42:18Z</time>
      </trkpt>
      <trkpt lat="44.15774" lon="2.02301">
        <ele>212</ele>
        <time>2017-12-06T14:42:20Z</time>
      </trkpt>
      <trkpt lat="44.15774" lon="2.02305">
        <ele>212</ele>
        <time>2017-12-06T14:42:22Z</time>
      </trkpt>
      <trkpt lat="44.15773" lon="2.02307">
        <ele>212</ele>
        <time>2017-12-06T14:42:24Z</time>
      </trkpt>
      <trkpt lat="44.15773" lon="2.02307">
        <ele>212</ele>
        <time>2017-12-06T14:42:26Z</time>
      </trkpt>
      <trkpt lat="44.15772" lon="2.02313">
        <ele>211</ele>
        <time>2017-12-06T14:42:28Z</time>
      </trkpt>
      <trkpt lat="44.15772" lon="2.02313">
        <ele>211</ele>
        <time>2017-12-06T14:42:30Z</time>
      </trkpt>
      <trkpt lat="44.15772" lon="2.02313">
        <ele>211</ele>
        <time>2017-12-06T14:42:32Z</time>
      </trkpt>
      <trkpt lat="44.15769" lon="2.02323">
        <ele>211</ele>
        <time>2017-12-06T14:42:34Z</time>
      </trkpt>
      <trkpt lat="44.15769" lon="2.02327">
        <ele>210</ele>
        <time>2017-12-06T14:42:36Z</time>
      </trkpt>
      <trkpt lat="44.15768" lon="2.0233">
        <ele>209</ele>
        <time>2017-12-06T14:42:38Z</time>
      </trkpt>
      <trkpt lat="44.15767" lon="2.02334">
        <ele>209</ele>
        <time>2017-12-06T14:42:40Z</time>
      </trkpt>
      <trkpt lat="44.15765" lon="2.02339">
        <ele>209</ele>
        <time>2017-12-06T14:42:42Z</time>
      </trkpt>
      <trkpt lat="44.15764" lon="2.02342">
        <ele>208</ele>
        <time>2017-12-06T14:42:44Z</time>
      </trkpt>
      <trkpt lat="44.15764" lon="2.02342">
        <ele>208</ele>
        <time>2017-12-06T14:42:46Z</time>
      </trkpt>
      <trkpt lat="44.15762" lon="2.0235">
        <ele>208</ele>
        <time>2017-12-06T14:42:48Z</time>
      </trkpt>
      <trkpt lat="44.15761" lon="2.02353">
        <ele>208</ele>
        <time>2017-12-06T14:42:50Z</time>
      </trkpt>
      <trkpt lat="44.1576" lon="2.02357">
        <ele>208</ele>
        <time>2017-12-06T14:42:52Z</time>
      </trkpt>
      <trkpt lat="44.15759" lon="2.0236">
        <ele>208</ele>
        <time>2017-12-06T14:42:54Z</time>
      </trkpt>
      <trkpt lat="44.15759" lon="2.0236">
        <ele>208</ele>
        <time>2017-12-06T14:42:56Z</time>
      </trkpt>
      <trkpt lat="44.15758" lon="2.02366">
        <ele>208</ele>
        <time>2017-12-06T14:42:58Z</time>
      </trkpt>
      <trkpt lat="44.15757" lon="2.0237">
        <ele>208</ele>
        <time>2017-12-06T14:43:00Z</time>
      </trkpt>
      <trkpt lat="44.15757" lon="2.0237">
        <ele>207</ele>
        <time>2017-12-06T14:43:02Z</time>
      </trkpt>
      <trkpt lat="44.15755" lon="2.02377">
        <ele>207</ele>
        <time>2017-12-06T14:43:04Z</time>
      </trkpt>
      <trkpt lat="44.15754" lon="2.0238">
        <ele>208</ele>
        <time>2017-12-06T14:43:06Z</time>
      </trkpt>
      <trkpt lat="44.15753" lon="2.02383">
        <ele>208</ele>
        <time>2017-12-06T14:43:08Z</time>
      </trkpt>
      <trkpt lat="44.15752" lon="2.02386">
        <ele>208</ele>
        <time>2017-12-06T14:43:10Z</time>
      </trkpt>
      <trkpt lat="44.15752" lon="2.02389">
        <ele>208</ele>
        <time>2017-12-06T14:43:12Z</time>
      </trkpt>
      <trkpt lat="44.15752" lon="2.02389">
        <ele>208</ele>
        <time>2017-12-06T14:43:14Z</time>
      </trkpt>
      <trkpt lat="44.15752" lon="2.02389">
        <ele>209</ele>
        <time>2017-12-06T14:43:16Z</time>
      </trkpt>
      <trkpt lat="44.15752" lon="2.02389">
        <ele>209</ele>
        <time>2017-12-06T14:43:18Z</time>
      </trkpt>
      <trkpt lat="44.15752" lon="2.02389">
        <ele>208</ele>
        <time>2017-12-06T14:43:20Z</time>
      </trkpt>
      <trkpt lat="44.1575" lon="2.02403">
        <ele>208</ele>
        <time>2017-12-06T14:43:22Z</time>
      </trkpt>
      <trkpt lat="44.15748" lon="2.02407">
        <ele>208</ele>
        <time>2017-12-06T14:43:24Z</time>
      </trkpt>
      <trkpt lat="44.15748" lon="2.02407">
        <ele>208</ele>
        <time>2017-12-06T14:43:26Z</time>
      </trkpt>
      <trkpt lat="44.15748" lon="2.02414">
        <ele>208</ele>
        <time>2017-12-06T14:43:28Z</time>
      </trkpt>
      <trkpt lat="44.15747" lon="2.02418">
        <ele>208</ele>
        <time>2017-12-06T14:43:30Z</time>
      </trkpt>
      <trkpt lat="44.15746" lon="2.02422">
        <ele>208</ele>
        <time>2017-12-06T14:43:32Z</time>
      </trkpt>
      <trkpt lat="44.15745" lon="2.02425">
        <ele>208</ele>
        <time>2017-12-06T14:43:34Z</time>
      </trkpt>
      <trkpt lat="44.15745" lon="2.02425">
        <ele>208</ele>
        <time>2017-12-06T14:43:36Z</time>
      </trkpt>
      <trkpt lat="44.15743" lon="2.02432">
        <ele>207</ele>
        <time>2017-12-06T14:43:38Z</time>
      </trkpt>
      <trkpt lat="44.15742" lon="2.02436">
        <ele>207</ele>
        <time>2017-12-06T14:43:40Z</time>
      </trkpt>
      <trkpt lat="44.15741" lon="2.0244">
        <ele>207</ele>
        <time>2017-12-06T14:43:42Z</time>
      </trkpt>
      <trkpt lat="44.15739" lon="2.02445">
        <ele>206</ele>
        <time>2017-12-06T14:43:44Z</time>
      </trkpt>
      <trkpt lat="44.15738" lon="2.02449">
        <ele>206</ele>
        <time>2017-12-06T14:43:46Z</time>
      </trkpt>
      <trkpt lat="44.15737" lon="2.02455">
        <ele>205</ele>
        <time>2017-12-06T14:43:48Z</time>
      </trkpt>
      <trkpt lat="44.15736" lon="2.0246">
        <ele>204</ele>
        <time>2017-12-06T14:43:50Z</time>
      </trkpt>
      <trkpt lat="44.15736" lon="2.02465">
        <ele>203</ele>
        <time>2017-12-06T14:43:52Z</time>
      </trkpt>
      <trkpt lat="44.15735" lon="2.0247">
        <ele>202</ele>
        <time>2017-12-06T14:43:54Z</time>
      </trkpt>
      <trkpt lat="44.15735" lon="2.02475">
        <ele>201</ele>
        <time>2017-12-06T14:43:56Z</time>
      </trkpt>
      <trkpt lat="44.15735" lon="2.02481">
        <ele>201</ele>
        <time>2017-12-06T14:43:58Z</time>
      </trkpt>
      <trkpt lat="44.15735" lon="2.02486">
        <ele>200</ele>
        <time>2017-12-06T14:44:00Z</time>
      </trkpt>
      <trkpt lat="44.15737" lon="2.0249">
        <ele>200</ele>
        <time>2017-12-06T14:44:02Z</time>
      </trkpt>
      <trkpt lat="44.15739" lon="2.02493">
        <ele>200</ele>
        <time>2017-12-06T14:44:04Z</time>
      </trkpt>
      <trkpt lat="44.1574" lon="2.02496">
        <ele>200</ele>
        <time>2017-12-06T14:44:06Z</time>
      </trkpt>
      <trkpt lat="44.15741" lon="2.02499">
        <ele>200</ele>
        <time>2017-12-06T14:44:08Z</time>
      </trkpt>
      <trkpt lat="44.15743" lon="2.02502">
        <ele>200</ele>
        <time>2017-12-06T14:44:10Z</time>
      </trkpt>
      <trkpt lat="44.15745" lon="2.02503">
        <ele>200</ele>
        <time>2017-12-06T14:44:12Z</time>
      </trkpt>
      <trkpt lat="44.15748" lon="2.02504">
        <ele>201</ele>
        <time>2017-12-06T14:44:14Z</time>
      </trkpt>
      <trkpt lat="44.1575" lon="2.02505">
        <ele>201</ele>
        <time>2017-12-06T14:44:16Z</time>
      </trkpt>
      <trkpt lat="44.15752" lon="2.02506">
        <ele>201</ele>
        <time>2017-12-06T14:44:18Z</time>
      </trkpt>
      <trkpt lat="44.15753" lon="2.02507">
        <ele>201</ele>
        <time>2017-12-06T14:44:20Z</time>
      </trkpt>
      <trkpt lat="44.15755" lon="2.02508">
        <ele>201</ele>
        <time>2017-12-06T14:44:22Z</time>
      </trkpt>
      <trkpt lat="44.15758" lon="2.0251">
        <ele>201</ele>
        <time>2017-12-06T14:44:24Z</time>
      </trkpt>
      <trkpt lat="44.15761" lon="2.02512">
        <ele>201</ele>
        <time>2017-12-06T14:44:26Z</time>
      </trkpt>
      <trkpt lat="44.15763" lon="2.02514">
        <ele>201</ele>
        <time>2017-12-06T14:44:28Z</time>
      </trkpt>
      <trkpt lat="44.15764" lon="2.02515">
        <ele>201</ele>
        <time>2017-12-06T14:44:30Z</time>
      </trkpt>
      <trkpt lat="44.15767" lon="2.02516">
        <ele>201</ele>
        <time>2017-12-06T14:44:32Z</time>
      </trkpt>
      <trkpt lat="44.15769" lon="2.02517">
        <ele>201</ele>
        <time>2017-12-06T14:44:34Z</time>
      </trkpt>
      <trkpt lat="44.15771" lon="2.02518">
        <ele>201</ele>
        <time>2017-12-06T14:44:36Z</time>
      </trkpt>
      <trkpt lat="44.15773" lon="2.02519">
        <ele>200</ele>
        <time>2017-12-06T14:44:38Z</time>
      </trkpt>
      <trkpt lat="44.15775" lon="2.02521">
        <ele>200</ele>
        <time>2017-12-06T14:44:40Z</time>
      </trkpt>
      <trkpt lat="44.15778" lon="2.02522">
        <ele>200</ele>
        <time>2017-12-06T14:44:42Z</time>
      </trkpt>
      <trkpt lat="44.15781" lon="2.02523">
        <ele>200</ele>
        <time>2017-12-06T14:44:44Z</time>
      </trkpt>
      <trkpt lat="44.15783" lon="2.02526">
        <ele>199</ele>
        <time>2017-12-06T14:44:46Z</time>
      </trkpt>
      <trkpt lat="44.15785" lon="2.02528">
        <ele>199</ele>
        <time>2017-12-06T14:44:48Z</time>
      </trkpt>
      <trkpt lat="44.15787" lon="2.02529">
        <ele>199</ele>
        <time>2017-12-06T14:44:50Z</time>
      </trkpt>
      <trkpt lat="44.1579" lon="2.02531">
        <ele>198</ele>
        <time>2017-12-06T14:44:52Z</time>
      </trkpt>
      <trkpt lat="44.15791" lon="2.02533">
        <ele>198</ele>
        <time>2017-12-06T14:44:54Z</time>
      </trkpt>
      <trkpt lat="44.15794" lon="2.02534">
        <ele>197</ele>
        <time>2017-12-06T14:44:56Z</time>
      </trkpt>
      <trkpt lat="44.15797" lon="2.02535">
        <ele>197</ele>
        <time>2017-12-06T14:44:58Z</time>
      </trkpt>
      <trkpt lat="44.15799" lon="2.02536">
        <ele>197</ele>
        <time>2017-12-06T14:45:00Z</time>
      </trkpt>
      <trkpt lat="44.15802" lon="2.02538">
        <ele>197</ele>
        <time>2017-12-06T14:45:02Z</time>
      </trkpt>
      <trkpt lat="44.15804" lon="2.02538">
        <ele>197</ele>
        <time>2017-12-06T14:45:04Z</time>
      </trkpt>
      <trkpt lat="44.15807" lon="2.02539">
        <ele>197</ele>
        <time>2017-12-06T14:45:06Z</time>
      </trkpt>
      <trkpt lat="44.1581" lon="2.02539">
        <ele>196</ele>
        <time>2017-12-06T14:45:08Z</time>
      </trkpt>
      <trkpt lat="44.15813" lon="2.02539">
        <ele>196</ele>
        <time>2017-12-06T14:45:10Z</time>
      </trkpt>
      <trkpt lat="44.15816" lon="2.02539">
        <ele>196</ele>
        <time>2017-12-06T14:45:12Z</time>
      </trkpt>
      <trkpt lat="44.1582" lon="2.02538">
        <ele>196</ele>
        <time>2017-12-06T14:45:14Z</time>
      </trkpt>
      <trkpt lat="44.15824" lon="2.02537">
        <ele>196</ele>
        <time>2017-12-06T14:45:16Z</time>
      </trkpt>
      <trkpt lat="44.15827" lon="2.02536">
        <ele>196</ele>
        <time>2017-12-06T14:45:18Z</time>
      </trkpt>
      <trkpt lat="44.1583" lon="2.02534">
        <ele>195</ele>
        <time>2017-12-06T14:45:20Z</time>
      </trkpt>
      <trkpt lat="44.15833" lon="2.02532">
        <ele>195</ele>
        <time>2017-12-06T14:45:22Z</time>
      </trkpt>
      <trkpt lat="44.15835" lon="2.0253">
        <ele>195</ele>
        <time>2017-12-06T14:45:24Z</time>
      </trkpt>
      <trkpt lat="44.15837" lon="2.02528">
        <ele>195</ele>
        <time>2017-12-06T14:45:26Z</time>
      </trkpt>
      <trkpt lat="44.1584" lon="2.02526">
        <ele>195</ele>
        <time>2017-12-06T14:45:28Z</time>
      </trkpt>
      <trkpt lat="44.15842" lon="2.02524">
        <ele>195</ele>
        <time>2017-12-06T14:45:30Z</time>
      </trkpt>
      <trkpt lat="44.15844" lon="2.02522">
        <ele>194</ele>
        <time>2017-12-06T14:45:32Z</time>
      </trkpt>
      <trkpt lat="44.15847" lon="2.0252">
        <ele>194</ele>
        <time>2017-12-06T14:45:34Z</time>
      </trkpt>
      <trkpt lat="44.15849" lon="2.02519">
        <ele>194</ele>
        <time>2017-12-06T14:45:36Z</time>
      </trkpt>
      <trkpt lat="44.15851" lon="2.02517">
        <ele>193</ele>
        <time>2017-12-06T14:45:38Z</time>
      </trkpt>
      <trkpt lat="44.15853" lon="2.02515">
        <ele>192</ele>
        <time>2017-12-06T14:45:40Z</time>
      </trkpt>
      <trkpt lat="44.15855" lon="2.02514">
        <ele>192</ele>
        <time>2017-12-06T14:45:42Z</time>
      </trkpt>
      <trkpt lat="44.15858" lon="2.02512">
        <ele>191</ele>
        <time>2017-12-06T14:45:44Z</time>
      </trkpt>
      <trkpt lat="44.1586" lon="2.0251">
        <ele>190</ele>
        <time>2017-12-06T14:45:46Z</time>
      </trkpt>
      <trkpt lat="44.15862" lon="2.02509">
        <ele>189</ele>
        <time>2017-12-06T14:45:48Z</time>
      </trkpt>
      <trkpt lat="44.15865" lon="2.02507">
        <ele>188</ele>
        <time>2017-12-06T14:45:50Z</time>
      </trkpt>
      <trkpt lat="44.15866" lon="2.02505">
        <ele>187</ele>
        <time>2017-12-06T14:45:52Z</time>
      </trkpt>
      <trkpt lat="44.15869" lon="2.02504">
        <ele>186</ele>
        <time>2017-12-06T14:45:54Z</time>
      </trkpt>
      <trkpt lat="44.15871" lon="2.02502">
        <ele>185</ele>
        <time>2017-12-06T14:45:56Z</time>
      </trkpt>
      <trkpt lat="44.15874" lon="2.02502">
        <ele>183</ele>
        <time>2017-12-06T14:45:58Z</time>
      </trkpt>
      <trkpt lat="44.15875" lon="2.025">
        <ele>182</ele>
        <time>2017-12-06T14:46:00Z</time>
      </trkpt>
      <trkpt lat="44.15877" lon="2.02497">
        <ele>182</ele>
        <time>2017-12-06T14:46:02Z</time>
      </trkpt>
      <trkpt lat="44.15881" lon="2.02495">
        <ele>181</ele>
        <time>2017-12-06T14:46:04Z</time>
      </trkpt>
      <trkpt lat="44.15883" lon="2.02494">
        <ele>180</ele>
        <time>2017-12-06T14:46:06Z</time>
      </trkpt>
      <trkpt lat="44.15885" lon="2.02491">
        <ele>180</ele>
        <time>2017-12-06T14:46:08Z</time>
      </trkpt>
      <trkpt lat="44.15885" lon="2.02491">
        <ele>179</ele>
        <time>2017-12-06T14:46:10Z</time>
      </trkpt>
      <trkpt lat="44.1589" lon="2.02488">
        <ele>179</ele>
        <time>2017-12-06T14:46:12Z</time>
      </trkpt>
      <trkpt lat="44.15893" lon="2.02486">
        <ele>179</ele>
        <time>2017-12-06T14:46:14Z</time>
      </trkpt>
      <trkpt lat="44.15896" lon="2.02484">
        <ele>178</ele>
        <time>2017-12-06T14:46:16Z</time>
      </trkpt>
      <trkpt lat="44.15899" lon="2.02483">
        <ele>178</ele>
        <time>2017-12-06T14:46:18Z</time>
      </trkpt>
      <trkpt lat="44.15899" lon="2.02483">
        <ele>178</ele>
        <time>2017-12-06T14:46:20Z</time>
      </trkpt>
      <trkpt lat="44.15903" lon="2.02482">
        <ele>178</ele>
        <time>2017-12-06T14:46:22Z</time>
      </trkpt>
      <trkpt lat="44.15905" lon="2.02481">
        <ele>178</ele>
        <time>2017-12-06T14:46:24Z</time>
      </trkpt>
      <trkpt lat="44.15908" lon="2.02479">
        <ele>178</ele>
        <time>2017-12-06T14:46:26Z</time>
      </trkpt>
      <trkpt lat="44.15911" lon="2.02477">
        <ele>178</ele>
        <time>2017-12-06T14:46:28Z</time>
      </trkpt>
      <trkpt lat="44.15912" lon="2.02476">
        <ele>177</ele>
        <time>2017-12-06T14:46:30Z</time>
      </trkpt>
      <trkpt lat="44.15915" lon="2.02475">
        <ele>177</ele>
        <time>2017-12-06T14:46:32Z</time>
      </trkpt>
      <trkpt lat="44.15917" lon="2.02474">
        <ele>177</ele>
        <time>2017-12-06T14:46:34Z</time>
      </trkpt>
      <trkpt lat="44.1592" lon="2.02473">
        <ele>177</ele>
        <time>2017-12-06T14:46:36Z</time>
      </trkpt>
      <trkpt lat="44.15925" lon="2.02472">
        <ele>177</ele>
        <time>2017-12-06T14:46:38Z</time>
      </trkpt>
      <trkpt lat="44.15928" lon="2.02471">
        <ele>178</ele>
        <time>2017-12-06T14:46:40Z</time>
      </trkpt>
      <trkpt lat="44.15931" lon="2.02471">
        <ele>178</ele>
        <time>2017-12-06T14:46:42Z</time>
      </trkpt>
      <trkpt lat="44.15934" lon="2.02471">
        <ele>179</ele>
        <time>2017-12-06T14:46:44Z</time>
      </trkpt>
      <trkpt lat="44.15937" lon="2.02472">
        <ele>179</ele>
        <time>2017-12-06T14:46:46Z</time>
      </trkpt>
      <trkpt lat="44.1594" lon="2.02472">
        <ele>180</ele>
        <time>2017-12-06T14:46:48Z</time>
      </trkpt>
      <trkpt lat="44.15944" lon="2.02473">
        <ele>180</ele>
        <time>2017-12-06T14:46:50Z</time>
      </trkpt>
      <trkpt lat="44.15946" lon="2.02474">
        <ele>181</ele>
        <time>2017-12-06T14:46:52Z</time>
      </trkpt>
      <trkpt lat="44.15949" lon="2.02476">
        <ele>181</ele>
        <time>2017-12-06T14:46:54Z</time>
      </trkpt>
      <trkpt lat="44.15951" lon="2.02477">
        <ele>181</ele>
        <time>2017-12-06T14:46:56Z</time>
      </trkpt>
      <trkpt lat="44.15954" lon="2.02479">
        <ele>181</ele>
        <time>2017-12-06T14:46:58Z</time>
      </trkpt>
      <trkpt lat="44.15957" lon="2.02481">
        <ele>182</ele>
        <time>2017-12-06T14:47:00Z</time>
      </trkpt>
      <trkpt lat="44.1596" lon="2.02484">
        <ele>181</ele>
        <time>2017-12-06T14:47:02Z</time>
      </trkpt>
      <trkpt lat="44.15963" lon="2.02486">
        <ele>181</ele>
        <time>2017-12-06T14:47:04Z</time>
      </trkpt>
      <trkpt lat="44.15964" lon="2.02489">
        <ele>181</ele>
        <time>2017-12-06T14:47:06Z</time>
      </trkpt>
      <trkpt lat="44.15967" lon="2.02492">
        <ele>181</ele>
        <time>2017-12-06T14:47:08Z</time>
      </trkpt>
      <trkpt lat="44.15969" lon="2.02494">
        <ele>180</ele>
        <time>2017-12-06T14:47:10Z</time>
      </trkpt>
      <trkpt lat="44.15971" lon="2.02497">
        <ele>180</ele>
        <time>2017-12-06T14:47:12Z</time>
      </trkpt>
      <trkpt lat="44.15973" lon="2.02501">
        <ele>180</ele>
        <time>2017-12-06T14:47:14Z</time>
      </trkpt>
      <trkpt lat="44.15975" lon="2.02504">
        <ele>179</ele>
        <time>2017-12-06T14:47:16Z</time>
      </trkpt>
      <trkpt lat="44.15976" lon="2.02507">
        <ele>179</ele>
        <time>2017-12-06T14:47:18Z</time>
      </trkpt>
      <trkpt lat="44.15978" lon="2.0251">
        <ele>179</ele>
        <time>2017-12-06T14:47:20Z</time>
      </trkpt>
      <trkpt lat="44.15979" lon="2.02513">
        <ele>179</ele>
        <time>2017-12-06T14:47:22Z</time>
      </trkpt>
      <trkpt lat="44.15982" lon="2.02515">
        <ele>179</ele>
        <time>2017-12-06T14:47:24Z</time>
      </trkpt>
      <trkpt lat="44.15983" lon="2.02517">
        <ele>179</ele>
        <time>2017-12-06T14:47:26Z</time>
      </trkpt>
      <trkpt lat="44.15986" lon="2.02519">
        <ele>179</ele>
        <time>2017-12-06T14:47:28Z</time>
      </trkpt>
      <trkpt lat="44.15988" lon="2.02522">
        <ele>179</ele>
        <time>2017-12-06T14:47:30Z</time>
      </trkpt>
      <trkpt lat="44.15991" lon="2.02525">
        <ele>179</ele>
        <time>2017-12-06T14:47:32Z</time>
      </trkpt>
      <trkpt lat="44.15993" lon="2.02528">
        <ele>179</ele>
        <time>2017-12-06T14:47:34Z</time>
      </trkpt>
      <trkpt lat="44.15995" lon="2.0253">
        <ele>179</ele>
        <time>2017-12-06T14:47:36Z</time>
      </trkpt>
      <trkpt lat="44.15997" lon="2.02532">
        <ele>179</ele>
        <time>2017-12-06T14:47:38Z</time>
      </trkpt>
      <trkpt lat="44.15999" lon="2.02534">
        <ele>179</ele>
        <time>2017-12-06T14:47:40Z</time>
      </trkpt>
      <trkpt lat="44.16" lon="2.02537">
        <ele>178</ele>
        <time>2017-12-06T14:47:42Z</time>
      </trkpt>
      <trkpt lat="44.16001" lon="2.0254">
        <ele>179</ele>
        <time>2017-12-06T14:47:44Z</time>
      </trkpt>
      <trkpt lat="44.16004" lon="2.02541">
        <ele>179</ele>
        <time>2017-12-06T14:47:46Z</time>
      </trkpt>
      <trkpt lat="44.16006" lon="2.02544">
        <ele>179</ele>
        <time>2017-12-06T14:47:48Z</time>
      </trkpt>
      <trkpt lat="44.16009" lon="2.02546">
        <ele>179</ele>
        <time>2017-12-06T14:47:50Z</time>
      </trkpt>
      <trkpt lat="44.16011" lon="2.02548">
        <ele>180</ele>
        <time>2017-12-06T14:47:52Z</time>
      </trkpt>
      <trkpt lat="44.16014" lon="2.0255">
        <ele>180</ele>
        <time>2017-12-06T14:47:54Z</time>
      </trkpt>
      <trkpt lat="44.16017" lon="2.02551">
        <ele>180</ele>
        <time>2017-12-06T14:47:56Z</time>
      </trkpt>
      <trkpt lat="44.1602" lon="2.02553">
        <ele>180</ele>
        <time>2017-12-06T14:47:58Z</time>
      </trkpt>
      <trkpt lat="44.16023" lon="2.02554">
        <ele>181</ele>
        <time>2017-12-06T14:48:00Z</time>
      </trkpt>
      <trkpt lat="44.16026" lon="2.02557">
        <ele>180</ele>
        <time>2017-12-06T14:48:02Z</time>
      </trkpt>
      <trkpt lat="44.16029" lon="2.02559">
        <ele>180</ele>
        <time>2017-12-06T14:48:04Z</time>
      </trkpt>
      <trkpt lat="44.16031" lon="2.02561">
        <ele>180</ele>
        <time>2017-12-06T14:48:06Z</time>
      </trkpt>
      <trkpt lat="44.16032" lon="2.02564">
        <ele>181</ele>
        <time>2017-12-06T14:48:08Z</time>
      </trkpt>
      <trkpt lat="44.16033" lon="2.02567">
        <ele>181</ele>
        <time>2017-12-06T14:48:10Z</time>
      </trkpt>
      <trkpt lat="44.16034" lon="2.0257">
        <ele>181</ele>
        <time>2017-12-06T14:48:12Z</time>
      </trkpt>
      <trkpt lat="44.16035" lon="2.02572">
        <ele>181</ele>
        <time>2017-12-06T14:48:14Z</time>
      </trkpt>
      <trkpt lat="44.16036" lon="2.02576">
        <ele>181</ele>
        <time>2017-12-06T14:48:16Z</time>
      </trkpt>
      <trkpt lat="44.16037" lon="2.02579">
        <ele>181</ele>
        <time>2017-12-06T14:48:18Z</time>
      </trkpt>
      <trkpt lat="44.16038" lon="2.02583">
        <ele>181</ele>
        <time>2017-12-06T14:48:20Z</time>
      </trkpt>
      <trkpt lat="44.16039" lon="2.02586">
        <ele>181</ele>
        <time>2017-12-06T14:48:22Z</time>
      </trkpt>
      <trkpt lat="44.16039" lon="2.0259">
        <ele>181</ele>
        <time>2017-12-06T14:48:24Z</time>
      </trkpt>
      <trkpt lat="44.16039" lon="2.02594">
        <ele>180</ele>
        <time>2017-12-06T14:48:26Z</time>
      </trkpt>
      <trkpt lat="44.16041" lon="2.02598">
        <ele>180</ele>
        <time>2017-12-06T14:48:28Z</time>
      </trkpt>
      <trkpt lat="44.16042" lon="2.02601">
        <ele>179</ele>
        <time>2017-12-06T14:48:30Z</time>
      </trkpt>
      <trkpt lat="44.16043" lon="2.02603">
        <ele>179</ele>
        <time>2017-12-06T14:48:32Z</time>
      </trkpt>
      <trkpt lat="44.16044" lon="2.02606">
        <ele>179</ele>
        <time>2017-12-06T14:48:34Z</time>
      </trkpt>
      <trkpt lat="44.16046" lon="2.02608">
        <ele>178</ele>
        <time>2017-12-06T14:48:36Z</time>
      </trkpt>
      <trkpt lat="44.16049" lon="2.02608">
        <ele>178</ele>
        <time>2017-12-06T14:48:38Z</time>
      </trkpt>
      <trkpt lat="44.16051" lon="2.0261">
        <ele>177</ele>
        <time>2017-12-06T14:48:40Z</time>
      </trkpt>
      <trkpt lat="44.16051" lon="2.02611">
        <ele>177</ele>
        <time>2017-12-06T14:48:42Z</time>
      </trkpt>
      <trkpt lat="44.16051" lon="2.02611">
        <ele>176</ele>
        <time>2017-12-06T14:48:44Z</time>
      </trkpt>
      <trkpt lat="44.16051" lon="2.02611">
        <ele>176</ele>
        <time>2017-12-06T14:48:46Z</time>
      </trkpt>
      <trkpt lat="44.16056" lon="2.02615">
        <ele>176</ele>
        <time>2017-12-06T14:48:48Z</time>
      </trkpt>
      <trkpt lat="44.16056" lon="2.02615">
        <ele>175</ele>
        <time>2017-12-06T14:48:50Z</time>
      </trkpt>
      <trkpt lat="44.16056" lon="2.02615">
        <ele>175</ele>
        <time>2017-12-06T14:48:52Z</time>
      </trkpt>
      <trkpt lat="44.16061" lon="2.02619">
        <ele>174</ele>
        <time>2017-12-06T14:48:54Z</time>
      </trkpt>
      <trkpt lat="44.16061" lon="2.02619">
        <ele>174</ele>
        <time>2017-12-06T14:48:56Z</time>
      </trkpt>
      <trkpt lat="44.16065" lon="2.02623">
        <ele>175</ele>
        <time>2017-12-06T14:48:58Z</time>
      </trkpt>
      <trkpt lat="44.16068" lon="2.02625">
        <ele>175</ele>
        <time>2017-12-06T14:49:00Z</time>
      </trkpt>
      <trkpt lat="44.1607" lon="2.02627">
        <ele>175</ele>
        <time>2017-12-06T14:49:02Z</time>
      </trkpt>
      <trkpt lat="44.16073" lon="2.02629">
        <ele>176</ele>
        <time>2017-12-06T14:49:04Z</time>
      </trkpt>
      <trkpt lat="44.16075" lon="2.0263">
        <ele>176</ele>
        <time>2017-12-06T14:49:06Z</time>
      </trkpt>
      <trkpt lat="44.16078" lon="2.02632">
        <ele>177</ele>
        <time>2017-12-06T14:49:08Z</time>
      </trkpt>
      <trkpt lat="44.1608" lon="2.02634">
        <ele>177</ele>
        <time>2017-12-06T14:49:10Z</time>
      </trkpt>
      <trkpt lat="44.16082" lon="2.02635">
        <ele>178</ele>
        <time>2017-12-06T14:49:12Z</time>
      </trkpt>
      <trkpt lat="44.16085" lon="2.02636">
        <ele>178</ele>
        <time>2017-12-06T14:49:14Z</time>
      </trkpt>
      <trkpt lat="44.16089" lon="2.02638">
        <ele>178</ele>
        <time>2017-12-06T14:49:16Z</time>
      </trkpt>
      <trkpt lat="44.16091" lon="2.0264">
        <ele>178</ele>
        <time>2017-12-06T14:49:18Z</time>
      </trkpt>
      <trkpt lat="44.16094" lon="2.02641">
        <ele>178</ele>
        <time>2017-12-06T14:49:20Z</time>
      </trkpt>
      <trkpt lat="44.16096" lon="2.02643">
        <ele>178</ele>
        <time>2017-12-06T14:49:22Z</time>
      </trkpt>
      <trkpt lat="44.16098" lon="2.02644">
        <ele>177</ele>
        <time>2017-12-06T14:49:24Z</time>
      </trkpt>
      <trkpt lat="44.16101" lon="2.02646">
        <ele>177</ele>
        <time>2017-12-06T14:49:26Z</time>
      </trkpt>
      <trkpt lat="44.16103" lon="2.02648">
        <ele>177</ele>
        <time>2017-12-06T14:49:28Z</time>
      </trkpt>
      <trkpt lat="44.16105" lon="2.0265">
        <ele>177</ele>
        <time>2017-12-06T14:49:30Z</time>
      </trkpt>
      <trkpt lat="44.16108" lon="2.02652">
        <ele>177</ele>
        <time>2017-12-06T14:49:32Z</time>
      </trkpt>
      <trkpt lat="44.1611" lon="2.02654">
        <ele>178</ele>
        <time>2017-12-06T14:49:34Z</time>
      </trkpt>
      <trkpt lat="44.16113" lon="2.02655">
        <ele>178</ele>
        <time>2017-12-06T14:49:36Z</time>
      </trkpt>
      <trkpt lat="44.16115" lon="2.02656">
        <ele>178</ele>
        <time>2017-12-06T14:49:38Z</time>
      </trkpt>
      <trkpt lat="44.16118" lon="2.02656">
        <ele>179</ele>
        <time>2017-12-06T14:49:40Z</time>
      </trkpt>
      <trkpt lat="44.16121" lon="2.02657">
        <ele>179</ele>
        <time>2017-12-06T14:49:42Z</time>
      </trkpt>
      <trkpt lat="44.16123" lon="2.02658">
        <ele>179</ele>
        <time>2017-12-06T14:49:44Z</time>
      </trkpt>
      <trkpt lat="44.16126" lon="2.0266">
        <ele>180</ele>
        <time>2017-12-06T14:49:46Z</time>
      </trkpt>
      <trkpt lat="44.16129" lon="2.02662">
        <ele>180</ele>
        <time>2017-12-06T14:49:48Z</time>
      </trkpt>
      <trkpt lat="44.16131" lon="2.02663">
        <ele>180</ele>
        <time>2017-12-06T14:49:50Z</time>
      </trkpt>
      <trkpt lat="44.16134" lon="2.02665">
        <ele>180</ele>
        <time>2017-12-06T14:49:52Z</time>
      </trkpt>
      <trkpt lat="44.16137" lon="2.02666">
        <ele>180</ele>
        <time>2017-12-06T14:49:54Z</time>
      </trkpt>
      <trkpt lat="44.1614" lon="2.02668">
        <ele>179</ele>
        <time>2017-12-06T14:49:56Z</time>
      </trkpt>
      <trkpt lat="44.16142" lon="2.02668">
        <ele>179</ele>
        <time>2017-12-06T14:49:58Z</time>
      </trkpt>
      <trkpt lat="44.16145" lon="2.0267">
        <ele>179</ele>
        <time>2017-12-06T14:50:00Z</time>
      </trkpt>
      <trkpt lat="44.16148" lon="2.0267">
        <ele>179</ele>
        <time>2017-12-06T14:50:02Z</time>
      </trkpt>
      <trkpt lat="44.16149" lon="2.02672">
        <ele>179</ele>
        <time>2017-12-06T14:50:04Z</time>
      </trkpt>
      <trkpt lat="44.16152" lon="2.02673">
        <ele>179</ele>
        <time>2017-12-06T14:50:06Z</time>
      </trkpt>
      <trkpt lat="44.16156" lon="2.02673">
        <ele>179</ele>
        <time>2017-12-06T14:50:08Z</time>
      </trkpt>
      <trkpt lat="44.16157" lon="2.02674">
        <ele>179</ele>
        <time>2017-12-06T14:50:10Z</time>
      </trkpt>
      <trkpt lat="44.16159" lon="2.02677">
        <ele>180</ele>
        <time>2017-12-06T14:50:12Z</time>
      </trkpt>
      <trkpt lat="44.16161" lon="2.02679">
        <ele>180</ele>
        <time>2017-12-06T14:50:14Z</time>
      </trkpt>
      <trkpt lat="44.16164" lon="2.02682">
        <ele>181</ele>
        <time>2017-12-06T14:50:16Z</time>
      </trkpt>
      <trkpt lat="44.16166" lon="2.02685">
        <ele>181</ele>
        <time>2017-12-06T14:50:18Z</time>
      </trkpt>
      <trkpt lat="44.16168" lon="2.02687">
        <ele>182</ele>
        <time>2017-12-06T14:50:20Z</time>
      </trkpt>
      <trkpt lat="44.16171" lon="2.0269">
        <ele>182</ele>
        <time>2017-12-06T14:50:22Z</time>
      </trkpt>
      <trkpt lat="44.16173" lon="2.02693">
        <ele>183</ele>
        <time>2017-12-06T14:50:24Z</time>
      </trkpt>
      <trkpt lat="44.16175" lon="2.02696">
        <ele>183</ele>
        <time>2017-12-06T14:50:26Z</time>
      </trkpt>
      <trkpt lat="44.16177" lon="2.02698">
        <ele>183</ele>
        <time>2017-12-06T14:50:28Z</time>
      </trkpt>
      <trkpt lat="44.16179" lon="2.02701">
        <ele>183</ele>
        <time>2017-12-06T14:50:30Z</time>
      </trkpt>
      <trkpt lat="44.16181" lon="2.02703">
        <ele>184</ele>
        <time>2017-12-06T14:50:32Z</time>
      </trkpt>
      <trkpt lat="44.16183" lon="2.02706">
        <ele>184</ele>
        <time>2017-12-06T14:50:34Z</time>
      </trkpt>
      <trkpt lat="44.16186" lon="2.02707">
        <ele>184</ele>
        <time>2017-12-06T14:50:36Z</time>
      </trkpt>
      <trkpt lat="44.16188" lon="2.02708">
        <ele>184</ele>
        <time>2017-12-06T14:50:38Z</time>
      </trkpt>
      <trkpt lat="44.16191" lon="2.02708">
        <ele>185</ele>
        <time>2017-12-06T14:50:40Z</time>
      </trkpt>
      <trkpt lat="44.16191" lon="2.02708">
        <ele>185</ele>
        <time>2017-12-06T14:50:42Z</time>
      </trkpt>
      <trkpt lat="44.16195" lon="2.02706">
        <ele>185</ele>
        <time>2017-12-06T14:50:44Z</time>
      </trkpt>
      <trkpt lat="44.16199" lon="2.02705">
        <ele>186</ele>
        <time>2017-12-06T14:50:46Z</time>
      </trkpt>
      <trkpt lat="44.16201" lon="2.02704">
        <ele>186</ele>
        <time>2017-12-06T14:50:48Z</time>
      </trkpt>
      <trkpt lat="44.16202" lon="2.02703">
        <ele>187</ele>
        <time>2017-12-06T14:50:50Z</time>
      </trkpt>
      <trkpt lat="44.16202" lon="2.02703">
        <ele>187</ele>
        <time>2017-12-06T14:50:52Z</time>
      </trkpt>
      <trkpt lat="44.16205" lon="2.02703">
        <ele>187</ele>
        <time>2017-12-06T14:50:54Z</time>
      </trkpt>
      <trkpt lat="44.16208" lon="2.02703">
        <ele>187</ele>
        <time>2017-12-06T14:50:56Z</time>
      </trkpt>
      <trkpt lat="44.1621" lon="2.02703">
        <ele>188</ele>
        <time>2017-12-06T14:50:58Z</time>
      </trkpt>
      <trkpt lat="44.16212" lon="2.02704">
        <ele>188</ele>
        <time>2017-12-06T14:51:00Z</time>
      </trkpt>
      <trkpt lat="44.16214" lon="2.02705">
        <ele>188</ele>
        <time>2017-12-06T14:51:02Z</time>
      </trkpt>
      <trkpt lat="44.16216" lon="2.02706">
        <ele>188</ele>
        <time>2017-12-06T14:51:04Z</time>
      </trkpt>
      <trkpt lat="44.16218" lon="2.02708">
        <ele>188</ele>
        <time>2017-12-06T14:51:06Z</time>
      </trkpt>
      <trkpt lat="44.16219" lon="2.0271">
        <ele>188</ele>
        <time>2017-12-06T14:51:08Z</time>
      </trkpt>
      <trkpt lat="44.1622" lon="2.02713">
        <ele>188</ele>
        <time>2017-12-06T14:51:10Z</time>
      </trkpt>
      <trkpt lat="44.16221" lon="2.02714">
        <ele>188</ele>
        <time>2017-12-06T14:51:12Z</time>
      </trkpt>
      <trkpt lat="44.16223" lon="2.02717">
        <ele>188</ele>
        <time>2017-12-06T14:51:14Z</time>
      </trkpt>
      <trkpt lat="44.16225" lon="2.02719">
        <ele>187</ele>
        <time>2017-12-06T14:51:16Z</time>
      </trkpt>
      <trkpt lat="44.16228" lon="2.02721">
        <ele>187</ele>
        <time>2017-12-06T14:51:18Z</time>
      </trkpt>
      <trkpt lat="44.1623" lon="2.02724">
        <ele>187</ele>
        <time>2017-12-06T14:51:20Z</time>
      </trkpt>
      <trkpt lat="44.16232" lon="2.02725">
        <ele>186</ele>
        <time>2017-12-06T14:51:22Z</time>
      </trkpt>
      <trkpt lat="44.16234" lon="2.02728">
        <ele>186</ele>
        <time>2017-12-06T14:51:24Z</time>
      </trkpt>
      <trkpt lat="44.16237" lon="2.02731">
        <ele>185</ele>
        <time>2017-12-06T14:51:26Z</time>
      </trkpt>
      <trkpt lat="44.16239" lon="2.02733">
        <ele>185</ele>
        <time>2017-12-06T14:51:28Z</time>
      </trkpt>
      <trkpt lat="44.16241" lon="2.02735">
        <ele>186</ele>
        <time>2017-12-06T14:51:30Z</time>
      </trkpt>
      <trkpt lat="44.16243" lon="2.02737">
        <ele>186</ele>
        <time>2017-12-06T14:51:32Z</time>
      </trkpt>
      <trkpt lat="44.16246" lon="2.02739">
        <ele>186</ele>
        <time>2017-12-06T14:51:34Z</time>
      </trkpt>
      <trkpt lat="44.16248" lon="2.02741">
        <ele>186</ele>
        <time>2017-12-06T14:51:36Z</time>
      </trkpt>
      <trkpt lat="44.16249" lon="2.02744">
        <ele>187</ele>
        <time>2017-12-06T14:51:38Z</time>
      </trkpt>
      <trkpt lat="44.16251" lon="2.02748">
        <ele>187</ele>
        <time>2017-12-06T14:51:40Z</time>
      </trkpt>
      <trkpt lat="44.16253" lon="2.02751">
        <ele>188</ele>
        <time>2017-12-06T14:51:42Z</time>
      </trkpt>
      <trkpt lat="44.16254" lon="2.02753">
        <ele>188</ele>
        <time>2017-12-06T14:51:44Z</time>
      </trkpt>
      <trkpt lat="44.16256" lon="2.02756">
        <ele>189</ele>
        <time>2017-12-06T14:51:46Z</time>
      </trkpt>
      <trkpt lat="44.16257" lon="2.02759">
        <ele>189</ele>
        <time>2017-12-06T14:51:48Z</time>
      </trkpt>
      <trkpt lat="44.16258" lon="2.02761">
        <ele>189</ele>
        <time>2017-12-06T14:51:50Z</time>
      </trkpt>
      <trkpt lat="44.16261" lon="2.02763">
        <ele>189</ele>
        <time>2017-12-06T14:51:52Z</time>
      </trkpt>
      <trkpt lat="44.16264" lon="2.02766">
        <ele>189</ele>
        <time>2017-12-06T14:51:54Z</time>
      </trkpt>
      <trkpt lat="44.16264" lon="2.02766">
        <ele>189</ele>
        <time>2017-12-06T14:51:56Z</time>
      </trkpt>
      <trkpt lat="44.16267" lon="2.02769">
        <ele>189</ele>
        <time>2017-12-06T14:51:58Z</time>
      </trkpt>
      <trkpt lat="44.16269" lon="2.02771">
        <ele>189</ele>
        <time>2017-12-06T14:52:00Z</time>
      </trkpt>
      <trkpt lat="44.16272" lon="2.02774">
        <ele>189</ele>
        <time>2017-12-06T14:52:02Z</time>
      </trkpt>
      <trkpt lat="44.16274" lon="2.02776">
        <ele>189</ele>
        <time>2017-12-06T14:52:04Z</time>
      </trkpt>
      <trkpt lat="44.16277" lon="2.02778">
        <ele>190</ele>
        <time>2017-12-06T14:52:06Z</time>
      </trkpt>
      <trkpt lat="44.1628" lon="2.02779">
        <ele>190</ele>
        <time>2017-12-06T14:52:08Z</time>
      </trkpt>
      <trkpt lat="44.16282" lon="2.0278">
        <ele>190</ele>
        <time>2017-12-06T14:52:10Z</time>
      </trkpt>
      <trkpt lat="44.16285" lon="2.02781">
        <ele>191</ele>
        <time>2017-12-06T14:52:12Z</time>
      </trkpt>
      <trkpt lat="44.16287" lon="2.0278">
        <ele>191</ele>
        <time>2017-12-06T14:52:14Z</time>
      </trkpt>
      <trkpt lat="44.16289" lon="2.02779">
        <ele>190</ele>
        <time>2017-12-06T14:52:16Z</time>
      </trkpt>
      <trkpt lat="44.16291" lon="2.02779">
        <ele>190</ele>
        <time>2017-12-06T14:52:18Z</time>
      </trkpt>
      <trkpt lat="44.16294" lon="2.02777">
        <ele>189</ele>
        <time>2017-12-06T14:52:20Z</time>
      </trkpt>
      <trkpt lat="44.16296" lon="2.02775">
        <ele>189</ele>
        <time>2017-12-06T14:52:22Z</time>
      </trkpt>
      <trkpt lat="44.16298" lon="2.02773">
        <ele>188</ele>
        <time>2017-12-06T14:52:24Z</time>
      </trkpt>
      <trkpt lat="44.16301" lon="2.0277">
        <ele>187</ele>
        <time>2017-12-06T14:52:26Z</time>
      </trkpt>
      <trkpt lat="44.16302" lon="2.02768">
        <ele>186</ele>
        <time>2017-12-06T14:52:28Z</time>
      </trkpt>
      <trkpt lat="44.16304" lon="2.02766">
        <ele>184</ele>
        <time>2017-12-06T14:52:30Z</time>
      </trkpt>
      <trkpt lat="44.16306" lon="2.02765">
        <ele>184</ele>
        <time>2017-12-06T14:52:32Z</time>
      </trkpt>
      <trkpt lat="44.16309" lon="2.02763">
        <ele>183</ele>
        <time>2017-12-06T14:52:34Z</time>
      </trkpt>
      <trkpt lat="44.1631" lon="2.02761">
        <ele>181</ele>
        <time>2017-12-06T14:52:36Z</time>
      </trkpt>
      <trkpt lat="44.16312" lon="2.02759">
        <ele>180</ele>
        <time>2017-12-06T14:52:38Z</time>
      </trkpt>
      <trkpt lat="44.16314" lon="2.02755">
        <ele>179</ele>
        <time>2017-12-06T14:52:40Z</time>
      </trkpt>
      <trkpt lat="44.16315" lon="2.02752">
        <ele>179</ele>
        <time>2017-12-06T14:52:42Z</time>
      </trkpt>
      <trkpt lat="44.16317" lon="2.0275">
        <ele>178</ele>
        <time>2017-12-06T14:52:44Z</time>
      </trkpt>
      <trkpt lat="44.16319" lon="2.02747">
        <ele>178</ele>
        <time>2017-12-06T14:52:46Z</time>
      </trkpt>
      <trkpt lat="44.16322" lon="2.02744">
        <ele>177</ele>
        <time>2017-12-06T14:52:48Z</time>
      </trkpt>
      <trkpt lat="44.16323" lon="2.02742">
        <ele>177</ele>
        <time>2017-12-06T14:52:50Z</time>
      </trkpt>
      <trkpt lat="44.16325" lon="2.0274">
        <ele>177</ele>
        <time>2017-12-06T14:52:52Z</time>
      </trkpt>
      <trkpt lat="44.16327" lon="2.02737">
        <ele>176</ele>
        <time>2017-12-06T14:52:54Z</time>
      </trkpt>
      <trkpt lat="44.16327" lon="2.02735">
        <ele>175</ele>
        <time>2017-12-06T14:52:56Z</time>
      </trkpt>
      <trkpt lat="44.16328" lon="2.02733">
        <ele>174</ele>
        <time>2017-12-06T14:52:58Z</time>
      </trkpt>
      <trkpt lat="44.16329" lon="2.0273">
        <ele>172</ele>
        <time>2017-12-06T14:53:00Z</time>
      </trkpt>
      <trkpt lat="44.16329" lon="2.0273">
        <ele>170</ele>
        <time>2017-12-06T14:53:02Z</time>
      </trkpt>
      <trkpt lat="44.16331" lon="2.02726">
        <ele>167</ele>
        <time>2017-12-06T14:53:04Z</time>
      </trkpt>
      <trkpt lat="44.16333" lon="2.02723">
        <ele>165</ele>
        <time>2017-12-06T14:53:06Z</time>
      </trkpt>
      <trkpt lat="44.16335" lon="2.02721">
        <ele>163</ele>
        <time>2017-12-06T14:53:08Z</time>
      </trkpt>
      <trkpt lat="44.16338" lon="2.02718">
        <ele>162</ele>
        <time>2017-12-06T14:53:10Z</time>
      </trkpt>
      <trkpt lat="44.1634" lon="2.02715">
        <ele>161</ele>
        <time>2017-12-06T14:53:12Z</time>
      </trkpt>
      <trkpt lat="44.1634" lon="2.02715">
        <ele>161</ele>
        <time>2017-12-06T14:53:14Z</time>
      </trkpt>
      <trkpt lat="44.16346" lon="2.02712">
        <ele>161</ele>
        <time>2017-12-06T14:53:16Z</time>
      </trkpt>
      <trkpt lat="44.16349" lon="2.02711">
        <ele>162</ele>
        <time>2017-12-06T14:53:18Z</time>
      </trkpt>
      <trkpt lat="44.16351" lon="2.02711">
        <ele>164</ele>
        <time>2017-12-06T14:53:20Z</time>
      </trkpt>
      <trkpt lat="44.16351" lon="2.02711">
        <ele>165</ele>
        <time>2017-12-06T14:53:22Z</time>
      </trkpt>
      <trkpt lat="44.16355" lon="2.02708">
        <ele>166</ele>
        <time>2017-12-06T14:53:24Z</time>
      </trkpt>
      <trkpt lat="44.16358" lon="2.02707">
        <ele>166</ele>
        <time>2017-12-06T14:53:26Z</time>
      </trkpt>
      <trkpt lat="44.16361" lon="2.02705">
        <ele>167</ele>
        <time>2017-12-06T14:53:28Z</time>
      </trkpt>
      <trkpt lat="44.16361" lon="2.02705">
        <ele>167</ele>
        <time>2017-12-06T14:53:30Z</time>
      </trkpt>
      <trkpt lat="44.16361" lon="2.02705">
        <ele>167</ele>
        <time>2017-12-06T14:53:32Z</time>
      </trkpt>
      <trkpt lat="44.16363" lon="2.02701">
        <ele>167</ele>
        <time>2017-12-06T14:53:34Z</time>
      </trkpt>
      <trkpt lat="44.16367" lon="2.02699">
        <ele>166</ele>
        <time>2017-12-06T14:53:36Z</time>
      </trkpt>
      <trkpt lat="44.16371" lon="2.02698">
        <ele>166</ele>
        <time>2017-12-06T14:53:38Z</time>
      </trkpt>
      <trkpt lat="44.16374" lon="2.02696">
        <ele>166</ele>
        <time>2017-12-06T14:53:40Z</time>
      </trkpt>
      <trkpt lat="44.16376" lon="2.02694">
        <ele>166</ele>
        <time>2017-12-06T14:53:42Z</time>
      </trkpt>
      <trkpt lat="44.16379" lon="2.02692">
        <ele>166</ele>
        <time>2017-12-06T14:53:44Z</time>
      </trkpt>
      <trkpt lat="44.16382" lon="2.02691">
        <ele>166</ele>
        <time>2017-12-06T14:53:46Z</time>
      </trkpt>
      <trkpt lat="44.16383" lon="2.02689">
        <ele>166</ele>
        <time>2017-12-06T14:53:48Z</time>
      </trkpt>
      <trkpt lat="44.16386" lon="2.02687">
        <ele>166</ele>
        <time>2017-12-06T14:53:50Z</time>
      </trkpt>
      <trkpt lat="44.16388" lon="2.02687">
        <ele>167</ele>
        <time>2017-12-06T14:53:52Z</time>
      </trkpt>
      <trkpt lat="44.16391" lon="2.02686">
        <ele>167</ele>
        <time>2017-12-06T14:53:54Z</time>
      </trkpt>
      <trkpt lat="44.16392" lon="2.02683">
        <ele>166</ele>
        <time>2017-12-06T14:53:56Z</time>
      </trkpt>
      <trkpt lat="44.16396" lon="2.02681">
        <ele>166</ele>
        <time>2017-12-06T14:53:58Z</time>
      </trkpt>
      <trkpt lat="44.16399" lon="2.0268">
        <ele>166</ele>
        <time>2017-12-06T14:54:00Z</time>
      </trkpt>
      <trkpt lat="44.16404" lon="2.02678">
        <ele>166</ele>
        <time>2017-12-06T14:54:02Z</time>
      </trkpt>
      <trkpt lat="44.16408" lon="2.02677">
        <ele>166</ele>
        <time>2017-12-06T14:54:04Z</time>
      </trkpt>
      <trkpt lat="44.16411" lon="2.02676">
        <ele>166</ele>
        <time>2017-12-06T14:54:06Z</time>
      </trkpt>
      <trkpt lat="44.16413" lon="2.02675">
        <ele>167</ele>
        <time>2017-12-06T14:54:08Z</time>
      </trkpt>
      <trkpt lat="44.16417" lon="2.02674">
        <ele>168</ele>
        <time>2017-12-06T14:54:10Z</time>
      </trkpt>
      <trkpt lat="44.16419" lon="2.02673">
        <ele>168</ele>
        <time>2017-12-06T14:54:12Z</time>
      </trkpt>
      <trkpt lat="44.16422" lon="2.02672">
        <ele>169</ele>
        <time>2017-12-06T14:54:14Z</time>
      </trkpt>
      <trkpt lat="44.16424" lon="2.02671">
        <ele>170</ele>
        <time>2017-12-06T14:54:16Z</time>
      </trkpt>
      <trkpt lat="44.16427" lon="2.02669">
        <ele>170</ele>
        <time>2017-12-06T14:54:18Z</time>
      </trkpt>
      <trkpt lat="44.16429" lon="2.02668">
        <ele>171</ele>
        <time>2017-12-06T14:54:20Z</time>
      </trkpt>
      <trkpt lat="44.16432" lon="2.02667">
        <ele>171</ele>
        <time>2017-12-06T14:54:22Z</time>
      </trkpt>
      <trkpt lat="44.16434" lon="2.02666">
        <ele>171</ele>
        <time>2017-12-06T14:54:24Z</time>
      </trkpt>
      <trkpt lat="44.16434" lon="2.02666">
        <ele>171</ele>
        <time>2017-12-06T14:54:26Z</time>
      </trkpt>
      <trkpt lat="44.16436" lon="2.02665">
        <ele>171</ele>
        <time>2017-12-06T14:54:28Z</time>
      </trkpt>
      <trkpt lat="44.1644" lon="2.02664">
        <ele>172</ele>
        <time>2017-12-06T14:54:30Z</time>
      </trkpt>
      <trkpt lat="44.16443" lon="2.02665">
        <ele>172</ele>
        <time>2017-12-06T14:54:32Z</time>
      </trkpt>
      <trkpt lat="44.16447" lon="2.02664">
        <ele>173</ele>
        <time>2017-12-06T14:54:34Z</time>
      </trkpt>
      <trkpt lat="44.16451" lon="2.02663">
        <ele>174</ele>
        <time>2017-12-06T14:54:36Z</time>
      </trkpt>
      <trkpt lat="44.16454" lon="2.02663">
        <ele>174</ele>
        <time>2017-12-06T14:54:38Z</time>
      </trkpt>
      <trkpt lat="44.16456" lon="2.02662">
        <ele>175</ele>
        <time>2017-12-06T14:54:40Z</time>
      </trkpt>
      <trkpt lat="44.16459" lon="2.02661">
        <ele>175</ele>
        <time>2017-12-06T14:54:42Z</time>
      </trkpt>
      <trkpt lat="44.16462" lon="2.0266">
        <ele>176</ele>
        <time>2017-12-06T14:54:44Z</time>
      </trkpt>
      <trkpt lat="44.16466" lon="2.02658">
        <ele>176</ele>
        <time>2017-12-06T14:54:46Z</time>
      </trkpt>
      <trkpt lat="44.16468" lon="2.02658">
        <ele>176</ele>
        <time>2017-12-06T14:54:48Z</time>
      </trkpt>
      <trkpt lat="44.1647" lon="2.02658">
        <ele>177</ele>
        <time>2017-12-06T14:54:50Z</time>
      </trkpt>
      <trkpt lat="44.16474" lon="2.02656">
        <ele>177</ele>
        <time>2017-12-06T14:54:52Z</time>
      </trkpt>
      <trkpt lat="44.16476" lon="2.02655">
        <ele>177</ele>
        <time>2017-12-06T14:54:54Z</time>
      </trkpt>
      <trkpt lat="44.16478" lon="2.02655">
        <ele>177</ele>
        <time>2017-12-06T14:54:56Z</time>
      </trkpt>
      <trkpt lat="44.1648" lon="2.02654">
        <ele>177</ele>
        <time>2017-12-06T14:54:58Z</time>
      </trkpt>
      <trkpt lat="44.16482" lon="2.02652">
        <ele>177</ele>
        <time>2017-12-06T14:55:00Z</time>
      </trkpt>
      <trkpt lat="44.16485" lon="2.02652">
        <ele>177</ele>
        <time>2017-12-06T14:55:02Z</time>
      </trkpt>
      <trkpt lat="44.16486" lon="2.02654">
        <ele>177</ele>
        <time>2017-12-06T14:55:04Z</time>
      </trkpt>
      <trkpt lat="44.16488" lon="2.02654">
        <ele>177</ele>
        <time>2017-12-06T14:55:06Z</time>
      </trkpt>
      <trkpt lat="44.16491" lon="2.02654">
        <ele>177</ele>
        <time>2017-12-06T14:55:08Z</time>
      </trkpt>
      <trkpt lat="44.16493" lon="2.02654">
        <ele>177</ele>
        <time>2017-12-06T14:55:10Z</time>
      </trkpt>
      <trkpt lat="44.16495" lon="2.02655">
        <ele>177</ele>
        <time>2017-12-06T14:55:12Z</time>
      </trkpt>
      <trkpt lat="44.16497" lon="2.02656">
        <ele>177</ele>
        <time>2017-12-06T14:55:14Z</time>
      </trkpt>
      <trkpt lat="44.16498" lon="2.02659">
        <ele>177</ele>
        <time>2017-12-06T14:55:16Z</time>
      </trkpt>
      <trkpt lat="44.16498" lon="2.02662">
        <ele>178</ele>
        <time>2017-12-06T14:55:18Z</time>
      </trkpt>
      <trkpt lat="44.16499" lon="2.02667">
        <ele>178</ele>
        <time>2017-12-06T14:55:20Z</time>
      </trkpt>
      <trkpt lat="44.165" lon="2.02669">
        <ele>178</ele>
        <time>2017-12-06T14:55:22Z</time>
      </trkpt>
      <trkpt lat="44.16503" lon="2.02669">
        <ele>179</ele>
        <time>2017-12-06T14:55:24Z</time>
      </trkpt>
      <trkpt lat="44.16507" lon="2.02668">
        <ele>180</ele>
        <time>2017-12-06T14:55:26Z</time>
      </trkpt>
      <trkpt lat="44.16511" lon="2.02667">
        <ele>180</ele>
        <time>2017-12-06T14:55:28Z</time>
      </trkpt>
      <trkpt lat="44.16515" lon="2.02665">
        <ele>181</ele>
        <time>2017-12-06T14:55:30Z</time>
      </trkpt>
      <trkpt lat="44.16518" lon="2.02663">
        <ele>181</ele>
        <time>2017-12-06T14:55:32Z</time>
      </trkpt>
      <trkpt lat="44.16522" lon="2.02662">
        <ele>181</ele>
        <time>2017-12-06T14:55:34Z</time>
      </trkpt>
      <trkpt lat="44.16526" lon="2.02659">
        <ele>181</ele>
        <time>2017-12-06T14:55:36Z</time>
      </trkpt>
      <trkpt lat="44.16531" lon="2.02657">
        <ele>181</ele>
        <time>2017-12-06T14:55:38Z</time>
      </trkpt>
      <trkpt lat="44.16535" lon="2.02654">
        <ele>181</ele>
        <time>2017-12-06T14:55:40Z</time>
      </trkpt>
      <trkpt lat="44.1654" lon="2.02652">
        <ele>181</ele>
        <time>2017-12-06T14:55:42Z</time>
      </trkpt>
      <trkpt lat="44.16543" lon="2.02652">
        <ele>181</ele>
        <time>2017-12-06T14:55:44Z</time>
      </trkpt>
      <trkpt lat="44.16547" lon="2.0265">
        <ele>181</ele>
        <time>2017-12-06T14:55:46Z</time>
      </trkpt>
      <trkpt lat="44.16549" lon="2.02649">
        <ele>181</ele>
        <time>2017-12-06T14:55:48Z</time>
      </trkpt>
      <trkpt lat="44.16552" lon="2.02648">
        <ele>181</ele>
        <time>2017-12-06T14:55:50Z</time>
      </trkpt>
      <trkpt lat="44.16556" lon="2.02646">
        <ele>181</ele>
        <time>2017-12-06T14:55:52Z</time>
      </trkpt>
      <trkpt lat="44.16558" lon="2.02647">
        <ele>181</ele>
        <time>2017-12-06T14:55:54Z</time>
      </trkpt>
      <trkpt lat="44.16561" lon="2.02648">
        <ele>181</ele>
        <time>2017-12-06T14:55:56Z</time>
      </trkpt>
      <trkpt lat="44.16564" lon="2.02647">
        <ele>181</ele>
        <time>2017-12-06T14:55:58Z</time>
      </trkpt>
      <trkpt lat="44.16568" lon="2.02646">
        <ele>182</ele>
        <time>2017-12-06T14:56:00Z</time>
      </trkpt>
      <trkpt lat="44.16571" lon="2.02645">
        <ele>182</ele>
        <time>2017-12-06T14:56:02Z</time>
      </trkpt>
      <trkpt lat="44.16573" lon="2.02646">
        <ele>182</ele>
        <time>2017-12-06T14:56:04Z</time>
      </trkpt>
      <trkpt lat="44.16576" lon="2.02646">
        <ele>183</ele>
        <time>2017-12-06T14:56:06Z</time>
      </trkpt>
      <trkpt lat="44.16579" lon="2.02647">
        <ele>183</ele>
        <time>2017-12-06T14:56:08Z</time>
      </trkpt>
      <trkpt lat="44.1658" lon="2.02647">
        <ele>183</ele>
        <time>2017-12-06T14:56:10Z</time>
      </trkpt>
      <trkpt lat="44.16582" lon="2.02649">
        <ele>183</ele>
        <time>2017-12-06T14:56:12Z</time>
      </trkpt>
      <trkpt lat="44.16584" lon="2.02649">
        <ele>182</ele>
        <time>2017-12-06T14:56:14Z</time>
      </trkpt>
      <trkpt lat="44.16586" lon="2.0265">
        <ele>182</ele>
        <time>2017-12-06T14:56:16Z</time>
      </trkpt>
      <trkpt lat="44.16589" lon="2.02649">
        <ele>182</ele>
        <time>2017-12-06T14:56:18Z</time>
      </trkpt>
      <trkpt lat="44.16592" lon="2.02649">
        <ele>181</ele>
        <time>2017-12-06T14:56:20Z</time>
      </trkpt>
      <trkpt lat="44.16595" lon="2.02648">
        <ele>181</ele>
        <time>2017-12-06T14:56:22Z</time>
      </trkpt>
      <trkpt lat="44.16597" lon="2.02649">
        <ele>180</ele>
        <time>2017-12-06T14:56:24Z</time>
      </trkpt>
      <trkpt lat="44.16598" lon="2.02652">
        <ele>180</ele>
        <time>2017-12-06T14:56:26Z</time>
      </trkpt>
      <trkpt lat="44.16599" lon="2.02655">
        <ele>180</ele>
        <time>2017-12-06T14:56:28Z</time>
      </trkpt>
      <trkpt lat="44.16599" lon="2.02655">
        <ele>179</ele>
        <time>2017-12-06T14:56:30Z</time>
      </trkpt>
      <trkpt lat="44.16599" lon="2.02655">
        <ele>179</ele>
        <time>2017-12-06T14:56:32Z</time>
      </trkpt>
      <trkpt lat="44.16605" lon="2.02656">
        <ele>179</ele>
        <time>2017-12-06T14:56:34Z</time>
      </trkpt>
      <trkpt lat="44.16606" lon="2.02659">
        <ele>179</ele>
        <time>2017-12-06T14:56:36Z</time>
      </trkpt>
      <trkpt lat="44.16607" lon="2.02662">
        <ele>179</ele>
        <time>2017-12-06T14:56:38Z</time>
      </trkpt>
      <trkpt lat="44.16608" lon="2.02662">
        <ele>179</ele>
        <time>2017-12-06T14:56:40Z</time>
      </trkpt>
      <trkpt lat="44.1661" lon="2.02664">
        <ele>179</ele>
        <time>2017-12-06T14:56:42Z</time>
      </trkpt>
      <trkpt lat="44.16612" lon="2.02665">
        <ele>179</ele>
        <time>2017-12-06T14:56:44Z</time>
      </trkpt>
      <trkpt lat="44.16614" lon="2.02667">
        <ele>179</ele>
        <time>2017-12-06T14:56:46Z</time>
      </trkpt>
      <trkpt lat="44.16617" lon="2.02667">
        <ele>179</ele>
        <time>2017-12-06T14:56:48Z</time>
      </trkpt>
      <trkpt lat="44.16619" lon="2.02669">
        <ele>179</ele>
        <time>2017-12-06T14:56:50Z</time>
      </trkpt>
      <trkpt lat="44.16621" lon="2.02671">
        <ele>179</ele>
        <time>2017-12-06T14:56:52Z</time>
      </trkpt>
      <trkpt lat="44.16623" lon="2.02673">
        <ele>180</ele>
        <time>2017-12-06T14:56:54Z</time>
      </trkpt>
      <trkpt lat="44.16626" lon="2.02674">
        <ele>179</ele>
        <time>2017-12-06T14:56:56Z</time>
      </trkpt>
      <trkpt lat="44.16628" lon="2.02676">
        <ele>179</ele>
        <time>2017-12-06T14:56:58Z</time>
      </trkpt>
      <trkpt lat="44.16632" lon="2.02675">
        <ele>179</ele>
        <time>2017-12-06T14:57:00Z</time>
      </trkpt>
      <trkpt lat="44.16635" lon="2.02675">
        <ele>179</ele>
        <time>2017-12-06T14:57:02Z</time>
      </trkpt>
      <trkpt lat="44.16639" lon="2.02675">
        <ele>178</ele>
        <time>2017-12-06T14:57:04Z</time>
      </trkpt>
      <trkpt lat="44.16643" lon="2.02673">
        <ele>178</ele>
        <time>2017-12-06T14:57:06Z</time>
      </trkpt>
      <trkpt lat="44.16644" lon="2.02675">
        <ele>177</ele>
        <time>2017-12-06T14:57:08Z</time>
      </trkpt>
      <trkpt lat="44.16646" lon="2.02677">
        <ele>177</ele>
        <time>2017-12-06T14:57:10Z</time>
      </trkpt>
      <trkpt lat="44.16647" lon="2.0268">
        <ele>177</ele>
        <time>2017-12-06T14:57:12Z</time>
      </trkpt>
      <trkpt lat="44.16648" lon="2.02683">
        <ele>176</ele>
        <time>2017-12-06T14:57:14Z</time>
      </trkpt>
      <trkpt lat="44.16651" lon="2.02685">
        <ele>176</ele>
        <time>2017-12-06T14:57:16Z</time>
      </trkpt>
      <trkpt lat="44.16652" lon="2.02687">
        <ele>176</ele>
        <time>2017-12-06T14:57:18Z</time>
      </trkpt>
      <trkpt lat="44.16654" lon="2.02688">
        <ele>176</ele>
        <time>2017-12-06T14:57:20Z</time>
      </trkpt>
      <trkpt lat="44.16659" lon="2.02689">
        <ele>177</ele>
        <time>2017-12-06T14:57:22Z</time>
      </trkpt>
      <trkpt lat="44.16662" lon="2.02689">
        <ele>177</ele>
        <time>2017-12-06T14:57:24Z</time>
      </trkpt>
      <trkpt lat="44.16667" lon="2.02688">
        <ele>177</ele>
        <time>2017-12-06T14:57:26Z</time>
      </trkpt>
      <trkpt lat="44.16672" lon="2.02687">
        <ele>177</ele>
        <time>2017-12-06T14:57:28Z</time>
      </trkpt>
      <trkpt lat="44.16674" lon="2.02687">
        <ele>177</ele>
        <time>2017-12-06T14:57:30Z</time>
      </trkpt>
      <trkpt lat="44.16677" lon="2.02687">
        <ele>177</ele>
        <time>2017-12-06T14:57:32Z</time>
      </trkpt>
      <trkpt lat="44.16681" lon="2.02686">
        <ele>176</ele>
        <time>2017-12-06T14:57:34Z</time>
      </trkpt>
      <trkpt lat="44.16686" lon="2.02684">
        <ele>176</ele>
        <time>2017-12-06T14:57:36Z</time>
      </trkpt>
      <trkpt lat="44.16691" lon="2.02682">
        <ele>176</ele>
        <time>2017-12-06T14:57:38Z</time>
      </trkpt>
      <trkpt lat="44.16694" lon="2.02683">
        <ele>176</ele>
        <time>2017-12-06T14:57:40Z</time>
      </trkpt>
      <trkpt lat="44.16696" lon="2.02685">
        <ele>176</ele>
        <time>2017-12-06T14:57:42Z</time>
      </trkpt>
      <trkpt lat="44.16697" lon="2.02685">
        <ele>176</ele>
        <time>2017-12-06T14:57:44Z</time>
      </trkpt>
      <trkpt lat="44.16699" lon="2.02687">
        <ele>176</ele>
        <time>2017-12-06T14:57:46Z</time>
      </trkpt>
      <trkpt lat="44.16699" lon="2.02687">
        <ele>176</ele>
        <time>2017-12-06T14:57:48Z</time>
      </trkpt>
      <trkpt lat="44.16702" lon="2.0269">
        <ele>176</ele>
        <time>2017-12-06T14:57:50Z</time>
      </trkpt>
      <trkpt lat="44.16704" lon="2.02692">
        <ele>176</ele>
        <time>2017-12-06T14:57:52Z</time>
      </trkpt>
      <trkpt lat="44.16706" lon="2.02693">
        <ele>176</ele>
        <time>2017-12-06T14:57:54Z</time>
      </trkpt>
      <trkpt lat="44.16709" lon="2.02695">
        <ele>176</ele>
        <time>2017-12-06T14:57:56Z</time>
      </trkpt>
      <trkpt lat="44.16712" lon="2.02696">
        <ele>175</ele>
        <time>2017-12-06T14:57:58Z</time>
      </trkpt>
      <trkpt lat="44.16715" lon="2.02696">
        <ele>175</ele>
        <time>2017-12-06T14:58:00Z</time>
      </trkpt>
      <trkpt lat="44.16719" lon="2.02696">
        <ele>175</ele>
        <time>2017-12-06T14:58:02Z</time>
      </trkpt>
      <trkpt lat="44.16721" lon="2.02697">
        <ele>174</ele>
        <time>2017-12-06T14:58:04Z</time>
      </trkpt>
      <trkpt lat="44.16725" lon="2.02697">
        <ele>174</ele>
        <time>2017-12-06T14:58:06Z</time>
      </trkpt>
      <trkpt lat="44.16727" lon="2.02699">
        <ele>173</ele>
        <time>2017-12-06T14:58:08Z</time>
      </trkpt>
      <trkpt lat="44.1673" lon="2.027">
        <ele>173</ele>
        <time>2017-12-06T14:58:10Z</time>
      </trkpt>
      <trkpt lat="44.16732" lon="2.02702">
        <ele>172</ele>
        <time>2017-12-06T14:58:12Z</time>
      </trkpt>
      <trkpt lat="44.16736" lon="2.02702">
        <ele>171</ele>
        <time>2017-12-06T14:58:14Z</time>
      </trkpt>
      <trkpt lat="44.16739" lon="2.02702">
        <ele>171</ele>
        <time>2017-12-06T14:58:16Z</time>
      </trkpt>
      <trkpt lat="44.16742" lon="2.02703">
        <ele>170</ele>
        <time>2017-12-06T14:58:18Z</time>
      </trkpt>
      <trkpt lat="44.16744" lon="2.02704">
        <ele>170</ele>
        <time>2017-12-06T14:58:20Z</time>
      </trkpt>
      <trkpt lat="44.16749" lon="2.02705">
        <ele>169</ele>
        <time>2017-12-06T14:58:22Z</time>
      </trkpt>
      <trkpt lat="44.16751" lon="2.02706">
        <ele>169</ele>
        <time>2017-12-06T14:58:24Z</time>
      </trkpt>
      <trkpt lat="44.16753" lon="2.02709">
        <ele>169</ele>
        <time>2017-12-06T14:58:26Z</time>
      </trkpt>
      <trkpt lat="44.16758" lon="2.0271">
        <ele>169</ele>
        <time>2017-12-06T14:58:28Z</time>
      </trkpt>
      <trkpt lat="44.1676" lon="2.02712">
        <ele>169</ele>
        <time>2017-12-06T14:58:30Z</time>
      </trkpt>
      <trkpt lat="44.16762" lon="2.02716">
        <ele>169</ele>
        <time>2017-12-06T14:58:32Z</time>
      </trkpt>
      <trkpt lat="44.16763" lon="2.02719">
        <ele>169</ele>
        <time>2017-12-06T14:58:34Z</time>
      </trkpt>
      <trkpt lat="44.16765" lon="2.02721">
        <ele>169</ele>
        <time>2017-12-06T14:58:36Z</time>
      </trkpt>
      <trkpt lat="44.16767" lon="2.02722">
        <ele>169</ele>
        <time>2017-12-06T14:58:38Z</time>
      </trkpt>
      <trkpt lat="44.16768" lon="2.02725">
        <ele>169</ele>
        <time>2017-12-06T14:58:40Z</time>
      </trkpt>
      <trkpt lat="44.16771" lon="2.02727">
        <ele>169</ele>
        <time>2017-12-06T14:58:42Z</time>
      </trkpt>
      <trkpt lat="44.16773" lon="2.0273">
        <ele>170</ele>
        <time>2017-12-06T14:58:44Z</time>
      </trkpt>
      <trkpt lat="44.16774" lon="2.02732">
        <ele>170</ele>
        <time>2017-12-06T14:58:46Z</time>
      </trkpt>
      <trkpt lat="44.16775" lon="2.02736">
        <ele>171</ele>
        <time>2017-12-06T14:58:48Z</time>
      </trkpt>
      <trkpt lat="44.16776" lon="2.02739">
        <ele>171</ele>
        <time>2017-12-06T14:58:50Z</time>
      </trkpt>
      <trkpt lat="44.16777" lon="2.02742">
        <ele>171</ele>
        <time>2017-12-06T14:58:52Z</time>
      </trkpt>
      <trkpt lat="44.1678" lon="2.02744">
        <ele>172</ele>
        <time>2017-12-06T14:58:54Z</time>
      </trkpt>
      <trkpt lat="44.16781" lon="2.02747">
        <ele>171</ele>
        <time>2017-12-06T14:58:56Z</time>
      </trkpt>
      <trkpt lat="44.16784" lon="2.0275">
        <ele>171</ele>
        <time>2017-12-06T14:58:58Z</time>
      </trkpt>
      <trkpt lat="44.16786" lon="2.02752">
        <ele>171</ele>
        <time>2017-12-06T14:59:00Z</time>
      </trkpt>
      <trkpt lat="44.16787" lon="2.02755">
        <ele>170</ele>
        <time>2017-12-06T14:59:02Z</time>
      </trkpt>
      <trkpt lat="44.16789" lon="2.02759">
        <ele>170</ele>
        <time>2017-12-06T14:59:04Z</time>
      </trkpt>
      <trkpt lat="44.16791" lon="2.02762">
        <ele>169</ele>
        <time>2017-12-06T14:59:06Z</time>
      </trkpt>
      <trkpt lat="44.16795" lon="2.02765">
        <ele>169</ele>
        <time>2017-12-06T14:59:08Z</time>
      </trkpt>
      <trkpt lat="44.16797" lon="2.02767">
        <ele>168</ele>
        <time>2017-12-06T14:59:10Z</time>
      </trkpt>
      <trkpt lat="44.168" lon="2.02769">
        <ele>168</ele>
        <time>2017-12-06T14:59:12Z</time>
      </trkpt>
      <trkpt lat="44.16801" lon="2.02771">
        <ele>168</ele>
        <time>2017-12-06T14:59:14Z</time>
      </trkpt>
      <trkpt lat="44.16803" lon="2.02774">
        <ele>168</ele>
        <time>2017-12-06T14:59:16Z</time>
      </trkpt>
      <trkpt lat="44.16807" lon="2.02775">
        <ele>168</ele>
        <time>2017-12-06T14:59:18Z</time>
      </trkpt>
      <trkpt lat="44.1681" lon="2.02777">
        <ele>167</ele>
        <time>2017-12-06T14:59:20Z</time>
      </trkpt>
      <trkpt lat="44.16812" lon="2.02779">
        <ele>167</ele>
        <time>2017-12-06T14:59:22Z</time>
      </trkpt>
      <trkpt lat="44.16813" lon="2.02782">
        <ele>167</ele>
        <time>2017-12-06T14:59:24Z</time>
      </trkpt>
      <trkpt lat="44.16816" lon="2.02784">
        <ele>167</ele>
        <time>2017-12-06T14:59:26Z</time>
      </trkpt>
      <trkpt lat="44.16817" lon="2.02786">
        <ele>167</ele>
        <time>2017-12-06T14:59:28Z</time>
      </trkpt>
      <trkpt lat="44.16819" lon="2.02789">
        <ele>166</ele>
        <time>2017-12-06T14:59:30Z</time>
      </trkpt>
      <trkpt lat="44.16821" lon="2.02792">
        <ele>166</ele>
        <time>2017-12-06T14:59:32Z</time>
      </trkpt>
      <trkpt lat="44.16823" lon="2.02794">
        <ele>166</ele>
        <time>2017-12-06T14:59:34Z</time>
      </trkpt>
      <trkpt lat="44.16824" lon="2.02798">
        <ele>165</ele>
        <time>2017-12-06T14:59:36Z</time>
      </trkpt>
      <trkpt lat="44.16828" lon="2.028">
        <ele>165</ele>
        <time>2017-12-06T14:59:38Z</time>
      </trkpt>
      <trkpt lat="44.1683" lon="2.02802">
        <ele>165</ele>
        <time>2017-12-06T14:59:40Z</time>
      </trkpt>
      <trkpt lat="44.16832" lon="2.02804">
        <ele>164</ele>
        <time>2017-12-06T14:59:42Z</time>
      </trkpt>
      <trkpt lat="44.16833" lon="2.02807">
        <ele>164</ele>
        <time>2017-12-06T14:59:44Z</time>
      </trkpt>
      <trkpt lat="44.16836" lon="2.0281">
        <ele>164</ele>
        <time>2017-12-06T14:59:46Z</time>
      </trkpt>
      <trkpt lat="44.16838" lon="2.02812">
        <ele>163</ele>
        <time>2017-12-06T14:59:48Z</time>
      </trkpt>
      <trkpt lat="44.1684" lon="2.02815">
        <ele>163</ele>
        <time>2017-12-06T14:59:50Z</time>
      </trkpt>
      <trkpt lat="44.16842" lon="2.02816">
        <ele>162</ele>
        <time>2017-12-06T14:59:52Z</time>
      </trkpt>
      <trkpt lat="44.16844" lon="2.02819">
        <ele>162</ele>
        <time>2017-12-06T14:59:54Z</time>
      </trkpt>
      <trkpt lat="44.16846" lon="2.02821">
        <ele>161</ele>
        <time>2017-12-06T14:59:56Z</time>
      </trkpt>
      <trkpt lat="44.16847" lon="2.02825">
        <ele>161</ele>
        <time>2017-12-06T14:59:58Z</time>
      </trkpt>
      <trkpt lat="44.16848" lon="2.02828">
        <ele>161</ele>
        <time>2017-12-06T15:00:00Z</time>
      </trkpt>
      <trkpt lat="44.16849" lon="2.0283">
        <ele>160</ele>
        <time>2017-12-06T15:00:02Z</time>
      </trkpt>
      <trkpt lat="44.16852" lon="2.02834">
        <ele>160</ele>
        <time>2017-12-06T15:00:04Z</time>
      </trkpt>
      <trkpt lat="44.16853" lon="2.02836">
        <ele>160</ele>
        <time>2017-12-06T15:00:06Z</time>
      </trkpt>
      <trkpt lat="44.16854" lon="2.02839">
        <ele>160</ele>
        <time>2017-12-06T15:00:08Z</time>
      </trkpt>
      <trkpt lat="44.16855" lon="2.02842">
        <ele>161</ele>
        <time>2017-12-06T15:00:10Z</time>
      </trkpt>
      <trkpt lat="44.16857" lon="2.02845">
        <ele>161</ele>
        <time>2017-12-06T15:00:12Z</time>
      </trkpt>
      <trkpt lat="44.16858" lon="2.0285">
        <ele>161</ele>
        <time>2017-12-06T15:00:14Z</time>
      </trkpt>
      <trkpt lat="44.16858" lon="2.02854">
        <ele>162</ele>
        <time>2017-12-06T15:00:16Z</time>
      </trkpt>
      <trkpt lat="44.1686" lon="2.02857">
        <ele>162</ele>
        <time>2017-12-06T15:00:18Z</time>
      </trkpt>
      <trkpt lat="44.16861" lon="2.02861">
        <ele>162</ele>
        <time>2017-12-06T15:00:20Z</time>
      </trkpt>
      <trkpt lat="44.16862" lon="2.02865">
        <ele>163</ele>
        <time>2017-12-06T15:00:22Z</time>
      </trkpt>
      <trkpt lat="44.16863" lon="2.02869">
        <ele>163</ele>
        <time>2017-12-06T15:00:24Z</time>
      </trkpt>
      <trkpt lat="44.16864" lon="2.02872">
        <ele>164</ele>
        <time>2017-12-06T15:00:26Z</time>
      </trkpt>
      <trkpt lat="44.16867" lon="2.02875">
        <ele>164</ele>
        <time>2017-12-06T15:00:28Z</time>
      </trkpt>
      <trkpt lat="44.16871" lon="2.02877">
        <ele>164</ele>
        <time>2017-12-06T15:00:30Z</time>
      </trkpt>
      <trkpt lat="44.16875" lon="2.02879">
        <ele>165</ele>
        <time>2017-12-06T15:00:32Z</time>
      </trkpt>
      <trkpt lat="44.16877" lon="2.02881">
        <ele>165</ele>
        <time>2017-12-06T15:00:34Z</time>
      </trkpt>
      <trkpt lat="44.16879" lon="2.02884">
        <ele>165</ele>
        <time>2017-12-06T15:00:36Z</time>
      </trkpt>
      <trkpt lat="44.16881" lon="2.02886">
        <ele>165</ele>
        <time>2017-12-06T15:00:38Z</time>
      </trkpt>
      <trkpt lat="44.16882" lon="2.02889">
        <ele>165</ele>
        <time>2017-12-06T15:00:40Z</time>
      </trkpt>
      <trkpt lat="44.16883" lon="2.02894">
        <ele>165</ele>
        <time>2017-12-06T15:00:42Z</time>
      </trkpt>
      <trkpt lat="44.16886" lon="2.02897">
        <ele>165</ele>
        <time>2017-12-06T15:00:44Z</time>
      </trkpt>
      <trkpt lat="44.16888" lon="2.02901">
        <ele>165</ele>
        <time>2017-12-06T15:00:46Z</time>
      </trkpt>
      <trkpt lat="44.16889" lon="2.02906">
        <ele>165</ele>
        <time>2017-12-06T15:00:48Z</time>
      </trkpt>
      <trkpt lat="44.1689" lon="2.02911">
        <ele>165</ele>
        <time>2017-12-06T15:00:50Z</time>
      </trkpt>
      <trkpt lat="44.16892" lon="2.02914">
        <ele>165</ele>
        <time>2017-12-06T15:00:52Z</time>
      </trkpt>
      <trkpt lat="44.16895" lon="2.02916">
        <ele>165</ele>
        <time>2017-12-06T15:00:54Z</time>
      </trkpt>
      <trkpt lat="44.16895" lon="2.02921">
        <ele>166</ele>
        <time>2017-12-06T15:00:56Z</time>
      </trkpt>
      <trkpt lat="44.16897" lon="2.02925">
        <ele>166</ele>
        <time>2017-12-06T15:00:58Z</time>
      </trkpt>
      <trkpt lat="44.169" lon="2.02927">
        <ele>166</ele>
        <time>2017-12-06T15:01:00Z</time>
      </trkpt>
      <trkpt lat="44.16902" lon="2.02929">
        <ele>167</ele>
        <time>2017-12-06T15:01:02Z</time>
      </trkpt>
      <trkpt lat="44.16904" lon="2.02932">
        <ele>167</ele>
        <time>2017-12-06T15:01:04Z</time>
      </trkpt>
      <trkpt lat="44.16905" lon="2.02935">
        <ele>167</ele>
        <time>2017-12-06T15:01:06Z</time>
      </trkpt>
      <trkpt lat="44.16906" lon="2.02938">
        <ele>167</ele>
        <time>2017-12-06T15:01:08Z</time>
      </trkpt>
      <trkpt lat="44.16908" lon="2.02941">
        <ele>168</ele>
        <time>2017-12-06T15:01:10Z</time>
      </trkpt>
      <trkpt lat="44.16909" lon="2.02943">
        <ele>168</ele>
        <time>2017-12-06T15:01:12Z</time>
      </trkpt>
      <trkpt lat="44.16911" lon="2.02946">
        <ele>169</ele>
        <time>2017-12-06T15:01:14Z</time>
      </trkpt>
      <trkpt lat="44.16913" lon="2.02948">
        <ele>170</ele>
        <time>2017-12-06T15:01:16Z</time>
      </trkpt>
      <trkpt lat="44.16915" lon="2.02951">
        <ele>170</ele>
        <time>2017-12-06T15:01:18Z</time>
      </trkpt>
      <trkpt lat="44.16917" lon="2.02953">
        <ele>171</ele>
        <time>2017-12-06T15:01:20Z</time>
      </trkpt>
      <trkpt lat="44.16918" lon="2.02955">
        <ele>172</ele>
        <time>2017-12-06T15:01:22Z</time>
      </trkpt>
      <trkpt lat="44.1692" lon="2.02957">
        <ele>172</ele>
        <time>2017-12-06T15:01:24Z</time>
      </trkpt>
      <trkpt lat="44.16921" lon="2.02959">
        <ele>173</ele>
        <time>2017-12-06T15:01:26Z</time>
      </trkpt>
      <trkpt lat="44.16923" lon="2.02961">
        <ele>173</ele>
        <time>2017-12-06T15:01:28Z</time>
      </trkpt>
      <trkpt lat="44.16924" lon="2.02961">
        <ele>173</ele>
        <time>2017-12-06T15:01:30Z</time>
      </trkpt>
      <trkpt lat="44.16927" lon="2.02963">
        <ele>174</ele>
        <time>2017-12-06T15:01:32Z</time>
      </trkpt>
      <trkpt lat="44.16928" lon="2.02966">
        <ele>174</ele>
        <time>2017-12-06T15:01:34Z</time>
      </trkpt>
      <trkpt lat="44.16931" lon="2.02967">
        <ele>175</ele>
        <time>2017-12-06T15:01:36Z</time>
      </trkpt>
      <trkpt lat="44.16933" lon="2.02968">
        <ele>175</ele>
        <time>2017-12-06T15:01:38Z</time>
      </trkpt>
      <trkpt lat="44.16935" lon="2.02971">
        <ele>176</ele>
        <time>2017-12-06T15:01:40Z</time>
      </trkpt>
      <trkpt lat="44.16937" lon="2.02974">
        <ele>176</ele>
        <time>2017-12-06T15:01:42Z</time>
      </trkpt>
      <trkpt lat="44.16939" lon="2.02976">
        <ele>177</ele>
        <time>2017-12-06T15:01:44Z</time>
      </trkpt>
      <trkpt lat="44.16941" lon="2.02978">
        <ele>177</ele>
        <time>2017-12-06T15:01:46Z</time>
      </trkpt>
      <trkpt lat="44.16942" lon="2.0298">
        <ele>177</ele>
        <time>2017-12-06T15:01:48Z</time>
      </trkpt>
      <trkpt lat="44.16943" lon="2.02982">
        <ele>178</ele>
        <time>2017-12-06T15:01:50Z</time>
      </trkpt>
      <trkpt lat="44.16943" lon="2.02985">
        <ele>177</ele>
        <time>2017-12-06T15:01:52Z</time>
      </trkpt>
      <trkpt lat="44.16944" lon="2.02989">
        <ele>177</ele>
        <time>2017-12-06T15:01:54Z</time>
      </trkpt>
      <trkpt lat="44.16945" lon="2.02992">
        <ele>176</ele>
        <time>2017-12-06T15:01:56Z</time>
      </trkpt>
      <trkpt lat="44.16946" lon="2.02994">
        <ele>176</ele>
        <time>2017-12-06T15:01:58Z</time>
      </trkpt>
      <trkpt lat="44.16947" lon="2.02997">
        <ele>175</ele>
        <time>2017-12-06T15:02:00Z</time>
      </trkpt>
      <trkpt lat="44.16948" lon="2.03">
        <ele>174</ele>
        <time>2017-12-06T15:02:02Z</time>
      </trkpt>
      <trkpt lat="44.16949" lon="2.03003">
        <ele>173</ele>
        <time>2017-12-06T15:02:04Z</time>
      </trkpt>
      <trkpt lat="44.16951" lon="2.03006">
        <ele>172</ele>
        <time>2017-12-06T15:02:06Z</time>
      </trkpt>
      <trkpt lat="44.16952" lon="2.03008">
        <ele>171</ele>
        <time>2017-12-06T15:02:08Z</time>
      </trkpt>
      <trkpt lat="44.16953" lon="2.03011">
        <ele>171</ele>
        <time>2017-12-06T15:02:10Z</time>
      </trkpt>
      <trkpt lat="44.16954" lon="2.03014">
        <ele>170</ele>
        <time>2017-12-06T15:02:12Z</time>
      </trkpt>
      <trkpt lat="44.16954" lon="2.03018">
        <ele>170</ele>
        <time>2017-12-06T15:02:14Z</time>
      </trkpt>
      <trkpt lat="44.16955" lon="2.03021">
        <ele>169</ele>
        <time>2017-12-06T15:02:16Z</time>
      </trkpt>
      <trkpt lat="44.16957" lon="2.03024">
        <ele>169</ele>
        <time>2017-12-06T15:02:18Z</time>
      </trkpt>
      <trkpt lat="44.16957" lon="2.03028">
        <ele>169</ele>
        <time>2017-12-06T15:02:20Z</time>
      </trkpt>
      <trkpt lat="44.16958" lon="2.03031">
        <ele>169</ele>
        <time>2017-12-06T15:02:22Z</time>
      </trkpt>
      <trkpt lat="44.16959" lon="2.03035">
        <ele>168</ele>
        <time>2017-12-06T15:02:24Z</time>
      </trkpt>
      <trkpt lat="44.1696" lon="2.03039">
        <ele>168</ele>
        <time>2017-12-06T15:02:26Z</time>
      </trkpt>
      <trkpt lat="44.16961" lon="2.03042">
        <ele>168</ele>
        <time>2017-12-06T15:02:28Z</time>
      </trkpt>
      <trkpt lat="44.16962" lon="2.03046">
        <ele>168</ele>
        <time>2017-12-06T15:02:30Z</time>
      </trkpt>
      <trkpt lat="44.16962" lon="2.03049">
        <ele>168</ele>
        <time>2017-12-06T15:02:32Z</time>
      </trkpt>
      <trkpt lat="44.16962" lon="2.03054">
        <ele>168</ele>
        <time>2017-12-06T15:02:34Z</time>
      </trkpt>
      <trkpt lat="44.16963" lon="2.03058">
        <ele>168</ele>
        <time>2017-12-06T15:02:36Z</time>
      </trkpt>
      <trkpt lat="44.16965" lon="2.03061">
        <ele>168</ele>
        <time>2017-12-06T15:02:38Z</time>
      </trkpt>
      <trkpt lat="44.16965" lon="2.03064">
        <ele>168</ele>
        <time>2017-12-06T15:02:40Z</time>
      </trkpt>
      <trkpt lat="44.16965" lon="2.03069">
        <ele>168</ele>
        <time>2017-12-06T15:02:42Z</time>
      </trkpt>
      <trkpt lat="44.16965" lon="2.03073">
        <ele>168</ele>
        <time>2017-12-06T15:02:44Z</time>
      </trkpt>
      <trkpt lat="44.16964" lon="2.03078">
        <ele>168</ele>
        <time>2017-12-06T15:02:46Z</time>
      </trkpt>
      <trkpt lat="44.16966" lon="2.0308">
        <ele>168</ele>
        <time>2017-12-06T15:02:48Z</time>
      </trkpt>
      <trkpt lat="44.16967" lon="2.03083">
        <ele>168</ele>
        <time>2017-12-06T15:02:50Z</time>
      </trkpt>
      <trkpt lat="44.16967" lon="2.03088">
        <ele>168</ele>
        <time>2017-12-06T15:02:52Z</time>
      </trkpt>
      <trkpt lat="44.16968" lon="2.03091">
        <ele>168</ele>
        <time>2017-12-06T15:02:54Z</time>
      </trkpt>
      <trkpt lat="44.1697" lon="2.03094">
        <ele>168</ele>
        <time>2017-12-06T15:02:56Z</time>
      </trkpt>
      <trkpt lat="44.1697" lon="2.03098">
        <ele>168</ele>
        <time>2017-12-06T15:02:58Z</time>
      </trkpt>
      <trkpt lat="44.16971" lon="2.03102">
        <ele>168</ele>
        <time>2017-12-06T15:03:00Z</time>
      </trkpt>
      <trkpt lat="44.16971" lon="2.03106">
        <ele>169</ele>
        <time>2017-12-06T15:03:02Z</time>
      </trkpt>
      <trkpt lat="44.16972" lon="2.03109">
        <ele>169</ele>
        <time>2017-12-06T15:03:04Z</time>
      </trkpt>
      <trkpt lat="44.16973" lon="2.03112">
        <ele>169</ele>
        <time>2017-12-06T15:03:06Z</time>
      </trkpt>
      <trkpt lat="44.16973" lon="2.03116">
        <ele>169</ele>
        <time>2017-12-06T15:03:08Z</time>
      </trkpt>
      <trkpt lat="44.16974" lon="2.03119">
        <ele>169</ele>
        <time>2017-12-06T15:03:10Z</time>
      </trkpt>
      <trkpt lat="44.16975" lon="2.03122">
        <ele>169</ele>
        <time>2017-12-06T15:03:12Z</time>
      </trkpt>
      <trkpt lat="44.16976" lon="2.03126">
        <ele>169</ele>
        <time>2017-12-06T15:03:14Z</time>
      </trkpt>
      <trkpt lat="44.16977" lon="2.03129">
        <ele>170</ele>
        <time>2017-12-06T15:03:16Z</time>
      </trkpt>
      <trkpt lat="44.16978" lon="2.03133">
        <ele>170</ele>
        <time>2017-12-06T15:03:18Z</time>
      </trkpt>
      <trkpt lat="44.16979" lon="2.03138">
        <ele>170</ele>
        <time>2017-12-06T15:03:20Z</time>
      </trkpt>
      <trkpt lat="44.1698" lon="2.03142">
        <ele>170</ele>
        <time>2017-12-06T15:03:22Z</time>
      </trkpt>
      <trkpt lat="44.16982" lon="2.03145">
        <ele>170</ele>
        <time>2017-12-06T15:03:24Z</time>
      </trkpt>
      <trkpt lat="44.16981" lon="2.0315">
        <ele>170</ele>
        <time>2017-12-06T15:03:26Z</time>
      </trkpt>
      <trkpt lat="44.16982" lon="2.03154">
        <ele>171</ele>
        <time>2017-12-06T15:03:28Z</time>
      </trkpt>
      <trkpt lat="44.16983" lon="2.03157">
        <ele>171</ele>
        <time>2017-12-06T15:03:30Z</time>
      </trkpt>
      <trkpt lat="44.16983" lon="2.0316">
        <ele>171</ele>
        <time>2017-12-06T15:03:32Z</time>
      </trkpt>
      <trkpt lat="44.16984" lon="2.03163">
        <ele>171</ele>
        <time>2017-12-06T15:03:34Z</time>
      </trkpt>
      <trkpt lat="44.16985" lon="2.03167">
        <ele>171</ele>
        <time>2017-12-06T15:03:36Z</time>
      </trkpt>
      <trkpt lat="44.16985" lon="2.0317">
        <ele>171</ele>
        <time>2017-12-06T15:03:38Z</time>
      </trkpt>
      <trkpt lat="44.16986" lon="2.03173">
        <ele>171</ele>
        <time>2017-12-06T15:03:40Z</time>
      </trkpt>
      <trkpt lat="44.16987" lon="2.03176">
        <ele>171</ele>
        <time>2017-12-06T15:03:42Z</time>
      </trkpt>
      <trkpt lat="44.16987" lon="2.0318">
        <ele>171</ele>
        <time>2017-12-06T15:03:44Z</time>
      </trkpt>
      <trkpt lat="44.16988" lon="2.03184">
        <ele>171</ele>
        <time>2017-12-06T15:03:46Z</time>
      </trkpt>
      <trkpt lat="44.16988" lon="2.03188">
        <ele>171</ele>
        <time>2017-12-06T15:03:48Z</time>
      </trkpt>
      <trkpt lat="44.1699" lon="2.03191">
        <ele>171</ele>
        <time>2017-12-06T15:03:50Z</time>
      </trkpt>
      <trkpt lat="44.16991" lon="2.03195">
        <ele>171</ele>
        <time>2017-12-06T15:03:52Z</time>
      </trkpt>
      <trkpt lat="44.16992" lon="2.03199">
        <ele>171</ele>
        <time>2017-12-06T15:03:54Z</time>
      </trkpt>
      <trkpt lat="44.16992" lon="2.03203">
        <ele>171</ele>
        <time>2017-12-06T15:03:56Z</time>
      </trkpt>
      <trkpt lat="44.16993" lon="2.03206">
        <ele>171</ele>
        <time>2017-12-06T15:03:58Z</time>
      </trkpt>
      <trkpt lat="44.16993" lon="2.03209">
        <ele>171</ele>
        <time>2017-12-06T15:04:00Z</time>
      </trkpt>
      <trkpt lat="44.16994" lon="2.03213">
        <ele>171</ele>
        <time>2017-12-06T15:04:02Z</time>
      </trkpt>
      <trkpt lat="44.16995" lon="2.03216">
        <ele>171</ele>
        <time>2017-12-06T15:04:04Z</time>
      </trkpt>
      <trkpt lat="44.16996" lon="2.03221">
        <ele>171</ele>
        <time>2017-12-06T15:04:06Z</time>
      </trkpt>
      <trkpt lat="44.16996" lon="2.03225">
        <ele>171</ele>
        <time>2017-12-06T15:04:08Z</time>
      </trkpt>
      <trkpt lat="44.16997" lon="2.03229">
        <ele>170</ele>
        <time>2017-12-06T15:04:10Z</time>
      </trkpt>
      <trkpt lat="44.16997" lon="2.03233">
        <ele>170</ele>
        <time>2017-12-06T15:04:12Z</time>
      </trkpt>
      <trkpt lat="44.16997" lon="2.03237">
        <ele>170</ele>
        <time>2017-12-06T15:04:14Z</time>
      </trkpt>
      <trkpt lat="44.16996" lon="2.03242">
        <ele>171</ele>
        <time>2017-12-06T15:04:16Z</time>
      </trkpt>
      <trkpt lat="44.16996" lon="2.03246">
        <ele>171</ele>
        <time>2017-12-06T15:04:18Z</time>
      </trkpt>
      <trkpt lat="44.16995" lon="2.03251">
        <ele>172</ele>
        <time>2017-12-06T15:04:20Z</time>
      </trkpt>
      <trkpt lat="44.16996" lon="2.03254">
        <ele>172</ele>
        <time>2017-12-06T15:04:22Z</time>
      </trkpt>
      <trkpt lat="44.16995" lon="2.03259">
        <ele>172</ele>
        <time>2017-12-06T15:04:24Z</time>
      </trkpt>
      <trkpt lat="44.16995" lon="2.03263">
        <ele>173</ele>
        <time>2017-12-06T15:04:26Z</time>
      </trkpt>
      <trkpt lat="44.16996" lon="2.03267">
        <ele>173</ele>
        <time>2017-12-06T15:04:28Z</time>
      </trkpt>
      <trkpt lat="44.16996" lon="2.0327">
        <ele>174</ele>
        <time>2017-12-06T15:04:30Z</time>
      </trkpt>
      <trkpt lat="44.16996" lon="2.03274">
        <ele>174</ele>
        <time>2017-12-06T15:04:32Z</time>
      </trkpt>
      <trkpt lat="44.16997" lon="2.03277">
        <ele>174</ele>
        <time>2017-12-06T15:04:34Z</time>
      </trkpt>
      <trkpt lat="44.16998" lon="2.03281">
        <ele>174</ele>
        <time>2017-12-06T15:04:36Z</time>
      </trkpt>
      <trkpt lat="44.16999" lon="2.03285">
        <ele>174</ele>
        <time>2017-12-06T15:04:38Z</time>
      </trkpt>
      <trkpt lat="44.17" lon="2.03289">
        <ele>173</ele>
        <time>2017-12-06T15:04:40Z</time>
      </trkpt>
      <trkpt lat="44.17" lon="2.03293">
        <ele>173</ele>
        <time>2017-12-06T15:04:42Z</time>
      </trkpt>
      <trkpt lat="44.17" lon="2.03298">
        <ele>173</ele>
        <time>2017-12-06T15:04:44Z</time>
      </trkpt>
      <trkpt lat="44.17002" lon="2.03301">
        <ele>172</ele>
        <time>2017-12-06T15:04:46Z</time>
      </trkpt>
      <trkpt lat="44.17002" lon="2.03305">
        <ele>172</ele>
        <time>2017-12-06T15:04:48Z</time>
      </trkpt>
      <trkpt lat="44.17003" lon="2.03309">
        <ele>172</ele>
        <time>2017-12-06T15:04:50Z</time>
      </trkpt>
      <trkpt lat="44.17004" lon="2.03312">
        <ele>171</ele>
        <time>2017-12-06T15:04:52Z</time>
      </trkpt>
      <trkpt lat="44.17003" lon="2.03316">
        <ele>171</ele>
        <time>2017-12-06T15:04:54Z</time>
      </trkpt>
      <trkpt lat="44.17004" lon="2.03319">
        <ele>171</ele>
        <time>2017-12-06T15:04:56Z</time>
      </trkpt>
      <trkpt lat="44.17006" lon="2.03322">
        <ele>171</ele>
        <time>2017-12-06T15:04:58Z</time>
      </trkpt>
      <trkpt lat="44.17006" lon="2.03325">
        <ele>171</ele>
        <time>2017-12-06T15:05:00Z</time>
      </trkpt>
      <trkpt lat="44.17008" lon="2.03327">
        <ele>172</ele>
        <time>2017-12-06T15:05:02Z</time>
      </trkpt>
      <trkpt lat="44.17009" lon="2.0333">
        <ele>172</ele>
        <time>2017-12-06T15:05:04Z</time>
      </trkpt>
      <trkpt lat="44.17008" lon="2.03336">
        <ele>172</ele>
        <time>2017-12-06T15:05:06Z</time>
      </trkpt>
      <trkpt lat="44.17009" lon="2.03339">
        <ele>173</ele>
        <time>2017-12-06T15:05:08Z</time>
      </trkpt>
      <trkpt lat="44.17009" lon="2.03342">
        <ele>173</ele>
        <time>2017-12-06T15:05:10Z</time>
      </trkpt>
      <trkpt lat="44.1701" lon="2.03345">
        <ele>173</ele>
        <time>2017-12-06T15:05:12Z</time>
      </trkpt>
      <trkpt lat="44.1701" lon="2.03348">
        <ele>173</ele>
        <time>2017-12-06T15:05:14Z</time>
      </trkpt>
      <trkpt lat="44.17011" lon="2.0335">
        <ele>174</ele>
        <time>2017-12-06T15:05:16Z</time>
      </trkpt>
      <trkpt lat="44.17011" lon="2.0335">
        <ele>174</ele>
        <time>2017-12-06T15:05:18Z</time>
      </trkpt>
      <trkpt lat="44.17012" lon="2.03355">
        <ele>174</ele>
        <time>2017-12-06T15:05:20Z</time>
      </trkpt>
      <trkpt lat="44.17013" lon="2.03356">
        <ele>174</ele>
        <time>2017-12-06T15:05:22Z</time>
      </trkpt>
      <trkpt lat="44.17013" lon="2.03356">
        <ele>174</ele>
        <time>2017-12-06T15:05:24Z</time>
      </trkpt>
      <trkpt lat="44.17011" lon="2.03364">
        <ele>174</ele>
        <time>2017-12-06T15:05:26Z</time>
      </trkpt>
      <trkpt lat="44.17011" lon="2.03367">
        <ele>175</ele>
        <time>2017-12-06T15:05:28Z</time>
      </trkpt>
      <trkpt lat="44.17011" lon="2.03367">
        <ele>175</ele>
        <time>2017-12-06T15:05:30Z</time>
      </trkpt>
      <trkpt lat="44.17011" lon="2.03367">
        <ele>175</ele>
        <time>2017-12-06T15:05:32Z</time>
      </trkpt>
      <trkpt lat="44.17011" lon="2.03367">
        <ele>175</ele>
        <time>2017-12-06T15:05:34Z</time>
      </trkpt>
      <trkpt lat="44.17008" lon="2.03382">
        <ele>175</ele>
        <time>2017-12-06T15:05:36Z</time>
      </trkpt>
      <trkpt lat="44.17008" lon="2.03382">
        <ele>175</ele>
        <time>2017-12-06T15:05:38Z</time>
      </trkpt>
      <trkpt lat="44.17008" lon="2.03382">
        <ele>175</ele>
        <time>2017-12-06T15:05:40Z</time>
      </trkpt>
      <trkpt lat="44.17008" lon="2.03382">
        <ele>175</ele>
        <time>2017-12-06T15:05:42Z</time>
      </trkpt>
      <trkpt lat="44.17008" lon="2.03382">
        <ele>175</ele>
        <time>2017-12-06T15:05:44Z</time>
      </trkpt>
      <trkpt lat="44.17004" lon="2.03402">
        <ele>175</ele>
        <time>2017-12-06T15:05:46Z</time>
      </trkpt>
      <trkpt lat="44.17004" lon="2.03402">
        <ele>175</ele>
        <time>2017-12-06T15:05:48Z</time>
      </trkpt>
      <trkpt lat="44.17004" lon="2.03402">
        <ele>175</ele>
        <time>2017-12-06T15:05:50Z</time>
      </trkpt>
      <trkpt lat="44.17003" lon="2.03412">
        <ele>175</ele>
        <time>2017-12-06T15:05:52Z</time>
      </trkpt>
      <trkpt lat="44.17003" lon="2.03412">
        <ele>175</ele>
        <time>2017-12-06T15:05:54Z</time>
      </trkpt>
      <trkpt lat="44.17003" lon="2.03412">
        <ele>175</ele>
        <time>2017-12-06T15:05:56Z</time>
      </trkpt>
      <trkpt lat="44.17003" lon="2.03412">
        <ele>174</ele>
        <time>2017-12-06T15:05:58Z</time>
      </trkpt>
      <trkpt lat="44.17003" lon="2.03412">
        <ele>174</ele>
        <time>2017-12-06T15:06:00Z</time>
      </trkpt>
      <trkpt lat="44.17003" lon="2.03412">
        <ele>174</ele>
        <time>2017-12-06T15:06:02Z</time>
      </trkpt>
      <trkpt lat="44.16999" lon="2.03428">
        <ele>174</ele>
        <time>2017-12-06T15:06:04Z</time>
      </trkpt>
      <trkpt lat="44.16999" lon="2.03428">
        <ele>174</ele>
        <time>2017-12-06T15:06:06Z</time>
      </trkpt>
      <trkpt lat="44.16999" lon="2.03428">
        <ele>174</ele>
        <time>2017-12-06T15:06:08Z</time>
      </trkpt>
      <trkpt lat="44.16999" lon="2.03428">
        <ele>174</ele>
        <time>2017-12-06T15:06:10Z</time>
      </trkpt>
      <trkpt lat="44.16993" lon="2.03445">
        <ele>174</ele>
        <time>2017-12-06T15:06:12Z</time>
      </trkpt>
      <trkpt lat="44.1699" lon="2.03452">
        <ele>174</ele>
        <time>2017-12-06T15:06:14Z</time>
      </trkpt>
      <trkpt lat="44.16989" lon="2.03456">
        <ele>174</ele>
        <time>2017-12-06T15:06:16Z</time>
      </trkpt>
      <trkpt lat="44.16987" lon="2.03461">
        <ele>174</ele>
        <time>2017-12-06T15:06:18Z</time>
      </trkpt>
      <trkpt lat="44.16986" lon="2.03464">
        <ele>174</ele>
        <time>2017-12-06T15:06:20Z</time>
      </trkpt>
      <trkpt lat="44.16986" lon="2.03468">
        <ele>174</ele>
        <time>2017-12-06T15:06:22Z</time>
      </trkpt>
      <trkpt lat="44.16985" lon="2.03473">
        <ele>174</ele>
        <time>2017-12-06T15:06:24Z</time>
      </trkpt>
      <trkpt lat="44.16983" lon="2.03478">
        <ele>174</ele>
        <time>2017-12-06T15:06:26Z</time>
      </trkpt>
      <trkpt lat="44.16982" lon="2.03483">
        <ele>174</ele>
        <time>2017-12-06T15:06:28Z</time>
      </trkpt>
      <trkpt lat="44.16983" lon="2.03486">
        <ele>173</ele>
        <time>2017-12-06T15:06:30Z</time>
      </trkpt>
      <trkpt lat="44.16983" lon="2.0349">
        <ele>172</ele>
        <time>2017-12-06T15:06:32Z</time>
      </trkpt>
      <trkpt lat="44.16982" lon="2.03494">
        <ele>172</ele>
        <time>2017-12-06T15:06:34Z</time>
      </trkpt>
      <trkpt lat="44.16982" lon="2.03499">
        <ele>171</ele>
        <time>2017-12-06T15:06:36Z</time>
      </trkpt>
      <trkpt lat="44.16982" lon="2.03503">
        <ele>171</ele>
        <time>2017-12-06T15:06:38Z</time>
      </trkpt>
      <trkpt lat="44.16982" lon="2.03507">
        <ele>171</ele>
        <time>2017-12-06T15:06:40Z</time>
      </trkpt>
      <trkpt lat="44.16982" lon="2.03512">
        <ele>170</ele>
        <time>2017-12-06T15:06:42Z</time>
      </trkpt>
      <trkpt lat="44.16983" lon="2.03516">
        <ele>170</ele>
        <time>2017-12-06T15:06:44Z</time>
      </trkpt>
      <trkpt lat="44.16983" lon="2.03519">
        <ele>170</ele>
        <time>2017-12-06T15:06:46Z</time>
      </trkpt>
      <trkpt lat="44.16983" lon="2.03522">
        <ele>170</ele>
        <time>2017-12-06T15:06:48Z</time>
      </trkpt>
      <trkpt lat="44.16981" lon="2.03528">
        <ele>170</ele>
        <time>2017-12-06T15:06:50Z</time>
      </trkpt>
      <trkpt lat="44.16981" lon="2.03533">
        <ele>171</ele>
        <time>2017-12-06T15:06:52Z</time>
      </trkpt>
      <trkpt lat="44.16981" lon="2.03538">
        <ele>171</ele>
        <time>2017-12-06T15:06:54Z</time>
      </trkpt>
      <trkpt lat="44.1698" lon="2.03542">
        <ele>171</ele>
        <time>2017-12-06T15:06:56Z</time>
      </trkpt>
      <trkpt lat="44.16979" lon="2.03547">
        <ele>170</ele>
        <time>2017-12-06T15:06:58Z</time>
      </trkpt>
      <trkpt lat="44.16979" lon="2.03552">
        <ele>170</ele>
        <time>2017-12-06T15:07:00Z</time>
      </trkpt>
      <trkpt lat="44.16978" lon="2.03556">
        <ele>170</ele>
        <time>2017-12-06T15:07:02Z</time>
      </trkpt>
      <trkpt lat="44.16978" lon="2.03559">
        <ele>170</ele>
        <time>2017-12-06T15:07:04Z</time>
      </trkpt>
      <trkpt lat="44.16977" lon="2.03561">
        <ele>170</ele>
        <time>2017-12-06T15:07:06Z</time>
      </trkpt>
      <trkpt lat="44.16977" lon="2.03564">
        <ele>170</ele>
        <time>2017-12-06T15:07:08Z</time>
      </trkpt>
      <trkpt lat="44.16976" lon="2.03567">
        <ele>169</ele>
        <time>2017-12-06T15:07:10Z</time>
      </trkpt>
      <trkpt lat="44.16976" lon="2.0357">
        <ele>169</ele>
        <time>2017-12-06T15:07:12Z</time>
      </trkpt>
      <trkpt lat="44.16976" lon="2.03573">
        <ele>169</ele>
        <time>2017-12-06T15:07:14Z</time>
      </trkpt>
      <trkpt lat="44.16975" lon="2.03576">
        <ele>169</ele>
        <time>2017-12-06T15:07:16Z</time>
      </trkpt>
      <trkpt lat="44.16974" lon="2.03579">
        <ele>169</ele>
        <time>2017-12-06T15:07:18Z</time>
      </trkpt>
      <trkpt lat="44.16974" lon="2.03583">
        <ele>168</ele>
        <time>2017-12-06T15:07:20Z</time>
      </trkpt>
      <trkpt lat="44.16973" lon="2.03586">
        <ele>168</ele>
        <time>2017-12-06T15:07:22Z</time>
      </trkpt>
      <trkpt lat="44.16973" lon="2.03588">
        <ele>168</ele>
        <time>2017-12-06T15:07:24Z</time>
      </trkpt>
      <trkpt lat="44.16972" lon="2.03591">
        <ele>168</ele>
        <time>2017-12-06T15:07:26Z</time>
      </trkpt>
      <trkpt lat="44.16973" lon="2.03593">
        <ele>168</ele>
        <time>2017-12-06T15:07:28Z</time>
      </trkpt>
      <trkpt lat="44.16973" lon="2.03593">
        <ele>168</ele>
        <time>2017-12-06T15:07:30Z</time>
      </trkpt>
      <trkpt lat="44.16973" lon="2.03598">
        <ele>167</ele>
        <time>2017-12-06T15:07:32Z</time>
      </trkpt>
      <trkpt lat="44.16973" lon="2.036">
        <ele>167</ele>
        <time>2017-12-06T15:07:34Z</time>
      </trkpt>
      <trkpt lat="44.16972" lon="2.03604">
        <ele>167</ele>
        <time>2017-12-06T15:07:36Z</time>
      </trkpt>
      <trkpt lat="44.16971" lon="2.03609">
        <ele>167</ele>
        <time>2017-12-06T15:07:38Z</time>
      </trkpt>
      <trkpt lat="44.1697" lon="2.03613">
        <ele>167</ele>
        <time>2017-12-06T15:07:40Z</time>
      </trkpt>
      <trkpt lat="44.16969" lon="2.03616">
        <ele>167</ele>
        <time>2017-12-06T15:07:42Z</time>
      </trkpt>
      <trkpt lat="44.16968" lon="2.03621">
        <ele>167</ele>
        <time>2017-12-06T15:07:44Z</time>
      </trkpt>
      <trkpt lat="44.16966" lon="2.03625">
        <ele>167</ele>
        <time>2017-12-06T15:07:46Z</time>
      </trkpt>
      <trkpt lat="44.16965" lon="2.03629">
        <ele>167</ele>
        <time>2017-12-06T15:07:48Z</time>
      </trkpt>
      <trkpt lat="44.16964" lon="2.03634">
        <ele>167</ele>
        <time>2017-12-06T15:07:50Z</time>
      </trkpt>
      <trkpt lat="44.16962" lon="2.03638">
        <ele>167</ele>
        <time>2017-12-06T15:07:52Z</time>
      </trkpt>
      <trkpt lat="44.16961" lon="2.03642">
        <ele>167</ele>
        <time>2017-12-06T15:07:54Z</time>
      </trkpt>
      <trkpt lat="44.1696" lon="2.03646">
        <ele>167</ele>
        <time>2017-12-06T15:07:56Z</time>
      </trkpt>
      <trkpt lat="44.1696" lon="2.03649">
        <ele>167</ele>
        <time>2017-12-06T15:07:58Z</time>
      </trkpt>
      <trkpt lat="44.16959" lon="2.03653">
        <ele>167</ele>
        <time>2017-12-06T15:08:00Z</time>
      </trkpt>
      <trkpt lat="44.16958" lon="2.03656">
        <ele>167</ele>
        <time>2017-12-06T15:08:02Z</time>
      </trkpt>
      <trkpt lat="44.16956" lon="2.03661">
        <ele>167</ele>
        <time>2017-12-06T15:08:04Z</time>
      </trkpt>
      <trkpt lat="44.16955" lon="2.03664">
        <ele>167</ele>
        <time>2017-12-06T15:08:06Z</time>
      </trkpt>
      <trkpt lat="44.16954" lon="2.03668">
        <ele>167</ele>
        <time>2017-12-06T15:08:08Z</time>
      </trkpt>
      <trkpt lat="44.16953" lon="2.03671">
        <ele>167</ele>
        <time>2017-12-06T15:08:10Z</time>
      </trkpt>
      <trkpt lat="44.16953" lon="2.03671">
        <ele>168</ele>
        <time>2017-12-06T15:08:12Z</time>
      </trkpt>
      <trkpt lat="44.16952" lon="2.03677">
        <ele>168</ele>
        <time>2017-12-06T15:08:14Z</time>
      </trkpt>
      <trkpt lat="44.16951" lon="2.03681">
        <ele>168</ele>
        <time>2017-12-06T15:08:16Z</time>
      </trkpt>
      <trkpt lat="44.16951" lon="2.03683">
        <ele>168</ele>
        <time>2017-12-06T15:08:18Z</time>
      </trkpt>
      <trkpt lat="44.16949" lon="2.03688">
        <ele>168</ele>
        <time>2017-12-06T15:08:20Z</time>
      </trkpt>
      <trkpt lat="44.16948" lon="2.03691">
        <ele>168</ele>
        <time>2017-12-06T15:08:22Z</time>
      </trkpt>
      <trkpt lat="44.16947" lon="2.03695">
        <ele>168</ele>
        <time>2017-12-06T15:08:24Z</time>
      </trkpt>
      <trkpt lat="44.16947" lon="2.03695">
        <ele>168</ele>
        <time>2017-12-06T15:08:26Z</time>
      </trkpt>
      <trkpt lat="44.16946" lon="2.03699">
        <ele>169</ele>
        <time>2017-12-06T15:08:28Z</time>
      </trkpt>
      <trkpt lat="44.16946" lon="2.03702">
        <ele>169</ele>
        <time>2017-12-06T15:08:30Z</time>
      </trkpt>
      <trkpt lat="44.16945" lon="2.03704">
        <ele>169</ele>
        <time>2017-12-06T15:08:32Z</time>
      </trkpt>
      <trkpt lat="44.16944" lon="2.03707">
        <ele>169</ele>
        <time>2017-12-06T15:08:34Z</time>
      </trkpt>
      <trkpt lat="44.16943" lon="2.0371">
        <ele>169</ele>
        <time>2017-12-06T15:08:36Z</time>
      </trkpt>
      <trkpt lat="44.16942" lon="2.03713">
        <ele>169</ele>
        <time>2017-12-06T15:08:38Z</time>
      </trkpt>
      <trkpt lat="44.16941" lon="2.03717">
        <ele>169</ele>
        <time>2017-12-06T15:08:40Z</time>
      </trkpt>
      <trkpt lat="44.1694" lon="2.03722">
        <ele>169</ele>
        <time>2017-12-06T15:08:42Z</time>
      </trkpt>
      <trkpt lat="44.16938" lon="2.03727">
        <ele>169</ele>
        <time>2017-12-06T15:08:44Z</time>
      </trkpt>
      <trkpt lat="44.16936" lon="2.03732">
        <ele>169</ele>
        <time>2017-12-06T15:08:46Z</time>
      </trkpt>
      <trkpt lat="44.16934" lon="2.03735">
        <ele>169</ele>
        <time>2017-12-06T15:08:48Z</time>
      </trkpt>
      <trkpt lat="44.16934" lon="2.03738">
        <ele>169</ele>
        <time>2017-12-06T15:08:50Z</time>
      </trkpt>
      <trkpt lat="44.16933" lon="2.03741">
        <ele>169</ele>
        <time>2017-12-06T15:08:52Z</time>
      </trkpt>
      <trkpt lat="44.16932" lon="2.03745">
        <ele>170</ele>
        <time>2017-12-06T15:08:54Z</time>
      </trkpt>
      <trkpt lat="44.16932" lon="2.03745">
        <ele>170</ele>
        <time>2017-12-06T15:08:56Z</time>
      </trkpt>
      <trkpt lat="44.1693" lon="2.03752">
        <ele>170</ele>
        <time>2017-12-06T15:08:58Z</time>
      </trkpt>
      <trkpt lat="44.1693" lon="2.03752">
        <ele>170</ele>
        <time>2017-12-06T15:09:00Z</time>
      </trkpt>
      <trkpt lat="44.16928" lon="2.03759">
        <ele>170</ele>
        <time>2017-12-06T15:09:02Z</time>
      </trkpt>
      <trkpt lat="44.16928" lon="2.03763">
        <ele>170</ele>
        <time>2017-12-06T15:09:04Z</time>
      </trkpt>
      <trkpt lat="44.16928" lon="2.03765">
        <ele>171</ele>
        <time>2017-12-06T15:09:06Z</time>
      </trkpt>
      <trkpt lat="44.16928" lon="2.03768">
        <ele>171</ele>
        <time>2017-12-06T15:09:08Z</time>
      </trkpt>
      <trkpt lat="44.16927" lon="2.03771">
        <ele>171</ele>
        <time>2017-12-06T15:09:10Z</time>
      </trkpt>
      <trkpt lat="44.16927" lon="2.03774">
        <ele>172</ele>
        <time>2017-12-06T15:09:12Z</time>
      </trkpt>
      <trkpt lat="44.16927" lon="2.03777">
        <ele>172</ele>
        <time>2017-12-06T15:09:14Z</time>
      </trkpt>
      <trkpt lat="44.16926" lon="2.03781">
        <ele>173</ele>
        <time>2017-12-06T15:09:16Z</time>
      </trkpt>
      <trkpt lat="44.16926" lon="2.03784">
        <ele>173</ele>
        <time>2017-12-06T15:09:18Z</time>
      </trkpt>
      <trkpt lat="44.16926" lon="2.03789">
        <ele>174</ele>
        <time>2017-12-06T15:09:20Z</time>
      </trkpt>
      <trkpt lat="44.16925" lon="2.03793">
        <ele>174</ele>
        <time>2017-12-06T15:09:22Z</time>
      </trkpt>
      <trkpt lat="44.16923" lon="2.03797">
        <ele>174</ele>
        <time>2017-12-06T15:09:24Z</time>
      </trkpt>
      <trkpt lat="44.16923" lon="2.03801">
        <ele>175</ele>
        <time>2017-12-06T15:09:26Z</time>
      </trkpt>
      <trkpt lat="44.16922" lon="2.03806">
        <ele>175</ele>
        <time>2017-12-06T15:09:28Z</time>
      </trkpt>
      <trkpt lat="44.1692" lon="2.03812">
        <ele>175</ele>
        <time>2017-12-06T15:09:30Z</time>
      </trkpt>
      <trkpt lat="44.16919" lon="2.03815">
        <ele>175</ele>
        <time>2017-12-06T15:09:32Z</time>
      </trkpt>
      <trkpt lat="44.16919" lon="2.03819">
        <ele>176</ele>
        <time>2017-12-06T15:09:34Z</time>
      </trkpt>
      <trkpt lat="44.16918" lon="2.03823">
        <ele>176</ele>
        <time>2017-12-06T15:09:36Z</time>
      </trkpt>
      <trkpt lat="44.16918" lon="2.03827">
        <ele>176</ele>
        <time>2017-12-06T15:09:38Z</time>
      </trkpt>
      <trkpt lat="44.16918" lon="2.03831">
        <ele>177</ele>
        <time>2017-12-06T15:09:40Z</time>
      </trkpt>
      <trkpt lat="44.16918" lon="2.03834">
        <ele>177</ele>
        <time>2017-12-06T15:09:42Z</time>
      </trkpt>
      <trkpt lat="44.16918" lon="2.03837">
        <ele>177</ele>
        <time>2017-12-06T15:09:44Z</time>
      </trkpt>
      <trkpt lat="44.16918" lon="2.03841">
        <ele>177</ele>
        <time>2017-12-06T15:09:46Z</time>
      </trkpt>
      <trkpt lat="44.16916" lon="2.03846">
        <ele>176</ele>
        <time>2017-12-06T15:09:48Z</time>
      </trkpt>
      <trkpt lat="44.16915" lon="2.03851">
        <ele>176</ele>
        <time>2017-12-06T15:09:50Z</time>
      </trkpt>
      <trkpt lat="44.16915" lon="2.03855">
        <ele>175</ele>
        <time>2017-12-06T15:09:52Z</time>
      </trkpt>
      <trkpt lat="44.16914" lon="2.03859">
        <ele>175</ele>
        <time>2017-12-06T15:09:54Z</time>
      </trkpt>
      <trkpt lat="44.16914" lon="2.03864">
        <ele>174</ele>
        <time>2017-12-06T15:09:56Z</time>
      </trkpt>
      <trkpt lat="44.16914" lon="2.03869">
        <ele>174</ele>
        <time>2017-12-06T15:09:58Z</time>
      </trkpt>
      <trkpt lat="44.16913" lon="2.03873">
        <ele>173</ele>
        <time>2017-12-06T15:10:00Z</time>
      </trkpt>
      <trkpt lat="44.16913" lon="2.03877">
        <ele>173</ele>
        <time>2017-12-06T15:10:02Z</time>
      </trkpt>
      <trkpt lat="44.16912" lon="2.03881">
        <ele>173</ele>
        <time>2017-12-06T15:10:04Z</time>
      </trkpt>
      <trkpt lat="44.16913" lon="2.03885">
        <ele>172</ele>
        <time>2017-12-06T15:10:06Z</time>
      </trkpt>
      <trkpt lat="44.16912" lon="2.0389">
        <ele>172</ele>
        <time>2017-12-06T15:10:08Z</time>
      </trkpt>
      <trkpt lat="44.16911" lon="2.03894">
        <ele>172</ele>
        <time>2017-12-06T15:10:10Z</time>
      </trkpt>
      <trkpt lat="44.16909" lon="2.039">
        <ele>171</ele>
        <time>2017-12-06T15:10:12Z</time>
      </trkpt>
      <trkpt lat="44.16909" lon="2.03905">
        <ele>171</ele>
        <time>2017-12-06T15:10:14Z</time>
      </trkpt>
      <trkpt lat="44.16908" lon="2.03908">
        <ele>171</ele>
        <time>2017-12-06T15:10:16Z</time>
      </trkpt>
      <trkpt lat="44.16908" lon="2.03912">
        <ele>171</ele>
        <time>2017-12-06T15:10:18Z</time>
      </trkpt>
      <trkpt lat="44.16908" lon="2.03916">
        <ele>170</ele>
        <time>2017-12-06T15:10:20Z</time>
      </trkpt>
      <trkpt lat="44.16907" lon="2.03921">
        <ele>170</ele>
        <time>2017-12-06T15:10:22Z</time>
      </trkpt>
      <trkpt lat="44.16907" lon="2.03924">
        <ele>170</ele>
        <time>2017-12-06T15:10:24Z</time>
      </trkpt>
      <trkpt lat="44.16907" lon="2.03928">
        <ele>169</ele>
        <time>2017-12-06T15:10:26Z</time>
      </trkpt>
      <trkpt lat="44.16907" lon="2.03932">
        <ele>169</ele>
        <time>2017-12-06T15:10:28Z</time>
      </trkpt>
      <trkpt lat="44.16907" lon="2.03936">
        <ele>169</ele>
        <time>2017-12-06T15:10:30Z</time>
      </trkpt>
      <trkpt lat="44.16908" lon="2.03939">
        <ele>169</ele>
        <time>2017-12-06T15:10:32Z</time>
      </trkpt>
      <trkpt lat="44.16908" lon="2.03942">
        <ele>169</ele>
        <time>2017-12-06T15:10:34Z</time>
      </trkpt>
      <trkpt lat="44.16908" lon="2.03946">
        <ele>169</ele>
        <time>2017-12-06T15:10:36Z</time>
      </trkpt>
      <trkpt lat="44.16909" lon="2.0395">
        <ele>169</ele>
        <time>2017-12-06T15:10:38Z</time>
      </trkpt>
      <trkpt lat="44.16909" lon="2.03953">
        <ele>169</ele>
        <time>2017-12-06T15:10:40Z</time>
      </trkpt>
      <trkpt lat="44.1691" lon="2.03956">
        <ele>169</ele>
        <time>2017-12-06T15:10:42Z</time>
      </trkpt>
      <trkpt lat="44.1691" lon="2.03961">
        <ele>169</ele>
        <time>2017-12-06T15:10:44Z</time>
      </trkpt>
      <trkpt lat="44.16909" lon="2.03965">
        <ele>169</ele>
        <time>2017-12-06T15:10:46Z</time>
      </trkpt>
      <trkpt lat="44.16908" lon="2.0397">
        <ele>169</ele>
        <time>2017-12-06T15:10:48Z</time>
      </trkpt>
      <trkpt lat="44.16909" lon="2.03973">
        <ele>168</ele>
        <time>2017-12-06T15:10:50Z</time>
      </trkpt>
      <trkpt lat="44.16909" lon="2.03977">
        <ele>168</ele>
        <time>2017-12-06T15:10:52Z</time>
      </trkpt>
      <trkpt lat="44.16909" lon="2.0398">
        <ele>168</ele>
        <time>2017-12-06T15:10:54Z</time>
      </trkpt>
      <trkpt lat="44.16911" lon="2.03983">
        <ele>167</ele>
        <time>2017-12-06T15:10:56Z</time>
      </trkpt>
      <trkpt lat="44.16909" lon="2.0399">
        <ele>167</ele>
        <time>2017-12-06T15:10:58Z</time>
      </trkpt>
      <trkpt lat="44.16909" lon="2.03994">
        <ele>167</ele>
        <time>2017-12-06T15:11:00Z</time>
      </trkpt>
      <trkpt lat="44.1691" lon="2.03998">
        <ele>167</ele>
        <time>2017-12-06T15:11:02Z</time>
      </trkpt>
      <trkpt lat="44.1691" lon="2.04002">
        <ele>167</ele>
        <time>2017-12-06T15:11:04Z</time>
      </trkpt>
      <trkpt lat="44.16911" lon="2.04005">
        <ele>167</ele>
        <time>2017-12-06T15:11:06Z</time>
      </trkpt>
      <trkpt lat="44.16911" lon="2.04011">
        <ele>167</ele>
        <time>2017-12-06T15:11:08Z</time>
      </trkpt>
      <trkpt lat="44.16912" lon="2.04014">
        <ele>167</ele>
        <time>2017-12-06T15:11:10Z</time>
      </trkpt>
      <trkpt lat="44.16911" lon="2.04019">
        <ele>167</ele>
        <time>2017-12-06T15:11:12Z</time>
      </trkpt>
      <trkpt lat="44.16912" lon="2.04023">
        <ele>167</ele>
        <time>2017-12-06T15:11:14Z</time>
      </trkpt>
      <trkpt lat="44.16914" lon="2.04026">
        <ele>167</ele>
        <time>2017-12-06T15:11:16Z</time>
      </trkpt>
      <trkpt lat="44.16915" lon="2.04029">
        <ele>167</ele>
        <time>2017-12-06T15:11:18Z</time>
      </trkpt>
      <trkpt lat="44.16915" lon="2.04033">
        <ele>167</ele>
        <time>2017-12-06T15:11:20Z</time>
      </trkpt>
      <trkpt lat="44.16916" lon="2.04036">
        <ele>167</ele>
        <time>2017-12-06T15:11:22Z</time>
      </trkpt>
      <trkpt lat="44.16917" lon="2.0404">
        <ele>167</ele>
        <time>2017-12-06T15:11:24Z</time>
      </trkpt>
      <trkpt lat="44.16918" lon="2.04043">
        <ele>167</ele>
        <time>2017-12-06T15:11:26Z</time>
      </trkpt>
      <trkpt lat="44.16919" lon="2.04046">
        <ele>167</ele>
        <time>2017-12-06T15:11:28Z</time>
      </trkpt>
      <trkpt lat="44.1692" lon="2.04049">
        <ele>167</ele>
        <time>2017-12-06T15:11:30Z</time>
      </trkpt>
      <trkpt lat="44.16921" lon="2.04053">
        <ele>167</ele>
        <time>2017-12-06T15:11:32Z</time>
      </trkpt>
      <trkpt lat="44.16921" lon="2.04055">
        <ele>168</ele>
        <time>2017-12-06T15:11:34Z</time>
      </trkpt>
      <trkpt lat="44.16922" lon="2.04059">
        <ele>168</ele>
        <time>2017-12-06T15:11:36Z</time>
      </trkpt>
      <trkpt lat="44.16923" lon="2.04063">
        <ele>168</ele>
        <time>2017-12-06T15:11:38Z</time>
      </trkpt>
      <trkpt lat="44.16924" lon="2.04066">
        <ele>168</ele>
        <time>2017-12-06T15:11:40Z</time>
      </trkpt>
      <trkpt lat="44.16924" lon="2.0407">
        <ele>168</ele>
        <time>2017-12-06T15:11:42Z</time>
      </trkpt>
      <trkpt lat="44.16925" lon="2.04074">
        <ele>168</ele>
        <time>2017-12-06T15:11:44Z</time>
      </trkpt>
      <trkpt lat="44.16926" lon="2.04078">
        <ele>168</ele>
        <time>2017-12-06T15:11:46Z</time>
      </trkpt>
      <trkpt lat="44.16927" lon="2.04081">
        <ele>168</ele>
        <time>2017-12-06T15:11:48Z</time>
      </trkpt>
      <trkpt lat="44.16927" lon="2.04085">
        <ele>168</ele>
        <time>2017-12-06T15:11:50Z</time>
      </trkpt>
      <trkpt lat="44.16928" lon="2.04088">
        <ele>169</ele>
        <time>2017-12-06T15:11:52Z</time>
      </trkpt>
      <trkpt lat="44.1693" lon="2.04091">
        <ele>169</ele>
        <time>2017-12-06T15:11:54Z</time>
      </trkpt>
      <trkpt lat="44.16931" lon="2.04095">
        <ele>169</ele>
        <time>2017-12-06T15:11:56Z</time>
      </trkpt>
      <trkpt lat="44.16932" lon="2.04099">
        <ele>169</ele>
        <time>2017-12-06T15:11:58Z</time>
      </trkpt>
      <trkpt lat="44.16933" lon="2.04103">
        <ele>168</ele>
        <time>2017-12-06T15:12:00Z</time>
      </trkpt>
      <trkpt lat="44.16933" lon="2.04107">
        <ele>168</ele>
        <time>2017-12-06T15:12:02Z</time>
      </trkpt>
      <trkpt lat="44.16934" lon="2.0411">
        <ele>168</ele>
        <time>2017-12-06T15:12:04Z</time>
      </trkpt>
      <trkpt lat="44.16936" lon="2.04114">
        <ele>168</ele>
        <time>2017-12-06T15:12:06Z</time>
      </trkpt>
      <trkpt lat="44.16937" lon="2.04115">
        <ele>167</ele>
        <time>2017-12-06T15:12:08Z</time>
      </trkpt>
      <trkpt lat="44.16938" lon="2.04119">
        <ele>167</ele>
        <time>2017-12-06T15:12:10Z</time>
      </trkpt>
      <trkpt lat="44.16938" lon="2.04123">
        <ele>167</ele>
        <time>2017-12-06T15:12:12Z</time>
      </trkpt>
      <trkpt lat="44.16938" lon="2.04127">
        <ele>167</ele>
        <time>2017-12-06T15:12:14Z</time>
      </trkpt>
      <trkpt lat="44.16939" lon="2.0413">
        <ele>167</ele>
        <time>2017-12-06T15:12:16Z</time>
      </trkpt>
      <trkpt lat="44.1694" lon="2.04134">
        <ele>167</ele>
        <time>2017-12-06T15:12:18Z</time>
      </trkpt>
      <trkpt lat="44.16941" lon="2.04137">
        <ele>167</ele>
        <time>2017-12-06T15:12:20Z</time>
      </trkpt>
      <trkpt lat="44.16941" lon="2.04142">
        <ele>167</ele>
        <time>2017-12-06T15:12:22Z</time>
      </trkpt>
      <trkpt lat="44.16942" lon="2.04145">
        <ele>167</ele>
        <time>2017-12-06T15:12:24Z</time>
      </trkpt>
      <trkpt lat="44.16944" lon="2.04148">
        <ele>167</ele>
        <time>2017-12-06T15:12:26Z</time>
      </trkpt>
      <trkpt lat="44.16946" lon="2.04151">
        <ele>168</ele>
        <time>2017-12-06T15:12:28Z</time>
      </trkpt>
      <trkpt lat="44.16946" lon="2.04156">
        <ele>168</ele>
        <time>2017-12-06T15:12:30Z</time>
      </trkpt>
      <trkpt lat="44.16947" lon="2.04159">
        <ele>167</ele>
        <time>2017-12-06T15:12:32Z</time>
      </trkpt>
      <trkpt lat="44.1695" lon="2.04162">
        <ele>167</ele>
        <time>2017-12-06T15:12:34Z</time>
      </trkpt>
      <trkpt lat="44.16951" lon="2.04165">
        <ele>167</ele>
        <time>2017-12-06T15:12:36Z</time>
      </trkpt>
      <trkpt lat="44.16952" lon="2.04169">
        <ele>166</ele>
        <time>2017-12-06T15:12:38Z</time>
      </trkpt>
      <trkpt lat="44.16953" lon="2.04172">
        <ele>166</ele>
        <time>2017-12-06T15:12:40Z</time>
      </trkpt>
      <trkpt lat="44.16955" lon="2.04174">
        <ele>165</ele>
        <time>2017-12-06T15:12:42Z</time>
      </trkpt>
      <trkpt lat="44.16957" lon="2.04178">
        <ele>164</ele>
        <time>2017-12-06T15:12:44Z</time>
      </trkpt>
      <trkpt lat="44.16959" lon="2.0418">
        <ele>164</ele>
        <time>2017-12-06T15:12:46Z</time>
      </trkpt>
      <trkpt lat="44.1696" lon="2.04184">
        <ele>163</ele>
        <time>2017-12-06T15:12:48Z</time>
      </trkpt>
      <trkpt lat="44.16962" lon="2.04187">
        <ele>163</ele>
        <time>2017-12-06T15:12:50Z</time>
      </trkpt>
      <trkpt lat="44.16965" lon="2.0419">
        <ele>163</ele>
        <time>2017-12-06T15:12:52Z</time>
      </trkpt>
      <trkpt lat="44.16966" lon="2.04194">
        <ele>163</ele>
        <time>2017-12-06T15:12:54Z</time>
      </trkpt>
      <trkpt lat="44.16968" lon="2.04197">
        <ele>163</ele>
        <time>2017-12-06T15:12:56Z</time>
      </trkpt>
      <trkpt lat="44.1697" lon="2.042">
        <ele>163</ele>
        <time>2017-12-06T15:12:58Z</time>
      </trkpt>
      <trkpt lat="44.16971" lon="2.04203">
        <ele>163</ele>
        <time>2017-12-06T15:13:00Z</time>
      </trkpt>
      <trkpt lat="44.16973" lon="2.04207">
        <ele>163</ele>
        <time>2017-12-06T15:13:02Z</time>
      </trkpt>
      <trkpt lat="44.16975" lon="2.0421">
        <ele>163</ele>
        <time>2017-12-06T15:13:04Z</time>
      </trkpt>
      <trkpt lat="44.16976" lon="2.04213">
        <ele>164</ele>
        <time>2017-12-06T15:13:06Z</time>
      </trkpt>
      <trkpt lat="44.16977" lon="2.04217">
        <ele>164</ele>
        <time>2017-12-06T15:13:08Z</time>
      </trkpt>
      <trkpt lat="44.16979" lon="2.0422">
        <ele>164</ele>
        <time>2017-12-06T15:13:10Z</time>
      </trkpt>
      <trkpt lat="44.1698" lon="2.04222">
        <ele>164</ele>
        <time>2017-12-06T15:13:12Z</time>
      </trkpt>
      <trkpt lat="44.16982" lon="2.04225">
        <ele>164</ele>
        <time>2017-12-06T15:13:14Z</time>
      </trkpt>
      <trkpt lat="44.16984" lon="2.04227">
        <ele>164</ele>
        <time>2017-12-06T15:13:16Z</time>
      </trkpt>
      <trkpt lat="44.16986" lon="2.04231">
        <ele>164</ele>
        <time>2017-12-06T15:13:18Z</time>
      </trkpt>
      <trkpt lat="44.16987" lon="2.04234">
        <ele>164</ele>
        <time>2017-12-06T15:13:20Z</time>
      </trkpt>
      <trkpt lat="44.16988" lon="2.04238">
        <ele>164</ele>
        <time>2017-12-06T15:13:22Z</time>
      </trkpt>
      <trkpt lat="44.16988" lon="2.04243">
        <ele>163</ele>
        <time>2017-12-06T15:13:24Z</time>
      </trkpt>
      <trkpt lat="44.16989" lon="2.04247">
        <ele>163</ele>
        <time>2017-12-06T15:13:26Z</time>
      </trkpt>
      <trkpt lat="44.1699" lon="2.04252">
        <ele>162</ele>
        <time>2017-12-06T15:13:28Z</time>
      </trkpt>
      <trkpt lat="44.1699" lon="2.04256">
        <ele>162</ele>
        <time>2017-12-06T15:13:30Z</time>
      </trkpt>
      <trkpt lat="44.16991" lon="2.04259">
        <ele>161</ele>
        <time>2017-12-06T15:13:32Z</time>
      </trkpt>
      <trkpt lat="44.16992" lon="2.04263">
        <ele>161</ele>
        <time>2017-12-06T15:13:34Z</time>
      </trkpt>
      <trkpt lat="44.16993" lon="2.04267">
        <ele>161</ele>
        <time>2017-12-06T15:13:36Z</time>
      </trkpt>
      <trkpt lat="44.16993" lon="2.04271">
        <ele>160</ele>
        <time>2017-12-06T15:13:38Z</time>
      </trkpt>
      <trkpt lat="44.16994" lon="2.04275">
        <ele>160</ele>
        <time>2017-12-06T15:13:40Z</time>
      </trkpt>
      <trkpt lat="44.16996" lon="2.04278">
        <ele>160</ele>
        <time>2017-12-06T15:13:42Z</time>
      </trkpt>
      <trkpt lat="44.16998" lon="2.04281">
        <ele>160</ele>
        <time>2017-12-06T15:13:44Z</time>
      </trkpt>
      <trkpt lat="44.17" lon="2.04283">
        <ele>160</ele>
        <time>2017-12-06T15:13:46Z</time>
      </trkpt>
      <trkpt lat="44.17001" lon="2.04287">
        <ele>161</ele>
        <time>2017-12-06T15:13:48Z</time>
      </trkpt>
      <trkpt lat="44.17003" lon="2.04291">
        <ele>161</ele>
        <time>2017-12-06T15:13:50Z</time>
      </trkpt>
      <trkpt lat="44.17004" lon="2.04294">
        <ele>161</ele>
        <time>2017-12-06T15:13:52Z</time>
      </trkpt>
      <trkpt lat="44.17006" lon="2.04297">
        <ele>161</ele>
        <time>2017-12-06T15:13:54Z</time>
      </trkpt>
      <trkpt lat="44.17007" lon="2.04301">
        <ele>161</ele>
        <time>2017-12-06T15:13:56Z</time>
      </trkpt>
      <trkpt lat="44.17008" lon="2.04304">
        <ele>161</ele>
        <time>2017-12-06T15:13:58Z</time>
      </trkpt>
      <trkpt lat="44.17009" lon="2.04308">
        <ele>161</ele>
        <time>2017-12-06T15:14:00Z</time>
      </trkpt>
      <trkpt lat="44.1701" lon="2.04313">
        <ele>161</ele>
        <time>2017-12-06T15:14:02Z</time>
      </trkpt>
      <trkpt lat="44.17012" lon="2.04317">
        <ele>161</ele>
        <time>2017-12-06T15:14:04Z</time>
      </trkpt>
      <trkpt lat="44.17013" lon="2.0432">
        <ele>161</ele>
        <time>2017-12-06T15:14:06Z</time>
      </trkpt>
      <trkpt lat="44.17015" lon="2.04324">
        <ele>160</ele>
        <time>2017-12-06T15:14:08Z</time>
      </trkpt>
      <trkpt lat="44.17017" lon="2.04328">
        <ele>160</ele>
        <time>2017-12-06T15:14:10Z</time>
      </trkpt>
      <trkpt lat="44.17018" lon="2.04332">
        <ele>160</ele>
        <time>2017-12-06T15:14:12Z</time>
      </trkpt>
      <trkpt lat="44.17019" lon="2.04335">
        <ele>159</ele>
        <time>2017-12-06T15:14:14Z</time>
      </trkpt>
      <trkpt lat="44.17021" lon="2.04338">
        <ele>159</ele>
        <time>2017-12-06T15:14:16Z</time>
      </trkpt>
      <trkpt lat="44.17022" lon="2.04341">
        <ele>159</ele>
        <time>2017-12-06T15:14:18Z</time>
      </trkpt>
      <trkpt lat="44.17024" lon="2.04345">
        <ele>159</ele>
        <time>2017-12-06T15:14:20Z</time>
      </trkpt>
      <trkpt lat="44.17026" lon="2.04348">
        <ele>159</ele>
        <time>2017-12-06T15:14:22Z</time>
      </trkpt>
      <trkpt lat="44.17027" lon="2.04352">
        <ele>159</ele>
        <time>2017-12-06T15:14:24Z</time>
      </trkpt>
      <trkpt lat="44.17028" lon="2.04356">
        <ele>159</ele>
        <time>2017-12-06T15:14:26Z</time>
      </trkpt>
      <trkpt lat="44.1703" lon="2.04359">
        <ele>159</ele>
        <time>2017-12-06T15:14:28Z</time>
      </trkpt>
      <trkpt lat="44.17031" lon="2.04362">
        <ele>159</ele>
        <time>2017-12-06T15:14:30Z</time>
      </trkpt>
      <trkpt lat="44.17032" lon="2.04364">
        <ele>160</ele>
        <time>2017-12-06T15:14:32Z</time>
      </trkpt>
      <trkpt lat="44.17033" lon="2.04368">
        <ele>160</ele>
        <time>2017-12-06T15:14:34Z</time>
      </trkpt>
      <trkpt lat="44.17035" lon="2.04371">
        <ele>160</ele>
        <time>2017-12-06T15:14:36Z</time>
      </trkpt>
      <trkpt lat="44.17037" lon="2.04374">
        <ele>160</ele>
        <time>2017-12-06T15:14:38Z</time>
      </trkpt>
      <trkpt lat="44.17039" lon="2.04379">
        <ele>160</ele>
        <time>2017-12-06T15:14:40Z</time>
      </trkpt>
      <trkpt lat="44.17041" lon="2.04382">
        <ele>160</ele>
        <time>2017-12-06T15:14:42Z</time>
      </trkpt>
      <trkpt lat="44.17042" lon="2.04385">
        <ele>159</ele>
        <time>2017-12-06T15:14:44Z</time>
      </trkpt>
      <trkpt lat="44.17044" lon="2.04388">
        <ele>159</ele>
        <time>2017-12-06T15:14:46Z</time>
      </trkpt>
      <trkpt lat="44.17045" lon="2.04391">
        <ele>159</ele>
        <time>2017-12-06T15:14:48Z</time>
      </trkpt>
      <trkpt lat="44.17046" lon="2.04394">
        <ele>159</ele>
        <time>2017-12-06T15:14:50Z</time>
      </trkpt>
      <trkpt lat="44.17048" lon="2.04398">
        <ele>159</ele>
        <time>2017-12-06T15:14:52Z</time>
      </trkpt>
      <trkpt lat="44.17051" lon="2.04401">
        <ele>159</ele>
        <time>2017-12-06T15:14:54Z</time>
      </trkpt>
      <trkpt lat="44.17051" lon="2.04404">
        <ele>159</ele>
        <time>2017-12-06T15:14:56Z</time>
      </trkpt>
      <trkpt lat="44.17052" lon="2.04407">
        <ele>159</ele>
        <time>2017-12-06T15:14:58Z</time>
      </trkpt>
      <trkpt lat="44.17053" lon="2.04411">
        <ele>159</ele>
        <time>2017-12-06T15:15:00Z</time>
      </trkpt>
      <trkpt lat="44.17055" lon="2.04414">
        <ele>159</ele>
        <time>2017-12-06T15:15:02Z</time>
      </trkpt>
      <trkpt lat="44.17057" lon="2.04418">
        <ele>159</ele>
        <time>2017-12-06T15:15:04Z</time>
      </trkpt>
      <trkpt lat="44.17058" lon="2.04421">
        <ele>159</ele>
        <time>2017-12-06T15:15:06Z</time>
      </trkpt>
      <trkpt lat="44.17059" lon="2.04425">
        <ele>159</ele>
        <time>2017-12-06T15:15:08Z</time>
      </trkpt>
      <trkpt lat="44.1706" lon="2.0443">
        <ele>159</ele>
        <time>2017-12-06T15:15:10Z</time>
      </trkpt>
      <trkpt lat="44.17061" lon="2.04434">
        <ele>159</ele>
        <time>2017-12-06T15:15:12Z</time>
      </trkpt>
      <trkpt lat="44.17063" lon="2.04437">
        <ele>159</ele>
        <time>2017-12-06T15:15:14Z</time>
      </trkpt>
      <trkpt lat="44.17065" lon="2.04441">
        <ele>159</ele>
        <time>2017-12-06T15:15:16Z</time>
      </trkpt>
      <trkpt lat="44.17065" lon="2.04445">
        <ele>159</ele>
        <time>2017-12-06T15:15:18Z</time>
      </trkpt>
      <trkpt lat="44.17067" lon="2.04449">
        <ele>159</ele>
        <time>2017-12-06T15:15:20Z</time>
      </trkpt>
      <trkpt lat="44.17068" lon="2.04452">
        <ele>159</ele>
        <time>2017-12-06T15:15:22Z</time>
      </trkpt>
      <trkpt lat="44.17069" lon="2.04457">
        <ele>160</ele>
        <time>2017-12-06T15:15:24Z</time>
      </trkpt>
      <trkpt lat="44.1707" lon="2.0446">
        <ele>160</ele>
        <time>2017-12-06T15:15:26Z</time>
      </trkpt>
      <trkpt lat="44.17071" lon="2.04464">
        <ele>161</ele>
        <time>2017-12-06T15:15:28Z</time>
      </trkpt>
      <trkpt lat="44.17072" lon="2.04467">
        <ele>161</ele>
        <time>2017-12-06T15:15:30Z</time>
      </trkpt>
      <trkpt lat="44.17072" lon="2.04471">
        <ele>161</ele>
        <time>2017-12-06T15:15:32Z</time>
      </trkpt>
      <trkpt lat="44.17074" lon="2.04474">
        <ele>161</ele>
        <time>2017-12-06T15:15:34Z</time>
      </trkpt>
      <trkpt lat="44.17076" lon="2.04478">
        <ele>161</ele>
        <time>2017-12-06T15:15:36Z</time>
      </trkpt>
      <trkpt lat="44.17078" lon="2.04481">
        <ele>162</ele>
        <time>2017-12-06T15:15:38Z</time>
      </trkpt>
      <trkpt lat="44.17079" lon="2.04486">
        <ele>162</ele>
        <time>2017-12-06T15:15:40Z</time>
      </trkpt>
      <trkpt lat="44.1708" lon="2.04489">
        <ele>162</ele>
        <time>2017-12-06T15:15:42Z</time>
      </trkpt>
      <trkpt lat="44.17082" lon="2.04491">
        <ele>161</ele>
        <time>2017-12-06T15:15:44Z</time>
      </trkpt>
      <trkpt lat="44.17082" lon="2.04495">
        <ele>161</ele>
        <time>2017-12-06T15:15:46Z</time>
      </trkpt>
      <trkpt lat="44.17083" lon="2.04499">
        <ele>161</ele>
        <time>2017-12-06T15:15:48Z</time>
      </trkpt>
      <trkpt lat="44.17086" lon="2.04503">
        <ele>161</ele>
        <time>2017-12-06T15:15:50Z</time>
      </trkpt>
      <trkpt lat="44.17088" lon="2.04507">
        <ele>161</ele>
        <time>2017-12-06T15:15:52Z</time>
      </trkpt>
      <trkpt lat="44.17088" lon="2.04511">
        <ele>161</ele>
        <time>2017-12-06T15:15:54Z</time>
      </trkpt>
      <trkpt lat="44.17089" lon="2.04515">
        <ele>161</ele>
        <time>2017-12-06T15:15:56Z</time>
      </trkpt>
      <trkpt lat="44.1709" lon="2.04519">
        <ele>161</ele>
        <time>2017-12-06T15:15:58Z</time>
      </trkpt>
      <trkpt lat="44.17091" lon="2.04522">
        <ele>161</ele>
        <time>2017-12-06T15:16:00Z</time>
      </trkpt>
      <trkpt lat="44.17093" lon="2.04525">
        <ele>162</ele>
        <time>2017-12-06T15:16:02Z</time>
      </trkpt>
      <trkpt lat="44.17094" lon="2.0453">
        <ele>162</ele>
        <time>2017-12-06T15:16:04Z</time>
      </trkpt>
      <trkpt lat="44.17095" lon="2.04534">
        <ele>162</ele>
        <time>2017-12-06T15:16:06Z</time>
      </trkpt>
      <trkpt lat="44.17096" lon="2.04538">
        <ele>163</ele>
        <time>2017-12-06T15:16:08Z</time>
      </trkpt>
      <trkpt lat="44.17096" lon="2.04543">
        <ele>163</ele>
        <time>2017-12-06T15:16:10Z</time>
      </trkpt>
      <trkpt lat="44.17096" lon="2.04547">
        <ele>163</ele>
        <time>2017-12-06T15:16:12Z</time>
      </trkpt>
      <trkpt lat="44.17097" lon="2.04551">
        <ele>163</ele>
        <time>2017-12-06T15:16:14Z</time>
      </trkpt>
      <trkpt lat="44.17097" lon="2.04555">
        <ele>164</ele>
        <time>2017-12-06T15:16:16Z</time>
      </trkpt>
      <trkpt lat="44.17098" lon="2.04559">
        <ele>164</ele>
        <time>2017-12-06T15:16:18Z</time>
      </trkpt>
      <trkpt lat="44.17099" lon="2.04563">
        <ele>164</ele>
        <time>2017-12-06T15:16:20Z</time>
      </trkpt>
      <trkpt lat="44.17098" lon="2.04566">
        <ele>164</ele>
        <time>2017-12-06T15:16:22Z</time>
      </trkpt>
      <trkpt lat="44.171" lon="2.04569">
        <ele>164</ele>
        <time>2017-12-06T15:16:24Z</time>
      </trkpt>
      <trkpt lat="44.17102" lon="2.04573">
        <ele>165</ele>
        <time>2017-12-06T15:16:26Z</time>
      </trkpt>
      <trkpt lat="44.17103" lon="2.04577">
        <ele>165</ele>
        <time>2017-12-06T15:16:28Z</time>
      </trkpt>
      <trkpt lat="44.17104" lon="2.04581">
        <ele>165</ele>
        <time>2017-12-06T15:16:30Z</time>
      </trkpt>
      <trkpt lat="44.17105" lon="2.04583">
        <ele>165</ele>
        <time>2017-12-06T15:16:32Z</time>
      </trkpt>
      <trkpt lat="44.17107" lon="2.04587">
        <ele>166</ele>
        <time>2017-12-06T15:16:34Z</time>
      </trkpt>
      <trkpt lat="44.17109" lon="2.0459">
        <ele>166</ele>
        <time>2017-12-06T15:16:36Z</time>
      </trkpt>
      <trkpt lat="44.1711" lon="2.04594">
        <ele>166</ele>
        <time>2017-12-06T15:16:38Z</time>
      </trkpt>
      <trkpt lat="44.17112" lon="2.04597">
        <ele>166</ele>
        <time>2017-12-06T15:16:40Z</time>
      </trkpt>
      <trkpt lat="44.17113" lon="2.04601">
        <ele>166</ele>
        <time>2017-12-06T15:16:42Z</time>
      </trkpt>
      <trkpt lat="44.17114" lon="2.04605">
        <ele>166</ele>
        <time>2017-12-06T15:16:44Z</time>
      </trkpt>
      <trkpt lat="44.17114" lon="2.04609">
        <ele>165</ele>
        <time>2017-12-06T15:16:46Z</time>
      </trkpt>
      <trkpt lat="44.17115" lon="2.04613">
        <ele>165</ele>
        <time>2017-12-06T15:16:48Z</time>
      </trkpt>
      <trkpt lat="44.17116" lon="2.04616">
        <ele>165</ele>
        <time>2017-12-06T15:16:50Z</time>
      </trkpt>
      <trkpt lat="44.17117" lon="2.0462">
        <ele>165</ele>
        <time>2017-12-06T15:16:52Z</time>
      </trkpt>
      <trkpt lat="44.17118" lon="2.04623">
        <ele>165</ele>
        <time>2017-12-06T15:16:54Z</time>
      </trkpt>
      <trkpt lat="44.17119" lon="2.04625">
        <ele>165</ele>
        <time>2017-12-06T15:16:56Z</time>
      </trkpt>
      <trkpt lat="44.1712" lon="2.04629">
        <ele>165</ele>
        <time>2017-12-06T15:16:58Z</time>
      </trkpt>
      <trkpt lat="44.1712" lon="2.04633">
        <ele>165</ele>
        <time>2017-12-06T15:17:00Z</time>
      </trkpt>
      <trkpt lat="44.17122" lon="2.04637">
        <ele>165</ele>
        <time>2017-12-06T15:17:02Z</time>
      </trkpt>
      <trkpt lat="44.17122" lon="2.04641">
        <ele>165</ele>
        <time>2017-12-06T15:17:04Z</time>
      </trkpt>
      <trkpt lat="44.17124" lon="2.04645">
        <ele>165</ele>
        <time>2017-12-06T15:17:06Z</time>
      </trkpt>
      <trkpt lat="44.17124" lon="2.04648">
        <ele>165</ele>
        <time>2017-12-06T15:17:08Z</time>
      </trkpt>
      <trkpt lat="44.17123" lon="2.04653">
        <ele>166</ele>
        <time>2017-12-06T15:17:10Z</time>
      </trkpt>
      <trkpt lat="44.17124" lon="2.04657">
        <ele>166</ele>
        <time>2017-12-06T15:17:12Z</time>
      </trkpt>
      <trkpt lat="44.17126" lon="2.0466">
        <ele>166</ele>
        <time>2017-12-06T15:17:14Z</time>
      </trkpt>
      <trkpt lat="44.17127" lon="2.04664">
        <ele>166</ele>
        <time>2017-12-06T15:17:16Z</time>
      </trkpt>
      <trkpt lat="44.17128" lon="2.04668">
        <ele>165</ele>
        <time>2017-12-06T15:17:18Z</time>
      </trkpt>
      <trkpt lat="44.17128" lon="2.04672">
        <ele>165</ele>
        <time>2017-12-06T15:17:20Z</time>
      </trkpt>
      <trkpt lat="44.17129" lon="2.04675">
        <ele>165</ele>
        <time>2017-12-06T15:17:22Z</time>
      </trkpt>
      <trkpt lat="44.17131" lon="2.04678">
        <ele>164</ele>
        <time>2017-12-06T15:17:24Z</time>
      </trkpt>
      <trkpt lat="44.17132" lon="2.04683">
        <ele>164</ele>
        <time>2017-12-06T15:17:26Z</time>
      </trkpt>
      <trkpt lat="44.17133" lon="2.04687">
        <ele>164</ele>
        <time>2017-12-06T15:17:28Z</time>
      </trkpt>
      <trkpt lat="44.17133" lon="2.04692">
        <ele>164</ele>
        <time>2017-12-06T15:17:30Z</time>
      </trkpt>
      <trkpt lat="44.17133" lon="2.04697">
        <ele>164</ele>
        <time>2017-12-06T15:17:32Z</time>
      </trkpt>
      <trkpt lat="44.17134" lon="2.04701">
        <ele>164</ele>
        <time>2017-12-06T15:17:34Z</time>
      </trkpt>
      <trkpt lat="44.17136" lon="2.04705">
        <ele>164</ele>
        <time>2017-12-06T15:17:36Z</time>
      </trkpt>
      <trkpt lat="44.17137" lon="2.04708">
        <ele>164</ele>
        <time>2017-12-06T15:17:38Z</time>
      </trkpt>
      <trkpt lat="44.17138" lon="2.04713">
        <ele>164</ele>
        <time>2017-12-06T15:17:40Z</time>
      </trkpt>
      <trkpt lat="44.17139" lon="2.04717">
        <ele>165</ele>
        <time>2017-12-06T15:17:42Z</time>
      </trkpt>
      <trkpt lat="44.1714" lon="2.0472">
        <ele>165</ele>
        <time>2017-12-06T15:17:44Z</time>
      </trkpt>
      <trkpt lat="44.17142" lon="2.04722">
        <ele>165</ele>
        <time>2017-12-06T15:17:46Z</time>
      </trkpt>
      <trkpt lat="44.17142" lon="2.04727">
        <ele>166</ele>
        <time>2017-12-06T15:17:48Z</time>
      </trkpt>
      <trkpt lat="44.17142" lon="2.04733">
        <ele>166</ele>
        <time>2017-12-06T15:17:50Z</time>
      </trkpt>
      <trkpt lat="44.17141" lon="2.04738">
        <ele>166</ele>
        <time>2017-12-06T15:17:52Z</time>
      </trkpt>
      <trkpt lat="44.17142" lon="2.04742">
        <ele>166</ele>
        <time>2017-12-06T15:17:54Z</time>
      </trkpt>
      <trkpt lat="44.17143" lon="2.04746">
        <ele>167</ele>
        <time>2017-12-06T15:17:56Z</time>
      </trkpt>
      <trkpt lat="44.17144" lon="2.0475">
        <ele>167</ele>
        <time>2017-12-06T15:17:58Z</time>
      </trkpt>
      <trkpt lat="44.17146" lon="2.04755">
        <ele>167</ele>
        <time>2017-12-06T15:18:00Z</time>
      </trkpt>
      <trkpt lat="44.17148" lon="2.04759">
        <ele>167</ele>
        <time>2017-12-06T15:18:02Z</time>
      </trkpt>
      <trkpt lat="44.17149" lon="2.04763">
        <ele>167</ele>
        <time>2017-12-06T15:18:04Z</time>
      </trkpt>
      <trkpt lat="44.17149" lon="2.04768">
        <ele>168</ele>
        <time>2017-12-06T15:18:06Z</time>
      </trkpt>
      <trkpt lat="44.1715" lon="2.04773">
        <ele>168</ele>
        <time>2017-12-06T15:18:08Z</time>
      </trkpt>
      <trkpt lat="44.17152" lon="2.04776">
        <ele>168</ele>
        <time>2017-12-06T15:18:10Z</time>
      </trkpt>
      <trkpt lat="44.17154" lon="2.04779">
        <ele>168</ele>
        <time>2017-12-06T15:18:12Z</time>
      </trkpt>
      <trkpt lat="44.17157" lon="2.04782">
        <ele>168</ele>
        <time>2017-12-06T15:18:14Z</time>
      </trkpt>
      <trkpt lat="44.17158" lon="2.04786">
        <ele>168</ele>
        <time>2017-12-06T15:18:16Z</time>
      </trkpt>
      <trkpt lat="44.17158" lon="2.0479">
        <ele>168</ele>
        <time>2017-12-06T15:18:18Z</time>
      </trkpt>
      <trkpt lat="44.1716" lon="2.04794">
        <ele>167</ele>
        <time>2017-12-06T15:18:20Z</time>
      </trkpt>
      <trkpt lat="44.17162" lon="2.04797">
        <ele>167</ele>
        <time>2017-12-06T15:18:22Z</time>
      </trkpt>
      <trkpt lat="44.17162" lon="2.04801">
        <ele>166</ele>
        <time>2017-12-06T15:18:24Z</time>
      </trkpt>
      <trkpt lat="44.17164" lon="2.04804">
        <ele>166</ele>
        <time>2017-12-06T15:18:26Z</time>
      </trkpt>
      <trkpt lat="44.17165" lon="2.04806">
        <ele>166</ele>
        <time>2017-12-06T15:18:28Z</time>
      </trkpt>
      <trkpt lat="44.17167" lon="2.0481">
        <ele>165</ele>
        <time>2017-12-06T15:18:30Z</time>
      </trkpt>
      <trkpt lat="44.17167" lon="2.04815">
        <ele>165</ele>
        <time>2017-12-06T15:18:32Z</time>
      </trkpt>
      <trkpt lat="44.17167" lon="2.0482">
        <ele>165</ele>
        <time>2017-12-06T15:18:34Z</time>
      </trkpt>
      <trkpt lat="44.17167" lon="2.04824">
        <ele>165</ele>
        <time>2017-12-06T15:18:36Z</time>
      </trkpt>
      <trkpt lat="44.17168" lon="2.04827">
        <ele>165</ele>
        <time>2017-12-06T15:18:38Z</time>
      </trkpt>
      <trkpt lat="44.1717" lon="2.0483">
        <ele>165</ele>
        <time>2017-12-06T15:18:40Z</time>
      </trkpt>
      <trkpt lat="44.1717" lon="2.0483">
        <ele>165</ele>
        <time>2017-12-06T15:18:42Z</time>
      </trkpt>
      <trkpt lat="44.17171" lon="2.04836">
        <ele>165</ele>
        <time>2017-12-06T15:18:44Z</time>
      </trkpt>
      <trkpt lat="44.17172" lon="2.04839">
        <ele>165</ele>
        <time>2017-12-06T15:18:46Z</time>
      </trkpt>
      <trkpt lat="44.17174" lon="2.04843">
        <ele>165</ele>
        <time>2017-12-06T15:18:48Z</time>
      </trkpt>
      <trkpt lat="44.17174" lon="2.04847">
        <ele>165</ele>
        <time>2017-12-06T15:18:50Z</time>
      </trkpt>
      <trkpt lat="44.17174" lon="2.0485">
        <ele>165</ele>
        <time>2017-12-06T15:18:52Z</time>
      </trkpt>
      <trkpt lat="44.17176" lon="2.04853">
        <ele>164</ele>
        <time>2017-12-06T15:18:54Z</time>
      </trkpt>
      <trkpt lat="44.17176" lon="2.04856">
        <ele>164</ele>
        <time>2017-12-06T15:18:56Z</time>
      </trkpt>
      <trkpt lat="44.17177" lon="2.0486">
        <ele>163</ele>
        <time>2017-12-06T15:18:58Z</time>
      </trkpt>
      <trkpt lat="44.17179" lon="2.04863">
        <ele>163</ele>
        <time>2017-12-06T15:19:00Z</time>
      </trkpt>
      <trkpt lat="44.1718" lon="2.04867">
        <ele>163</ele>
        <time>2017-12-06T15:19:02Z</time>
      </trkpt>
      <trkpt lat="44.1718" lon="2.0487">
        <ele>163</ele>
        <time>2017-12-06T15:19:04Z</time>
      </trkpt>
      <trkpt lat="44.17182" lon="2.04874">
        <ele>163</ele>
        <time>2017-12-06T15:19:06Z</time>
      </trkpt>
      <trkpt lat="44.17182" lon="2.04878">
        <ele>163</ele>
        <time>2017-12-06T15:19:08Z</time>
      </trkpt>
      <trkpt lat="44.17182" lon="2.04883">
        <ele>163</ele>
        <time>2017-12-06T15:19:10Z</time>
      </trkpt>
      <trkpt lat="44.17184" lon="2.04886">
        <ele>163</ele>
        <time>2017-12-06T15:19:12Z</time>
      </trkpt>
      <trkpt lat="44.17185" lon="2.04891">
        <ele>163</ele>
        <time>2017-12-06T15:19:14Z</time>
      </trkpt>
      <trkpt lat="44.17185" lon="2.04895">
        <ele>163</ele>
        <time>2017-12-06T15:19:16Z</time>
      </trkpt>
      <trkpt lat="44.17186" lon="2.04898">
        <ele>163</ele>
        <time>2017-12-06T15:19:18Z</time>
      </trkpt>
      <trkpt lat="44.17186" lon="2.04902">
        <ele>163</ele>
        <time>2017-12-06T15:19:20Z</time>
      </trkpt>
      <trkpt lat="44.17187" lon="2.04905">
        <ele>163</ele>
        <time>2017-12-06T15:19:22Z</time>
      </trkpt>
      <trkpt lat="44.17187" lon="2.04908">
        <ele>163</ele>
        <time>2017-12-06T15:19:24Z</time>
      </trkpt>
      <trkpt lat="44.17189" lon="2.04911">
        <ele>163</ele>
        <time>2017-12-06T15:19:26Z</time>
      </trkpt>
      <trkpt lat="44.17189" lon="2.04915">
        <ele>163</ele>
        <time>2017-12-06T15:19:28Z</time>
      </trkpt>
      <trkpt lat="44.17189" lon="2.0492">
        <ele>163</ele>
        <time>2017-12-06T15:19:30Z</time>
      </trkpt>
      <trkpt lat="44.1719" lon="2.04923">
        <ele>163</ele>
        <time>2017-12-06T15:19:32Z</time>
      </trkpt>
      <trkpt lat="44.17191" lon="2.04927">
        <ele>163</ele>
        <time>2017-12-06T15:19:34Z</time>
      </trkpt>
      <trkpt lat="44.17191" lon="2.04931">
        <ele>163</ele>
        <time>2017-12-06T15:19:36Z</time>
      </trkpt>
      <trkpt lat="44.17192" lon="2.04936">
        <ele>163</ele>
        <time>2017-12-06T15:19:38Z</time>
      </trkpt>
      <trkpt lat="44.17191" lon="2.0494">
        <ele>163</ele>
        <time>2017-12-06T15:19:40Z</time>
      </trkpt>
      <trkpt lat="44.1719" lon="2.04945">
        <ele>164</ele>
        <time>2017-12-06T15:19:42Z</time>
      </trkpt>
      <trkpt lat="44.17189" lon="2.0495">
        <ele>164</ele>
        <time>2017-12-06T15:19:44Z</time>
      </trkpt>
      <trkpt lat="44.17187" lon="2.04954">
        <ele>164</ele>
        <time>2017-12-06T15:19:46Z</time>
      </trkpt>
      <trkpt lat="44.17188" lon="2.04958">
        <ele>164</ele>
        <time>2017-12-06T15:19:48Z</time>
      </trkpt>
      <trkpt lat="44.17187" lon="2.04963">
        <ele>164</ele>
        <time>2017-12-06T15:19:50Z</time>
      </trkpt>
      <trkpt lat="44.17187" lon="2.04968">
        <ele>164</ele>
        <time>2017-12-06T15:19:52Z</time>
      </trkpt>
      <trkpt lat="44.17188" lon="2.04972">
        <ele>164</ele>
        <time>2017-12-06T15:19:54Z</time>
      </trkpt>
      <trkpt lat="44.1719" lon="2.04975">
        <ele>164</ele>
        <time>2017-12-06T15:19:56Z</time>
      </trkpt>
      <trkpt lat="44.17191" lon="2.04978">
        <ele>165</ele>
        <time>2017-12-06T15:19:58Z</time>
      </trkpt>
      <trkpt lat="44.1719" lon="2.04983">
        <ele>165</ele>
        <time>2017-12-06T15:20:00Z</time>
      </trkpt>
      <trkpt lat="44.1719" lon="2.04987">
        <ele>165</ele>
        <time>2017-12-06T15:20:02Z</time>
      </trkpt>
      <trkpt lat="44.17191" lon="2.0499">
        <ele>165</ele>
        <time>2017-12-06T15:20:04Z</time>
      </trkpt>
      <trkpt lat="44.17192" lon="2.04993">
        <ele>166</ele>
        <time>2017-12-06T15:20:06Z</time>
      </trkpt>
      <trkpt lat="44.17192" lon="2.04996">
        <ele>166</ele>
        <time>2017-12-06T15:20:08Z</time>
      </trkpt>
      <trkpt lat="44.17194" lon="2.04999">
        <ele>166</ele>
        <time>2017-12-06T15:20:10Z</time>
      </trkpt>
      <trkpt lat="44.17194" lon="2.05003">
        <ele>166</ele>
        <time>2017-12-06T15:20:12Z</time>
      </trkpt>
      <trkpt lat="44.17195" lon="2.05008">
        <ele>166</ele>
        <time>2017-12-06T15:20:14Z</time>
      </trkpt>
      <trkpt lat="44.17195" lon="2.05013">
        <ele>167</ele>
        <time>2017-12-06T15:20:16Z</time>
      </trkpt>
      <trkpt lat="44.17196" lon="2.05017">
        <ele>167</ele>
        <time>2017-12-06T15:20:18Z</time>
      </trkpt>
      <trkpt lat="44.17197" lon="2.05021">
        <ele>167</ele>
        <time>2017-12-06T15:20:20Z</time>
      </trkpt>
      <trkpt lat="44.17197" lon="2.05026">
        <ele>168</ele>
        <time>2017-12-06T15:20:22Z</time>
      </trkpt>
      <trkpt lat="44.17198" lon="2.05029">
        <ele>168</ele>
        <time>2017-12-06T15:20:24Z</time>
      </trkpt>
      <trkpt lat="44.17199" lon="2.05033">
        <ele>168</ele>
        <time>2017-12-06T15:20:26Z</time>
      </trkpt>
      <trkpt lat="44.17198" lon="2.05037">
        <ele>168</ele>
        <time>2017-12-06T15:20:28Z</time>
      </trkpt>
      <trkpt lat="44.17199" lon="2.05041">
        <ele>168</ele>
        <time>2017-12-06T15:20:30Z</time>
      </trkpt>
      <trkpt lat="44.172" lon="2.05045">
        <ele>169</ele>
        <time>2017-12-06T15:20:32Z</time>
      </trkpt>
      <trkpt lat="44.172" lon="2.05049">
        <ele>169</ele>
        <time>2017-12-06T15:20:34Z</time>
      </trkpt>
      <trkpt lat="44.17199" lon="2.05053">
        <ele>169</ele>
        <time>2017-12-06T15:20:36Z</time>
      </trkpt>
      <trkpt lat="44.172" lon="2.05057">
        <ele>170</ele>
        <time>2017-12-06T15:20:38Z</time>
      </trkpt>
      <trkpt lat="44.172" lon="2.05061">
        <ele>170</ele>
        <time>2017-12-06T15:20:40Z</time>
      </trkpt>
      <trkpt lat="44.17202" lon="2.05064">
        <ele>170</ele>
        <time>2017-12-06T15:20:42Z</time>
      </trkpt>
      <trkpt lat="44.17202" lon="2.05068">
        <ele>171</ele>
        <time>2017-12-06T15:20:44Z</time>
      </trkpt>
      <trkpt lat="44.17201" lon="2.05072">
        <ele>171</ele>
        <time>2017-12-06T15:20:46Z</time>
      </trkpt>
      <trkpt lat="44.17202" lon="2.05076">
        <ele>172</ele>
        <time>2017-12-06T15:20:48Z</time>
      </trkpt>
      <trkpt lat="44.17202" lon="2.05081">
        <ele>172</ele>
        <time>2017-12-06T15:20:50Z</time>
      </trkpt>
      <trkpt lat="44.17202" lon="2.05085">
        <ele>172</ele>
        <time>2017-12-06T15:20:52Z</time>
      </trkpt>
      <trkpt lat="44.17202" lon="2.0509">
        <ele>173</ele>
        <time>2017-12-06T15:20:54Z</time>
      </trkpt>
      <trkpt lat="44.17203" lon="2.05093">
        <ele>173</ele>
        <time>2017-12-06T15:20:56Z</time>
      </trkpt>
      <trkpt lat="44.17203" lon="2.05096">
        <ele>173</ele>
        <time>2017-12-06T15:20:58Z</time>
      </trkpt>
      <trkpt lat="44.17205" lon="2.05099">
        <ele>173</ele>
        <time>2017-12-06T15:21:00Z</time>
      </trkpt>
      <trkpt lat="44.17208" lon="2.05103">
        <ele>173</ele>
        <time>2017-12-06T15:21:02Z</time>
      </trkpt>
      <trkpt lat="44.17209" lon="2.05107">
        <ele>173</ele>
        <time>2017-12-06T15:21:04Z</time>
      </trkpt>
      <trkpt lat="44.17208" lon="2.05112">
        <ele>173</ele>
        <time>2017-12-06T15:21:06Z</time>
      </trkpt>
      <trkpt lat="44.17207" lon="2.05117">
        <ele>173</ele>
        <time>2017-12-06T15:21:08Z</time>
      </trkpt>
      <trkpt lat="44.17207" lon="2.0512">
        <ele>172</ele>
        <time>2017-12-06T15:21:10Z</time>
      </trkpt>
      <trkpt lat="44.17207" lon="2.0512">
        <ele>172</ele>
        <time>2017-12-06T15:21:12Z</time>
      </trkpt>
      <trkpt lat="44.17207" lon="2.0512">
        <ele>172</ele>
        <time>2017-12-06T15:21:14Z</time>
      </trkpt>
      <trkpt lat="44.17208" lon="2.05131">
        <ele>172</ele>
        <time>2017-12-06T15:21:16Z</time>
      </trkpt>
      <trkpt lat="44.17208" lon="2.05131">
        <ele>172</ele>
        <time>2017-12-06T15:21:18Z</time>
      </trkpt>
      <trkpt lat="44.17208" lon="2.05138">
        <ele>172</ele>
        <time>2017-12-06T15:21:20Z</time>
      </trkpt>
      <trkpt lat="44.17209" lon="2.05142">
        <ele>173</ele>
        <time>2017-12-06T15:21:22Z</time>
      </trkpt>
      <trkpt lat="44.17209" lon="2.05146">
        <ele>173</ele>
        <time>2017-12-06T15:21:24Z</time>
      </trkpt>
      <trkpt lat="44.17209" lon="2.0515">
        <ele>173</ele>
        <time>2017-12-06T15:21:26Z</time>
      </trkpt>
      <trkpt lat="44.17209" lon="2.0515">
        <ele>173</ele>
        <time>2017-12-06T15:21:28Z</time>
      </trkpt>
      <trkpt lat="44.17209" lon="2.0515">
        <ele>173</ele>
        <time>2017-12-06T15:21:30Z</time>
      </trkpt>
      <trkpt lat="44.17209" lon="2.05162">
        <ele>174</ele>
        <time>2017-12-06T15:21:32Z</time>
      </trkpt>
      <trkpt lat="44.17209" lon="2.05165">
        <ele>174</ele>
        <time>2017-12-06T15:21:34Z</time>
      </trkpt>
      <trkpt lat="44.17209" lon="2.05169">
        <ele>174</ele>
        <time>2017-12-06T15:21:36Z</time>
      </trkpt>
      <trkpt lat="44.17208" lon="2.05173">
        <ele>174</ele>
        <time>2017-12-06T15:21:38Z</time>
      </trkpt>
      <trkpt lat="44.17208" lon="2.05173">
        <ele>174</ele>
        <time>2017-12-06T15:21:40Z</time>
      </trkpt>
      <trkpt lat="44.17208" lon="2.05179">
        <ele>174</ele>
        <time>2017-12-06T15:21:42Z</time>
      </trkpt>
      <trkpt lat="44.17209" lon="2.05183">
        <ele>174</ele>
        <time>2017-12-06T15:21:44Z</time>
      </trkpt>
      <trkpt lat="44.1721" lon="2.05186">
        <ele>174</ele>
        <time>2017-12-06T15:21:46Z</time>
      </trkpt>
      <trkpt lat="44.1721" lon="2.05191">
        <ele>173</ele>
        <time>2017-12-06T15:21:48Z</time>
      </trkpt>
      <trkpt lat="44.17211" lon="2.05195">
        <ele>173</ele>
        <time>2017-12-06T15:21:50Z</time>
      </trkpt>
      <trkpt lat="44.17211" lon="2.05199">
        <ele>173</ele>
        <time>2017-12-06T15:21:52Z</time>
      </trkpt>
      <trkpt lat="44.17212" lon="2.05203">
        <ele>173</ele>
        <time>2017-12-06T15:21:54Z</time>
      </trkpt>
      <trkpt lat="44.17212" lon="2.05206">
        <ele>173</ele>
        <time>2017-12-06T15:21:56Z</time>
      </trkpt>
      <trkpt lat="44.17213" lon="2.0521">
        <ele>174</ele>
        <time>2017-12-06T15:21:58Z</time>
      </trkpt>
      <trkpt lat="44.17214" lon="2.05213">
        <ele>174</ele>
        <time>2017-12-06T15:22:00Z</time>
      </trkpt>
      <trkpt lat="44.17214" lon="2.05217">
        <ele>174</ele>
        <time>2017-12-06T15:22:02Z</time>
      </trkpt>
      <trkpt lat="44.17215" lon="2.05221">
        <ele>174</ele>
        <time>2017-12-06T15:22:04Z</time>
      </trkpt>
      <trkpt lat="44.17215" lon="2.05226">
        <ele>174</ele>
        <time>2017-12-06T15:22:06Z</time>
      </trkpt>
      <trkpt lat="44.17215" lon="2.0523">
        <ele>174</ele>
        <time>2017-12-06T15:22:08Z</time>
      </trkpt>
      <trkpt lat="44.17216" lon="2.05233">
        <ele>174</ele>
        <time>2017-12-06T15:22:10Z</time>
      </trkpt>
      <trkpt lat="44.17217" lon="2.05236">
        <ele>173</ele>
        <time>2017-12-06T15:22:12Z</time>
      </trkpt>
      <trkpt lat="44.17217" lon="2.0524">
        <ele>173</ele>
        <time>2017-12-06T15:22:14Z</time>
      </trkpt>
      <trkpt lat="44.17217" lon="2.05243">
        <ele>173</ele>
        <time>2017-12-06T15:22:16Z</time>
      </trkpt>
      <trkpt lat="44.17217" lon="2.05246">
        <ele>173</ele>
        <time>2017-12-06T15:22:18Z</time>
      </trkpt>
      <trkpt lat="44.17217" lon="2.0525">
        <ele>173</ele>
        <time>2017-12-06T15:22:20Z</time>
      </trkpt>
      <trkpt lat="44.17218" lon="2.05254">
        <ele>173</ele>
        <time>2017-12-06T15:22:22Z</time>
      </trkpt>
      <trkpt lat="44.17218" lon="2.05257">
        <ele>172</ele>
        <time>2017-12-06T15:22:24Z</time>
      </trkpt>
      <trkpt lat="44.17219" lon="2.0526">
        <ele>172</ele>
        <time>2017-12-06T15:22:26Z</time>
      </trkpt>
      <trkpt lat="44.1722" lon="2.05264">
        <ele>172</ele>
        <time>2017-12-06T15:22:28Z</time>
      </trkpt>
      <trkpt lat="44.17221" lon="2.05267">
        <ele>172</ele>
        <time>2017-12-06T15:22:30Z</time>
      </trkpt>
      <trkpt lat="44.17222" lon="2.05271">
        <ele>171</ele>
        <time>2017-12-06T15:22:32Z</time>
      </trkpt>
      <trkpt lat="44.17224" lon="2.05274">
        <ele>171</ele>
        <time>2017-12-06T15:22:34Z</time>
      </trkpt>
      <trkpt lat="44.17225" lon="2.05277">
        <ele>171</ele>
        <time>2017-12-06T15:22:36Z</time>
      </trkpt>
      <trkpt lat="44.17226" lon="2.05281">
        <ele>171</ele>
        <time>2017-12-06T15:22:38Z</time>
      </trkpt>
      <trkpt lat="44.17226" lon="2.05285">
        <ele>170</ele>
        <time>2017-12-06T15:22:40Z</time>
      </trkpt>
      <trkpt lat="44.17228" lon="2.05288">
        <ele>170</ele>
        <time>2017-12-06T15:22:42Z</time>
      </trkpt>
      <trkpt lat="44.17228" lon="2.05293">
        <ele>170</ele>
        <time>2017-12-06T15:22:44Z</time>
      </trkpt>
      <trkpt lat="44.17229" lon="2.05297">
        <ele>169</ele>
        <time>2017-12-06T15:22:46Z</time>
      </trkpt>
      <trkpt lat="44.1723" lon="2.05301">
        <ele>169</ele>
        <time>2017-12-06T15:22:48Z</time>
      </trkpt>
      <trkpt lat="44.17231" lon="2.05304">
        <ele>169</ele>
        <time>2017-12-06T15:22:50Z</time>
      </trkpt>
      <trkpt lat="44.17232" lon="2.05307">
        <ele>168</ele>
        <time>2017-12-06T15:22:52Z</time>
      </trkpt>
      <trkpt lat="44.17232" lon="2.05311">
        <ele>168</ele>
        <time>2017-12-06T15:22:54Z</time>
      </trkpt>
      <trkpt lat="44.17232" lon="2.05317">
        <ele>167</ele>
        <time>2017-12-06T15:22:56Z</time>
      </trkpt>
      <trkpt lat="44.17231" lon="2.05321">
        <ele>167</ele>
        <time>2017-12-06T15:22:58Z</time>
      </trkpt>
      <trkpt lat="44.17231" lon="2.05325">
        <ele>167</ele>
        <time>2017-12-06T15:23:00Z</time>
      </trkpt>
      <trkpt lat="44.17231" lon="2.0533">
        <ele>166</ele>
        <time>2017-12-06T15:23:02Z</time>
      </trkpt>
      <trkpt lat="44.1723" lon="2.05335">
        <ele>166</ele>
        <time>2017-12-06T15:23:04Z</time>
      </trkpt>
      <trkpt lat="44.17231" lon="2.05338">
        <ele>166</ele>
        <time>2017-12-06T15:23:06Z</time>
      </trkpt>
      <trkpt lat="44.17231" lon="2.05342">
        <ele>166</ele>
        <time>2017-12-06T15:23:08Z</time>
      </trkpt>
      <trkpt lat="44.1723" lon="2.05347">
        <ele>165</ele>
        <time>2017-12-06T15:23:10Z</time>
      </trkpt>
      <trkpt lat="44.17229" lon="2.05352">
        <ele>165</ele>
        <time>2017-12-06T15:23:12Z</time>
      </trkpt>
      <trkpt lat="44.17227" lon="2.05359">
        <ele>165</ele>
        <time>2017-12-06T15:23:14Z</time>
      </trkpt>
      <trkpt lat="44.17227" lon="2.05363">
        <ele>164</ele>
        <time>2017-12-06T15:23:16Z</time>
      </trkpt>
      <trkpt lat="44.17226" lon="2.05369">
        <ele>164</ele>
        <time>2017-12-06T15:23:18Z</time>
      </trkpt>
      <trkpt lat="44.17227" lon="2.05373">
        <ele>164</ele>
        <time>2017-12-06T15:23:20Z</time>
      </trkpt>
      <trkpt lat="44.17227" lon="2.05377">
        <ele>164</ele>
        <time>2017-12-06T15:23:22Z</time>
      </trkpt>
      <trkpt lat="44.17228" lon="2.0538">
        <ele>164</ele>
        <time>2017-12-06T15:23:24Z</time>
      </trkpt>
      <trkpt lat="44.17229" lon="2.05383">
        <ele>163</ele>
        <time>2017-12-06T15:23:26Z</time>
      </trkpt>
      <trkpt lat="44.17229" lon="2.05387">
        <ele>163</ele>
        <time>2017-12-06T15:23:28Z</time>
      </trkpt>
      <trkpt lat="44.17229" lon="2.0539">
        <ele>163</ele>
        <time>2017-12-06T15:23:30Z</time>
      </trkpt>
      <trkpt lat="44.1723" lon="2.05394">
        <ele>163</ele>
        <time>2017-12-06T15:23:32Z</time>
      </trkpt>
      <trkpt lat="44.17231" lon="2.05398">
        <ele>163</ele>
        <time>2017-12-06T15:23:34Z</time>
      </trkpt>
      <trkpt lat="44.1723" lon="2.05402">
        <ele>163</ele>
        <time>2017-12-06T15:23:36Z</time>
      </trkpt>
      <trkpt lat="44.1723" lon="2.05406">
        <ele>162</ele>
        <time>2017-12-06T15:23:38Z</time>
      </trkpt>
      <trkpt lat="44.17231" lon="2.05409">
        <ele>162</ele>
        <time>2017-12-06T15:23:40Z</time>
      </trkpt>
      <trkpt lat="44.17231" lon="2.05413">
        <ele>161</ele>
        <time>2017-12-06T15:23:42Z</time>
      </trkpt>
      <trkpt lat="44.1723" lon="2.05418">
        <ele>161</ele>
        <time>2017-12-06T15:23:44Z</time>
      </trkpt>
      <trkpt lat="44.1723" lon="2.05422">
        <ele>161</ele>
        <time>2017-12-06T15:23:46Z</time>
      </trkpt>
      <trkpt lat="44.17231" lon="2.05426">
        <ele>161</ele>
        <time>2017-12-06T15:23:48Z</time>
      </trkpt>
      <trkpt lat="44.1723" lon="2.05432">
        <ele>161</ele>
        <time>2017-12-06T15:23:50Z</time>
      </trkpt>
      <trkpt lat="44.17229" lon="2.05437">
        <ele>161</ele>
        <time>2017-12-06T15:23:52Z</time>
      </trkpt>
      <trkpt lat="44.17228" lon="2.0544">
        <ele>161</ele>
        <time>2017-12-06T15:23:54Z</time>
      </trkpt>
      <trkpt lat="44.17229" lon="2.05445">
        <ele>162</ele>
        <time>2017-12-06T15:23:56Z</time>
      </trkpt>
      <trkpt lat="44.17229" lon="2.05449">
        <ele>162</ele>
        <time>2017-12-06T15:23:58Z</time>
      </trkpt>
      <trkpt lat="44.17229" lon="2.05453">
        <ele>162</ele>
        <time>2017-12-06T15:24:00Z</time>
      </trkpt>
      <trkpt lat="44.1723" lon="2.05457">
        <ele>162</ele>
        <time>2017-12-06T15:24:02Z</time>
      </trkpt>
      <trkpt lat="44.1723" lon="2.05461">
        <ele>162</ele>
        <time>2017-12-06T15:24:04Z</time>
      </trkpt>
      <trkpt lat="44.17232" lon="2.05465">
        <ele>161</ele>
        <time>2017-12-06T15:24:06Z</time>
      </trkpt>
      <trkpt lat="44.17232" lon="2.05468">
        <ele>161</ele>
        <time>2017-12-06T15:24:08Z</time>
      </trkpt>
      <trkpt lat="44.17234" lon="2.05471">
        <ele>161</ele>
        <time>2017-12-06T15:24:10Z</time>
      </trkpt>
      <trkpt lat="44.17234" lon="2.05475">
        <ele>160</ele>
        <time>2017-12-06T15:24:12Z</time>
      </trkpt>
      <trkpt lat="44.17234" lon="2.0548">
        <ele>160</ele>
        <time>2017-12-06T15:24:14Z</time>
      </trkpt>
      <trkpt lat="44.17235" lon="2.05484">
        <ele>160</ele>
        <time>2017-12-06T15:24:16Z</time>
      </trkpt>
      <trkpt lat="44.17236" lon="2.05488">
        <ele>160</ele>
        <time>2017-12-06T15:24:18Z</time>
      </trkpt>
      <trkpt lat="44.17237" lon="2.05494">
        <ele>160</ele>
        <time>2017-12-06T15:24:20Z</time>
      </trkpt>
      <trkpt lat="44.17237" lon="2.05498">
        <ele>161</ele>
        <time>2017-12-06T15:24:22Z</time>
      </trkpt>
      <trkpt lat="44.17239" lon="2.05502">
        <ele>161</ele>
        <time>2017-12-06T15:24:24Z</time>
      </trkpt>
      <trkpt lat="44.17238" lon="2.05506">
        <ele>162</ele>
        <time>2017-12-06T15:24:26Z</time>
      </trkpt>
      <trkpt lat="44.17239" lon="2.0551">
        <ele>162</ele>
        <time>2017-12-06T15:24:28Z</time>
      </trkpt>
      <trkpt lat="44.17241" lon="2.05514">
        <ele>163</ele>
        <time>2017-12-06T15:24:30Z</time>
      </trkpt>
      <trkpt lat="44.17241" lon="2.05519">
        <ele>163</ele>
        <time>2017-12-06T15:24:32Z</time>
      </trkpt>
      <trkpt lat="44.17241" lon="2.05523">
        <ele>164</ele>
        <time>2017-12-06T15:24:34Z</time>
      </trkpt>
      <trkpt lat="44.17241" lon="2.05527">
        <ele>164</ele>
        <time>2017-12-06T15:24:36Z</time>
      </trkpt>
      <trkpt lat="44.17242" lon="2.05532">
        <ele>164</ele>
        <time>2017-12-06T15:24:38Z</time>
      </trkpt>
      <trkpt lat="44.17242" lon="2.05535">
        <ele>164</ele>
        <time>2017-12-06T15:24:40Z</time>
      </trkpt>
      <trkpt lat="44.17243" lon="2.05539">
        <ele>164</ele>
        <time>2017-12-06T15:24:42Z</time>
      </trkpt>
      <trkpt lat="44.17244" lon="2.05543">
        <ele>164</ele>
        <time>2017-12-06T15:24:44Z</time>
      </trkpt>
      <trkpt lat="44.17246" lon="2.05546">
        <ele>164</ele>
        <time>2017-12-06T15:24:46Z</time>
      </trkpt>
      <trkpt lat="44.17248" lon="2.05548">
        <ele>164</ele>
        <time>2017-12-06T15:24:48Z</time>
      </trkpt>
      <trkpt lat="44.17249" lon="2.05551">
        <ele>164</ele>
        <time>2017-12-06T15:24:50Z</time>
      </trkpt>
      <trkpt lat="44.1725" lon="2.05554">
        <ele>164</ele>
        <time>2017-12-06T15:24:52Z</time>
      </trkpt>
      <trkpt lat="44.17253" lon="2.05557">
        <ele>164</ele>
        <time>2017-12-06T15:24:54Z</time>
      </trkpt>
      <trkpt lat="44.17254" lon="2.05561">
        <ele>163</ele>
        <time>2017-12-06T15:24:56Z</time>
      </trkpt>
      <trkpt lat="44.17255" lon="2.05564">
        <ele>163</ele>
        <time>2017-12-06T15:24:58Z</time>
      </trkpt>
      <trkpt lat="44.17255" lon="2.05568">
        <ele>163</ele>
        <time>2017-12-06T15:25:00Z</time>
      </trkpt>
      <trkpt lat="44.17257" lon="2.05571">
        <ele>163</ele>
        <time>2017-12-06T15:25:02Z</time>
      </trkpt>
      <trkpt lat="44.17258" lon="2.05573">
        <ele>164</ele>
        <time>2017-12-06T15:25:04Z</time>
      </trkpt>
      <trkpt lat="44.1726" lon="2.05576">
        <ele>164</ele>
        <time>2017-12-06T15:25:06Z</time>
      </trkpt>
      <trkpt lat="44.17261" lon="2.05579">
        <ele>164</ele>
        <time>2017-12-06T15:25:08Z</time>
      </trkpt>
      <trkpt lat="44.17262" lon="2.05583">
        <ele>164</ele>
        <time>2017-12-06T15:25:10Z</time>
      </trkpt>
      <trkpt lat="44.17265" lon="2.05585">
        <ele>164</ele>
        <time>2017-12-06T15:25:12Z</time>
      </trkpt>
      <trkpt lat="44.17266" lon="2.05588">
        <ele>164</ele>
        <time>2017-12-06T15:25:14Z</time>
      </trkpt>
      <trkpt lat="44.17268" lon="2.05592">
        <ele>164</ele>
        <time>2017-12-06T15:25:16Z</time>
      </trkpt>
      <trkpt lat="44.17268" lon="2.05595">
        <ele>164</ele>
        <time>2017-12-06T15:25:18Z</time>
      </trkpt>
      <trkpt lat="44.17269" lon="2.056">
        <ele>164</ele>
        <time>2017-12-06T15:25:20Z</time>
      </trkpt>
      <trkpt lat="44.17269" lon="2.05604">
        <ele>164</ele>
        <time>2017-12-06T15:25:22Z</time>
      </trkpt>
      <trkpt lat="44.17272" lon="2.05607">
        <ele>164</ele>
        <time>2017-12-06T15:25:24Z</time>
      </trkpt>
      <trkpt lat="44.17274" lon="2.0561">
        <ele>164</ele>
        <time>2017-12-06T15:25:26Z</time>
      </trkpt>
      <trkpt lat="44.17276" lon="2.05612">
        <ele>165</ele>
        <time>2017-12-06T15:25:28Z</time>
      </trkpt>
      <trkpt lat="44.17277" lon="2.05615">
        <ele>165</ele>
        <time>2017-12-06T15:25:30Z</time>
      </trkpt>
      <trkpt lat="44.17277" lon="2.0562">
        <ele>165</ele>
        <time>2017-12-06T15:25:32Z</time>
      </trkpt>
      <trkpt lat="44.17279" lon="2.05623">
        <ele>166</ele>
        <time>2017-12-06T15:25:34Z</time>
      </trkpt>
      <trkpt lat="44.1728" lon="2.05627">
        <ele>166</ele>
        <time>2017-12-06T15:25:36Z</time>
      </trkpt>
      <trkpt lat="44.17281" lon="2.05631">
        <ele>166</ele>
        <time>2017-12-06T15:25:38Z</time>
      </trkpt>
      <trkpt lat="44.1728" lon="2.05635">
        <ele>166</ele>
        <time>2017-12-06T15:25:40Z</time>
      </trkpt>
      <trkpt lat="44.1728" lon="2.0564">
        <ele>166</ele>
        <time>2017-12-06T15:25:42Z</time>
      </trkpt>
      <trkpt lat="44.1728" lon="2.05644">
        <ele>166</ele>
        <time>2017-12-06T15:25:44Z</time>
      </trkpt>
      <trkpt lat="44.17282" lon="2.05647">
        <ele>166</ele>
        <time>2017-12-06T15:25:46Z</time>
      </trkpt>
      <trkpt lat="44.17283" lon="2.0565">
        <ele>166</ele>
        <time>2017-12-06T15:25:48Z</time>
      </trkpt>
      <trkpt lat="44.17285" lon="2.05653">
        <ele>166</ele>
        <time>2017-12-06T15:25:50Z</time>
      </trkpt>
      <trkpt lat="44.17286" lon="2.05657">
        <ele>165</ele>
        <time>2017-12-06T15:25:52Z</time>
      </trkpt>
      <trkpt lat="44.17288" lon="2.05659">
        <ele>165</ele>
        <time>2017-12-06T15:25:54Z</time>
      </trkpt>
      <trkpt lat="44.17288" lon="2.05665">
        <ele>165</ele>
        <time>2017-12-06T15:25:56Z</time>
      </trkpt>
      <trkpt lat="44.17288" lon="2.05669">
        <ele>166</ele>
        <time>2017-12-06T15:25:58Z</time>
      </trkpt>
      <trkpt lat="44.17291" lon="2.05672">
        <ele>166</ele>
        <time>2017-12-06T15:26:00Z</time>
      </trkpt>
      <trkpt lat="44.17293" lon="2.05675">
        <ele>166</ele>
        <time>2017-12-06T15:26:02Z</time>
      </trkpt>
      <trkpt lat="44.17295" lon="2.05678">
        <ele>166</ele>
        <time>2017-12-06T15:26:04Z</time>
      </trkpt>
      <trkpt lat="44.17297" lon="2.05681">
        <ele>166</ele>
        <time>2017-12-06T15:26:06Z</time>
      </trkpt>
      <trkpt lat="44.17299" lon="2.05685">
        <ele>167</ele>
        <time>2017-12-06T15:26:08Z</time>
      </trkpt>
      <trkpt lat="44.17299" lon="2.05689">
        <ele>167</ele>
        <time>2017-12-06T15:26:10Z</time>
      </trkpt>
      <trkpt lat="44.173" lon="2.05693">
        <ele>168</ele>
        <time>2017-12-06T15:26:12Z</time>
      </trkpt>
      <trkpt lat="44.173" lon="2.05698">
        <ele>168</ele>
        <time>2017-12-06T15:26:14Z</time>
      </trkpt>
      <trkpt lat="44.17302" lon="2.05702">
        <ele>169</ele>
        <time>2017-12-06T15:26:16Z</time>
      </trkpt>
      <trkpt lat="44.17303" lon="2.05705">
        <ele>169</ele>
        <time>2017-12-06T15:26:18Z</time>
      </trkpt>
      <trkpt lat="44.17304" lon="2.05708">
        <ele>170</ele>
        <time>2017-12-06T15:26:20Z</time>
      </trkpt>
      <trkpt lat="44.17306" lon="2.05713">
        <ele>171</ele>
        <time>2017-12-06T15:26:22Z</time>
      </trkpt>
      <trkpt lat="44.17307" lon="2.05716">
        <ele>172</ele>
        <time>2017-12-06T15:26:24Z</time>
      </trkpt>
      <trkpt lat="44.17308" lon="2.0572">
        <ele>173</ele>
        <time>2017-12-06T15:26:26Z</time>
      </trkpt>
      <trkpt lat="44.1731" lon="2.05723">
        <ele>173</ele>
        <time>2017-12-06T15:26:28Z</time>
      </trkpt>
      <trkpt lat="44.17313" lon="2.05726">
        <ele>174</ele>
        <time>2017-12-06T15:26:30Z</time>
      </trkpt>
      <trkpt lat="44.17314" lon="2.05729">
        <ele>175</ele>
        <time>2017-12-06T15:26:32Z</time>
      </trkpt>
      <trkpt lat="44.17316" lon="2.05731">
        <ele>176</ele>
        <time>2017-12-06T15:26:34Z</time>
      </trkpt>
      <trkpt lat="44.17318" lon="2.05733">
        <ele>177</ele>
        <time>2017-12-06T15:26:36Z</time>
      </trkpt>
      <trkpt lat="44.1732" lon="2.05736">
        <ele>178</ele>
        <time>2017-12-06T15:26:38Z</time>
      </trkpt>
      <trkpt lat="44.1732" lon="2.05741">
        <ele>179</ele>
        <time>2017-12-06T15:26:40Z</time>
      </trkpt>
      <trkpt lat="44.17319" lon="2.05745">
        <ele>179</ele>
        <time>2017-12-06T15:26:42Z</time>
      </trkpt>
      <trkpt lat="44.1732" lon="2.05748">
        <ele>180</ele>
        <time>2017-12-06T15:26:44Z</time>
      </trkpt>
      <trkpt lat="44.17321" lon="2.05751">
        <ele>180</ele>
        <time>2017-12-06T15:26:46Z</time>
      </trkpt>
      <trkpt lat="44.17323" lon="2.05753">
        <ele>181</ele>
        <time>2017-12-06T15:26:48Z</time>
      </trkpt>
      <trkpt lat="44.17323" lon="2.05758">
        <ele>181</ele>
        <time>2017-12-06T15:26:50Z</time>
      </trkpt>
      <trkpt lat="44.17325" lon="2.05759">
        <ele>182</ele>
        <time>2017-12-06T15:26:52Z</time>
      </trkpt>
      <trkpt lat="44.17327" lon="2.05762">
        <ele>182</ele>
        <time>2017-12-06T15:26:54Z</time>
      </trkpt>
      <trkpt lat="44.17328" lon="2.05765">
        <ele>183</ele>
        <time>2017-12-06T15:26:56Z</time>
      </trkpt>
      <trkpt lat="44.17331" lon="2.05768">
        <ele>183</ele>
        <time>2017-12-06T15:26:58Z</time>
      </trkpt>
      <trkpt lat="44.17331" lon="2.05771">
        <ele>184</ele>
        <time>2017-12-06T15:27:00Z</time>
      </trkpt>
      <trkpt lat="44.17335" lon="2.05773">
        <ele>184</ele>
        <time>2017-12-06T15:27:02Z</time>
      </trkpt>
      <trkpt lat="44.17337" lon="2.05776">
        <ele>184</ele>
        <time>2017-12-06T15:27:04Z</time>
      </trkpt>
      <trkpt lat="44.17339" lon="2.05778">
        <ele>184</ele>
        <time>2017-12-06T15:27:06Z</time>
      </trkpt>
      <trkpt lat="44.17341" lon="2.05781">
        <ele>184</ele>
        <time>2017-12-06T15:27:08Z</time>
      </trkpt>
      <trkpt lat="44.17343" lon="2.05784">
        <ele>183</ele>
        <time>2017-12-06T15:27:10Z</time>
      </trkpt>
      <trkpt lat="44.17346" lon="2.05786">
        <ele>183</ele>
        <time>2017-12-06T15:27:12Z</time>
      </trkpt>
      <trkpt lat="44.17348" lon="2.05789">
        <ele>183</ele>
        <time>2017-12-06T15:27:14Z</time>
      </trkpt>
      <trkpt lat="44.17348" lon="2.05791">
        <ele>182</ele>
        <time>2017-12-06T15:27:16Z</time>
      </trkpt>
      <trkpt lat="44.1735" lon="2.05795">
        <ele>182</ele>
        <time>2017-12-06T15:27:18Z</time>
      </trkpt>
      <trkpt lat="44.17351" lon="2.05799">
        <ele>182</ele>
        <time>2017-12-06T15:27:20Z</time>
      </trkpt>
      <trkpt lat="44.17353" lon="2.05802">
        <ele>181</ele>
        <time>2017-12-06T15:27:22Z</time>
      </trkpt>
      <trkpt lat="44.17356" lon="2.05804">
        <ele>181</ele>
        <time>2017-12-06T15:27:24Z</time>
      </trkpt>
      <trkpt lat="44.17358" lon="2.05807">
        <ele>181</ele>
        <time>2017-12-06T15:27:26Z</time>
      </trkpt>
      <trkpt lat="44.17361" lon="2.0581">
        <ele>181</ele>
        <time>2017-12-06T15:27:28Z</time>
      </trkpt>
      <trkpt lat="44.17362" lon="2.05815">
        <ele>180</ele>
        <time>2017-12-06T15:27:30Z</time>
      </trkpt>
      <trkpt lat="44.17362" lon="2.0582">
        <ele>180</ele>
        <time>2017-12-06T15:27:32Z</time>
      </trkpt>
      <trkpt lat="44.17364" lon="2.05823">
        <ele>181</ele>
        <time>2017-12-06T15:27:34Z</time>
      </trkpt>
      <trkpt lat="44.17366" lon="2.05826">
        <ele>181</ele>
        <time>2017-12-06T15:27:36Z</time>
      </trkpt>
      <trkpt lat="44.17368" lon="2.05828">
        <ele>181</ele>
        <time>2017-12-06T15:27:38Z</time>
      </trkpt>
      <trkpt lat="44.17368" lon="2.05828">
        <ele>182</ele>
        <time>2017-12-06T15:27:40Z</time>
      </trkpt>
      <trkpt lat="44.17368" lon="2.05828">
        <ele>183</ele>
        <time>2017-12-06T15:27:42Z</time>
      </trkpt>
      <trkpt lat="44.17368" lon="2.05828">
        <ele>184</ele>
        <time>2017-12-06T15:27:44Z</time>
      </trkpt>
      <trkpt lat="44.17368" lon="2.05828">
        <ele>185</ele>
        <time>2017-12-06T15:27:46Z</time>
      </trkpt>
      <trkpt lat="44.17368" lon="2.05828">
        <ele>186</ele>
        <time>2017-12-06T15:27:48Z</time>
      </trkpt>
      <trkpt lat="44.17368" lon="2.05828">
        <ele>187</ele>
        <time>2017-12-06T15:27:50Z</time>
      </trkpt>
      <trkpt lat="44.17368" lon="2.05828">
        <ele>189</ele>
        <time>2017-12-06T15:27:52Z</time>
      </trkpt>
      <trkpt lat="44.17368" lon="2.05828">
        <ele>190</ele>
        <time>2017-12-06T15:27:54Z</time>
      </trkpt>
      <trkpt lat="44.17368" lon="2.05828">
        <ele>191</ele>
        <time>2017-12-06T15:27:56Z</time>
      </trkpt>
      <trkpt lat="44.17368" lon="2.05828">
        <ele>191</ele>
        <time>2017-12-06T15:27:58Z</time>
      </trkpt>
      <trkpt lat="44.17368" lon="2.05828">
        <ele>192</ele>
        <time>2017-12-06T15:28:00Z</time>
      </trkpt>
      <trkpt lat="44.17368" lon="2.05828">
        <ele>192</ele>
        <time>2017-12-06T15:28:02Z</time>
      </trkpt>
      <trkpt lat="44.17368" lon="2.05828">
        <ele>193</ele>
        <time>2017-12-06T15:28:04Z</time>
      </trkpt>
      <trkpt lat="44.17368" lon="2.05828">
        <ele>193</ele>
        <time>2017-12-06T15:28:06Z</time>
      </trkpt>
      <trkpt lat="44.17368" lon="2.05828">
        <ele>193</ele>
        <time>2017-12-06T15:28:08Z</time>
      </trkpt>
      <trkpt lat="44.17368" lon="2.05828">
        <ele>193</ele>
        <time>2017-12-06T15:28:10Z</time>
      </trkpt>
      <trkpt lat="44.17376" lon="2.05835">
        <ele>193</ele>
        <time>2017-12-06T15:28:12Z</time>
      </trkpt>
      <trkpt lat="44.17378" lon="2.05837">
        <ele>193</ele>
        <time>2017-12-06T15:28:14Z</time>
      </trkpt>
      <trkpt lat="44.17379" lon="2.05839">
        <ele>193</ele>
        <time>2017-12-06T15:28:16Z</time>
      </trkpt>
      <trkpt lat="44.17381" lon="2.05841">
        <ele>192</ele>
        <time>2017-12-06T15:28:18Z</time>
      </trkpt>
      <trkpt lat="44.17382" lon="2.05843">
        <ele>192</ele>
        <time>2017-12-06T15:28:20Z</time>
      </trkpt>
      <trkpt lat="44.17383" lon="2.05844">
        <ele>191</ele>
        <time>2017-12-06T15:28:22Z</time>
      </trkpt>
      <trkpt lat="44.17384" lon="2.05846">
        <ele>190</ele>
        <time>2017-12-06T15:28:24Z</time>
      </trkpt>
      <trkpt lat="44.17385" lon="2.05849">
        <ele>189</ele>
        <time>2017-12-06T15:28:26Z</time>
      </trkpt>
      <trkpt lat="44.17385" lon="2.05852">
        <ele>188</ele>
        <time>2017-12-06T15:28:28Z</time>
      </trkpt>
      <trkpt lat="44.17387" lon="2.05855">
        <ele>187</ele>
        <time>2017-12-06T15:28:30Z</time>
      </trkpt>
      <trkpt lat="44.17388" lon="2.05858">
        <ele>186</ele>
        <time>2017-12-06T15:28:32Z</time>
      </trkpt>
      <trkpt lat="44.17389" lon="2.05861">
        <ele>186</ele>
        <time>2017-12-06T15:28:34Z</time>
      </trkpt>
      <trkpt lat="44.17391" lon="2.05864">
        <ele>185</ele>
        <time>2017-12-06T15:28:36Z</time>
      </trkpt>
      <trkpt lat="44.17393" lon="2.05867">
        <ele>184</ele>
        <time>2017-12-06T15:28:38Z</time>
      </trkpt>
      <trkpt lat="44.17394" lon="2.05871">
        <ele>183</ele>
        <time>2017-12-06T15:28:40Z</time>
      </trkpt>
      <trkpt lat="44.17395" lon="2.05874">
        <ele>182</ele>
        <time>2017-12-06T15:28:42Z</time>
      </trkpt>
      <trkpt lat="44.17396" lon="2.05876">
        <ele>182</ele>
        <time>2017-12-06T15:28:44Z</time>
      </trkpt>
      <trkpt lat="44.17398" lon="2.05879">
        <ele>181</ele>
        <time>2017-12-06T15:28:46Z</time>
      </trkpt>
      <trkpt lat="44.17401" lon="2.05882">
        <ele>181</ele>
        <time>2017-12-06T15:28:48Z</time>
      </trkpt>
      <trkpt lat="44.17403" lon="2.05885">
        <ele>180</ele>
        <time>2017-12-06T15:28:50Z</time>
      </trkpt>
      <trkpt lat="44.17405" lon="2.05887">
        <ele>180</ele>
        <time>2017-12-06T15:28:52Z</time>
      </trkpt>
      <trkpt lat="44.17409" lon="2.05889">
        <ele>180</ele>
        <time>2017-12-06T15:28:54Z</time>
      </trkpt>
      <trkpt lat="44.17414" lon="2.05891">
        <ele>180</ele>
        <time>2017-12-06T15:28:56Z</time>
      </trkpt>
      <trkpt lat="44.17417" lon="2.05893">
        <ele>180</ele>
        <time>2017-12-06T15:28:58Z</time>
      </trkpt>
      <trkpt lat="44.17421" lon="2.05895">
        <ele>181</ele>
        <time>2017-12-06T15:29:00Z</time>
      </trkpt>
      <trkpt lat="44.17424" lon="2.05897">
        <ele>181</ele>
        <time>2017-12-06T15:29:02Z</time>
      </trkpt>
      <trkpt lat="44.17428" lon="2.05897">
        <ele>181</ele>
        <time>2017-12-06T15:29:04Z</time>
      </trkpt>
      <trkpt lat="44.17431" lon="2.05897">
        <ele>181</ele>
        <time>2017-12-06T15:29:06Z</time>
      </trkpt>
      <trkpt lat="44.17434" lon="2.05898">
        <ele>181</ele>
        <time>2017-12-06T15:29:08Z</time>
      </trkpt>
      <trkpt lat="44.17436" lon="2.05898">
        <ele>181</ele>
        <time>2017-12-06T15:29:10Z</time>
      </trkpt>
      <trkpt lat="44.17439" lon="2.05899">
        <ele>181</ele>
        <time>2017-12-06T15:29:12Z</time>
      </trkpt>
      <trkpt lat="44.17442" lon="2.05899">
        <ele>181</ele>
        <time>2017-12-06T15:29:14Z</time>
      </trkpt>
      <trkpt lat="44.17443" lon="2.059">
        <ele>181</ele>
        <time>2017-12-06T15:29:16Z</time>
      </trkpt>
      <trkpt lat="44.17447" lon="2.059">
        <ele>180</ele>
        <time>2017-12-06T15:29:18Z</time>
      </trkpt>
      <trkpt lat="44.17449" lon="2.059">
        <ele>180</ele>
        <time>2017-12-06T15:29:20Z</time>
      </trkpt>
      <trkpt lat="44.17449" lon="2.059">
        <ele>179</ele>
        <time>2017-12-06T15:29:22Z</time>
      </trkpt>
      <trkpt lat="44.17449" lon="2.059">
        <ele>178</ele>
        <time>2017-12-06T15:29:24Z</time>
      </trkpt>
      <trkpt lat="44.17455" lon="2.059">
        <ele>177</ele>
        <time>2017-12-06T15:29:26Z</time>
      </trkpt>
      <trkpt lat="44.17455" lon="2.059">
        <ele>176</ele>
        <time>2017-12-06T15:29:28Z</time>
      </trkpt>
      <trkpt lat="44.17459" lon="2.059">
        <ele>175</ele>
        <time>2017-12-06T15:29:30Z</time>
      </trkpt>
      <trkpt lat="44.17463" lon="2.059">
        <ele>174</ele>
        <time>2017-12-06T15:29:32Z</time>
      </trkpt>
      <trkpt lat="44.17465" lon="2.059">
        <ele>173</ele>
        <time>2017-12-06T15:29:34Z</time>
      </trkpt>
      <trkpt lat="44.17468" lon="2.05901">
        <ele>172</ele>
        <time>2017-12-06T15:29:36Z</time>
      </trkpt>
      <trkpt lat="44.1747" lon="2.05901">
        <ele>171</ele>
        <time>2017-12-06T15:29:38Z</time>
      </trkpt>
      <trkpt lat="44.17474" lon="2.05901">
        <ele>170</ele>
        <time>2017-12-06T15:29:40Z</time>
      </trkpt>
      <trkpt lat="44.17478" lon="2.05901">
        <ele>169</ele>
        <time>2017-12-06T15:29:42Z</time>
      </trkpt>
      <trkpt lat="44.17481" lon="2.059">
        <ele>168</ele>
        <time>2017-12-06T15:29:44Z</time>
      </trkpt>
      <trkpt lat="44.17483" lon="2.059">
        <ele>167</ele>
        <time>2017-12-06T15:29:46Z</time>
      </trkpt>
      <trkpt lat="44.17486" lon="2.05901">
        <ele>166</ele>
        <time>2017-12-06T15:29:48Z</time>
      </trkpt>
      <trkpt lat="44.17489" lon="2.059">
        <ele>165</ele>
        <time>2017-12-06T15:29:50Z</time>
      </trkpt>
      <trkpt lat="44.17492" lon="2.059">
        <ele>164</ele>
        <time>2017-12-06T15:29:52Z</time>
      </trkpt>
      <trkpt lat="44.17495" lon="2.059">
        <ele>162</ele>
        <time>2017-12-06T15:29:54Z</time>
      </trkpt>
      <trkpt lat="44.175" lon="2.05901">
        <ele>161</ele>
        <time>2017-12-06T15:29:56Z</time>
      </trkpt>
      <trkpt lat="44.17505" lon="2.05901">
        <ele>160</ele>
        <time>2017-12-06T15:29:58Z</time>
      </trkpt>
      <trkpt lat="44.17509" lon="2.05901">
        <ele>160</ele>
        <time>2017-12-06T15:30:00Z</time>
      </trkpt>
      <trkpt lat="44.17512" lon="2.05901">
        <ele>160</ele>
        <time>2017-12-06T15:30:02Z</time>
      </trkpt>
      <trkpt lat="44.17515" lon="2.05901">
        <ele>160</ele>
        <time>2017-12-06T15:30:04Z</time>
      </trkpt>
      <trkpt lat="44.17517" lon="2.05901">
        <ele>161</ele>
        <time>2017-12-06T15:30:06Z</time>
      </trkpt>
      <trkpt lat="44.17519" lon="2.05901">
        <ele>162</ele>
        <time>2017-12-06T15:30:08Z</time>
      </trkpt>
      <trkpt lat="44.17523" lon="2.05901">
        <ele>163</ele>
        <time>2017-12-06T15:30:10Z</time>
      </trkpt>
      <trkpt lat="44.17527" lon="2.05901">
        <ele>165</ele>
        <time>2017-12-06T15:30:12Z</time>
      </trkpt>
      <trkpt lat="44.1753" lon="2.059">
        <ele>166</ele>
        <time>2017-12-06T15:30:14Z</time>
      </trkpt>
      <trkpt lat="44.17533" lon="2.059">
        <ele>167</ele>
        <time>2017-12-06T15:30:16Z</time>
      </trkpt>
      <trkpt lat="44.17537" lon="2.05899">
        <ele>167</ele>
        <time>2017-12-06T15:30:18Z</time>
      </trkpt>
      <trkpt lat="44.17541" lon="2.059">
        <ele>168</ele>
        <time>2017-12-06T15:30:20Z</time>
      </trkpt>
      <trkpt lat="44.17543" lon="2.05899">
        <ele>168</ele>
        <time>2017-12-06T15:30:22Z</time>
      </trkpt>
      <trkpt lat="44.17546" lon="2.05898">
        <ele>169</ele>
        <time>2017-12-06T15:30:24Z</time>
      </trkpt>
      <trkpt lat="44.17549" lon="2.05898">
        <ele>170</ele>
        <time>2017-12-06T15:30:26Z</time>
      </trkpt>
      <trkpt lat="44.17552" lon="2.05899">
        <ele>171</ele>
        <time>2017-12-06T15:30:28Z</time>
      </trkpt>
      <trkpt lat="44.17552" lon="2.05899">
        <ele>172</ele>
        <time>2017-12-06T15:30:30Z</time>
      </trkpt>
      <trkpt lat="44.17556" lon="2.05901">
        <ele>174</ele>
        <time>2017-12-06T15:30:32Z</time>
      </trkpt>
      <trkpt lat="44.17558" lon="2.05904">
        <ele>175</ele>
        <time>2017-12-06T15:30:34Z</time>
      </trkpt>
      <trkpt lat="44.1756" lon="2.05907">
        <ele>176</ele>
        <time>2017-12-06T15:30:36Z</time>
      </trkpt>
      <trkpt lat="44.17562" lon="2.05911">
        <ele>176</ele>
        <time>2017-12-06T15:30:38Z</time>
      </trkpt>
      <trkpt lat="44.17562" lon="2.05914">
        <ele>176</ele>
        <time>2017-12-06T15:30:40Z</time>
      </trkpt>
      <trkpt lat="44.17563" lon="2.05917">
        <ele>176</ele>
        <time>2017-12-06T15:30:42Z</time>
      </trkpt>
      <trkpt lat="44.17564" lon="2.05921">
        <ele>175</ele>
        <time>2017-12-06T15:30:44Z</time>
      </trkpt>
      <trkpt lat="44.17565" lon="2.05924">
        <ele>174</ele>
        <time>2017-12-06T15:30:46Z</time>
      </trkpt>
      <trkpt lat="44.17566" lon="2.05928">
        <ele>173</ele>
        <time>2017-12-06T15:30:48Z</time>
      </trkpt>
      <trkpt lat="44.17567" lon="2.05931">
        <ele>172</ele>
        <time>2017-12-06T15:30:50Z</time>
      </trkpt>
      <trkpt lat="44.17568" lon="2.05935">
        <ele>171</ele>
        <time>2017-12-06T15:30:52Z</time>
      </trkpt>
      <trkpt lat="44.1757" lon="2.05939">
        <ele>171</ele>
        <time>2017-12-06T15:30:54Z</time>
      </trkpt>
      <trkpt lat="44.17571" lon="2.05943">
        <ele>171</ele>
        <time>2017-12-06T15:30:56Z</time>
      </trkpt>
      <trkpt lat="44.17572" lon="2.05947">
        <ele>172</ele>
        <time>2017-12-06T15:30:58Z</time>
      </trkpt>
      <trkpt lat="44.17572" lon="2.05951">
        <ele>172</ele>
        <time>2017-12-06T15:31:00Z</time>
      </trkpt>
      <trkpt lat="44.17573" lon="2.05955">
        <ele>173</ele>
        <time>2017-12-06T15:31:02Z</time>
      </trkpt>
      <trkpt lat="44.17573" lon="2.05959">
        <ele>174</ele>
        <time>2017-12-06T15:31:04Z</time>
      </trkpt>
      <trkpt lat="44.17573" lon="2.05963">
        <ele>174</ele>
        <time>2017-12-06T15:31:06Z</time>
      </trkpt>
      <trkpt lat="44.17574" lon="2.05967">
        <ele>175</ele>
        <time>2017-12-06T15:31:08Z</time>
      </trkpt>
      <trkpt lat="44.17575" lon="2.05971">
        <ele>176</ele>
        <time>2017-12-06T15:31:10Z</time>
      </trkpt>
      <trkpt lat="44.17576" lon="2.05974">
        <ele>177</ele>
        <time>2017-12-06T15:31:12Z</time>
      </trkpt>
      <trkpt lat="44.17577" lon="2.05977">
        <ele>178</ele>
        <time>2017-12-06T15:31:14Z</time>
      </trkpt>
      <trkpt lat="44.17577" lon="2.0598">
        <ele>178</ele>
        <time>2017-12-06T15:31:16Z</time>
      </trkpt>
      <trkpt lat="44.17578" lon="2.05983">
        <ele>179</ele>
        <time>2017-12-06T15:31:18Z</time>
      </trkpt>
      <trkpt lat="44.17578" lon="2.05986">
        <ele>179</ele>
        <time>2017-12-06T15:31:20Z</time>
      </trkpt>
      <trkpt lat="44.17579" lon="2.05989">
        <ele>179</ele>
        <time>2017-12-06T15:31:22Z</time>
      </trkpt>
      <trkpt lat="44.1758" lon="2.05993">
        <ele>179</ele>
        <time>2017-12-06T15:31:24Z</time>
      </trkpt>
      <trkpt lat="44.1758" lon="2.05996">
        <ele>179</ele>
        <time>2017-12-06T15:31:26Z</time>
      </trkpt>
      <trkpt lat="44.1758" lon="2.06">
        <ele>178</ele>
        <time>2017-12-06T15:31:28Z</time>
      </trkpt>
      <trkpt lat="44.17581" lon="2.06003">
        <ele>177</ele>
        <time>2017-12-06T15:31:30Z</time>
      </trkpt>
      <trkpt lat="44.17581" lon="2.06007">
        <ele>177</ele>
        <time>2017-12-06T15:31:32Z</time>
      </trkpt>
      <trkpt lat="44.17582" lon="2.0601">
        <ele>176</ele>
        <time>2017-12-06T15:31:34Z</time>
      </trkpt>
      <trkpt lat="44.17582" lon="2.06012">
        <ele>176</ele>
        <time>2017-12-06T15:31:36Z</time>
      </trkpt>
      <trkpt lat="44.17582" lon="2.06016">
        <ele>175</ele>
        <time>2017-12-06T15:31:38Z</time>
      </trkpt>
      <trkpt lat="44.17582" lon="2.0602">
        <ele>175</ele>
        <time>2017-12-06T15:31:40Z</time>
      </trkpt>
      <trkpt lat="44.17582" lon="2.06024">
        <ele>174</ele>
        <time>2017-12-06T15:31:42Z</time>
      </trkpt>
      <trkpt lat="44.17581" lon="2.06028">
        <ele>174</ele>
        <time>2017-12-06T15:31:44Z</time>
      </trkpt>
      <trkpt lat="44.17582" lon="2.06032">
        <ele>173</ele>
        <time>2017-12-06T15:31:46Z</time>
      </trkpt>
      <trkpt lat="44.17582" lon="2.06035">
        <ele>173</ele>
        <time>2017-12-06T15:31:48Z</time>
      </trkpt>
      <trkpt lat="44.17582" lon="2.06039">
        <ele>173</ele>
        <time>2017-12-06T15:31:50Z</time>
      </trkpt>
      <trkpt lat="44.17582" lon="2.06043">
        <ele>173</ele>
        <time>2017-12-06T15:31:52Z</time>
      </trkpt>
      <trkpt lat="44.17584" lon="2.06045">
        <ele>173</ele>
        <time>2017-12-06T15:31:54Z</time>
      </trkpt>
      <trkpt lat="44.17586" lon="2.06047">
        <ele>172</ele>
        <time>2017-12-06T15:31:56Z</time>
      </trkpt>
      <trkpt lat="44.17586" lon="2.06048">
        <ele>172</ele>
        <time>2017-12-06T15:31:58Z</time>
      </trkpt>
      <trkpt lat="44.17588" lon="2.06048">
        <ele>172</ele>
        <time>2017-12-06T15:32:00Z</time>
      </trkpt>
      <trkpt lat="44.17589" lon="2.06049">
        <ele>172</ele>
        <time>2017-12-06T15:32:02Z</time>
      </trkpt>
      <trkpt lat="44.17591" lon="2.06049">
        <ele>172</ele>
        <time>2017-12-06T15:32:04Z</time>
      </trkpt>
      <trkpt lat="44.17593" lon="2.06049">
        <ele>172</ele>
        <time>2017-12-06T15:32:06Z</time>
      </trkpt>
      <trkpt lat="44.17596" lon="2.0605">
        <ele>173</ele>
        <time>2017-12-06T15:32:08Z</time>
      </trkpt>
      <trkpt lat="44.17598" lon="2.06049">
        <ele>173</ele>
        <time>2017-12-06T15:32:10Z</time>
      </trkpt>
      <trkpt lat="44.176" lon="2.06049">
        <ele>173</ele>
        <time>2017-12-06T15:32:12Z</time>
      </trkpt>
      <trkpt lat="44.17602" lon="2.06049">
        <ele>173</ele>
        <time>2017-12-06T15:32:14Z</time>
      </trkpt>
      <trkpt lat="44.17605" lon="2.06049">
        <ele>172</ele>
        <time>2017-12-06T15:32:16Z</time>
      </trkpt>
      <trkpt lat="44.17607" lon="2.06049">
        <ele>172</ele>
        <time>2017-12-06T15:32:18Z</time>
      </trkpt>
      <trkpt lat="44.17608" lon="2.06048">
        <ele>172</ele>
        <time>2017-12-06T15:32:20Z</time>
      </trkpt>
      <trkpt lat="44.17611" lon="2.06048">
        <ele>171</ele>
        <time>2017-12-06T15:32:22Z</time>
      </trkpt>
      <trkpt lat="44.17613" lon="2.06048">
        <ele>171</ele>
        <time>2017-12-06T15:32:24Z</time>
      </trkpt>
      <trkpt lat="44.17616" lon="2.06048">
        <ele>171</ele>
        <time>2017-12-06T15:32:26Z</time>
      </trkpt>
      <trkpt lat="44.17621" lon="2.06049">
        <ele>171</ele>
        <time>2017-12-06T15:32:28Z</time>
      </trkpt>
      <trkpt lat="44.17627" lon="2.06048">
        <ele>170</ele>
        <time>2017-12-06T15:32:30Z</time>
      </trkpt>
      <trkpt lat="44.17629" lon="2.06047">
        <ele>170</ele>
        <time>2017-12-06T15:32:32Z</time>
      </trkpt>
      <trkpt lat="44.17631" lon="2.06046">
        <ele>170</ele>
        <time>2017-12-06T15:32:34Z</time>
      </trkpt>
      <trkpt lat="44.17634" lon="2.06044">
        <ele>169</ele>
        <time>2017-12-06T15:32:36Z</time>
      </trkpt>
      <trkpt lat="44.17636" lon="2.06043">
        <ele>169</ele>
        <time>2017-12-06T15:32:38Z</time>
      </trkpt>
      <trkpt lat="44.17639" lon="2.06041">
        <ele>168</ele>
        <time>2017-12-06T15:32:40Z</time>
      </trkpt>
      <trkpt lat="44.17642" lon="2.0604">
        <ele>168</ele>
        <time>2017-12-06T15:32:42Z</time>
      </trkpt>
      <trkpt lat="44.17645" lon="2.06039">
        <ele>167</ele>
        <time>2017-12-06T15:32:44Z</time>
      </trkpt>
      <trkpt lat="44.17648" lon="2.06038">
        <ele>167</ele>
        <time>2017-12-06T15:32:46Z</time>
      </trkpt>
      <trkpt lat="44.17651" lon="2.06036">
        <ele>167</ele>
        <time>2017-12-06T15:32:48Z</time>
      </trkpt>
      <trkpt lat="44.17654" lon="2.06035">
        <ele>166</ele>
        <time>2017-12-06T15:32:50Z</time>
      </trkpt>
      <trkpt lat="44.17656" lon="2.06033">
        <ele>166</ele>
        <time>2017-12-06T15:32:52Z</time>
      </trkpt>
      <trkpt lat="44.17658" lon="2.06032">
        <ele>167</ele>
        <time>2017-12-06T15:32:54Z</time>
      </trkpt>
      <trkpt lat="44.17661" lon="2.0603">
        <ele>167</ele>
        <time>2017-12-06T15:32:56Z</time>
      </trkpt>
      <trkpt lat="44.17664" lon="2.06029">
        <ele>167</ele>
        <time>2017-12-06T15:32:58Z</time>
      </trkpt>
      <trkpt lat="44.17666" lon="2.06028">
        <ele>167</ele>
        <time>2017-12-06T15:33:00Z</time>
      </trkpt>
      <trkpt lat="44.17668" lon="2.06027">
        <ele>167</ele>
        <time>2017-12-06T15:33:02Z</time>
      </trkpt>
      <trkpt lat="44.17671" lon="2.06025">
        <ele>167</ele>
        <time>2017-12-06T15:33:04Z</time>
      </trkpt>
      <trkpt lat="44.17673" lon="2.06023">
        <ele>167</ele>
        <time>2017-12-06T15:33:06Z</time>
      </trkpt>
      <trkpt lat="44.17676" lon="2.0602">
        <ele>167</ele>
        <time>2017-12-06T15:33:08Z</time>
      </trkpt>
      <trkpt lat="44.17677" lon="2.0602">
        <ele>167</ele>
        <time>2017-12-06T15:33:10Z</time>
      </trkpt>
      <trkpt lat="44.1768" lon="2.06019">
        <ele>166</ele>
        <time>2017-12-06T15:33:12Z</time>
      </trkpt>
      <trkpt lat="44.17684" lon="2.06016">
        <ele>166</ele>
        <time>2017-12-06T15:33:14Z</time>
      </trkpt>
      <trkpt lat="44.17685" lon="2.06016">
        <ele>166</ele>
        <time>2017-12-06T15:33:16Z</time>
      </trkpt>
      <trkpt lat="44.17688" lon="2.06014">
        <ele>166</ele>
        <time>2017-12-06T15:33:18Z</time>
      </trkpt>
      <trkpt lat="44.1769" lon="2.06012">
        <ele>165</ele>
        <time>2017-12-06T15:33:20Z</time>
      </trkpt>
      <trkpt lat="44.17692" lon="2.06012">
        <ele>165</ele>
        <time>2017-12-06T15:33:22Z</time>
      </trkpt>
      <trkpt lat="44.17696" lon="2.0601">
        <ele>164</ele>
        <time>2017-12-06T15:33:24Z</time>
      </trkpt>
      <trkpt lat="44.17698" lon="2.06009">
        <ele>164</ele>
        <time>2017-12-06T15:33:26Z</time>
      </trkpt>
      <trkpt lat="44.177" lon="2.06007">
        <ele>164</ele>
        <time>2017-12-06T15:33:28Z</time>
      </trkpt>
      <trkpt lat="44.17704" lon="2.06004">
        <ele>164</ele>
        <time>2017-12-06T15:33:30Z</time>
      </trkpt>
      <trkpt lat="44.17705" lon="2.06003">
        <ele>165</ele>
        <time>2017-12-06T15:33:32Z</time>
      </trkpt>
      <trkpt lat="44.17707" lon="2.06001">
        <ele>166</ele>
        <time>2017-12-06T15:33:34Z</time>
      </trkpt>
      <trkpt lat="44.17712" lon="2.06">
        <ele>166</ele>
        <time>2017-12-06T15:33:36Z</time>
      </trkpt>
      <trkpt lat="44.17713" lon="2.05999">
        <ele>167</ele>
        <time>2017-12-06T15:33:38Z</time>
      </trkpt>
      <trkpt lat="44.17716" lon="2.05998">
        <ele>168</ele>
        <time>2017-12-06T15:33:40Z</time>
      </trkpt>
      <trkpt lat="44.17719" lon="2.05996">
        <ele>169</ele>
        <time>2017-12-06T15:33:42Z</time>
      </trkpt>
      <trkpt lat="44.17723" lon="2.05994">
        <ele>170</ele>
        <time>2017-12-06T15:33:44Z</time>
      </trkpt>
      <trkpt lat="44.17725" lon="2.05993">
        <ele>172</ele>
        <time>2017-12-06T15:33:46Z</time>
      </trkpt>
      <trkpt lat="44.17728" lon="2.05992">
        <ele>173</ele>
        <time>2017-12-06T15:33:48Z</time>
      </trkpt>
      <trkpt lat="44.17731" lon="2.05991">
        <ele>174</ele>
        <time>2017-12-06T15:33:50Z</time>
      </trkpt>
      <trkpt lat="44.17735" lon="2.0599">
        <ele>175</ele>
        <time>2017-12-06T15:33:52Z</time>
      </trkpt>
      <trkpt lat="44.17737" lon="2.0599">
        <ele>176</ele>
        <time>2017-12-06T15:33:54Z</time>
      </trkpt>
      <trkpt lat="44.1774" lon="2.05989">
        <ele>178</ele>
        <time>2017-12-06T15:33:56Z</time>
      </trkpt>
      <trkpt lat="44.17744" lon="2.05987">
        <ele>179</ele>
        <time>2017-12-06T15:33:58Z</time>
      </trkpt>
      <trkpt lat="44.17745" lon="2.05987">
        <ele>179</ele>
        <time>2017-12-06T15:34:00Z</time>
      </trkpt>
      <trkpt lat="44.17747" lon="2.05986">
        <ele>180</ele>
        <time>2017-12-06T15:34:02Z</time>
      </trkpt>
      <trkpt lat="44.1775" lon="2.05985">
        <ele>181</ele>
        <time>2017-12-06T15:34:04Z</time>
      </trkpt>
      <trkpt lat="44.17754" lon="2.05983">
        <ele>181</ele>
        <time>2017-12-06T15:34:06Z</time>
      </trkpt>
      <trkpt lat="44.17757" lon="2.05982">
        <ele>182</ele>
        <time>2017-12-06T15:34:08Z</time>
      </trkpt>
      <trkpt lat="44.1776" lon="2.05982">
        <ele>182</ele>
        <time>2017-12-06T15:34:10Z</time>
      </trkpt>
      <trkpt lat="44.17763" lon="2.0598">
        <ele>183</ele>
        <time>2017-12-06T15:34:12Z</time>
      </trkpt>
      <trkpt lat="44.17765" lon="2.0598">
        <ele>183</ele>
        <time>2017-12-06T15:34:14Z</time>
      </trkpt>
      <trkpt lat="44.17768" lon="2.05979">
        <ele>183</ele>
        <time>2017-12-06T15:34:16Z</time>
      </trkpt>
      <trkpt lat="44.17771" lon="2.05977">
        <ele>183</ele>
        <time>2017-12-06T15:34:18Z</time>
      </trkpt>
      <trkpt lat="44.17773" lon="2.05976">
        <ele>183</ele>
        <time>2017-12-06T15:34:20Z</time>
      </trkpt>
      <trkpt lat="44.17776" lon="2.05974">
        <ele>184</ele>
        <time>2017-12-06T15:34:22Z</time>
      </trkpt>
      <trkpt lat="44.17777" lon="2.05973">
        <ele>184</ele>
        <time>2017-12-06T15:34:24Z</time>
      </trkpt>
      <trkpt lat="44.1778" lon="2.05974">
        <ele>183</ele>
        <time>2017-12-06T15:34:26Z</time>
      </trkpt>
      <trkpt lat="44.17784" lon="2.05971">
        <ele>183</ele>
        <time>2017-12-06T15:34:28Z</time>
      </trkpt>
      <trkpt lat="44.17785" lon="2.0597">
        <ele>183</ele>
        <time>2017-12-06T15:34:30Z</time>
      </trkpt>
      <trkpt lat="44.17787" lon="2.05968">
        <ele>184</ele>
        <time>2017-12-06T15:34:32Z</time>
      </trkpt>
      <trkpt lat="44.17789" lon="2.05967">
        <ele>184</ele>
        <time>2017-12-06T15:34:34Z</time>
      </trkpt>
      <trkpt lat="44.17792" lon="2.05965">
        <ele>184</ele>
        <time>2017-12-06T15:34:36Z</time>
      </trkpt>
      <trkpt lat="44.17793" lon="2.05964">
        <ele>184</ele>
        <time>2017-12-06T15:34:38Z</time>
      </trkpt>
      <trkpt lat="44.17795" lon="2.05963">
        <ele>184</ele>
        <time>2017-12-06T15:34:40Z</time>
      </trkpt>
      <trkpt lat="44.17797" lon="2.05961">
        <ele>184</ele>
        <time>2017-12-06T15:34:42Z</time>
      </trkpt>
      <trkpt lat="44.17799" lon="2.05959">
        <ele>185</ele>
        <time>2017-12-06T15:34:44Z</time>
      </trkpt>
      <trkpt lat="44.17801" lon="2.05958">
        <ele>185</ele>
        <time>2017-12-06T15:34:46Z</time>
      </trkpt>
      <trkpt lat="44.17803" lon="2.05957">
        <ele>185</ele>
        <time>2017-12-06T15:34:48Z</time>
      </trkpt>
      <trkpt lat="44.17807" lon="2.05956">
        <ele>185</ele>
        <time>2017-12-06T15:34:50Z</time>
      </trkpt>
      <trkpt lat="44.17808" lon="2.05955">
        <ele>185</ele>
        <time>2017-12-06T15:34:52Z</time>
      </trkpt>
      <trkpt lat="44.17811" lon="2.05954">
        <ele>185</ele>
        <time>2017-12-06T15:34:54Z</time>
      </trkpt>
      <trkpt lat="44.17813" lon="2.05953">
        <ele>186</ele>
        <time>2017-12-06T15:34:56Z</time>
      </trkpt>
      <trkpt lat="44.17815" lon="2.05952">
        <ele>186</ele>
        <time>2017-12-06T15:34:58Z</time>
      </trkpt>
      <trkpt lat="44.17818" lon="2.05951">
        <ele>186</ele>
        <time>2017-12-06T15:35:00Z</time>
      </trkpt>
      <trkpt lat="44.17822" lon="2.05948">
        <ele>186</ele>
        <time>2017-12-06T15:35:02Z</time>
      </trkpt>
      <trkpt lat="44.17823" lon="2.05948">
        <ele>187</ele>
        <time>2017-12-06T15:35:04Z</time>
      </trkpt>
      <trkpt lat="44.17827" lon="2.05946">
        <ele>187</ele>
        <time>2017-12-06T15:35:06Z</time>
      </trkpt>
      <trkpt lat="44.1783" lon="2.05944">
        <ele>187</ele>
        <time>2017-12-06T15:35:08Z</time>
      </trkpt>
      <trkpt lat="44.17832" lon="2.05942">
        <ele>187</ele>
        <time>2017-12-06T15:35:10Z</time>
      </trkpt>
      <trkpt lat="44.17836" lon="2.05942">
        <ele>188</ele>
        <time>2017-12-06T15:35:12Z</time>
      </trkpt>
      <trkpt lat="44.17838" lon="2.0594">
        <ele>189</ele>
        <time>2017-12-06T15:35:14Z</time>
      </trkpt>
      <trkpt lat="44.17839" lon="2.05939">
        <ele>190</ele>
        <time>2017-12-06T15:35:16Z</time>
      </trkpt>
      <trkpt lat="44.17842" lon="2.05936">
        <ele>190</ele>
        <time>2017-12-06T15:35:18Z</time>
      </trkpt>
      <trkpt lat="44.17844" lon="2.05935">
        <ele>191</ele>
        <time>2017-12-06T15:35:20Z</time>
      </trkpt>
      <trkpt lat="44.17845" lon="2.05934">
        <ele>192</ele>
        <time>2017-12-06T15:35:22Z</time>
      </trkpt>
      <trkpt lat="44.17848" lon="2.05931">
        <ele>192</ele>
        <time>2017-12-06T15:35:24Z</time>
      </trkpt>
      <trkpt lat="44.17849" lon="2.0593">
        <ele>193</ele>
        <time>2017-12-06T15:35:26Z</time>
      </trkpt>
      <trkpt lat="44.1785" lon="2.05928">
        <ele>193</ele>
        <time>2017-12-06T15:35:28Z</time>
      </trkpt>
      <trkpt lat="44.17852" lon="2.05926">
        <ele>192</ele>
        <time>2017-12-06T15:35:30Z</time>
      </trkpt>
      <trkpt lat="44.17853" lon="2.05926">
        <ele>192</ele>
        <time>2017-12-06T15:35:32Z</time>
      </trkpt>
      <trkpt lat="44.17855" lon="2.05923">
        <ele>190</ele>
        <time>2017-12-06T15:35:34Z</time>
      </trkpt>
      <trkpt lat="44.17857" lon="2.05922">
        <ele>189</ele>
        <time>2017-12-06T15:35:36Z</time>
      </trkpt>
      <trkpt lat="44.1786" lon="2.05919">
        <ele>188</ele>
        <time>2017-12-06T15:35:38Z</time>
      </trkpt>
      <trkpt lat="44.17861" lon="2.05917">
        <ele>187</ele>
        <time>2017-12-06T15:35:40Z</time>
      </trkpt>
      <trkpt lat="44.17862" lon="2.05916">
        <ele>186</ele>
        <time>2017-12-06T15:35:42Z</time>
      </trkpt>
      <trkpt lat="44.17864" lon="2.05915">
        <ele>185</ele>
        <time>2017-12-06T15:35:44Z</time>
      </trkpt>
      <trkpt lat="44.17864" lon="2.05915">
        <ele>184</ele>
        <time>2017-12-06T15:35:46Z</time>
      </trkpt>
      <trkpt lat="44.1787" lon="2.05914">
        <ele>183</ele>
        <time>2017-12-06T15:35:48Z</time>
      </trkpt>
      <trkpt lat="44.17873" lon="2.05914">
        <ele>181</ele>
        <time>2017-12-06T15:35:50Z</time>
      </trkpt>
      <trkpt lat="44.17877" lon="2.05913">
        <ele>179</ele>
        <time>2017-12-06T15:35:52Z</time>
      </trkpt>
      <trkpt lat="44.1788" lon="2.05911">
        <ele>178</ele>
        <time>2017-12-06T15:35:54Z</time>
      </trkpt>
      <trkpt lat="44.17882" lon="2.05908">
        <ele>176</ele>
        <time>2017-12-06T15:35:56Z</time>
      </trkpt>
      <trkpt lat="44.17883" lon="2.05906">
        <ele>175</ele>
        <time>2017-12-06T15:35:58Z</time>
      </trkpt>
      <trkpt lat="44.17886" lon="2.05905">
        <ele>175</ele>
        <time>2017-12-06T15:36:00Z</time>
      </trkpt>
      <trkpt lat="44.17889" lon="2.05898">
        <ele>175</ele>
        <time>2017-12-06T15:36:02Z</time>
      </trkpt>
      <trkpt lat="44.17891" lon="2.05896">
        <ele>176</ele>
        <time>2017-12-06T15:36:04Z</time>
      </trkpt>
      <trkpt lat="44.17892" lon="2.05895">
        <ele>178</ele>
        <time>2017-12-06T15:36:06Z</time>
      </trkpt>
      <trkpt lat="44.17895" lon="2.05893">
        <ele>181</ele>
        <time>2017-12-06T15:36:08Z</time>
      </trkpt>
      <trkpt lat="44.17898" lon="2.05892">
        <ele>184</ele>
        <time>2017-12-06T15:36:10Z</time>
      </trkpt>
      <trkpt lat="44.17901" lon="2.05888">
        <ele>186</ele>
        <time>2017-12-06T15:36:12Z</time>
      </trkpt>
      <trkpt lat="44.17903" lon="2.05887">
        <ele>189</ele>
        <time>2017-12-06T15:36:14Z</time>
      </trkpt>
      <trkpt lat="44.17905" lon="2.05884">
        <ele>191</ele>
        <time>2017-12-06T15:36:16Z</time>
      </trkpt>
      <trkpt lat="44.17907" lon="2.05883">
        <ele>194</ele>
        <time>2017-12-06T15:36:18Z</time>
      </trkpt>
      <trkpt lat="44.17911" lon="2.05881">
        <ele>195</ele>
        <time>2017-12-06T15:36:20Z</time>
      </trkpt>
      <trkpt lat="44.17914" lon="2.0588">
        <ele>197</ele>
        <time>2017-12-06T15:36:22Z</time>
      </trkpt>
      <trkpt lat="44.17916" lon="2.05879">
        <ele>199</ele>
        <time>2017-12-06T15:36:24Z</time>
      </trkpt>
      <trkpt lat="44.17919" lon="2.05877">
        <ele>200</ele>
        <time>2017-12-06T15:36:26Z</time>
      </trkpt>
      <trkpt lat="44.17921" lon="2.05877">
        <ele>202</ele>
        <time>2017-12-06T15:36:28Z</time>
      </trkpt>
      <trkpt lat="44.17923" lon="2.05877">
        <ele>203</ele>
        <time>2017-12-06T15:36:30Z</time>
      </trkpt>
      <trkpt lat="44.17926" lon="2.05876">
        <ele>204</ele>
        <time>2017-12-06T15:36:32Z</time>
      </trkpt>
      <trkpt lat="44.17926" lon="2.05876">
        <ele>205</ele>
        <time>2017-12-06T15:36:34Z</time>
      </trkpt>
      <trkpt lat="44.17928" lon="2.05876">
        <ele>206</ele>
        <time>2017-12-06T15:36:36Z</time>
      </trkpt>
      <trkpt lat="44.17931" lon="2.05879">
        <ele>207</ele>
        <time>2017-12-06T15:36:38Z</time>
      </trkpt>
      <trkpt lat="44.17932" lon="2.0588">
        <ele>208</ele>
        <time>2017-12-06T15:36:40Z</time>
      </trkpt>
      <trkpt lat="44.17933" lon="2.05883">
        <ele>209</ele>
        <time>2017-12-06T15:36:42Z</time>
      </trkpt>
      <trkpt lat="44.17934" lon="2.05888">
        <ele>209</ele>
        <time>2017-12-06T15:36:44Z</time>
      </trkpt>
      <trkpt lat="44.17936" lon="2.05891">
        <ele>209</ele>
        <time>2017-12-06T15:36:46Z</time>
      </trkpt>
      <trkpt lat="44.17937" lon="2.05892">
        <ele>209</ele>
        <time>2017-12-06T15:36:48Z</time>
      </trkpt>
      <trkpt lat="44.17938" lon="2.05895">
        <ele>209</ele>
        <time>2017-12-06T15:36:50Z</time>
      </trkpt>
      <trkpt lat="44.17941" lon="2.05898">
        <ele>209</ele>
        <time>2017-12-06T15:36:52Z</time>
      </trkpt>
      <trkpt lat="44.17941" lon="2.059">
        <ele>209</ele>
        <time>2017-12-06T15:36:54Z</time>
      </trkpt>
      <trkpt lat="44.17943" lon="2.05902">
        <ele>208</ele>
        <time>2017-12-06T15:36:56Z</time>
      </trkpt>
      <trkpt lat="44.17945" lon="2.05906">
        <ele>208</ele>
        <time>2017-12-06T15:36:58Z</time>
      </trkpt>
      <trkpt lat="44.17946" lon="2.05908">
        <ele>208</ele>
        <time>2017-12-06T15:37:00Z</time>
      </trkpt>
      <trkpt lat="44.17948" lon="2.05911">
        <ele>209</ele>
        <time>2017-12-06T15:37:02Z</time>
      </trkpt>
      <trkpt lat="44.17949" lon="2.05913">
        <ele>209</ele>
        <time>2017-12-06T15:37:04Z</time>
      </trkpt>
      <trkpt lat="44.17952" lon="2.05917">
        <ele>210</ele>
        <time>2017-12-06T15:37:06Z</time>
      </trkpt>
      <trkpt lat="44.17953" lon="2.05918">
        <ele>211</ele>
        <time>2017-12-06T15:37:08Z</time>
      </trkpt>
      <trkpt lat="44.17954" lon="2.05921">
        <ele>211</ele>
        <time>2017-12-06T15:37:10Z</time>
      </trkpt>
      <trkpt lat="44.17956" lon="2.05923">
        <ele>212</ele>
        <time>2017-12-06T15:37:12Z</time>
      </trkpt>
      <trkpt lat="44.1796" lon="2.05926">
        <ele>213</ele>
        <time>2017-12-06T15:37:14Z</time>
      </trkpt>
      <trkpt lat="44.17962" lon="2.05927">
        <ele>213</ele>
        <time>2017-12-06T15:37:16Z</time>
      </trkpt>
      <trkpt lat="44.17962" lon="2.05928">
        <ele>214</ele>
        <time>2017-12-06T15:37:18Z</time>
      </trkpt>
      <trkpt lat="44.17963" lon="2.05929">
        <ele>214</ele>
        <time>2017-12-06T15:37:20Z</time>
      </trkpt>
      <trkpt lat="44.17965" lon="2.05928">
        <ele>215</ele>
        <time>2017-12-06T15:37:22Z</time>
      </trkpt>
      <trkpt lat="44.17967" lon="2.05925">
        <ele>215</ele>
        <time>2017-12-06T15:37:24Z</time>
      </trkpt>
      <trkpt lat="44.17969" lon="2.05924">
        <ele>215</ele>
        <time>2017-12-06T15:37:26Z</time>
      </trkpt>
      <trkpt lat="44.17973" lon="2.05924">
        <ele>216</ele>
        <time>2017-12-06T15:37:28Z</time>
      </trkpt>
      <trkpt lat="44.17977" lon="2.05924">
        <ele>215</ele>
        <time>2017-12-06T15:37:30Z</time>
      </trkpt>
      <trkpt lat="44.17983" lon="2.05923">
        <ele>215</ele>
        <time>2017-12-06T15:37:32Z</time>
      </trkpt>
      <trkpt lat="44.17985" lon="2.05923">
        <ele>215</ele>
        <time>2017-12-06T15:37:34Z</time>
      </trkpt>
      <trkpt lat="44.17987" lon="2.05922">
        <ele>215</ele>
        <time>2017-12-06T15:37:36Z</time>
      </trkpt>
      <trkpt lat="44.17991" lon="2.05921">
        <ele>215</ele>
        <time>2017-12-06T15:37:38Z</time>
      </trkpt>
      <trkpt lat="44.17994" lon="2.05921">
        <ele>215</ele>
        <time>2017-12-06T15:37:40Z</time>
      </trkpt>
      <trkpt lat="44.17999" lon="2.0592">
        <ele>215</ele>
        <time>2017-12-06T15:37:42Z</time>
      </trkpt>
      <trkpt lat="44.18001" lon="2.0592">
        <ele>215</ele>
        <time>2017-12-06T15:37:44Z</time>
      </trkpt>
      <trkpt lat="44.18004" lon="2.05919">
        <ele>215</ele>
        <time>2017-12-06T15:37:46Z</time>
      </trkpt>
      <trkpt lat="44.18006" lon="2.05917">
        <ele>215</ele>
        <time>2017-12-06T15:37:48Z</time>
      </trkpt>
      <trkpt lat="44.18008" lon="2.05916">
        <ele>215</ele>
        <time>2017-12-06T15:37:50Z</time>
      </trkpt>
      <trkpt lat="44.18012" lon="2.05913">
        <ele>214</ele>
        <time>2017-12-06T15:37:52Z</time>
      </trkpt>
      <trkpt lat="44.18014" lon="2.05911">
        <ele>214</ele>
        <time>2017-12-06T15:37:54Z</time>
      </trkpt>
      <trkpt lat="44.18015" lon="2.0591">
        <ele>214</ele>
        <time>2017-12-06T15:37:56Z</time>
      </trkpt>
      <trkpt lat="44.18019" lon="2.05909">
        <ele>214</ele>
        <time>2017-12-06T15:37:58Z</time>
      </trkpt>
      <trkpt lat="44.18021" lon="2.05906">
        <ele>214</ele>
        <time>2017-12-06T15:38:00Z</time>
      </trkpt>
      <trkpt lat="44.18022" lon="2.05905">
        <ele>214</ele>
        <time>2017-12-06T15:38:02Z</time>
      </trkpt>
      <trkpt lat="44.18028" lon="2.05904">
        <ele>215</ele>
        <time>2017-12-06T15:38:04Z</time>
      </trkpt>
      <trkpt lat="44.18031" lon="2.05903">
        <ele>215</ele>
        <time>2017-12-06T15:38:06Z</time>
      </trkpt>
      <trkpt lat="44.18033" lon="2.05901">
        <ele>216</ele>
        <time>2017-12-06T15:38:08Z</time>
      </trkpt>
      <trkpt lat="44.18035" lon="2.05899">
        <ele>216</ele>
        <time>2017-12-06T15:38:10Z</time>
      </trkpt>
      <trkpt lat="44.18036" lon="2.05898">
        <ele>217</ele>
        <time>2017-12-06T15:38:12Z</time>
      </trkpt>
      <trkpt lat="44.18038" lon="2.05896">
        <ele>217</ele>
        <time>2017-12-06T15:38:14Z</time>
      </trkpt>
      <trkpt lat="44.18043" lon="2.05894">
        <ele>217</ele>
        <time>2017-12-06T15:38:16Z</time>
      </trkpt>
      <trkpt lat="44.18045" lon="2.05891">
        <ele>217</ele>
        <time>2017-12-06T15:38:18Z</time>
      </trkpt>
      <trkpt lat="44.18046" lon="2.0589">
        <ele>217</ele>
        <time>2017-12-06T15:38:20Z</time>
      </trkpt>
      <trkpt lat="44.18049" lon="2.05885">
        <ele>218</ele>
        <time>2017-12-06T15:38:22Z</time>
      </trkpt>
      <trkpt lat="44.18052" lon="2.05883">
        <ele>218</ele>
        <time>2017-12-06T15:38:24Z</time>
      </trkpt>
      <trkpt lat="44.18053" lon="2.05882">
        <ele>219</ele>
        <time>2017-12-06T15:38:26Z</time>
      </trkpt>
      <trkpt lat="44.18056" lon="2.05877">
        <ele>219</ele>
        <time>2017-12-06T15:38:28Z</time>
      </trkpt>
      <trkpt lat="44.18058" lon="2.05874">
        <ele>220</ele>
        <time>2017-12-06T15:38:30Z</time>
      </trkpt>
      <trkpt lat="44.18058" lon="2.05872">
        <ele>221</ele>
        <time>2017-12-06T15:38:32Z</time>
      </trkpt>
      <trkpt lat="44.18061" lon="2.0587">
        <ele>222</ele>
        <time>2017-12-06T15:38:34Z</time>
      </trkpt>
      <trkpt lat="44.18063" lon="2.05867">
        <ele>223</ele>
        <time>2017-12-06T15:38:36Z</time>
      </trkpt>
      <trkpt lat="44.18064" lon="2.05864">
        <ele>224</ele>
        <time>2017-12-06T15:38:38Z</time>
      </trkpt>
      <trkpt lat="44.18068" lon="2.0586">
        <ele>224</ele>
        <time>2017-12-06T15:38:40Z</time>
      </trkpt>
      <trkpt lat="44.18069" lon="2.05858">
        <ele>225</ele>
        <time>2017-12-06T15:38:42Z</time>
      </trkpt>
      <trkpt lat="44.1807" lon="2.05853">
        <ele>226</ele>
        <time>2017-12-06T15:38:44Z</time>
      </trkpt>
      <trkpt lat="44.18073" lon="2.0585">
        <ele>227</ele>
        <time>2017-12-06T15:38:46Z</time>
      </trkpt>
      <trkpt lat="44.18074" lon="2.05849">
        <ele>228</ele>
        <time>2017-12-06T15:38:48Z</time>
      </trkpt>
      <trkpt lat="44.18076" lon="2.05846">
        <ele>228</ele>
        <time>2017-12-06T15:38:50Z</time>
      </trkpt>
      <trkpt lat="44.18079" lon="2.05842">
        <ele>229</ele>
        <time>2017-12-06T15:38:52Z</time>
      </trkpt>
      <trkpt lat="44.1808" lon="2.0584">
        <ele>229</ele>
        <time>2017-12-06T15:38:54Z</time>
      </trkpt>
      <trkpt lat="44.18082" lon="2.05838">
        <ele>229</ele>
        <time>2017-12-06T15:38:56Z</time>
      </trkpt>
      <trkpt lat="44.18084" lon="2.05833">
        <ele>229</ele>
        <time>2017-12-06T15:38:58Z</time>
      </trkpt>
      <trkpt lat="44.18086" lon="2.0583">
        <ele>230</ele>
        <time>2017-12-06T15:39:00Z</time>
      </trkpt>
      <trkpt lat="44.18087" lon="2.05828">
        <ele>230</ele>
        <time>2017-12-06T15:39:02Z</time>
      </trkpt>
      <trkpt lat="44.18089" lon="2.05826">
        <ele>230</ele>
        <time>2017-12-06T15:39:04Z</time>
      </trkpt>
      <trkpt lat="44.18093" lon="2.05823">
        <ele>230</ele>
        <time>2017-12-06T15:39:06Z</time>
      </trkpt>
      <trkpt lat="44.18094" lon="2.05822">
        <ele>231</ele>
        <time>2017-12-06T15:39:08Z</time>
      </trkpt>
      <trkpt lat="44.18095" lon="2.05819">
        <ele>231</ele>
        <time>2017-12-06T15:39:10Z</time>
      </trkpt>
      <trkpt lat="44.18096" lon="2.05815">
        <ele>231</ele>
        <time>2017-12-06T15:39:12Z</time>
      </trkpt>
      <trkpt lat="44.18098" lon="2.05813">
        <ele>232</ele>
        <time>2017-12-06T15:39:14Z</time>
      </trkpt>
      <trkpt lat="44.181" lon="2.05807">
        <ele>232</ele>
        <time>2017-12-06T15:39:16Z</time>
      </trkpt>
      <trkpt lat="44.18101" lon="2.05804">
        <ele>232</ele>
        <time>2017-12-06T15:39:18Z</time>
      </trkpt>
      <trkpt lat="44.18103" lon="2.05802">
        <ele>232</ele>
        <time>2017-12-06T15:39:20Z</time>
      </trkpt>
      <trkpt lat="44.18104" lon="2.05801">
        <ele>232</ele>
        <time>2017-12-06T15:39:22Z</time>
      </trkpt>
      <trkpt lat="44.18104" lon="2.05797">
        <ele>233</ele>
        <time>2017-12-06T15:39:24Z</time>
      </trkpt>
      <trkpt lat="44.18106" lon="2.05791">
        <ele>233</ele>
        <time>2017-12-06T15:39:26Z</time>
      </trkpt>
      <trkpt lat="44.18107" lon="2.0579">
        <ele>234</ele>
        <time>2017-12-06T15:39:28Z</time>
      </trkpt>
      <trkpt lat="44.18108" lon="2.05786">
        <ele>235</ele>
        <time>2017-12-06T15:39:30Z</time>
      </trkpt>
      <trkpt lat="44.1811" lon="2.05782">
        <ele>235</ele>
        <time>2017-12-06T15:39:32Z</time>
      </trkpt>
      <trkpt lat="44.18111" lon="2.05781">
        <ele>236</ele>
        <time>2017-12-06T15:39:34Z</time>
      </trkpt>
      <trkpt lat="44.18114" lon="2.05777">
        <ele>236</ele>
        <time>2017-12-06T15:39:36Z</time>
      </trkpt>
      <trkpt lat="44.18115" lon="2.05775">
        <ele>237</ele>
        <time>2017-12-06T15:39:38Z</time>
      </trkpt>
      <trkpt lat="44.18117" lon="2.05772">
        <ele>238</ele>
        <time>2017-12-06T15:39:40Z</time>
      </trkpt>
      <trkpt lat="44.18121" lon="2.0577">
        <ele>238</ele>
        <time>2017-12-06T15:39:42Z</time>
      </trkpt>
      <trkpt lat="44.18124" lon="2.05769">
        <ele>238</ele>
        <time>2017-12-06T15:39:44Z</time>
      </trkpt>
      <trkpt lat="44.18126" lon="2.05767">
        <ele>239</ele>
        <time>2017-12-06T15:39:46Z</time>
      </trkpt>
      <trkpt lat="44.18127" lon="2.05766">
        <ele>239</ele>
        <time>2017-12-06T15:39:48Z</time>
      </trkpt>
      <trkpt lat="44.1813" lon="2.05765">
        <ele>239</ele>
        <time>2017-12-06T15:39:50Z</time>
      </trkpt>
      <trkpt lat="44.18132" lon="2.05764">
        <ele>240</ele>
        <time>2017-12-06T15:39:52Z</time>
      </trkpt>
      <trkpt lat="44.18133" lon="2.05764">
        <ele>240</ele>
        <time>2017-12-06T15:39:54Z</time>
      </trkpt>
      <trkpt lat="44.18135" lon="2.05764">
        <ele>240</ele>
        <time>2017-12-06T15:39:56Z</time>
      </trkpt>
      <trkpt lat="44.18139" lon="2.05764">
        <ele>240</ele>
        <time>2017-12-06T15:39:58Z</time>
      </trkpt>
      <trkpt lat="44.18141" lon="2.05764">
        <ele>240</ele>
        <time>2017-12-06T15:40:00Z</time>
      </trkpt>
      <trkpt lat="44.18141" lon="2.05765">
        <ele>240</ele>
        <time>2017-12-06T15:40:02Z</time>
      </trkpt>
      <trkpt lat="44.18144" lon="2.05765">
        <ele>239</ele>
        <time>2017-12-06T15:40:04Z</time>
      </trkpt>
      <trkpt lat="44.18145" lon="2.05765">
        <ele>239</ele>
        <time>2017-12-06T15:40:06Z</time>
      </trkpt>
      <trkpt lat="44.18148" lon="2.05765">
        <ele>239</ele>
        <time>2017-12-06T15:40:08Z</time>
      </trkpt>
      <trkpt lat="44.18151" lon="2.05765">
        <ele>239</ele>
        <time>2017-12-06T15:40:10Z</time>
      </trkpt>
      <trkpt lat="44.18153" lon="2.05764">
        <ele>239</ele>
        <time>2017-12-06T15:40:12Z</time>
      </trkpt>
      <trkpt lat="44.18156" lon="2.05765">
        <ele>240</ele>
        <time>2017-12-06T15:40:14Z</time>
      </trkpt>
      <trkpt lat="44.18158" lon="2.05765">
        <ele>240</ele>
        <time>2017-12-06T15:40:16Z</time>
      </trkpt>
      <trkpt lat="44.18159" lon="2.05766">
        <ele>240</ele>
        <time>2017-12-06T15:40:18Z</time>
      </trkpt>
      <trkpt lat="44.18159" lon="2.05766">
        <ele>240</ele>
        <time>2017-12-06T15:40:20Z</time>
      </trkpt>
      <trkpt lat="44.18164" lon="2.05766">
        <ele>240</ele>
        <time>2017-12-06T15:40:22Z</time>
      </trkpt>
      <trkpt lat="44.18167" lon="2.05767">
        <ele>240</ele>
        <time>2017-12-06T15:40:24Z</time>
      </trkpt>
      <trkpt lat="44.18169" lon="2.05767">
        <ele>241</ele>
        <time>2017-12-06T15:40:26Z</time>
      </trkpt>
      <trkpt lat="44.1817" lon="2.05767">
        <ele>241</ele>
        <time>2017-12-06T15:40:28Z</time>
      </trkpt>
      <trkpt lat="44.18173" lon="2.05766">
        <ele>242</ele>
        <time>2017-12-06T15:40:30Z</time>
      </trkpt>
      <trkpt lat="44.18175" lon="2.05766">
        <ele>243</ele>
        <time>2017-12-06T15:40:32Z</time>
      </trkpt>
      <trkpt lat="44.18177" lon="2.05766">
        <ele>245</ele>
        <time>2017-12-06T15:40:34Z</time>
      </trkpt>
      <trkpt lat="44.18179" lon="2.05766">
        <ele>246</ele>
        <time>2017-12-06T15:40:36Z</time>
      </trkpt>
      <trkpt lat="44.1818" lon="2.05766">
        <ele>248</ele>
        <time>2017-12-06T15:40:38Z</time>
      </trkpt>
      <trkpt lat="44.18183" lon="2.05765">
        <ele>250</ele>
        <time>2017-12-06T15:40:40Z</time>
      </trkpt>
      <trkpt lat="44.18184" lon="2.05765">
        <ele>252</ele>
        <time>2017-12-06T15:40:42Z</time>
      </trkpt>
      <trkpt lat="44.18187" lon="2.05765">
        <ele>253</ele>
        <time>2017-12-06T15:40:44Z</time>
      </trkpt>
      <trkpt lat="44.18188" lon="2.05765">
        <ele>255</ele>
        <time>2017-12-06T15:40:46Z</time>
      </trkpt>
      <trkpt lat="44.18191" lon="2.05764">
        <ele>255</ele>
        <time>2017-12-06T15:40:48Z</time>
      </trkpt>
      <trkpt lat="44.18194" lon="2.05764">
        <ele>256</ele>
        <time>2017-12-06T15:40:50Z</time>
      </trkpt>
      <trkpt lat="44.18195" lon="2.05763">
        <ele>257</ele>
        <time>2017-12-06T15:40:52Z</time>
      </trkpt>
      <trkpt lat="44.18197" lon="2.05763">
        <ele>257</ele>
        <time>2017-12-06T15:40:54Z</time>
      </trkpt>
      <trkpt lat="44.18199" lon="2.05762">
        <ele>257</ele>
        <time>2017-12-06T15:40:56Z</time>
      </trkpt>
      <trkpt lat="44.18202" lon="2.05762">
        <ele>256</ele>
        <time>2017-12-06T15:40:58Z</time>
      </trkpt>
      <trkpt lat="44.18207" lon="2.05762">
        <ele>256</ele>
        <time>2017-12-06T15:41:00Z</time>
      </trkpt>
      <trkpt lat="44.1821" lon="2.05762">
        <ele>256</ele>
        <time>2017-12-06T15:41:02Z</time>
      </trkpt>
      <trkpt lat="44.18212" lon="2.05763">
        <ele>256</ele>
        <time>2017-12-06T15:41:04Z</time>
      </trkpt>
      <trkpt lat="44.18216" lon="2.05763">
        <ele>257</ele>
        <time>2017-12-06T15:41:06Z</time>
      </trkpt>
      <trkpt lat="44.18219" lon="2.05763">
        <ele>257</ele>
        <time>2017-12-06T15:41:08Z</time>
      </trkpt>
      <trkpt lat="44.18223" lon="2.05763">
        <ele>257</ele>
        <time>2017-12-06T15:41:10Z</time>
      </trkpt>
      <trkpt lat="44.18225" lon="2.05763">
        <ele>258</ele>
        <time>2017-12-06T15:41:12Z</time>
      </trkpt>
      <trkpt lat="44.18228" lon="2.05763">
        <ele>258</ele>
        <time>2017-12-06T15:41:14Z</time>
      </trkpt>
      <trkpt lat="44.18231" lon="2.05763">
        <ele>259</ele>
        <time>2017-12-06T15:41:16Z</time>
      </trkpt>
      <trkpt lat="44.18235" lon="2.05762">
        <ele>259</ele>
        <time>2017-12-06T15:41:18Z</time>
      </trkpt>
      <trkpt lat="44.18236" lon="2.05762">
        <ele>260</ele>
        <time>2017-12-06T15:41:20Z</time>
      </trkpt>
      <trkpt lat="44.18238" lon="2.05762">
        <ele>260</ele>
        <time>2017-12-06T15:41:22Z</time>
      </trkpt>
      <trkpt lat="44.18242" lon="2.05762">
        <ele>260</ele>
        <time>2017-12-06T15:41:24Z</time>
      </trkpt>
      <trkpt lat="44.18245" lon="2.05762">
        <ele>260</ele>
        <time>2017-12-06T15:41:26Z</time>
      </trkpt>
      <trkpt lat="44.18246" lon="2.05762">
        <ele>260</ele>
        <time>2017-12-06T15:41:28Z</time>
      </trkpt>
      <trkpt lat="44.18249" lon="2.05762">
        <ele>259</ele>
        <time>2017-12-06T15:41:30Z</time>
      </trkpt>
      <trkpt lat="44.18252" lon="2.05761">
        <ele>259</ele>
        <time>2017-12-06T15:41:32Z</time>
      </trkpt>
      <trkpt lat="44.18255" lon="2.05761">
        <ele>259</ele>
        <time>2017-12-06T15:41:34Z</time>
      </trkpt>
      <trkpt lat="44.18259" lon="2.0576">
        <ele>259</ele>
        <time>2017-12-06T15:41:36Z</time>
      </trkpt>
      <trkpt lat="44.18262" lon="2.05758">
        <ele>259</ele>
        <time>2017-12-06T15:41:38Z</time>
      </trkpt>
      <trkpt lat="44.18265" lon="2.05758">
        <ele>259</ele>
        <time>2017-12-06T15:41:40Z</time>
      </trkpt>
      <trkpt lat="44.18268" lon="2.05757">
        <ele>259</ele>
        <time>2017-12-06T15:41:42Z</time>
      </trkpt>
      <trkpt lat="44.18271" lon="2.05756">
        <ele>260</ele>
        <time>2017-12-06T15:41:44Z</time>
      </trkpt>
      <trkpt lat="44.18274" lon="2.05755">
        <ele>260</ele>
        <time>2017-12-06T15:41:46Z</time>
      </trkpt>
      <trkpt lat="44.18278" lon="2.05754">
        <ele>260</ele>
        <time>2017-12-06T15:41:48Z</time>
      </trkpt>
      <trkpt lat="44.18281" lon="2.05753">
        <ele>260</ele>
        <time>2017-12-06T15:41:50Z</time>
      </trkpt>
      <trkpt lat="44.18284" lon="2.05753">
        <ele>261</ele>
        <time>2017-12-06T15:41:52Z</time>
      </trkpt>
      <trkpt lat="44.18286" lon="2.05752">
        <ele>261</ele>
        <time>2017-12-06T15:41:54Z</time>
      </trkpt>
      <trkpt lat="44.1829" lon="2.0575">
        <ele>261</ele>
        <time>2017-12-06T15:41:56Z</time>
      </trkpt>
      <trkpt lat="44.18292" lon="2.0575">
        <ele>261</ele>
        <time>2017-12-06T15:41:58Z</time>
      </trkpt>
      <trkpt lat="44.18296" lon="2.05748">
        <ele>261</ele>
        <time>2017-12-06T15:42:00Z</time>
      </trkpt>
      <trkpt lat="44.18298" lon="2.05747">
        <ele>262</ele>
        <time>2017-12-06T15:42:02Z</time>
      </trkpt>
      <trkpt lat="44.183" lon="2.05746">
        <ele>262</ele>
        <time>2017-12-06T15:42:04Z</time>
      </trkpt>
      <trkpt lat="44.18302" lon="2.05746">
        <ele>262</ele>
        <time>2017-12-06T15:42:06Z</time>
      </trkpt>
      <trkpt lat="44.18306" lon="2.05745">
        <ele>262</ele>
        <time>2017-12-06T15:42:08Z</time>
      </trkpt>
      <trkpt lat="44.18308" lon="2.05744">
        <ele>262</ele>
        <time>2017-12-06T15:42:10Z</time>
      </trkpt>
      <trkpt lat="44.18311" lon="2.05744">
        <ele>263</ele>
        <time>2017-12-06T15:42:12Z</time>
      </trkpt>
      <trkpt lat="44.18313" lon="2.05744">
        <ele>263</ele>
        <time>2017-12-06T15:42:14Z</time>
      </trkpt>
      <trkpt lat="44.18315" lon="2.05745">
        <ele>263</ele>
        <time>2017-12-06T15:42:16Z</time>
      </trkpt>
      <trkpt lat="44.1832" lon="2.05745">
        <ele>263</ele>
        <time>2017-12-06T15:42:18Z</time>
      </trkpt>
      <trkpt lat="44.18322" lon="2.05745">
        <ele>263</ele>
        <time>2017-12-06T15:42:20Z</time>
      </trkpt>
      <trkpt lat="44.18322" lon="2.05745">
        <ele>264</ele>
        <time>2017-12-06T15:42:22Z</time>
      </trkpt>
      <trkpt lat="44.18326" lon="2.05746">
        <ele>264</ele>
        <time>2017-12-06T15:42:24Z</time>
      </trkpt>
      <trkpt lat="44.18328" lon="2.05746">
        <ele>265</ele>
        <time>2017-12-06T15:42:26Z</time>
      </trkpt>
      <trkpt lat="44.1833" lon="2.05747">
        <ele>265</ele>
        <time>2017-12-06T15:42:28Z</time>
      </trkpt>
      <trkpt lat="44.18333" lon="2.05747">
        <ele>265</ele>
        <time>2017-12-06T15:42:30Z</time>
      </trkpt>
      <trkpt lat="44.18333" lon="2.05747">
        <ele>266</ele>
        <time>2017-12-06T15:42:32Z</time>
      </trkpt>
      <trkpt lat="44.18333" lon="2.05747">
        <ele>266</ele>
        <time>2017-12-06T15:42:34Z</time>
      </trkpt>
      <trkpt lat="44.18333" lon="2.05747">
        <ele>267</ele>
        <time>2017-12-06T15:42:36Z</time>
      </trkpt>
      <trkpt lat="44.18341" lon="2.05749">
        <ele>267</ele>
        <time>2017-12-06T15:42:38Z</time>
      </trkpt>
      <trkpt lat="44.18344" lon="2.05748">
        <ele>267</ele>
        <time>2017-12-06T15:42:40Z</time>
      </trkpt>
      <trkpt lat="44.18344" lon="2.05748">
        <ele>268</ele>
        <time>2017-12-06T15:42:42Z</time>
      </trkpt>
      <trkpt lat="44.18344" lon="2.05748">
        <ele>268</ele>
        <time>2017-12-06T15:42:44Z</time>
      </trkpt>
      <trkpt lat="44.18344" lon="2.05748">
        <ele>268</ele>
        <time>2017-12-06T15:42:46Z</time>
      </trkpt>
      <trkpt lat="44.18352" lon="2.05748">
        <ele>268</ele>
        <time>2017-12-06T15:42:48Z</time>
      </trkpt>
      <trkpt lat="44.18355" lon="2.05748">
        <ele>268</ele>
        <time>2017-12-06T15:42:50Z</time>
      </trkpt>
      <trkpt lat="44.18358" lon="2.05747">
        <ele>267</ele>
        <time>2017-12-06T15:42:52Z</time>
      </trkpt>
      <trkpt lat="44.18359" lon="2.05747">
        <ele>267</ele>
        <time>2017-12-06T15:42:54Z</time>
      </trkpt>
      <trkpt lat="44.18362" lon="2.05747">
        <ele>266</ele>
        <time>2017-12-06T15:42:56Z</time>
      </trkpt>
      <trkpt lat="44.18367" lon="2.05747">
        <ele>265</ele>
        <time>2017-12-06T15:42:58Z</time>
      </trkpt>
      <trkpt lat="44.1837" lon="2.05748">
        <ele>264</ele>
        <time>2017-12-06T15:43:00Z</time>
      </trkpt>
      <trkpt lat="44.18374" lon="2.05747">
        <ele>263</ele>
        <time>2017-12-06T15:43:02Z</time>
      </trkpt>
      <trkpt lat="44.18376" lon="2.05747">
        <ele>261</ele>
        <time>2017-12-06T15:43:04Z</time>
      </trkpt>
      <trkpt lat="44.18379" lon="2.05746">
        <ele>260</ele>
        <time>2017-12-06T15:43:06Z</time>
      </trkpt>
      <trkpt lat="44.18383" lon="2.05745">
        <ele>259</ele>
        <time>2017-12-06T15:43:08Z</time>
      </trkpt>
      <trkpt lat="44.18385" lon="2.05744">
        <ele>258</ele>
        <time>2017-12-06T15:43:10Z</time>
      </trkpt>
      <trkpt lat="44.18389" lon="2.05744">
        <ele>258</ele>
        <time>2017-12-06T15:43:12Z</time>
      </trkpt>
      <trkpt lat="44.18392" lon="2.05743">
        <ele>257</ele>
        <time>2017-12-06T15:43:14Z</time>
      </trkpt>
      <trkpt lat="44.18398" lon="2.05741">
        <ele>256</ele>
        <time>2017-12-06T15:43:16Z</time>
      </trkpt>
      <trkpt lat="44.18399" lon="2.05741">
        <ele>255</ele>
        <time>2017-12-06T15:43:18Z</time>
      </trkpt>
      <trkpt lat="44.18405" lon="2.0574">
        <ele>255</ele>
        <time>2017-12-06T15:43:20Z</time>
      </trkpt>
      <trkpt lat="44.18408" lon="2.05738">
        <ele>254</ele>
        <time>2017-12-06T15:43:22Z</time>
      </trkpt>
      <trkpt lat="44.1841" lon="2.05736">
        <ele>254</ele>
        <time>2017-12-06T15:43:24Z</time>
      </trkpt>
      <trkpt lat="44.18413" lon="2.05735">
        <ele>253</ele>
        <time>2017-12-06T15:43:26Z</time>
      </trkpt>
      <trkpt lat="44.18415" lon="2.05733">
        <ele>253</ele>
        <time>2017-12-06T15:43:28Z</time>
      </trkpt>
      <trkpt lat="44.18417" lon="2.05731">
        <ele>252</ele>
        <time>2017-12-06T15:43:30Z</time>
      </trkpt>
      <trkpt lat="44.18419" lon="2.05729">
        <ele>252</ele>
        <time>2017-12-06T15:43:32Z</time>
      </trkpt>
      <trkpt lat="44.1842" lon="2.05726">
        <ele>251</ele>
        <time>2017-12-06T15:43:34Z</time>
      </trkpt>
      <trkpt lat="44.18423" lon="2.05721">
        <ele>251</ele>
        <time>2017-12-06T15:43:36Z</time>
      </trkpt>
      <trkpt lat="44.18425" lon="2.05718">
        <ele>250</ele>
        <time>2017-12-06T15:43:38Z</time>
      </trkpt>
      <trkpt lat="44.18428" lon="2.05716">
        <ele>250</ele>
        <time>2017-12-06T15:43:40Z</time>
      </trkpt>
      <trkpt lat="44.18429" lon="2.05715">
        <ele>250</ele>
        <time>2017-12-06T15:43:42Z</time>
      </trkpt>
      <trkpt lat="44.18432" lon="2.05711">
        <ele>250</ele>
        <time>2017-12-06T15:43:44Z</time>
      </trkpt>
      <trkpt lat="44.18434" lon="2.05708">
        <ele>251</ele>
        <time>2017-12-06T15:43:46Z</time>
      </trkpt>
      <trkpt lat="44.18436" lon="2.05705">
        <ele>251</ele>
        <time>2017-12-06T15:43:48Z</time>
      </trkpt>
      <trkpt lat="44.18438" lon="2.05704">
        <ele>252</ele>
        <time>2017-12-06T15:43:50Z</time>
      </trkpt>
      <trkpt lat="44.18439" lon="2.05701">
        <ele>253</ele>
        <time>2017-12-06T15:43:52Z</time>
      </trkpt>
      <trkpt lat="44.1844" lon="2.05699">
        <ele>253</ele>
        <time>2017-12-06T15:43:54Z</time>
      </trkpt>
      <trkpt lat="44.18443" lon="2.05694">
        <ele>254</ele>
        <time>2017-12-06T15:43:56Z</time>
      </trkpt>
      <trkpt lat="44.18446" lon="2.05692">
        <ele>254</ele>
        <time>2017-12-06T15:43:58Z</time>
      </trkpt>
      <trkpt lat="44.18446" lon="2.05691">
        <ele>255</ele>
        <time>2017-12-06T15:44:00Z</time>
      </trkpt>
      <trkpt lat="44.1845" lon="2.05688">
        <ele>255</ele>
        <time>2017-12-06T15:44:02Z</time>
      </trkpt>
      <trkpt lat="44.18451" lon="2.05685">
        <ele>254</ele>
        <time>2017-12-06T15:44:04Z</time>
      </trkpt>
      <trkpt lat="44.18454" lon="2.05682">
        <ele>254</ele>
        <time>2017-12-06T15:44:06Z</time>
      </trkpt>
      <trkpt lat="44.18456" lon="2.05679">
        <ele>253</ele>
        <time>2017-12-06T15:44:08Z</time>
      </trkpt>
      <trkpt lat="44.18458" lon="2.05675">
        <ele>253</ele>
        <time>2017-12-06T15:44:10Z</time>
      </trkpt>
      <trkpt lat="44.1846" lon="2.05672">
        <ele>253</ele>
        <time>2017-12-06T15:44:12Z</time>
      </trkpt>
      <trkpt lat="44.18463" lon="2.05668">
        <ele>254</ele>
        <time>2017-12-06T15:44:14Z</time>
      </trkpt>
      <trkpt lat="44.18465" lon="2.05665">
        <ele>255</ele>
        <time>2017-12-06T15:44:16Z</time>
      </trkpt>
      <trkpt lat="44.18468" lon="2.05663">
        <ele>256</ele>
        <time>2017-12-06T15:44:18Z</time>
      </trkpt>
      <trkpt lat="44.1847" lon="2.05662">
        <ele>257</ele>
        <time>2017-12-06T15:44:20Z</time>
      </trkpt>
      <trkpt lat="44.18472" lon="2.0566">
        <ele>258</ele>
        <time>2017-12-06T15:44:22Z</time>
      </trkpt>
      <trkpt lat="44.18474" lon="2.05657">
        <ele>259</ele>
        <time>2017-12-06T15:44:24Z</time>
      </trkpt>
      <trkpt lat="44.18477" lon="2.05657">
        <ele>260</ele>
        <time>2017-12-06T15:44:26Z</time>
      </trkpt>
      <trkpt lat="44.18478" lon="2.05656">
        <ele>260</ele>
        <time>2017-12-06T15:44:28Z</time>
      </trkpt>
      <trkpt lat="44.1848" lon="2.05654">
        <ele>261</ele>
        <time>2017-12-06T15:44:30Z</time>
      </trkpt>
      <trkpt lat="44.18484" lon="2.05651">
        <ele>261</ele>
        <time>2017-12-06T15:44:32Z</time>
      </trkpt>
      <trkpt lat="44.18487" lon="2.0565">
        <ele>261</ele>
        <time>2017-12-06T15:44:34Z</time>
      </trkpt>
      <trkpt lat="44.18488" lon="2.05649">
        <ele>261</ele>
        <time>2017-12-06T15:44:36Z</time>
      </trkpt>
      <trkpt lat="44.18489" lon="2.05647">
        <ele>261</ele>
        <time>2017-12-06T15:44:38Z</time>
      </trkpt>
      <trkpt lat="44.18492" lon="2.05645">
        <ele>261</ele>
        <time>2017-12-06T15:44:40Z</time>
      </trkpt>
      <trkpt lat="44.18496" lon="2.05641">
        <ele>260</ele>
        <time>2017-12-06T15:44:42Z</time>
      </trkpt>
      <trkpt lat="44.18499" lon="2.05639">
        <ele>260</ele>
        <time>2017-12-06T15:44:44Z</time>
      </trkpt>
      <trkpt lat="44.18502" lon="2.05638">
        <ele>259</ele>
        <time>2017-12-06T15:44:46Z</time>
      </trkpt>
      <trkpt lat="44.18505" lon="2.05636">
        <ele>258</ele>
        <time>2017-12-06T15:44:48Z</time>
      </trkpt>
      <trkpt lat="44.18508" lon="2.05634">
        <ele>258</ele>
        <time>2017-12-06T15:44:50Z</time>
      </trkpt>
      <trkpt lat="44.18509" lon="2.05634">
        <ele>258</ele>
        <time>2017-12-06T15:44:52Z</time>
      </trkpt>
      <trkpt lat="44.18511" lon="2.05632">
        <ele>257</ele>
        <time>2017-12-06T15:44:54Z</time>
      </trkpt>
      <trkpt lat="44.18515" lon="2.0563">
        <ele>256</ele>
        <time>2017-12-06T15:44:56Z</time>
      </trkpt>
      <trkpt lat="44.18518" lon="2.05629">
        <ele>256</ele>
        <time>2017-12-06T15:44:58Z</time>
      </trkpt>
      <trkpt lat="44.18519" lon="2.05629">
        <ele>255</ele>
        <time>2017-12-06T15:45:00Z</time>
      </trkpt>
      <trkpt lat="44.18523" lon="2.05627">
        <ele>255</ele>
        <time>2017-12-06T15:45:02Z</time>
      </trkpt>
      <trkpt lat="44.18525" lon="2.05625">
        <ele>254</ele>
        <time>2017-12-06T15:45:04Z</time>
      </trkpt>
      <trkpt lat="44.18529" lon="2.05623">
        <ele>253</ele>
        <time>2017-12-06T15:45:06Z</time>
      </trkpt>
      <trkpt lat="44.18531" lon="2.0562">
        <ele>253</ele>
        <time>2017-12-06T15:45:08Z</time>
      </trkpt>
      <trkpt lat="44.18533" lon="2.05617">
        <ele>253</ele>
        <time>2017-12-06T15:45:10Z</time>
      </trkpt>
      <trkpt lat="44.18535" lon="2.05615">
        <ele>253</ele>
        <time>2017-12-06T15:45:12Z</time>
      </trkpt>
      <trkpt lat="44.18536" lon="2.05615">
        <ele>253</ele>
        <time>2017-12-06T15:45:14Z</time>
      </trkpt>
      <trkpt lat="44.1854" lon="2.05612">
        <ele>253</ele>
        <time>2017-12-06T15:45:16Z</time>
      </trkpt>
      <trkpt lat="44.18543" lon="2.05611">
        <ele>254</ele>
        <time>2017-12-06T15:45:18Z</time>
      </trkpt>
      <trkpt lat="44.18547" lon="2.0561">
        <ele>254</ele>
        <time>2017-12-06T15:45:20Z</time>
      </trkpt>
      <trkpt lat="44.18549" lon="2.05609">
        <ele>254</ele>
        <time>2017-12-06T15:45:22Z</time>
      </trkpt>
      <trkpt lat="44.18552" lon="2.05607">
        <ele>255</ele>
        <time>2017-12-06T15:45:24Z</time>
      </trkpt>
      <trkpt lat="44.18555" lon="2.05606">
        <ele>255</ele>
        <time>2017-12-06T15:45:26Z</time>
      </trkpt>
      <trkpt lat="44.18558" lon="2.05604">
        <ele>255</ele>
        <time>2017-12-06T15:45:28Z</time>
      </trkpt>
      <trkpt lat="44.1856" lon="2.05603">
        <ele>256</ele>
        <time>2017-12-06T15:45:30Z</time>
      </trkpt>
      <trkpt lat="44.18561" lon="2.05601">
        <ele>256</ele>
        <time>2017-12-06T15:45:32Z</time>
      </trkpt>
      <trkpt lat="44.18563" lon="2.056">
        <ele>257</ele>
        <time>2017-12-06T15:45:34Z</time>
      </trkpt>
      <trkpt lat="44.18565" lon="2.056">
        <ele>258</ele>
        <time>2017-12-06T15:45:36Z</time>
      </trkpt>
      <trkpt lat="44.18566" lon="2.05599">
        <ele>258</ele>
        <time>2017-12-06T15:45:38Z</time>
      </trkpt>
      <trkpt lat="44.18568" lon="2.05598">
        <ele>259</ele>
        <time>2017-12-06T15:45:40Z</time>
      </trkpt>
      <trkpt lat="44.1857" lon="2.05597">
        <ele>260</ele>
        <time>2017-12-06T15:45:42Z</time>
      </trkpt>
      <trkpt lat="44.1857" lon="2.05597">
        <ele>260</ele>
        <time>2017-12-06T15:45:44Z</time>
      </trkpt>
      <trkpt lat="44.18576" lon="2.05598">
        <ele>261</ele>
        <time>2017-12-06T15:45:46Z</time>
      </trkpt>
      <trkpt lat="44.18576" lon="2.05598">
        <ele>261</ele>
        <time>2017-12-06T15:45:48Z</time>
      </trkpt>
      <trkpt lat="44.1858" lon="2.05599">
        <ele>262</ele>
        <time>2017-12-06T15:45:50Z</time>
      </trkpt>
      <trkpt lat="44.18583" lon="2.05601">
        <ele>262</ele>
        <time>2017-12-06T15:45:52Z</time>
      </trkpt>
      <trkpt lat="44.18584" lon="2.05602">
        <ele>262</ele>
        <time>2017-12-06T15:45:54Z</time>
      </trkpt>
      <trkpt lat="44.18586" lon="2.05604">
        <ele>262</ele>
        <time>2017-12-06T15:45:56Z</time>
      </trkpt>
      <trkpt lat="44.18589" lon="2.05606">
        <ele>262</ele>
        <time>2017-12-06T15:45:58Z</time>
      </trkpt>
      <trkpt lat="44.18592" lon="2.05609">
        <ele>262</ele>
        <time>2017-12-06T15:46:00Z</time>
      </trkpt>
      <trkpt lat="44.18594" lon="2.05612">
        <ele>261</ele>
        <time>2017-12-06T15:46:02Z</time>
      </trkpt>
      <trkpt lat="44.18596" lon="2.05616">
        <ele>261</ele>
        <time>2017-12-06T15:46:04Z</time>
      </trkpt>
      <trkpt lat="44.18597" lon="2.05618">
        <ele>260</ele>
        <time>2017-12-06T15:46:06Z</time>
      </trkpt>
      <trkpt lat="44.18597" lon="2.05623">
        <ele>260</ele>
        <time>2017-12-06T15:46:08Z</time>
      </trkpt>
      <trkpt lat="44.18597" lon="2.05625">
        <ele>260</ele>
        <time>2017-12-06T15:46:10Z</time>
      </trkpt>
      <trkpt lat="44.186" lon="2.0563">
        <ele>259</ele>
        <time>2017-12-06T15:46:12Z</time>
      </trkpt>
      <trkpt lat="44.186" lon="2.05633">
        <ele>259</ele>
        <time>2017-12-06T15:46:14Z</time>
      </trkpt>
      <trkpt lat="44.18602" lon="2.05636">
        <ele>258</ele>
        <time>2017-12-06T15:46:16Z</time>
      </trkpt>
      <trkpt lat="44.18603" lon="2.05639">
        <ele>258</ele>
        <time>2017-12-06T15:46:18Z</time>
      </trkpt>
      <trkpt lat="44.18603" lon="2.05643">
        <ele>258</ele>
        <time>2017-12-06T15:46:20Z</time>
      </trkpt>
      <trkpt lat="44.18605" lon="2.05646">
        <ele>257</ele>
        <time>2017-12-06T15:46:22Z</time>
      </trkpt>
      <trkpt lat="44.18608" lon="2.05649">
        <ele>257</ele>
        <time>2017-12-06T15:46:24Z</time>
      </trkpt>
      <trkpt lat="44.18609" lon="2.05653">
        <ele>256</ele>
        <time>2017-12-06T15:46:26Z</time>
      </trkpt>
      <trkpt lat="44.18609" lon="2.05658">
        <ele>256</ele>
        <time>2017-12-06T15:46:28Z</time>
      </trkpt>
      <trkpt lat="44.18609" lon="2.05663">
        <ele>255</ele>
        <time>2017-12-06T15:46:30Z</time>
      </trkpt>
      <trkpt lat="44.1861" lon="2.05666">
        <ele>255</ele>
        <time>2017-12-06T15:46:32Z</time>
      </trkpt>
      <trkpt lat="44.18612" lon="2.05669">
        <ele>255</ele>
        <time>2017-12-06T15:46:34Z</time>
      </trkpt>
      <trkpt lat="44.18615" lon="2.05672">
        <ele>255</ele>
        <time>2017-12-06T15:46:36Z</time>
      </trkpt>
      <trkpt lat="44.18617" lon="2.05674">
        <ele>255</ele>
        <time>2017-12-06T15:46:38Z</time>
      </trkpt>
      <trkpt lat="44.18619" lon="2.05678">
        <ele>255</ele>
        <time>2017-12-06T15:46:40Z</time>
      </trkpt>
      <trkpt lat="44.18621" lon="2.0568">
        <ele>255</ele>
        <time>2017-12-06T15:46:42Z</time>
      </trkpt>
      <trkpt lat="44.18621" lon="2.0568">
        <ele>254</ele>
        <time>2017-12-06T15:46:44Z</time>
      </trkpt>
      <trkpt lat="44.18625" lon="2.05683">
        <ele>254</ele>
        <time>2017-12-06T15:46:46Z</time>
      </trkpt>
      <trkpt lat="44.18627" lon="2.05684">
        <ele>254</ele>
        <time>2017-12-06T15:46:48Z</time>
      </trkpt>
      <trkpt lat="44.1863" lon="2.05685">
        <ele>254</ele>
        <time>2017-12-06T15:46:50Z</time>
      </trkpt>
      <trkpt lat="44.18631" lon="2.05685">
        <ele>254</ele>
        <time>2017-12-06T15:46:52Z</time>
      </trkpt>
      <trkpt lat="44.18635" lon="2.05686">
        <ele>254</ele>
        <time>2017-12-06T15:46:54Z</time>
      </trkpt>
      <trkpt lat="44.18637" lon="2.05686">
        <ele>254</ele>
        <time>2017-12-06T15:46:56Z</time>
      </trkpt>
      <trkpt lat="44.18639" lon="2.05686">
        <ele>255</ele>
        <time>2017-12-06T15:46:58Z</time>
      </trkpt>
      <trkpt lat="44.18641" lon="2.05686">
        <ele>255</ele>
        <time>2017-12-06T15:47:00Z</time>
      </trkpt>
      <trkpt lat="44.18644" lon="2.05685">
        <ele>256</ele>
        <time>2017-12-06T15:47:02Z</time>
      </trkpt>
      <trkpt lat="44.18646" lon="2.05685">
        <ele>256</ele>
        <time>2017-12-06T15:47:04Z</time>
      </trkpt>
      <trkpt lat="44.18648" lon="2.05685">
        <ele>257</ele>
        <time>2017-12-06T15:47:06Z</time>
      </trkpt>
      <trkpt lat="44.1865" lon="2.05685">
        <ele>257</ele>
        <time>2017-12-06T15:47:08Z</time>
      </trkpt>
      <trkpt lat="44.18652" lon="2.05684">
        <ele>258</ele>
        <time>2017-12-06T15:47:10Z</time>
      </trkpt>
      <trkpt lat="44.18655" lon="2.05683">
        <ele>258</ele>
        <time>2017-12-06T15:47:12Z</time>
      </trkpt>
      <trkpt lat="44.18657" lon="2.05682">
        <ele>258</ele>
        <time>2017-12-06T15:47:14Z</time>
      </trkpt>
      <trkpt lat="44.1866" lon="2.05681">
        <ele>258</ele>
        <time>2017-12-06T15:47:16Z</time>
      </trkpt>
      <trkpt lat="44.18662" lon="2.0568">
        <ele>258</ele>
        <time>2017-12-06T15:47:18Z</time>
      </trkpt>
      <trkpt lat="44.18665" lon="2.05679">
        <ele>258</ele>
        <time>2017-12-06T15:47:20Z</time>
      </trkpt>
      <trkpt lat="44.18668" lon="2.05678">
        <ele>258</ele>
        <time>2017-12-06T15:47:22Z</time>
      </trkpt>
      <trkpt lat="44.18671" lon="2.05678">
        <ele>258</ele>
        <time>2017-12-06T15:47:24Z</time>
      </trkpt>
      <trkpt lat="44.18673" lon="2.05676">
        <ele>258</ele>
        <time>2017-12-06T15:47:26Z</time>
      </trkpt>
      <trkpt lat="44.18676" lon="2.05675">
        <ele>258</ele>
        <time>2017-12-06T15:47:28Z</time>
      </trkpt>
      <trkpt lat="44.18679" lon="2.05674">
        <ele>257</ele>
        <time>2017-12-06T15:47:30Z</time>
      </trkpt>
      <trkpt lat="44.18681" lon="2.05674">
        <ele>257</ele>
        <time>2017-12-06T15:47:32Z</time>
      </trkpt>
      <trkpt lat="44.18683" lon="2.05673">
        <ele>257</ele>
        <time>2017-12-06T15:47:34Z</time>
      </trkpt>
      <trkpt lat="44.18686" lon="2.05673">
        <ele>257</ele>
        <time>2017-12-06T15:47:36Z</time>
      </trkpt>
      <trkpt lat="44.18688" lon="2.05673">
        <ele>257</ele>
        <time>2017-12-06T15:47:38Z</time>
      </trkpt>
      <trkpt lat="44.1869" lon="2.05673">
        <ele>258</ele>
        <time>2017-12-06T15:47:40Z</time>
      </trkpt>
      <trkpt lat="44.18694" lon="2.05673">
        <ele>258</ele>
        <time>2017-12-06T15:47:42Z</time>
      </trkpt>
      <trkpt lat="44.18695" lon="2.05674">
        <ele>258</ele>
        <time>2017-12-06T15:47:44Z</time>
      </trkpt>
      <trkpt lat="44.18695" lon="2.05674">
        <ele>258</ele>
        <time>2017-12-06T15:47:46Z</time>
      </trkpt>
      <trkpt lat="44.187" lon="2.05675">
        <ele>259</ele>
        <time>2017-12-06T15:47:48Z</time>
      </trkpt>
      <trkpt lat="44.18702" lon="2.05676">
        <ele>259</ele>
        <time>2017-12-06T15:47:50Z</time>
      </trkpt>
      <trkpt lat="44.18704" lon="2.05677">
        <ele>260</ele>
        <time>2017-12-06T15:47:52Z</time>
      </trkpt>
      <trkpt lat="44.18707" lon="2.05678">
        <ele>260</ele>
        <time>2017-12-06T15:47:54Z</time>
      </trkpt>
      <trkpt lat="44.18709" lon="2.0568">
        <ele>261</ele>
        <time>2017-12-06T15:47:56Z</time>
      </trkpt>
      <trkpt lat="44.18712" lon="2.05682">
        <ele>261</ele>
        <time>2017-12-06T15:47:58Z</time>
      </trkpt>
      <trkpt lat="44.18715" lon="2.05685">
        <ele>261</ele>
        <time>2017-12-06T15:48:00Z</time>
      </trkpt>
      <trkpt lat="44.18718" lon="2.05687">
        <ele>261</ele>
        <time>2017-12-06T15:48:02Z</time>
      </trkpt>
      <trkpt lat="44.18721" lon="2.0569">
        <ele>261</ele>
        <time>2017-12-06T15:48:04Z</time>
      </trkpt>
      <trkpt lat="44.18723" lon="2.05692">
        <ele>261</ele>
        <time>2017-12-06T15:48:06Z</time>
      </trkpt>
      <trkpt lat="44.18726" lon="2.05695">
        <ele>261</ele>
        <time>2017-12-06T15:48:08Z</time>
      </trkpt>
      <trkpt lat="44.18727" lon="2.05699">
        <ele>261</ele>
        <time>2017-12-06T15:48:10Z</time>
      </trkpt>
      <trkpt lat="44.18729" lon="2.05702">
        <ele>261</ele>
        <time>2017-12-06T15:48:12Z</time>
      </trkpt>
      <trkpt lat="44.18731" lon="2.05706">
        <ele>260</ele>
        <time>2017-12-06T15:48:14Z</time>
      </trkpt>
      <trkpt lat="44.18732" lon="2.0571">
        <ele>260</ele>
        <time>2017-12-06T15:48:16Z</time>
      </trkpt>
      <trkpt lat="44.18733" lon="2.05713">
        <ele>260</ele>
        <time>2017-12-06T15:48:18Z</time>
      </trkpt>
      <trkpt lat="44.18734" lon="2.05717">
        <ele>260</ele>
        <time>2017-12-06T15:48:20Z</time>
      </trkpt>
      <trkpt lat="44.18734" lon="2.05721">
        <ele>260</ele>
        <time>2017-12-06T15:48:22Z</time>
      </trkpt>
      <trkpt lat="44.18736" lon="2.05724">
        <ele>260</ele>
        <time>2017-12-06T15:48:24Z</time>
      </trkpt>
      <trkpt lat="44.18737" lon="2.05727">
        <ele>259</ele>
        <time>2017-12-06T15:48:26Z</time>
      </trkpt>
      <trkpt lat="44.18738" lon="2.05731">
        <ele>259</ele>
        <time>2017-12-06T15:48:28Z</time>
      </trkpt>
      <trkpt lat="44.18739" lon="2.05735">
        <ele>259</ele>
        <time>2017-12-06T15:48:30Z</time>
      </trkpt>
      <trkpt lat="44.1874" lon="2.05738">
        <ele>259</ele>
        <time>2017-12-06T15:48:32Z</time>
      </trkpt>
      <trkpt lat="44.1874" lon="2.05742">
        <ele>259</ele>
        <time>2017-12-06T15:48:34Z</time>
      </trkpt>
      <trkpt lat="44.18741" lon="2.05745">
        <ele>259</ele>
        <time>2017-12-06T15:48:36Z</time>
      </trkpt>
      <trkpt lat="44.1874" lon="2.05749">
        <ele>259</ele>
        <time>2017-12-06T15:48:38Z</time>
      </trkpt>
      <trkpt lat="44.18741" lon="2.05753">
        <ele>259</ele>
        <time>2017-12-06T15:48:40Z</time>
      </trkpt>
      <trkpt lat="44.18741" lon="2.05756">
        <ele>259</ele>
        <time>2017-12-06T15:48:42Z</time>
      </trkpt>
      <trkpt lat="44.18742" lon="2.0576">
        <ele>260</ele>
        <time>2017-12-06T15:48:44Z</time>
      </trkpt>
      <trkpt lat="44.18743" lon="2.05763">
        <ele>260</ele>
        <time>2017-12-06T15:48:46Z</time>
      </trkpt>
      <trkpt lat="44.18744" lon="2.05767">
        <ele>260</ele>
        <time>2017-12-06T15:48:48Z</time>
      </trkpt>
      <trkpt lat="44.18744" lon="2.05771">
        <ele>260</ele>
        <time>2017-12-06T15:48:50Z</time>
      </trkpt>
      <trkpt lat="44.18746" lon="2.05774">
        <ele>260</ele>
        <time>2017-12-06T15:48:52Z</time>
      </trkpt>
      <trkpt lat="44.18747" lon="2.05778">
        <ele>260</ele>
        <time>2017-12-06T15:48:54Z</time>
      </trkpt>
      <trkpt lat="44.18748" lon="2.05781">
        <ele>260</ele>
        <time>2017-12-06T15:48:56Z</time>
      </trkpt>
      <trkpt lat="44.18748" lon="2.05785">
        <ele>260</ele>
        <time>2017-12-06T15:48:58Z</time>
      </trkpt>
      <trkpt lat="44.18748" lon="2.05789">
        <ele>260</ele>
        <time>2017-12-06T15:49:00Z</time>
      </trkpt>
      <trkpt lat="44.18747" lon="2.05793">
        <ele>260</ele>
        <time>2017-12-06T15:49:02Z</time>
      </trkpt>
      <trkpt lat="44.18746" lon="2.05796">
        <ele>260</ele>
        <time>2017-12-06T15:49:04Z</time>
      </trkpt>
      <trkpt lat="44.18747" lon="2.05799">
        <ele>260</ele>
        <time>2017-12-06T15:49:06Z</time>
      </trkpt>
      <trkpt lat="44.18748" lon="2.05803">
        <ele>260</ele>
        <time>2017-12-06T15:49:08Z</time>
      </trkpt>
      <trkpt lat="44.1875" lon="2.05807">
        <ele>259</ele>
        <time>2017-12-06T15:49:10Z</time>
      </trkpt>
      <trkpt lat="44.18751" lon="2.05811">
        <ele>259</ele>
        <time>2017-12-06T15:49:12Z</time>
      </trkpt>
      <trkpt lat="44.18752" lon="2.05815">
        <ele>259</ele>
        <time>2017-12-06T15:49:14Z</time>
      </trkpt>
      <trkpt lat="44.18753" lon="2.05819">
        <ele>259</ele>
        <time>2017-12-06T15:49:16Z</time>
      </trkpt>
      <trkpt lat="44.18753" lon="2.05824">
        <ele>259</ele>
        <time>2017-12-06T15:49:18Z</time>
      </trkpt>
      <trkpt lat="44.18753" lon="2.05828">
        <ele>259</ele>
        <time>2017-12-06T15:49:20Z</time>
      </trkpt>
      <trkpt lat="44.18754" lon="2.05831">
        <ele>259</ele>
        <time>2017-12-06T15:49:22Z</time>
      </trkpt>
      <trkpt lat="44.18754" lon="2.05835">
        <ele>259</ele>
        <time>2017-12-06T15:49:24Z</time>
      </trkpt>
      <trkpt lat="44.18753" lon="2.05839">
        <ele>259</ele>
        <time>2017-12-06T15:49:26Z</time>
      </trkpt>
      <trkpt lat="44.18753" lon="2.05844">
        <ele>259</ele>
        <time>2017-12-06T15:49:28Z</time>
      </trkpt>
      <trkpt lat="44.18752" lon="2.05848">
        <ele>259</ele>
        <time>2017-12-06T15:49:30Z</time>
      </trkpt>
      <trkpt lat="44.18752" lon="2.05852">
        <ele>259</ele>
        <time>2017-12-06T15:49:32Z</time>
      </trkpt>
      <trkpt lat="44.18751" lon="2.05856">
        <ele>259</ele>
        <time>2017-12-06T15:49:34Z</time>
      </trkpt>
      <trkpt lat="44.1875" lon="2.0586">
        <ele>259</ele>
        <time>2017-12-06T15:49:36Z</time>
      </trkpt>
      <trkpt lat="44.18749" lon="2.05864">
        <ele>259</ele>
        <time>2017-12-06T15:49:38Z</time>
      </trkpt>
      <trkpt lat="44.18748" lon="2.05868">
        <ele>260</ele>
        <time>2017-12-06T15:49:40Z</time>
      </trkpt>
      <trkpt lat="44.18747" lon="2.05871">
        <ele>260</ele>
        <time>2017-12-06T15:49:42Z</time>
      </trkpt>
      <trkpt lat="44.18746" lon="2.05875">
        <ele>260</ele>
        <time>2017-12-06T15:49:44Z</time>
      </trkpt>
      <trkpt lat="44.18746" lon="2.05878">
        <ele>260</ele>
        <time>2017-12-06T15:49:46Z</time>
      </trkpt>
      <trkpt lat="44.18747" lon="2.05881">
        <ele>260</ele>
        <time>2017-12-06T15:49:48Z</time>
      </trkpt>
      <trkpt lat="44.1875" lon="2.05883">
        <ele>260</ele>
        <time>2017-12-06T15:49:50Z</time>
      </trkpt>
      <trkpt lat="44.18749" lon="2.05888">
        <ele>259</ele>
        <time>2017-12-06T15:49:52Z</time>
      </trkpt>
      <trkpt lat="44.18748" lon="2.05892">
        <ele>259</ele>
        <time>2017-12-06T15:49:54Z</time>
      </trkpt>
      <trkpt lat="44.18748" lon="2.05896">
        <ele>258</ele>
        <time>2017-12-06T15:49:56Z</time>
      </trkpt>
      <trkpt lat="44.18749" lon="2.059">
        <ele>258</ele>
        <time>2017-12-06T15:49:58Z</time>
      </trkpt>
      <trkpt lat="44.1875" lon="2.05903">
        <ele>258</ele>
        <time>2017-12-06T15:50:00Z</time>
      </trkpt>
      <trkpt lat="44.18752" lon="2.05906">
        <ele>257</ele>
        <time>2017-12-06T15:50:02Z</time>
      </trkpt>
      <trkpt lat="44.18752" lon="2.05911">
        <ele>257</ele>
        <time>2017-12-06T15:50:04Z</time>
      </trkpt>
      <trkpt lat="44.18753" lon="2.05914">
        <ele>256</ele>
        <time>2017-12-06T15:50:06Z</time>
      </trkpt>
      <trkpt lat="44.18753" lon="2.05919">
        <ele>256</ele>
        <time>2017-12-06T15:50:08Z</time>
      </trkpt>
      <trkpt lat="44.18753" lon="2.05923">
        <ele>256</ele>
        <time>2017-12-06T15:50:10Z</time>
      </trkpt>
      <trkpt lat="44.18753" lon="2.05927">
        <ele>256</ele>
        <time>2017-12-06T15:50:12Z</time>
      </trkpt>
      <trkpt lat="44.18753" lon="2.05931">
        <ele>256</ele>
        <time>2017-12-06T15:50:14Z</time>
      </trkpt>
      <trkpt lat="44.18753" lon="2.05934">
        <ele>256</ele>
        <time>2017-12-06T15:50:16Z</time>
      </trkpt>
      <trkpt lat="44.18754" lon="2.05937">
        <ele>256</ele>
        <time>2017-12-06T15:50:18Z</time>
      </trkpt>
      <trkpt lat="44.18754" lon="2.05941">
        <ele>256</ele>
        <time>2017-12-06T15:50:20Z</time>
      </trkpt>
      <trkpt lat="44.18754" lon="2.05946">
        <ele>257</ele>
        <time>2017-12-06T15:50:22Z</time>
      </trkpt>
      <trkpt lat="44.18755" lon="2.0595">
        <ele>257</ele>
        <time>2017-12-06T15:50:24Z</time>
      </trkpt>
      <trkpt lat="44.18755" lon="2.05954">
        <ele>257</ele>
        <time>2017-12-06T15:50:26Z</time>
      </trkpt>
      <trkpt lat="44.18756" lon="2.05958">
        <ele>257</ele>
        <time>2017-12-06T15:50:28Z</time>
      </trkpt>
      <trkpt lat="44.18756" lon="2.05963">
        <ele>258</ele>
        <time>2017-12-06T15:50:30Z</time>
      </trkpt>
      <trkpt lat="44.18755" lon="2.05967">
        <ele>258</ele>
        <time>2017-12-06T15:50:32Z</time>
      </trkpt>
      <trkpt lat="44.18754" lon="2.05971">
        <ele>259</ele>
        <time>2017-12-06T15:50:34Z</time>
      </trkpt>
      <trkpt lat="44.18753" lon="2.05975">
        <ele>259</ele>
        <time>2017-12-06T15:50:36Z</time>
      </trkpt>
      <trkpt lat="44.18752" lon="2.05979">
        <ele>260</ele>
        <time>2017-12-06T15:50:38Z</time>
      </trkpt>
      <trkpt lat="44.18753" lon="2.05984">
        <ele>260</ele>
        <time>2017-12-06T15:50:40Z</time>
      </trkpt>
      <trkpt lat="44.18753" lon="2.05987">
        <ele>261</ele>
        <time>2017-12-06T15:50:42Z</time>
      </trkpt>
      <trkpt lat="44.18752" lon="2.05991">
        <ele>261</ele>
        <time>2017-12-06T15:50:44Z</time>
      </trkpt>
      <trkpt lat="44.18751" lon="2.05996">
        <ele>261</ele>
        <time>2017-12-06T15:50:46Z</time>
      </trkpt>
      <trkpt lat="44.18751" lon="2.06">
        <ele>261</ele>
        <time>2017-12-06T15:50:48Z</time>
      </trkpt>
      <trkpt lat="44.1875" lon="2.06004">
        <ele>262</ele>
        <time>2017-12-06T15:50:50Z</time>
      </trkpt>
      <trkpt lat="44.18749" lon="2.0601">
        <ele>262</ele>
        <time>2017-12-06T15:50:52Z</time>
      </trkpt>
      <trkpt lat="44.18754" lon="2.06013">
        <ele>262</ele>
        <time>2017-12-06T15:50:54Z</time>
      </trkpt>
      <trkpt lat="44.18755" lon="2.06017">
        <ele>262</ele>
        <time>2017-12-06T15:50:56Z</time>
      </trkpt>
      <trkpt lat="44.18755" lon="2.0602">
        <ele>262</ele>
        <time>2017-12-06T15:50:58Z</time>
      </trkpt>
      <trkpt lat="44.18756" lon="2.06023">
        <ele>262</ele>
        <time>2017-12-06T15:51:00Z</time>
      </trkpt>
      <trkpt lat="44.18758" lon="2.06025">
        <ele>262</ele>
        <time>2017-12-06T15:51:02Z</time>
      </trkpt>
      <trkpt lat="44.18757" lon="2.06028">
        <ele>262</ele>
        <time>2017-12-06T15:51:04Z</time>
      </trkpt>
      <trkpt lat="44.18756" lon="2.06032">
        <ele>262</ele>
        <time>2017-12-06T15:51:06Z</time>
      </trkpt>
      <trkpt lat="44.18757" lon="2.06035">
        <ele>261</ele>
        <time>2017-12-06T15:51:08Z</time>
      </trkpt>
      <trkpt lat="44.18757" lon="2.0604">
        <ele>260</ele>
        <time>2017-12-06T15:51:10Z</time>
      </trkpt>
      <trkpt lat="44.18755" lon="2.06045">
        <ele>259</ele>
        <time>2017-12-06T15:51:12Z</time>
      </trkpt>
      <trkpt lat="44.18755" lon="2.06048">
        <ele>258</ele>
        <time>2017-12-06T15:51:14Z</time>
      </trkpt>
      <trkpt lat="44.18756" lon="2.0605">
        <ele>257</ele>
        <time>2017-12-06T15:51:16Z</time>
      </trkpt>
      <trkpt lat="44.18756" lon="2.06053">
        <ele>256</ele>
        <time>2017-12-06T15:51:18Z</time>
      </trkpt>
      <trkpt lat="44.18755" lon="2.06057">
        <ele>255</ele>
        <time>2017-12-06T15:51:20Z</time>
      </trkpt>
      <trkpt lat="44.18755" lon="2.0606">
        <ele>255</ele>
        <time>2017-12-06T15:51:22Z</time>
      </trkpt>
      <trkpt lat="44.18754" lon="2.06064">
        <ele>256</ele>
        <time>2017-12-06T15:51:24Z</time>
      </trkpt>
      <trkpt lat="44.18751" lon="2.06069">
        <ele>256</ele>
        <time>2017-12-06T15:51:26Z</time>
      </trkpt>
      <trkpt lat="44.18747" lon="2.06074">
        <ele>256</ele>
        <time>2017-12-06T15:51:28Z</time>
      </trkpt>
      <trkpt lat="44.18745" lon="2.06078">
        <ele>256</ele>
        <time>2017-12-06T15:51:30Z</time>
      </trkpt>
      <trkpt lat="44.18745" lon="2.06081">
        <ele>256</ele>
        <time>2017-12-06T15:51:32Z</time>
      </trkpt>
      <trkpt lat="44.18745" lon="2.06084">
        <ele>257</ele>
        <time>2017-12-06T15:51:34Z</time>
      </trkpt>
      <trkpt lat="44.18744" lon="2.06088">
        <ele>257</ele>
        <time>2017-12-06T15:51:36Z</time>
      </trkpt>
      <trkpt lat="44.18742" lon="2.06092">
        <ele>257</ele>
        <time>2017-12-06T15:51:38Z</time>
      </trkpt>
      <trkpt lat="44.18742" lon="2.06095">
        <ele>257</ele>
        <time>2017-12-06T15:51:40Z</time>
      </trkpt>
      <trkpt lat="44.18741" lon="2.06098">
        <ele>256</ele>
        <time>2017-12-06T15:51:42Z</time>
      </trkpt>
      <trkpt lat="44.18741" lon="2.061">
        <ele>256</ele>
        <time>2017-12-06T15:51:44Z</time>
      </trkpt>
      <trkpt lat="44.18739" lon="2.06104">
        <ele>256</ele>
        <time>2017-12-06T15:51:46Z</time>
      </trkpt>
      <trkpt lat="44.18738" lon="2.06107">
        <ele>256</ele>
        <time>2017-12-06T15:51:48Z</time>
      </trkpt>
      <trkpt lat="44.18739" lon="2.0611">
        <ele>255</ele>
        <time>2017-12-06T15:51:50Z</time>
      </trkpt>
      <trkpt lat="44.18739" lon="2.06113">
        <ele>255</ele>
        <time>2017-12-06T15:51:52Z</time>
      </trkpt>
      <trkpt lat="44.18736" lon="2.06117">
        <ele>255</ele>
        <time>2017-12-06T15:51:54Z</time>
      </trkpt>
      <trkpt lat="44.18734" lon="2.06121">
        <ele>254</ele>
        <time>2017-12-06T15:51:56Z</time>
      </trkpt>
      <trkpt lat="44.18731" lon="2.06127">
        <ele>254</ele>
        <time>2017-12-06T15:51:58Z</time>
      </trkpt>
      <trkpt lat="44.1873" lon="2.06131">
        <ele>254</ele>
        <time>2017-12-06T15:52:00Z</time>
      </trkpt>
      <trkpt lat="44.18729" lon="2.06133">
        <ele>253</ele>
        <time>2017-12-06T15:52:02Z</time>
      </trkpt>
      <trkpt lat="44.18728" lon="2.06137">
        <ele>253</ele>
        <time>2017-12-06T15:52:04Z</time>
      </trkpt>
      <trkpt lat="44.18728" lon="2.0614">
        <ele>253</ele>
        <time>2017-12-06T15:52:06Z</time>
      </trkpt>
      <trkpt lat="44.18727" lon="2.06143">
        <ele>253</ele>
        <time>2017-12-06T15:52:08Z</time>
      </trkpt>
      <trkpt lat="44.18726" lon="2.06146">
        <ele>253</ele>
        <time>2017-12-06T15:52:10Z</time>
      </trkpt>
      <trkpt lat="44.18725" lon="2.06149">
        <ele>253</ele>
        <time>2017-12-06T15:52:12Z</time>
      </trkpt>
      <trkpt lat="44.18725" lon="2.06151">
        <ele>253</ele>
        <time>2017-12-06T15:52:14Z</time>
      </trkpt>
      <trkpt lat="44.18725" lon="2.06151">
        <ele>253</ele>
        <time>2017-12-06T15:52:16Z</time>
      </trkpt>
      <trkpt lat="44.18722" lon="2.06155">
        <ele>253</ele>
        <time>2017-12-06T15:52:18Z</time>
      </trkpt>
      <trkpt lat="44.18719" lon="2.06158">
        <ele>253</ele>
        <time>2017-12-06T15:52:20Z</time>
      </trkpt>
      <trkpt lat="44.18718" lon="2.0616">
        <ele>253</ele>
        <time>2017-12-06T15:52:22Z</time>
      </trkpt>
      <trkpt lat="44.18717" lon="2.06162">
        <ele>253</ele>
        <time>2017-12-06T15:52:24Z</time>
      </trkpt>
      <trkpt lat="44.18713" lon="2.06166">
        <ele>254</ele>
        <time>2017-12-06T15:52:26Z</time>
      </trkpt>
      <trkpt lat="44.18712" lon="2.06169">
        <ele>254</ele>
        <time>2017-12-06T15:52:28Z</time>
      </trkpt>
      <trkpt lat="44.18712" lon="2.06169">
        <ele>254</ele>
        <time>2017-12-06T15:52:30Z</time>
      </trkpt>
      <trkpt lat="44.18709" lon="2.06173">
        <ele>254</ele>
        <time>2017-12-06T15:52:32Z</time>
      </trkpt>
      <trkpt lat="44.18709" lon="2.06175">
        <ele>253</ele>
        <time>2017-12-06T15:52:34Z</time>
      </trkpt>
      <trkpt lat="44.18707" lon="2.0618">
        <ele>253</ele>
        <time>2017-12-06T15:52:36Z</time>
      </trkpt>
      <trkpt lat="44.18705" lon="2.06184">
        <ele>253</ele>
        <time>2017-12-06T15:52:38Z</time>
      </trkpt>
      <trkpt lat="44.18704" lon="2.06188">
        <ele>253</ele>
        <time>2017-12-06T15:52:40Z</time>
      </trkpt>
      <trkpt lat="44.18703" lon="2.0619">
        <ele>253</ele>
        <time>2017-12-06T15:52:42Z</time>
      </trkpt>
      <trkpt lat="44.18702" lon="2.06195">
        <ele>252</ele>
        <time>2017-12-06T15:52:44Z</time>
      </trkpt>
      <trkpt lat="44.18699" lon="2.06202">
        <ele>252</ele>
        <time>2017-12-06T15:52:46Z</time>
      </trkpt>
      <trkpt lat="44.18697" lon="2.06207">
        <ele>253</ele>
        <time>2017-12-06T15:52:48Z</time>
      </trkpt>
      <trkpt lat="44.18696" lon="2.0621">
        <ele>253</ele>
        <time>2017-12-06T15:52:50Z</time>
      </trkpt>
      <trkpt lat="44.18696" lon="2.06212">
        <ele>254</ele>
        <time>2017-12-06T15:52:52Z</time>
      </trkpt>
      <trkpt lat="44.18697" lon="2.06218">
        <ele>255</ele>
        <time>2017-12-06T15:52:54Z</time>
      </trkpt>
      <trkpt lat="44.18697" lon="2.06223">
        <ele>255</ele>
        <time>2017-12-06T15:52:56Z</time>
      </trkpt>
      <trkpt lat="44.18698" lon="2.06228">
        <ele>256</ele>
        <time>2017-12-06T15:52:58Z</time>
      </trkpt>
      <trkpt lat="44.18697" lon="2.06233">
        <ele>257</ele>
        <time>2017-12-06T15:53:00Z</time>
      </trkpt>
      <trkpt lat="44.18698" lon="2.06237">
        <ele>258</ele>
        <time>2017-12-06T15:53:02Z</time>
      </trkpt>
      <trkpt lat="44.187" lon="2.0624">
        <ele>259</ele>
        <time>2017-12-06T15:53:04Z</time>
      </trkpt>
      <trkpt lat="44.18702" lon="2.06243">
        <ele>260</ele>
        <time>2017-12-06T15:53:06Z</time>
      </trkpt>
      <trkpt lat="44.18704" lon="2.06246">
        <ele>261</ele>
        <time>2017-12-06T15:53:08Z</time>
      </trkpt>
      <trkpt lat="44.18705" lon="2.06249">
        <ele>262</ele>
        <time>2017-12-06T15:53:10Z</time>
      </trkpt>
      <trkpt lat="44.18707" lon="2.06252">
        <ele>263</ele>
        <time>2017-12-06T15:53:12Z</time>
      </trkpt>
      <trkpt lat="44.18708" lon="2.06254">
        <ele>264</ele>
        <time>2017-12-06T15:53:14Z</time>
      </trkpt>
      <trkpt lat="44.18711" lon="2.06258">
        <ele>264</ele>
        <time>2017-12-06T15:53:16Z</time>
      </trkpt>
      <trkpt lat="44.18712" lon="2.0626">
        <ele>264</ele>
        <time>2017-12-06T15:53:18Z</time>
      </trkpt>
      <trkpt lat="44.18715" lon="2.06261">
        <ele>263</ele>
        <time>2017-12-06T15:53:20Z</time>
      </trkpt>
      <trkpt lat="44.18717" lon="2.06263">
        <ele>263</ele>
        <time>2017-12-06T15:53:22Z</time>
      </trkpt>
      <trkpt lat="44.18719" lon="2.06267">
        <ele>263</ele>
        <time>2017-12-06T15:53:24Z</time>
      </trkpt>
      <trkpt lat="44.18722" lon="2.0627">
        <ele>262</ele>
        <time>2017-12-06T15:53:26Z</time>
      </trkpt>
      <trkpt lat="44.18723" lon="2.06273">
        <ele>262</ele>
        <time>2017-12-06T15:53:28Z</time>
      </trkpt>
      <trkpt lat="44.18724" lon="2.06275">
        <ele>262</ele>
        <time>2017-12-06T15:53:30Z</time>
      </trkpt>
      <trkpt lat="44.18725" lon="2.06279">
        <ele>261</ele>
        <time>2017-12-06T15:53:32Z</time>
      </trkpt>
      <trkpt lat="44.18724" lon="2.06282">
        <ele>261</ele>
        <time>2017-12-06T15:53:34Z</time>
      </trkpt>
      <trkpt lat="44.18724" lon="2.06286">
        <ele>261</ele>
        <time>2017-12-06T15:53:36Z</time>
      </trkpt>
      <trkpt lat="44.18725" lon="2.06289">
        <ele>261</ele>
        <time>2017-12-06T15:53:38Z</time>
      </trkpt>
      <trkpt lat="44.18729" lon="2.06291">
        <ele>261</ele>
        <time>2017-12-06T15:53:40Z</time>
      </trkpt>
      <trkpt lat="44.1873" lon="2.06294">
        <ele>261</ele>
        <time>2017-12-06T15:53:42Z</time>
      </trkpt>
      <trkpt lat="44.18731" lon="2.06298">
        <ele>261</ele>
        <time>2017-12-06T15:53:44Z</time>
      </trkpt>
      <trkpt lat="44.18732" lon="2.06301">
        <ele>261</ele>
        <time>2017-12-06T15:53:46Z</time>
      </trkpt>
      <trkpt lat="44.18734" lon="2.06304">
        <ele>260</ele>
        <time>2017-12-06T15:53:48Z</time>
      </trkpt>
      <trkpt lat="44.18735" lon="2.06307">
        <ele>260</ele>
        <time>2017-12-06T15:53:50Z</time>
      </trkpt>
      <trkpt lat="44.18736" lon="2.06311">
        <ele>260</ele>
        <time>2017-12-06T15:53:52Z</time>
      </trkpt>
      <trkpt lat="44.18737" lon="2.06315">
        <ele>259</ele>
        <time>2017-12-06T15:53:54Z</time>
      </trkpt>
      <trkpt lat="44.18738" lon="2.06318">
        <ele>259</ele>
        <time>2017-12-06T15:53:56Z</time>
      </trkpt>
      <trkpt lat="44.18737" lon="2.06322">
        <ele>259</ele>
        <time>2017-12-06T15:53:58Z</time>
      </trkpt>
      <trkpt lat="44.18738" lon="2.06326">
        <ele>259</ele>
        <time>2017-12-06T15:54:00Z</time>
      </trkpt>
      <trkpt lat="44.18738" lon="2.06331">
        <ele>259</ele>
        <time>2017-12-06T15:54:02Z</time>
      </trkpt>
      <trkpt lat="44.18739" lon="2.06333">
        <ele>259</ele>
        <time>2017-12-06T15:54:04Z</time>
      </trkpt>
      <trkpt lat="44.18742" lon="2.06336">
        <ele>259</ele>
        <time>2017-12-06T15:54:06Z</time>
      </trkpt>
      <trkpt lat="44.1874" lon="2.06342">
        <ele>259</ele>
        <time>2017-12-06T15:54:08Z</time>
      </trkpt>
      <trkpt lat="44.18739" lon="2.06344">
        <ele>259</ele>
        <time>2017-12-06T15:54:10Z</time>
      </trkpt>
      <trkpt lat="44.1874" lon="2.06347">
        <ele>259</ele>
        <time>2017-12-06T15:54:12Z</time>
      </trkpt>
      <trkpt lat="44.18738" lon="2.06353">
        <ele>259</ele>
        <time>2017-12-06T15:54:14Z</time>
      </trkpt>
      <trkpt lat="44.18739" lon="2.06357">
        <ele>259</ele>
        <time>2017-12-06T15:54:16Z</time>
      </trkpt>
      <trkpt lat="44.18739" lon="2.06361">
        <ele>259</ele>
        <time>2017-12-06T15:54:18Z</time>
      </trkpt>
      <trkpt lat="44.1874" lon="2.06365">
        <ele>259</ele>
        <time>2017-12-06T15:54:20Z</time>
      </trkpt>
      <trkpt lat="44.18742" lon="2.06368">
        <ele>260</ele>
        <time>2017-12-06T15:54:22Z</time>
      </trkpt>
      <trkpt lat="44.18744" lon="2.06371">
        <ele>260</ele>
        <time>2017-12-06T15:54:24Z</time>
      </trkpt>
      <trkpt lat="44.18745" lon="2.06376">
        <ele>260</ele>
        <time>2017-12-06T15:54:26Z</time>
      </trkpt>
      <trkpt lat="44.18743" lon="2.06381">
        <ele>260</ele>
        <time>2017-12-06T15:54:28Z</time>
      </trkpt>
      <trkpt lat="44.18747" lon="2.06383">
        <ele>260</ele>
        <time>2017-12-06T15:54:30Z</time>
      </trkpt>
      <trkpt lat="44.18749" lon="2.06387">
        <ele>260</ele>
        <time>2017-12-06T15:54:32Z</time>
      </trkpt>
      <trkpt lat="44.18749" lon="2.0639">
        <ele>260</ele>
        <time>2017-12-06T15:54:34Z</time>
      </trkpt>
      <trkpt lat="44.1875" lon="2.06394">
        <ele>260</ele>
        <time>2017-12-06T15:54:36Z</time>
      </trkpt>
      <trkpt lat="44.18752" lon="2.06397">
        <ele>260</ele>
        <time>2017-12-06T15:54:38Z</time>
      </trkpt>
      <trkpt lat="44.18752" lon="2.06402">
        <ele>260</ele>
        <time>2017-12-06T15:54:40Z</time>
      </trkpt>
      <trkpt lat="44.18754" lon="2.06406">
        <ele>261</ele>
        <time>2017-12-06T15:54:42Z</time>
      </trkpt>
      <trkpt lat="44.18755" lon="2.0641">
        <ele>261</ele>
        <time>2017-12-06T15:54:44Z</time>
      </trkpt>
      <trkpt lat="44.18756" lon="2.06412">
        <ele>261</ele>
        <time>2017-12-06T15:54:46Z</time>
      </trkpt>
      <trkpt lat="44.18756" lon="2.06416">
        <ele>261</ele>
        <time>2017-12-06T15:54:48Z</time>
      </trkpt>
      <trkpt lat="44.18756" lon="2.06416">
        <ele>261</ele>
        <time>2017-12-06T15:54:50Z</time>
      </trkpt>
      <trkpt lat="44.18756" lon="2.06416">
        <ele>262</ele>
        <time>2017-12-06T15:54:52Z</time>
      </trkpt>
      <trkpt lat="44.18756" lon="2.06416">
        <ele>262</ele>
        <time>2017-12-06T15:54:54Z</time>
      </trkpt>
      <trkpt lat="44.18763" lon="2.06423">
        <ele>263</ele>
        <time>2017-12-06T15:54:56Z</time>
      </trkpt>
      <trkpt lat="44.18765" lon="2.06426">
        <ele>264</ele>
        <time>2017-12-06T15:54:58Z</time>
      </trkpt>
      <trkpt lat="44.18765" lon="2.06428">
        <ele>264</ele>
        <time>2017-12-06T15:55:00Z</time>
      </trkpt>
      <trkpt lat="44.18767" lon="2.06432">
        <ele>265</ele>
        <time>2017-12-06T15:55:02Z</time>
      </trkpt>
      <trkpt lat="44.18768" lon="2.06434">
        <ele>265</ele>
        <time>2017-12-06T15:55:04Z</time>
      </trkpt>
      <trkpt lat="44.18769" lon="2.06438">
        <ele>266</ele>
        <time>2017-12-06T15:55:06Z</time>
      </trkpt>
      <trkpt lat="44.18773" lon="2.06441">
        <ele>266</ele>
        <time>2017-12-06T15:55:08Z</time>
      </trkpt>
      <trkpt lat="44.18773" lon="2.06445">
        <ele>265</ele>
        <time>2017-12-06T15:55:10Z</time>
      </trkpt>
      <trkpt lat="44.18775" lon="2.06448">
        <ele>264</ele>
        <time>2017-12-06T15:55:12Z</time>
      </trkpt>
      <trkpt lat="44.18775" lon="2.06451">
        <ele>264</ele>
        <time>2017-12-06T15:55:14Z</time>
      </trkpt>
      <trkpt lat="44.18775" lon="2.06455">
        <ele>263</ele>
        <time>2017-12-06T15:55:16Z</time>
      </trkpt>
      <trkpt lat="44.18776" lon="2.06458">
        <ele>262</ele>
        <time>2017-12-06T15:55:18Z</time>
      </trkpt>
      <trkpt lat="44.18776" lon="2.06461">
        <ele>262</ele>
        <time>2017-12-06T15:55:20Z</time>
      </trkpt>
      <trkpt lat="44.18779" lon="2.06463">
        <ele>261</ele>
        <time>2017-12-06T15:55:22Z</time>
      </trkpt>
      <trkpt lat="44.18779" lon="2.06467">
        <ele>261</ele>
        <time>2017-12-06T15:55:24Z</time>
      </trkpt>
      <trkpt lat="44.18779" lon="2.0647">
        <ele>261</ele>
        <time>2017-12-06T15:55:26Z</time>
      </trkpt>
      <trkpt lat="44.18778" lon="2.06474">
        <ele>262</ele>
        <time>2017-12-06T15:55:28Z</time>
      </trkpt>
      <trkpt lat="44.18778" lon="2.06477">
        <ele>262</ele>
        <time>2017-12-06T15:55:30Z</time>
      </trkpt>
      <trkpt lat="44.18778" lon="2.06481">
        <ele>262</ele>
        <time>2017-12-06T15:55:32Z</time>
      </trkpt>
      <trkpt lat="44.18778" lon="2.06485">
        <ele>263</ele>
        <time>2017-12-06T15:55:34Z</time>
      </trkpt>
      <trkpt lat="44.18779" lon="2.06488">
        <ele>263</ele>
        <time>2017-12-06T15:55:36Z</time>
      </trkpt>
      <trkpt lat="44.18779" lon="2.06492">
        <ele>263</ele>
        <time>2017-12-06T15:55:38Z</time>
      </trkpt>
      <trkpt lat="44.18779" lon="2.06495">
        <ele>263</ele>
        <time>2017-12-06T15:55:40Z</time>
      </trkpt>
      <trkpt lat="44.1878" lon="2.065">
        <ele>264</ele>
        <time>2017-12-06T15:55:42Z</time>
      </trkpt>
      <trkpt lat="44.1878" lon="2.06503">
        <ele>264</ele>
        <time>2017-12-06T15:55:44Z</time>
      </trkpt>
      <trkpt lat="44.18781" lon="2.06506">
        <ele>264</ele>
        <time>2017-12-06T15:55:46Z</time>
      </trkpt>
      <trkpt lat="44.18783" lon="2.0651">
        <ele>264</ele>
        <time>2017-12-06T15:55:48Z</time>
      </trkpt>
      <trkpt lat="44.18785" lon="2.06512">
        <ele>265</ele>
        <time>2017-12-06T15:55:50Z</time>
      </trkpt>
      <trkpt lat="44.18785" lon="2.06515">
        <ele>265</ele>
        <time>2017-12-06T15:55:52Z</time>
      </trkpt>
      <trkpt lat="44.18787" lon="2.06519">
        <ele>265</ele>
        <time>2017-12-06T15:55:54Z</time>
      </trkpt>
      <trkpt lat="44.18788" lon="2.06522">
        <ele>265</ele>
        <time>2017-12-06T15:55:56Z</time>
      </trkpt>
      <trkpt lat="44.18789" lon="2.06527">
        <ele>265</ele>
        <time>2017-12-06T15:55:58Z</time>
      </trkpt>
      <trkpt lat="44.18792" lon="2.0653">
        <ele>265</ele>
        <time>2017-12-06T15:56:00Z</time>
      </trkpt>
      <trkpt lat="44.18793" lon="2.06534">
        <ele>266</ele>
        <time>2017-12-06T15:56:02Z</time>
      </trkpt>
      <trkpt lat="44.18793" lon="2.06537">
        <ele>266</ele>
        <time>2017-12-06T15:56:04Z</time>
      </trkpt>
      <trkpt lat="44.18793" lon="2.06541">
        <ele>266</ele>
        <time>2017-12-06T15:56:06Z</time>
      </trkpt>
      <trkpt lat="44.18794" lon="2.06544">
        <ele>267</ele>
        <time>2017-12-06T15:56:08Z</time>
      </trkpt>
      <trkpt lat="44.18794" lon="2.06547">
        <ele>267</ele>
        <time>2017-12-06T15:56:10Z</time>
      </trkpt>
      <trkpt lat="44.18795" lon="2.06551">
        <ele>267</ele>
        <time>2017-12-06T15:56:12Z</time>
      </trkpt>
      <trkpt lat="44.18795" lon="2.06554">
        <ele>267</ele>
        <time>2017-12-06T15:56:14Z</time>
      </trkpt>
      <trkpt lat="44.18795" lon="2.06558">
        <ele>266</ele>
        <time>2017-12-06T15:56:16Z</time>
      </trkpt>
      <trkpt lat="44.18796" lon="2.06561">
        <ele>266</ele>
        <time>2017-12-06T15:56:18Z</time>
      </trkpt>
      <trkpt lat="44.18796" lon="2.06565">
        <ele>266</ele>
        <time>2017-12-06T15:56:20Z</time>
      </trkpt>
      <trkpt lat="44.18797" lon="2.06569">
        <ele>265</ele>
        <time>2017-12-06T15:56:22Z</time>
      </trkpt>
      <trkpt lat="44.18797" lon="2.06573">
        <ele>265</ele>
        <time>2017-12-06T15:56:24Z</time>
      </trkpt>
      <trkpt lat="44.18799" lon="2.06577">
        <ele>266</ele>
        <time>2017-12-06T15:56:26Z</time>
      </trkpt>
      <trkpt lat="44.18799" lon="2.06581">
        <ele>266</ele>
        <time>2017-12-06T15:56:28Z</time>
      </trkpt>
      <trkpt lat="44.18799" lon="2.06585">
        <ele>266</ele>
        <time>2017-12-06T15:56:30Z</time>
      </trkpt>
      <trkpt lat="44.18799" lon="2.06588">
        <ele>266</ele>
        <time>2017-12-06T15:56:32Z</time>
      </trkpt>
      <trkpt lat="44.18795" lon="2.06593">
        <ele>267</ele>
        <time>2017-12-06T15:56:34Z</time>
      </trkpt>
      <trkpt lat="44.18795" lon="2.06598">
        <ele>267</ele>
        <time>2017-12-06T15:56:36Z</time>
      </trkpt>
      <trkpt lat="44.18796" lon="2.06602">
        <ele>268</ele>
        <time>2017-12-06T15:56:38Z</time>
      </trkpt>
      <trkpt lat="44.18796" lon="2.06605">
        <ele>268</ele>
        <time>2017-12-06T15:56:40Z</time>
      </trkpt>
      <trkpt lat="44.18797" lon="2.06609">
        <ele>269</ele>
        <time>2017-12-06T15:56:42Z</time>
      </trkpt>
      <trkpt lat="44.18797" lon="2.06614">
        <ele>270</ele>
        <time>2017-12-06T15:56:44Z</time>
      </trkpt>
      <trkpt lat="44.18798" lon="2.06617">
        <ele>270</ele>
        <time>2017-12-06T15:56:46Z</time>
      </trkpt>
      <trkpt lat="44.18799" lon="2.06621">
        <ele>271</ele>
        <time>2017-12-06T15:56:48Z</time>
      </trkpt>
      <trkpt lat="44.18799" lon="2.06624">
        <ele>271</ele>
        <time>2017-12-06T15:56:50Z</time>
      </trkpt>
      <trkpt lat="44.18798" lon="2.06628">
        <ele>271</ele>
        <time>2017-12-06T15:56:52Z</time>
      </trkpt>
      <trkpt lat="44.18799" lon="2.06631">
        <ele>271</ele>
        <time>2017-12-06T15:56:54Z</time>
      </trkpt>
      <trkpt lat="44.18798" lon="2.06634">
        <ele>271</ele>
        <time>2017-12-06T15:56:56Z</time>
      </trkpt>
      <trkpt lat="44.18797" lon="2.06638">
        <ele>271</ele>
        <time>2017-12-06T15:56:58Z</time>
      </trkpt>
      <trkpt lat="44.18797" lon="2.06642">
        <ele>271</ele>
        <time>2017-12-06T15:57:00Z</time>
      </trkpt>
      <trkpt lat="44.18796" lon="2.06646">
        <ele>272</ele>
        <time>2017-12-06T15:57:02Z</time>
      </trkpt>
      <trkpt lat="44.18796" lon="2.0665">
        <ele>272</ele>
        <time>2017-12-06T15:57:04Z</time>
      </trkpt>
      <trkpt lat="44.18795" lon="2.06653">
        <ele>272</ele>
        <time>2017-12-06T15:57:06Z</time>
      </trkpt>
      <trkpt lat="44.18795" lon="2.06657">
        <ele>272</ele>
        <time>2017-12-06T15:57:08Z</time>
      </trkpt>
      <trkpt lat="44.18794" lon="2.06661">
        <ele>272</ele>
        <time>2017-12-06T15:57:10Z</time>
      </trkpt>
      <trkpt lat="44.18794" lon="2.06668">
        <ele>272</ele>
        <time>2017-12-06T15:57:12Z</time>
      </trkpt>
      <trkpt lat="44.18793" lon="2.06675">
        <ele>272</ele>
        <time>2017-12-06T15:57:14Z</time>
      </trkpt>
      <trkpt lat="44.18793" lon="2.06681">
        <ele>272</ele>
        <time>2017-12-06T15:57:16Z</time>
      </trkpt>
      <trkpt lat="44.18792" lon="2.06684">
        <ele>272</ele>
        <time>2017-12-06T15:57:18Z</time>
      </trkpt>
      <trkpt lat="44.1879" lon="2.06689">
        <ele>271</ele>
        <time>2017-12-06T15:57:20Z</time>
      </trkpt>
      <trkpt lat="44.1879" lon="2.0669">
        <ele>271</ele>
        <time>2017-12-06T15:57:22Z</time>
      </trkpt>
      <trkpt lat="44.18788" lon="2.06693">
        <ele>271</ele>
        <time>2017-12-06T15:57:24Z</time>
      </trkpt>
      <trkpt lat="44.18787" lon="2.06694">
        <ele>271</ele>
        <time>2017-12-06T15:57:26Z</time>
      </trkpt>
      <trkpt lat="44.18787" lon="2.06694">
        <ele>271</ele>
        <time>2017-12-06T15:57:28Z</time>
      </trkpt>
    </trkseg>
  </trk>
</gpx>